<?xml version='1.0' encoding='UTF-8'?><gpx version="1.1" creator="JPX - https://github.com/jenetics/jpx" xmlns="http://www.topografix.com/GPX/1/1"><trk><trkseg><trkpt lat="36.91307335712019" lon="15.151660002617874"><ele>10.0</ele><time>2026-04-11T13:30:02Z</time></trkpt><trkpt lat="36.91300896168065" lon="15.1517747374007"><ele>10.0</ele><time>2026-04-11T13:30:05Z</time></trkpt><trkpt lat="36.91297066013021" lon="15.15185198715506"><ele>10.0</ele><time>2026-04-11T13:30:06Z</time></trkpt><trkpt lat="36.912922817545876" lon="15.151928477781224"><ele>10.0</ele><time>2026-04-11T13:30:07Z</time></trkpt><trkpt lat="36.91289020764433" lon="15.152004997234153"><ele>10.0</ele><time>2026-04-11T13:30:08Z</time></trkpt><trkpt lat="36.91281834444673" lon="15.15210816280094"><ele>10.0</ele><time>2026-04-11T13:30:10Z</time></trkpt><trkpt lat="36.91272191729458" lon="15.152109535262435"><ele>10.0</ele><time>2026-04-11T13:30:12Z</time></trkpt><trkpt lat="36.91265848852615" lon="15.152080728487261"><ele>10.0</ele><time>2026-04-11T13:30:13Z</time></trkpt><trkpt lat="36.91256791652931" lon="15.15203303326384"><ele>10.0</ele><time>2026-04-11T13:30:14Z</time></trkpt><trkpt lat="36.912468821073446" lon="15.151975108627065"><ele>10.0</ele><time>2026-04-11T13:30:15Z</time></trkpt><trkpt lat="36.91236553488224" lon="15.151912635639622"><ele>10.0</ele><time>2026-04-11T13:30:16Z</time></trkpt><trkpt lat="36.91226306937656" lon="15.151849026132908"><ele>9.6</ele><time>2026-04-11T13:30:17Z</time></trkpt><trkpt lat="36.91215870225954" lon="15.151785283991638"><ele>9.2</ele><time>2026-04-11T13:30:18Z</time></trkpt><trkpt lat="36.912058460136315" lon="15.151729402510005"><ele>8.8</ele><time>2026-04-11T13:30:19Z</time></trkpt><trkpt lat="36.911957664923804" lon="15.1516769258728"><ele>8.4</ele><time>2026-04-11T13:30:20Z</time></trkpt><trkpt lat="36.911865870213596" lon="15.151626165698735"><ele>8.0</ele><time>2026-04-11T13:30:21Z</time></trkpt><trkpt lat="36.911779732734225" lon="15.15157777488813"><ele>8.8</ele><time>2026-04-11T13:30:22Z</time></trkpt><trkpt lat="36.91168231083708" lon="15.151522047677313"><ele>9.600000000000001</ele><time>2026-04-11T13:30:23Z</time></trkpt><trkpt lat="36.91158883713901" lon="15.151463800567036"><ele>10.399999999999999</ele><time>2026-04-11T13:30:24Z</time></trkpt><trkpt lat="36.91149703931103" lon="15.151406667070416"><ele>11.2</ele><time>2026-04-11T13:30:25Z</time></trkpt><trkpt lat="36.91140735704492" lon="15.151356608786886"><ele>12.0</ele><time>2026-04-11T13:30:26Z</time></trkpt><trkpt lat="36.91132776155447" lon="15.151311747726922"><ele>12.0</ele><time>2026-04-11T13:30:27Z</time></trkpt><trkpt lat="36.91124768625782" lon="15.151271687449173"><ele>12.0</ele><time>2026-04-11T13:30:28Z</time></trkpt><trkpt lat="36.911155021942015" lon="15.151231246515602"><ele>12.0</ele><time>2026-04-11T13:30:29Z</time></trkpt><trkpt lat="36.911073790014676" lon="15.151197864445182"><ele>12.0</ele><time>2026-04-11T13:30:30Z</time></trkpt><trkpt lat="36.91099624002977" lon="15.151171818007947"><ele>12.0</ele><time>2026-04-11T13:30:31Z</time></trkpt><trkpt lat="36.91090969449427" lon="15.151139242169414"><ele>12.0</ele><time>2026-04-11T13:30:32Z</time></trkpt><trkpt lat="36.91082281803004" lon="15.151109191739572"><ele>11.833333333333334</ele><time>2026-04-11T13:30:33Z</time></trkpt><trkpt lat="36.91072768519229" lon="15.1510788717442"><ele>11.666666666666666</ele><time>2026-04-11T13:30:34Z</time></trkpt><trkpt lat="36.91063408648041" lon="15.15104889978958"><ele>11.5</ele><time>2026-04-11T13:30:35Z</time></trkpt><trkpt lat="36.91054743670029" lon="15.151017743373862"><ele>11.333333333333332</ele><time>2026-04-11T13:30:36Z</time></trkpt><trkpt lat="36.910470389624855" lon="15.150994104333215"><ele>11.166666666666666</ele><time>2026-04-11T13:30:37Z</time></trkpt><trkpt lat="36.91039673498229" lon="15.150966616161984"><ele>11.0</ele><time>2026-04-11T13:30:38Z</time></trkpt><trkpt lat="36.91033365915242" lon="15.150945160785225"><ele>11.0</ele><time>2026-04-11T13:30:39Z</time></trkpt><trkpt lat="36.91026682047814" lon="15.150925635704187"><ele>11.0</ele><time>2026-04-11T13:30:40Z</time></trkpt><trkpt lat="36.91020265089174" lon="15.150897925354968"><ele>11.0</ele><time>2026-04-11T13:30:41Z</time></trkpt><trkpt lat="36.910075482924356" lon="15.150845245366309"><ele>11.0</ele><time>2026-04-11T13:30:43Z</time></trkpt><trkpt lat="36.91000211907457" lon="15.150815414730825"><ele>11.0</ele><time>2026-04-11T13:30:44Z</time></trkpt><trkpt lat="36.90992499639591" lon="15.150780075094437"><ele>11.0</ele><time>2026-04-11T13:30:45Z</time></trkpt><trkpt lat="36.90984529670157" lon="15.150741744461678"><ele>11.200000000000001</ele><time>2026-04-11T13:30:46Z</time></trkpt><trkpt lat="36.90976872007143" lon="15.15069662677903"><ele>11.4</ele><time>2026-04-11T13:30:47Z</time></trkpt><trkpt lat="36.909687301798876" lon="15.150646118572757"><ele>11.6</ele><time>2026-04-11T13:30:48Z</time></trkpt><trkpt lat="36.909598338307944" lon="15.150598487707216"><ele>11.8</ele><time>2026-04-11T13:30:49Z</time></trkpt><trkpt lat="36.90951199941826" lon="15.150551660325322"><ele>12.0</ele><time>2026-04-11T13:30:50Z</time></trkpt><trkpt lat="36.90940416202514" lon="15.150491580619809"><ele>12.0</ele><time>2026-04-11T13:30:51Z</time></trkpt><trkpt lat="36.909293220055574" lon="15.150427927099077"><ele>12.0</ele><time>2026-04-11T13:30:52Z</time></trkpt><trkpt lat="36.90918941984697" lon="15.150375423650738"><ele>12.0</ele><time>2026-04-11T13:30:53Z</time></trkpt><trkpt lat="36.90909801628114" lon="15.150321143431254"><ele>12.0</ele><time>2026-04-11T13:30:54Z</time></trkpt><trkpt lat="36.90901086029188" lon="15.150277139502796"><ele>12.0</ele><time>2026-04-11T13:30:55Z</time></trkpt><trkpt lat="36.90892795141368" lon="15.150232317134943"><ele>11.6</ele><time>2026-04-11T13:30:56Z</time></trkpt><trkpt lat="36.90883803988055" lon="15.150188300682231"><ele>11.2</ele><time>2026-04-11T13:30:57Z</time></trkpt><trkpt lat="36.90873729131335" lon="15.15013017260088"><ele>10.8</ele><time>2026-04-11T13:30:58Z</time></trkpt><trkpt lat="36.90863901565422" lon="15.150071577429099"><ele>10.4</ele><time>2026-04-11T13:30:59Z</time></trkpt><trkpt lat="36.90854336258633" lon="15.150017954986856"><ele>10.0</ele><time>2026-04-11T13:31:00Z</time></trkpt><trkpt lat="36.90845511857027" lon="15.149978368647522"><ele>9.666666666666668</ele><time>2026-04-11T13:31:01Z</time></trkpt><trkpt lat="36.90836897446636" lon="15.149945532560162"><ele>9.333333333333334</ele><time>2026-04-11T13:31:02Z</time></trkpt><trkpt lat="36.908287708221394" lon="15.149920217853026"><ele>9.0</ele><time>2026-04-11T13:31:03Z</time></trkpt><trkpt lat="36.90821273856649" lon="15.149903083527505"><ele>8.666666666666666</ele><time>2026-04-11T13:31:04Z</time></trkpt><trkpt lat="36.90814486766179" lon="15.149888499140204"><ele>8.333333333333332</ele><time>2026-04-11T13:31:05Z</time></trkpt><trkpt lat="36.90806441263268" lon="15.149875594974581"><ele>8.0</ele><time>2026-04-11T13:31:06Z</time></trkpt><trkpt lat="36.90796565031586" lon="15.149855924942578"><ele>8.8</ele><time>2026-04-11T13:31:07Z</time></trkpt><trkpt lat="36.907858793263934" lon="15.149821972944544"><ele>9.600000000000001</ele><time>2026-04-11T13:31:08Z</time></trkpt><trkpt lat="36.907765454581465" lon="15.149782756348726"><ele>10.399999999999999</ele><time>2026-04-11T13:31:09Z</time></trkpt><trkpt lat="36.907677604746965" lon="15.149734513082095"><ele>11.2</ele><time>2026-04-11T13:31:10Z</time></trkpt><trkpt lat="36.90760108442592" lon="15.149683050374406"><ele>12.0</ele><time>2026-04-11T13:31:11Z</time></trkpt><trkpt lat="36.90753968018366" lon="15.149626845738394"><ele>12.0</ele><time>2026-04-11T13:31:12Z</time></trkpt><trkpt lat="36.907484657383385" lon="15.149558994663565"><ele>12.0</ele><time>2026-04-11T13:31:13Z</time></trkpt><trkpt lat="36.90743733962423" lon="15.149450238641933"><ele>12.0</ele><time>2026-04-11T13:31:14Z</time></trkpt><trkpt lat="36.90736832080602" lon="15.149358572995427"><ele>12.0</ele><time>2026-04-11T13:31:15.001Z</time></trkpt><trkpt lat="36.90732412401193" lon="15.149260710136206"><ele>12.0</ele><time>2026-04-11T13:31:16.001Z</time></trkpt><trkpt lat="36.90727257241964" lon="15.149162638240496"><ele>12.0</ele><time>2026-04-11T13:31:17.001Z</time></trkpt><trkpt lat="36.907231743942994" lon="15.149079826158076"><ele>12.0</ele><time>2026-04-11T13:31:18.001Z</time></trkpt><trkpt lat="36.90716817758961" lon="15.148965589239035"><ele>12.0</ele><time>2026-04-11T13:31:20.001Z</time></trkpt><trkpt lat="36.907121952005824" lon="15.148898120597005"><ele>12.0</ele><time>2026-04-11T13:31:21.001Z</time></trkpt><trkpt lat="36.90704714513778" lon="15.148793208920393"><ele>12.0</ele><time>2026-04-11T13:31:22.001Z</time></trkpt><trkpt lat="36.906977850311925" lon="15.148669756756624"><ele>12.399999999999999</ele><time>2026-04-11T13:31:23.001Z</time></trkpt><trkpt lat="36.90692339614" lon="15.148570553820468"><ele>12.799999999999999</ele><time>2026-04-11T13:31:24.001Z</time></trkpt><trkpt lat="36.90686629444015" lon="15.148496634201408"><ele>13.2</ele><time>2026-04-11T13:31:25.001Z</time></trkpt><trkpt lat="36.90679158156151" lon="15.148421930140168"><ele>13.6</ele><time>2026-04-11T13:31:26.001Z</time></trkpt><trkpt lat="36.90669126546454" lon="15.148332174125235"><ele>14.0</ele><time>2026-04-11T13:31:27.001Z</time></trkpt><trkpt lat="36.90657377815166" lon="15.148242492548981"><ele>14.25</ele><time>2026-04-11T13:31:28.001Z</time></trkpt><trkpt lat="36.90644836166485" lon="15.148168156304585"><ele>14.5</ele><time>2026-04-11T13:31:29Z</time></trkpt><trkpt lat="36.90631356963829" lon="15.148120135519349"><ele>14.75</ele><time>2026-04-11T13:31:30Z</time></trkpt><trkpt lat="36.90616643608627" lon="15.14808070372866"><ele>15.0</ele><time>2026-04-11T13:31:31Z</time></trkpt><trkpt lat="36.90600811272837" lon="15.148039803292969"><ele>14.666666666666668</ele><time>2026-04-11T13:31:32Z</time></trkpt><trkpt lat="36.905853247192226" lon="15.147995601530726"><ele>14.333333333333334</ele><time>2026-04-11T13:31:33Z</time></trkpt><trkpt lat="36.9057012469532" lon="15.147949440974752"><ele>14.0</ele><time>2026-04-11T13:31:34Z</time></trkpt><trkpt lat="36.90554768609617" lon="15.147902843454968"><ele>14.0</ele><time>2026-04-11T13:31:35Z</time></trkpt><trkpt lat="36.90539254315246" lon="15.147857667376622"><ele>14.0</ele><time>2026-04-11T13:31:36Z</time></trkpt><trkpt lat="36.90523578310895" lon="15.147815217106714"><ele>14.0</ele><time>2026-04-11T13:31:37Z</time></trkpt><trkpt lat="36.90509273212917" lon="15.147769811667457"><ele>13.0</ele><time>2026-04-11T13:31:38Z</time></trkpt><trkpt lat="36.904947556796515" lon="15.147731095175129"><ele>12.0</ele><time>2026-04-11T13:31:39Z</time></trkpt><trkpt lat="36.904784532422475" lon="15.147690679936556"><ele>11.0</ele><time>2026-04-11T13:31:40Z</time></trkpt><trkpt lat="36.90462101327429" lon="15.147650234915906"><ele>11.0</ele><time>2026-04-11T13:31:41Z</time></trkpt><trkpt lat="36.90446279225762" lon="15.147606629092762"><ele>11.0</ele><time>2026-04-11T13:31:42Z</time></trkpt><trkpt lat="36.9043091333904" lon="15.147556832826211"><ele>11.0</ele><time>2026-04-11T13:31:43Z</time></trkpt><trkpt lat="36.90415654421845" lon="15.147505652091382"><ele>10.666666666666666</ele><time>2026-04-11T13:31:44Z</time></trkpt><trkpt lat="36.904010117906374" lon="15.147453988109962"><ele>10.333333333333334</ele><time>2026-04-11T13:31:45Z</time></trkpt><trkpt lat="36.90386351491837" lon="15.147407730579292"><ele>10.0</ele><time>2026-04-11T13:31:46Z</time></trkpt><trkpt lat="36.90372297985962" lon="15.147353651333294"><ele>10.75</ele><time>2026-04-11T13:31:47Z</time></trkpt><trkpt lat="36.903601302749145" lon="15.14727732747667"><ele>11.5</ele><time>2026-04-11T13:31:48Z</time></trkpt><trkpt lat="36.903490347778934" lon="15.147166218412044"><ele>12.25</ele><time>2026-04-11T13:31:49Z</time></trkpt><trkpt lat="36.90338185513221" lon="15.147033848611015"><ele>13.0</ele><time>2026-04-11T13:31:50Z</time></trkpt><trkpt lat="36.903278165653504" lon="15.146889430962425"><ele>13.0</ele><time>2026-04-11T13:31:51Z</time></trkpt><trkpt lat="36.90317223413481" lon="15.146749681989567"><ele>13.0</ele><time>2026-04-11T13:31:52Z</time></trkpt><trkpt lat="36.90306819486977" lon="15.146611297864883"><ele>13.0</ele><time>2026-04-11T13:31:53Z</time></trkpt><trkpt lat="36.902962075683206" lon="15.146473181997907"><ele>13.666666666666666</ele><time>2026-04-11T13:31:54Z</time></trkpt><trkpt lat="36.90285099910463" lon="15.14633414524498"><ele>14.333333333333332</ele><time>2026-04-11T13:31:55Z</time></trkpt><trkpt lat="36.902736023415166" lon="15.146196892780496"><ele>15.0</ele><time>2026-04-11T13:31:56Z</time></trkpt><trkpt lat="36.902628839323924" lon="15.14606028213267"><ele>15.0</ele><time>2026-04-11T13:31:57Z</time></trkpt><trkpt lat="36.902520574920146" lon="15.145920999611276"><ele>15.0</ele><time>2026-04-11T13:31:58Z</time></trkpt><trkpt lat="36.90240943068431" lon="15.145779399186152"><ele>15.0</ele><time>2026-04-11T13:31:59Z</time></trkpt><trkpt lat="36.9022993984688" lon="15.145643035342674"><ele>15.25</ele><time>2026-04-11T13:32:00Z</time></trkpt><trkpt lat="36.9021986300218" lon="15.145514612423007"><ele>15.5</ele><time>2026-04-11T13:32:01Z</time></trkpt><trkpt lat="36.9021066930784" lon="15.145396570539909"><ele>15.75</ele><time>2026-04-11T13:32:02Z</time></trkpt><trkpt lat="36.902018090004425" lon="15.145286031790555"><ele>16.0</ele><time>2026-04-11T13:32:03Z</time></trkpt><trkpt lat="36.90193657253277" lon="15.145190413993264"><ele>16.0</ele><time>2026-04-11T13:32:04Z</time></trkpt><trkpt lat="36.9018566925066" lon="15.145094920344967"><ele>16.0</ele><time>2026-04-11T13:32:05Z</time></trkpt><trkpt lat="36.90178081881814" lon="15.144990785975354"><ele>16.0</ele><time>2026-04-11T13:32:06Z</time></trkpt><trkpt lat="36.90170131806118" lon="15.14488893013922"><ele>16.0</ele><time>2026-04-11T13:32:07Z</time></trkpt><trkpt lat="36.90162658447844" lon="15.144794088019804"><ele>16.0</ele><time>2026-04-11T13:32:08Z</time></trkpt><trkpt lat="36.90155174931278" lon="15.14469828857943"><ele>15.75</ele><time>2026-04-11T13:32:09Z</time></trkpt><trkpt lat="36.90147712428054" lon="15.144602923889334"><ele>15.5</ele><time>2026-04-11T13:32:10Z</time></trkpt><trkpt lat="36.901395469581395" lon="15.144499691514355"><ele>15.25</ele><time>2026-04-11T13:32:11Z</time></trkpt><trkpt lat="36.90131738707349" lon="15.144398743259929"><ele>15.0</ele><time>2026-04-11T13:32:12Z</time></trkpt><trkpt lat="36.901236584997235" lon="15.144297091131621"><ele>15.0</ele><time>2026-04-11T13:32:13Z</time></trkpt><trkpt lat="36.90115904071424" lon="15.14419823151496"><ele>15.0</ele><time>2026-04-11T13:32:14Z</time></trkpt><trkpt lat="36.90107966488853" lon="15.144098034235114"><ele>15.0</ele><time>2026-04-11T13:32:15Z</time></trkpt><trkpt lat="36.900995881894836" lon="15.143998086156046"><ele>15.0</ele><time>2026-04-11T13:32:16Z</time></trkpt><trkpt lat="36.900904914241664" lon="15.143901787707634"><ele>15.0</ele><time>2026-04-11T13:32:17Z</time></trkpt><trkpt lat="36.900804631174715" lon="15.143822039224542"><ele>15.0</ele><time>2026-04-11T13:32:18Z</time></trkpt><trkpt lat="36.90070455673455" lon="15.143771047885995"><ele>15.0</ele><time>2026-04-11T13:32:19Z</time></trkpt><trkpt lat="36.90061149015857" lon="15.143727453893499"><ele>15.0</ele><time>2026-04-11T13:32:20Z</time></trkpt><trkpt lat="36.90052051493586" lon="15.143681663621189"><ele>15.0</ele><time>2026-04-11T13:32:21Z</time></trkpt><trkpt lat="36.90043219930364" lon="15.143629987313204"><ele>15.0</ele><time>2026-04-11T13:32:22Z</time></trkpt><trkpt lat="36.90035716335347" lon="15.14357876872578"><ele>15.0</ele><time>2026-04-11T13:32:23Z</time></trkpt><trkpt lat="36.9002677530055" lon="15.143512128586899"><ele>15.0</ele><time>2026-04-11T13:32:25Z</time></trkpt><trkpt lat="36.900186686455456" lon="15.143491603607139"><ele>15.0</ele><time>2026-04-11T13:32:30Z</time></trkpt><trkpt lat="36.90009851244174" lon="15.143669769636205"><ele>15.0</ele><time>2026-04-11T13:32:31Z</time></trkpt><trkpt lat="36.900013862625556" lon="15.143804563601917"><ele>14.25</ele><time>2026-04-11T13:32:32Z</time></trkpt><trkpt lat="36.89992298047113" lon="15.143989164150799"><ele>13.5</ele><time>2026-04-11T13:32:33Z</time></trkpt><trkpt lat="36.89984767449702" lon="15.144142528300714"><ele>12.75</ele><time>2026-04-11T13:32:34Z</time></trkpt><trkpt lat="36.89977984708293" lon="15.144275255227031"><ele>12.0</ele><time>2026-04-11T13:32:35Z</time></trkpt><trkpt lat="36.899729970859035" lon="15.144410951957395"><ele>12.0</ele><time>2026-04-11T13:32:36Z</time></trkpt><trkpt lat="36.899654328320416" lon="15.144520245107614"><ele>12.0</ele><time>2026-04-11T13:32:37Z</time></trkpt><trkpt lat="36.899604739419026" lon="15.144617033664815"><ele>12.0</ele><time>2026-04-11T13:32:38Z</time></trkpt><trkpt lat="36.899554240156895" lon="15.144715599059014"><ele>12.0</ele><time>2026-04-11T13:32:39Z</time></trkpt><trkpt lat="36.8995102424779" lon="15.144801474566602"><ele>12.0</ele><time>2026-04-11T13:32:40Z</time></trkpt><trkpt lat="36.899454159888066" lon="15.14491093761703"><ele>12.0</ele><time>2026-04-11T13:32:42Z</time></trkpt><trkpt lat="36.89943046171952" lon="15.144987579516291"><ele>12.0</ele><time>2026-04-11T13:32:45Z</time></trkpt><trkpt lat="36.89937221391421" lon="15.145056100292956"><ele>12.0</ele><time>2026-04-11T13:32:49Z</time></trkpt><trkpt lat="36.89924768717992" lon="15.14499677665115"><ele>12.0</ele><time>2026-04-11T13:32:53.001Z</time></trkpt><trkpt lat="36.89917967506588" lon="15.144935001498487"><ele>12.0</ele><time>2026-04-11T13:32:55.001Z</time></trkpt><trkpt lat="36.899076943868465" lon="15.144862497135188"><ele>11.999999999999998</ele><time>2026-04-11T13:32:57.001Z</time></trkpt><trkpt lat="36.89899885313708" lon="15.144800746213424"><ele>12.0</ele><time>2026-04-11T13:32:58.001Z</time></trkpt><trkpt lat="36.89894277643855" lon="15.14474877291979"><ele>12.0</ele><time>2026-04-11T13:32:59.001Z</time></trkpt><trkpt lat="36.8988925810888" lon="15.144700652734231"><ele>12.0</ele><time>2026-04-11T13:33:00.001Z</time></trkpt><trkpt lat="36.89884418115694" lon="15.14464957456559"><ele>12.0</ele><time>2026-04-11T13:33:01.001Z</time></trkpt><trkpt lat="36.89879257920683" lon="15.144599801608123"><ele>11.999999999999998</ele><time>2026-04-11T13:33:02.001Z</time></trkpt><trkpt lat="36.89873567027857" lon="15.144541191219556"><ele>12.0</ele><time>2026-04-11T13:33:03.001Z</time></trkpt><trkpt lat="36.89867750702381" lon="15.144477457389735"><ele>12.0</ele><time>2026-04-11T13:33:04.001Z</time></trkpt><trkpt lat="36.89862013180167" lon="15.144414356575888"><ele>12.0</ele><time>2026-04-11T13:33:05.001Z</time></trkpt><trkpt lat="36.898564567882545" lon="15.144355855079713"><ele>12.0</ele><time>2026-04-11T13:33:06.001Z</time></trkpt><trkpt lat="36.89850753961324" lon="15.144297993007275"><ele>12.0</ele><time>2026-04-11T13:33:07.001Z</time></trkpt><trkpt lat="36.89844652800305" lon="15.144235720621781"><ele>12.0</ele><time>2026-04-11T13:33:08.001Z</time></trkpt><trkpt lat="36.89837961357827" lon="15.144169652131065"><ele>12.0</ele><time>2026-04-11T13:33:09.001Z</time></trkpt><trkpt lat="36.89830625467669" lon="15.14410898819178"><ele>12.0</ele><time>2026-04-11T13:33:10.001Z</time></trkpt><trkpt lat="36.898229928909295" lon="15.144048785808906"><ele>12.0</ele><time>2026-04-11T13:33:11.001Z</time></trkpt><trkpt lat="36.898143961496906" lon="15.143983950432187"><ele>12.0</ele><time>2026-04-11T13:33:12.001Z</time></trkpt><trkpt lat="36.898061131175005" lon="15.143931938342178"><ele>12.0</ele><time>2026-04-11T13:33:13.001Z</time></trkpt><trkpt lat="36.8979861609296" lon="15.143890821013532"><ele>12.0</ele><time>2026-04-11T13:33:14.001Z</time></trkpt><trkpt lat="36.897914063436765" lon="15.14385914406526"><ele>12.0</ele><time>2026-04-11T13:33:15.001Z</time></trkpt><trkpt lat="36.897845297399755" lon="15.14382917819228"><ele>11.666666666666666</ele><time>2026-04-11T13:33:16.001Z</time></trkpt><trkpt lat="36.8977823890192" lon="15.143798541712739"><ele>11.333333333333334</ele><time>2026-04-11T13:33:17.001Z</time></trkpt><trkpt lat="36.897659893150426" lon="15.143743853467699"><ele>11.0</ele><time>2026-04-11T13:33:19.001Z</time></trkpt><trkpt lat="36.897581577475606" lon="15.143714494031157"><ele>10.666666666666668</ele><time>2026-04-11T13:33:20.001Z</time></trkpt><trkpt lat="36.8975058117619" lon="15.143686445322839"><ele>10.333333333333334</ele><time>2026-04-11T13:33:21.001Z</time></trkpt><trkpt lat="36.897432769695925" lon="15.143657743438869"><ele>10.0</ele><time>2026-04-11T13:33:22.001Z</time></trkpt><trkpt lat="36.89736358069261" lon="15.14364150985588"><ele>9.6</ele><time>2026-04-11T13:33:23.001Z</time></trkpt><trkpt lat="36.897289253446985" lon="15.143633085696644"><ele>9.2</ele><time>2026-04-11T13:33:24.001Z</time></trkpt><trkpt lat="36.89718365777685" lon="15.143623608852781"><ele>8.8</ele><time>2026-04-11T13:33:25.001Z</time></trkpt><trkpt lat="36.89707206993013" lon="15.143596608174242"><ele>8.4</ele><time>2026-04-11T13:33:26.001Z</time></trkpt><trkpt lat="36.896950496069714" lon="15.14357698450442"><ele>8.0</ele><time>2026-04-11T13:33:27.001Z</time></trkpt><trkpt lat="36.89680856944634" lon="15.143554075617264"><ele>7.666666666666666</ele><time>2026-04-11T13:33:28.001Z</time></trkpt><trkpt lat="36.89664746191183" lon="15.143542135375737"><ele>7.333333333333334</ele><time>2026-04-11T13:33:29.001Z</time></trkpt><trkpt lat="36.89646321139055" lon="15.14348382959826"><ele>7.0</ele><time>2026-04-11T13:33:30.001Z</time></trkpt><trkpt lat="36.8962633812417" lon="15.143422259831125"><ele>7.0</ele><time>2026-04-11T13:33:31.001Z</time></trkpt><trkpt lat="36.89607654036414" lon="15.143366151881624"><ele>7.0</ele><time>2026-04-11T13:33:32.001Z</time></trkpt><trkpt lat="36.89591201106898" lon="15.143318841603485"><ele>7.0</ele><time>2026-04-11T13:33:33.001Z</time></trkpt><trkpt lat="36.8957572504673" lon="15.143275572947983"><ele>6.5</ele><time>2026-04-11T13:33:34.001Z</time></trkpt><trkpt lat="36.89561186833266" lon="15.143238880061453"><ele>6.0</ele><time>2026-04-11T13:33:35Z</time></trkpt><trkpt lat="36.89547209568759" lon="15.143221132358411"><ele>5.5</ele><time>2026-04-11T13:33:36Z</time></trkpt><trkpt lat="36.89533511015106" lon="15.143227166013776"><ele>5.0</ele><time>2026-04-11T13:33:37Z</time></trkpt><trkpt lat="36.895203503016084" lon="15.143271031944032"><ele>5.0</ele><time>2026-04-11T13:33:38Z</time></trkpt><trkpt lat="36.89506012899674" lon="15.143328419929768"><ele>5.0</ele><time>2026-04-11T13:33:39Z</time></trkpt><trkpt lat="36.894928135867104" lon="15.143357111484276"><ele>5.0</ele><time>2026-04-11T13:33:40Z</time></trkpt><trkpt lat="36.89481373519955" lon="15.143341586846082"><ele>5.0</ele><time>2026-04-11T13:33:41Z</time></trkpt><trkpt lat="36.89470021464528" lon="15.143297788379448"><ele>5.0</ele><time>2026-04-11T13:33:42Z</time></trkpt><trkpt lat="36.894585848383336" lon="15.143242516550812"><ele>5.0</ele><time>2026-04-11T13:33:43Z</time></trkpt><trkpt lat="36.894472841256174" lon="15.143164135965367"><ele>5.0</ele><time>2026-04-11T13:33:44Z</time></trkpt><trkpt lat="36.89434832166845" lon="15.143067233280314"><ele>5.0</ele><time>2026-04-11T13:33:45Z</time></trkpt><trkpt lat="36.89420776534949" lon="15.14297341830948"><ele>5.666666666666667</ele><time>2026-04-11T13:33:46Z</time></trkpt><trkpt lat="36.89405230246349" lon="15.142902246978553"><ele>6.333333333333334</ele><time>2026-04-11T13:33:47Z</time></trkpt><trkpt lat="36.89387523163022" lon="15.142841965315357"><ele>7.0</ele><time>2026-04-11T13:33:48Z</time></trkpt><trkpt lat="36.89369817788386" lon="15.142784857760903"><ele>7.0</ele><time>2026-04-11T13:33:49Z</time></trkpt><trkpt lat="36.89352784504308" lon="15.14272098435783"><ele>7.0</ele><time>2026-04-11T13:33:50Z</time></trkpt><trkpt lat="36.89337578437733" lon="15.1426400394393"><ele>7.0</ele><time>2026-04-11T13:33:51Z</time></trkpt><trkpt lat="36.89324313100001" lon="15.142559502899514"><ele>6.75</ele><time>2026-04-11T13:33:52Z</time></trkpt><trkpt lat="36.89311410950357" lon="15.142497570210605"><ele>6.5</ele><time>2026-04-11T13:33:53Z</time></trkpt><trkpt lat="36.89300576147424" lon="15.14243350520037"><ele>6.25</ele><time>2026-04-11T13:33:54Z</time></trkpt><trkpt lat="36.89291735338069" lon="15.142343639965475"><ele>6.0</ele><time>2026-04-11T13:33:55Z</time></trkpt><trkpt lat="36.89283269811037" lon="15.14222822575013"><ele>6.0</ele><time>2026-04-11T13:33:56Z</time></trkpt><trkpt lat="36.89275996656171" lon="15.142098336085091"><ele>6.0</ele><time>2026-04-11T13:33:57Z</time></trkpt><trkpt lat="36.892685072341756" lon="15.14196635347911"><ele>6.0</ele><time>2026-04-11T13:33:58Z</time></trkpt><trkpt lat="36.892607710232625" lon="15.141863740696461"><ele>6.0</ele><time>2026-04-11T13:33:59Z</time></trkpt><trkpt lat="36.892515278839234" lon="15.141788456295554"><ele>6.0</ele><time>2026-04-11T13:34:00Z</time></trkpt><trkpt lat="36.89241226335036" lon="15.1417324405736"><ele>6.0</ele><time>2026-04-11T13:34:01Z</time></trkpt><trkpt lat="36.89232032463255" lon="15.141694134822682"><ele>6.0</ele><time>2026-04-11T13:34:02Z</time></trkpt><trkpt lat="36.892224375456415" lon="15.141650866804714"><ele>6.0</ele><time>2026-04-11T13:34:03Z</time></trkpt><trkpt lat="36.89212594858601" lon="15.141605873795637"><ele>6.0</ele><time>2026-04-11T13:34:04Z</time></trkpt><trkpt lat="36.89200845271824" lon="15.14154343125063"><ele>6.333333333333334</ele><time>2026-04-11T13:34:05Z</time></trkpt><trkpt lat="36.89188657493808" lon="15.141457651617175"><ele>6.666666666666667</ele><time>2026-04-11T13:34:06Z</time></trkpt><trkpt lat="36.89172548716044" lon="15.141339791734353"><ele>7.0</ele><time>2026-04-11T13:34:07Z</time></trkpt><trkpt lat="36.89155243974367" lon="15.141231049533491"><ele>7.0</ele><time>2026-04-11T13:34:08Z</time></trkpt><trkpt lat="36.891394820482496" lon="15.141162362785767"><ele>7.0</ele><time>2026-04-11T13:34:09Z</time></trkpt><trkpt lat="36.89126981021977" lon="15.141092134045884"><ele>7.0</ele><time>2026-04-11T13:34:10Z</time></trkpt><trkpt lat="36.891153214621404" lon="15.14100092475816"><ele>7.0</ele><time>2026-04-11T13:34:11Z</time></trkpt><trkpt lat="36.89102926037271" lon="15.140886687237286"><ele>7.0</ele><time>2026-04-11T13:34:12Z</time></trkpt><trkpt lat="36.89090184233786" lon="15.140774203335285"><ele>7.0</ele><time>2026-04-11T13:34:13Z</time></trkpt><trkpt lat="36.890782591492915" lon="15.14068302625628"><ele>7.0</ele><time>2026-04-11T13:34:14Z</time></trkpt><trkpt lat="36.89066859125853" lon="15.140613386796975"><ele>7.0</ele><time>2026-04-11T13:34:15Z</time></trkpt><trkpt lat="36.89056192797201" lon="15.140552769959253"><ele>7.199999999999999</ele><time>2026-04-11T13:34:16Z</time></trkpt><trkpt lat="36.89046263708007" lon="15.14049987354894"><ele>7.3999999999999995</ele><time>2026-04-11T13:34:17Z</time></trkpt><trkpt lat="36.8903514905396" lon="15.140480063545748"><ele>7.6000000000000005</ele><time>2026-04-11T13:34:18Z</time></trkpt><trkpt lat="36.8902393331092" lon="15.140472272947216"><ele>7.800000000000001</ele><time>2026-04-11T13:34:19Z</time></trkpt><trkpt lat="36.89013690057938" lon="15.140465211838857"><ele>8.0</ele><time>2026-04-11T13:34:20Z</time></trkpt><trkpt lat="36.89001876739463" lon="15.140469469441694"><ele>8.333333333333332</ele><time>2026-04-11T13:34:21Z</time></trkpt><trkpt lat="36.8898623840205" lon="15.140499872069705"><ele>8.666666666666666</ele><time>2026-04-11T13:34:22Z</time></trkpt><trkpt lat="36.889700999161946" lon="15.140531447355471"><ele>9.0</ele><time>2026-04-11T13:34:23Z</time></trkpt><trkpt lat="36.889538375539125" lon="15.14054995949483"><ele>9.0</ele><time>2026-04-11T13:34:24Z</time></trkpt><trkpt lat="36.88936864282334" lon="15.140562549524065"><ele>9.0</ele><time>2026-04-11T13:34:25Z</time></trkpt><trkpt lat="36.88920058270004" lon="15.140579140030669"><ele>9.0</ele><time>2026-04-11T13:34:26Z</time></trkpt><trkpt lat="36.88905740247483" lon="15.140598640037767"><ele>8.8</ele><time>2026-04-11T13:34:27Z</time></trkpt><trkpt lat="36.888925524565146" lon="15.14061224987361"><ele>8.600000000000001</ele><time>2026-04-11T13:34:28Z</time></trkpt><trkpt lat="36.88882012129088" lon="15.14061565629939"><ele>8.4</ele><time>2026-04-11T13:34:29Z</time></trkpt><trkpt lat="36.88874116017994" lon="15.140614250528076"><ele>8.200000000000001</ele><time>2026-04-11T13:34:30Z</time></trkpt><trkpt lat="36.88867782035677" lon="15.140607353676732"><ele>8.0</ele><time>2026-04-11T13:34:31Z</time></trkpt><trkpt lat="36.88857838978116" lon="15.14051991693092"><ele>8.0</ele><time>2026-04-11T13:34:33Z</time></trkpt><trkpt lat="36.8884842379394" lon="15.1404218566882"><ele>8.0</ele><time>2026-04-11T13:34:34Z</time></trkpt><trkpt lat="36.88837322343457" lon="15.140304118426451"><ele>8.0</ele><time>2026-04-11T13:34:35Z</time></trkpt><trkpt lat="36.88826297183643" lon="15.140197338052783"><ele>8.0</ele><time>2026-04-11T13:34:36Z</time></trkpt><trkpt lat="36.88815134567686" lon="15.140089985479008"><ele>7.75</ele><time>2026-04-11T13:34:37Z</time></trkpt><trkpt lat="36.88804121273429" lon="15.139977011331618"><ele>7.5</ele><time>2026-04-11T13:34:38Z</time></trkpt><trkpt lat="36.88793837832633" lon="15.139876541411313"><ele>7.25</ele><time>2026-04-11T13:34:39Z</time></trkpt><trkpt lat="36.88784739789669" lon="15.139788329620972"><ele>7.0</ele><time>2026-04-11T13:34:40Z</time></trkpt><trkpt lat="36.887775290877606" lon="15.139713666974604"><ele>7.000000000000001</ele><time>2026-04-11T13:34:41Z</time></trkpt><trkpt lat="36.88770502696238" lon="15.139644909283563"><ele>7.0</ele><time>2026-04-11T13:34:42Z</time></trkpt><trkpt lat="36.887639864398146" lon="15.139594499075647"><ele>7.0</ele><time>2026-04-11T13:34:43Z</time></trkpt><trkpt lat="36.88756301162672" lon="15.139552330713649"><ele>7.0</ele><time>2026-04-11T13:34:44Z</time></trkpt><trkpt lat="36.887488448690604" lon="15.139538696038944"><ele>7.000000000000001</ele><time>2026-04-11T13:34:45Z</time></trkpt><trkpt lat="36.887402527820846" lon="15.139548545898368"><ele>7.0</ele><time>2026-04-11T13:34:46Z</time></trkpt><trkpt lat="36.887319686436726" lon="15.139594708322972"><ele>6.8</ele><time>2026-04-11T13:34:47Z</time></trkpt><trkpt lat="36.887235337352834" lon="15.139665096693406"><ele>6.6</ele><time>2026-04-11T13:34:48Z</time></trkpt><trkpt lat="36.88716409279834" lon="15.139707648311425"><ele>6.3999999999999995</ele><time>2026-04-11T13:34:49Z</time></trkpt><trkpt lat="36.887088324173824" lon="15.13969742847933"><ele>6.199999999999999</ele><time>2026-04-11T13:34:50Z</time></trkpt><trkpt lat="36.88700146583215" lon="15.13962891298511"><ele>6.0</ele><time>2026-04-11T13:34:51Z</time></trkpt><trkpt lat="36.88687274743827" lon="15.139570367984335"><ele>6.25</ele><time>2026-04-11T13:34:52Z</time></trkpt><trkpt lat="36.88673418920216" lon="15.139475100220531"><ele>6.5</ele><time>2026-04-11T13:34:53Z</time></trkpt><trkpt lat="36.88659038891302" lon="15.139390648205561"><ele>6.75</ele><time>2026-04-11T13:34:54Z</time></trkpt><trkpt lat="36.88648089890329" lon="15.139328523766103"><ele>7.0</ele><time>2026-04-11T13:34:55Z</time></trkpt><trkpt lat="36.886389681904745" lon="15.139292809338578"><ele>7.0</ele><time>2026-04-11T13:34:56Z</time></trkpt><trkpt lat="36.88628061701941" lon="15.13929834572929"><ele>7.0</ele><time>2026-04-11T13:34:57Z</time></trkpt><trkpt lat="36.886138774705735" lon="15.139329996625488"><ele>7.0</ele><time>2026-04-11T13:34:58Z</time></trkpt><trkpt lat="36.88597962821327" lon="15.13936942467052"><ele>7.0</ele><time>2026-04-11T13:34:59Z</time></trkpt><trkpt lat="36.88585991835846" lon="15.13939014687649"><ele>6.833333333333334</ele><time>2026-04-11T13:35:00Z</time></trkpt><trkpt lat="36.885761542530965" lon="15.139386927755107"><ele>6.666666666666667</ele><time>2026-04-11T13:35:01Z</time></trkpt><trkpt lat="36.88567986319992" lon="15.139360541993897"><ele>6.5</ele><time>2026-04-11T13:35:02Z</time></trkpt><trkpt lat="36.88561346067488" lon="15.139318501299686"><ele>6.333333333333334</ele><time>2026-04-11T13:35:03Z</time></trkpt><trkpt lat="36.88556003519042" lon="15.13927544127424"><ele>6.166666666666667</ele><time>2026-04-11T13:35:04Z</time></trkpt><trkpt lat="36.885481432891616" lon="15.139211910564345"><ele>6.0</ele><time>2026-04-11T13:35:06Z</time></trkpt><trkpt lat="36.88547021930749" lon="15.139060182578413"><ele>6.75</ele><time>2026-04-11T13:35:09.001Z</time></trkpt><trkpt lat="36.88550410813711" lon="15.138945875656818"><ele>7.5</ele><time>2026-04-11T13:35:10.001Z</time></trkpt><trkpt lat="36.88556350552136" lon="15.138784790855736"><ele>8.25</ele><time>2026-04-11T13:35:11.001Z</time></trkpt><trkpt lat="36.88561922248442" lon="15.138619241447325"><ele>9.0</ele><time>2026-04-11T13:35:12.001Z</time></trkpt><trkpt lat="36.885665899211006" lon="15.138463953023454"><ele>9.0</ele><time>2026-04-11T13:35:13.001Z</time></trkpt><trkpt lat="36.88570253843805" lon="15.13833177550703"><ele>9.0</ele><time>2026-04-11T13:35:14.001Z</time></trkpt><trkpt lat="36.885743910801104" lon="15.138191033732467"><ele>9.0</ele><time>2026-04-11T13:35:15.001Z</time></trkpt><trkpt lat="36.88578878149593" lon="15.138054640755314"><ele>9.0</ele><time>2026-04-11T13:35:16.001Z</time></trkpt><trkpt lat="36.88584262502582" lon="15.137925115535282"><ele>9.333333333333334</ele><time>2026-04-11T13:35:17.001Z</time></trkpt><trkpt lat="36.8859122368509" lon="15.137780920815223"><ele>9.666666666666668</ele><time>2026-04-11T13:35:18.001Z</time></trkpt><trkpt lat="36.88599901074799" lon="15.137575612035588"><ele>10.0</ele><time>2026-04-11T13:35:19.001Z</time></trkpt><trkpt lat="36.88607483082397" lon="15.137353560643836"><ele>10.25</ele><time>2026-04-11T13:35:20.001Z</time></trkpt><trkpt lat="36.886131030952086" lon="15.137172877604016"><ele>10.5</ele><time>2026-04-11T13:35:21.001Z</time></trkpt><trkpt lat="36.88616972503488" lon="15.137002624828948"><ele>10.75</ele><time>2026-04-11T13:35:22.001Z</time></trkpt><trkpt lat="36.88619022738547" lon="15.136852840418419"><ele>11.0</ele><time>2026-04-11T13:35:23.001Z</time></trkpt><trkpt lat="36.88620539730154" lon="15.136718313914383"><ele>11.0</ele><time>2026-04-11T13:35:24.001Z</time></trkpt><trkpt lat="36.88622749317865" lon="15.136584308843931"><ele>11.0</ele><time>2026-04-11T13:35:25.001Z</time></trkpt><trkpt lat="36.88625503605749" lon="15.136443355073043"><ele>11.0</ele><time>2026-04-11T13:35:26.001Z</time></trkpt><trkpt lat="36.88627395746852" lon="15.136313173723554"><ele>11.0</ele><time>2026-04-11T13:35:27.001Z</time></trkpt><trkpt lat="36.88626578099467" lon="15.136190120270966"><ele>11.0</ele><time>2026-04-11T13:35:28.001Z</time></trkpt><trkpt lat="36.886227451211596" lon="15.136047688549016"><ele>11.666666666666666</ele><time>2026-04-11T13:35:29.001Z</time></trkpt><trkpt lat="36.88616620131682" lon="15.135868057477728"><ele>12.333333333333332</ele><time>2026-04-11T13:35:30.001Z</time></trkpt><trkpt lat="36.886103482433654" lon="15.135675200865956"><ele>13.0</ele><time>2026-04-11T13:35:31.001Z</time></trkpt><trkpt lat="36.88605532505018" lon="15.135500968190426"><ele>13.5</ele><time>2026-04-11T13:35:32.001Z</time></trkpt><trkpt lat="36.8860172258239" lon="15.135346557636964"><ele>14.0</ele><time>2026-04-11T13:35:33.001Z</time></trkpt><trkpt lat="36.885990804438315" lon="15.13518730555282"><ele>14.5</ele><time>2026-04-11T13:35:34.001Z</time></trkpt><trkpt lat="36.88597604128085" lon="15.135037180132022"><ele>15.0</ele><time>2026-04-11T13:35:35.001Z</time></trkpt><trkpt lat="36.88598019902365" lon="15.134894369061783"><ele>15.25</ele><time>2026-04-11T13:35:36.001Z</time></trkpt><trkpt lat="36.88600095564278" lon="15.134728454152436"><ele>15.5</ele><time>2026-04-11T13:35:37.001Z</time></trkpt><trkpt lat="36.88602667568058" lon="15.1345713079714"><ele>15.75</ele><time>2026-04-11T13:35:38.001Z</time></trkpt><trkpt lat="36.88603622230325" lon="15.134437034391647"><ele>16.0</ele><time>2026-04-11T13:35:39.001Z</time></trkpt><trkpt lat="36.88604067830179" lon="15.134313147386656"><ele>16.0</ele><time>2026-04-11T13:35:40.001Z</time></trkpt><trkpt lat="36.88606524159394" lon="15.134197283618546"><ele>16.0</ele><time>2026-04-11T13:35:41Z</time></trkpt><trkpt lat="36.8861167155598" lon="15.13409091645977"><ele>16.0</ele><time>2026-04-11T13:35:42Z</time></trkpt><trkpt lat="36.8861949416363" lon="15.13397069893097"><ele>16.0</ele><time>2026-04-11T13:35:43Z</time></trkpt><trkpt lat="36.88626562231734" lon="15.133847457970882"><ele>16.0</ele><time>2026-04-11T13:35:44Z</time></trkpt><trkpt lat="36.886328303545" lon="15.133700036215357"><ele>16.0</ele><time>2026-04-11T13:35:45Z</time></trkpt><trkpt lat="36.886366811191735" lon="15.133544035711786"><ele>16.0</ele><time>2026-04-11T13:35:46Z</time></trkpt><trkpt lat="36.886381417766344" lon="15.133393792455536"><ele>16.0</ele><time>2026-04-11T13:35:47Z</time></trkpt><trkpt lat="36.88637316794476" lon="15.133237040624866"><ele>16.0</ele><time>2026-04-11T13:35:48Z</time></trkpt><trkpt lat="36.886358334276736" lon="15.133068842870925"><ele>16.25</ele><time>2026-04-11T13:35:49Z</time></trkpt><trkpt lat="36.88635385185824" lon="15.132924614936009"><ele>16.5</ele><time>2026-04-11T13:35:50Z</time></trkpt><trkpt lat="36.886364194861855" lon="15.132795931196934"><ele>16.75</ele><time>2026-04-11T13:35:51Z</time></trkpt><trkpt lat="36.88639672977589" lon="15.132660703182369"><ele>17.0</ele><time>2026-04-11T13:35:52Z</time></trkpt><trkpt lat="36.886447136038214" lon="15.132517465915413"><ele>17.25</ele><time>2026-04-11T13:35:53Z</time></trkpt><trkpt lat="36.88651189464567" lon="15.132357757671658"><ele>17.5</ele><time>2026-04-11T13:35:54Z</time></trkpt><trkpt lat="36.88658028946368" lon="15.132195056267713"><ele>17.75</ele><time>2026-04-11T13:35:55Z</time></trkpt><trkpt lat="36.88664704722319" lon="15.132050118577721"><ele>18.0</ele><time>2026-04-11T13:35:56Z</time></trkpt><trkpt lat="36.88670449616857" lon="15.13191610088"><ele>18.0</ele><time>2026-04-11T13:35:57Z</time></trkpt><trkpt lat="36.88675656429495" lon="15.131789348079009"><ele>18.0</ele><time>2026-04-11T13:35:58Z</time></trkpt><trkpt lat="36.88680122774178" lon="15.131684133677014"><ele>18.0</ele><time>2026-04-11T13:35:59Z</time></trkpt><trkpt lat="36.88684713345156" lon="15.131571409807844"><ele>18.0</ele><time>2026-04-11T13:36:00Z</time></trkpt><trkpt lat="36.88688651482542" lon="15.131483489726971"><ele>18.0</ele><time>2026-04-11T13:36:01Z</time></trkpt><trkpt lat="36.886932756576286" lon="15.131385379097194"><ele>18.25</ele><time>2026-04-11T13:36:03Z</time></trkpt><trkpt lat="36.88696203408446" lon="15.131313145736144"><ele>18.5</ele><time>2026-04-11T13:36:05Z</time></trkpt><trkpt lat="36.88700181576926" lon="15.131213594217899"><ele>18.75</ele><time>2026-04-11T13:36:08Z</time></trkpt><trkpt lat="36.88684312616055" lon="15.131090400460355"><ele>19.0</ele><time>2026-04-11T13:36:13Z</time></trkpt><trkpt lat="36.886680866862356" lon="15.13105833188288"><ele>19.0</ele><time>2026-04-11T13:36:14Z</time></trkpt><trkpt lat="36.88651105046275" lon="15.131026004406444"><ele>19.0</ele><time>2026-04-11T13:36:15Z</time></trkpt><trkpt lat="36.886303711655735" lon="15.131017512885636"><ele>19.0</ele><time>2026-04-11T13:36:16Z</time></trkpt><trkpt lat="36.88608881884938" lon="15.131037093160629"><ele>19.333333333333332</ele><time>2026-04-11T13:36:17Z</time></trkpt><trkpt lat="36.88589658606232" lon="15.131027101064124"><ele>19.666666666666668</ele><time>2026-04-11T13:36:18Z</time></trkpt><trkpt lat="36.88570755023412" lon="15.131037985189932"><ele>20.0</ele><time>2026-04-11T13:36:19Z</time></trkpt><trkpt lat="36.8855107394281" lon="15.13107459669474"><ele>20.0</ele><time>2026-04-11T13:36:20Z</time></trkpt><trkpt lat="36.88531315254256" lon="15.131081770383961"><ele>20.0</ele><time>2026-04-11T13:36:21Z</time></trkpt><trkpt lat="36.88510254939282" lon="15.131098953297402"><ele>20.0</ele><time>2026-04-11T13:36:22Z</time></trkpt><trkpt lat="36.884874488321344" lon="15.131117526079935"><ele>20.0</ele><time>2026-04-11T13:36:23Z</time></trkpt><trkpt lat="36.88463423444236" lon="15.13113124910807"><ele>20.0</ele><time>2026-04-11T13:36:24Z</time></trkpt><trkpt lat="36.88439854962394" lon="15.131145956580772"><ele>19.666666666666668</ele><time>2026-04-11T13:36:25Z</time></trkpt><trkpt lat="36.88418411011411" lon="15.131164231036161"><ele>19.333333333333332</ele><time>2026-04-11T13:36:26Z</time></trkpt><trkpt lat="36.883989695490364" lon="15.131179093869589"><ele>19.0</ele><time>2026-04-11T13:36:27Z</time></trkpt><trkpt lat="36.883806624823684" lon="15.131189730995187"><ele>19.0</ele><time>2026-04-11T13:36:28Z</time></trkpt><trkpt lat="36.883632470575456" lon="15.131196900768046"><ele>19.0</ele><time>2026-04-11T13:36:29Z</time></trkpt><trkpt lat="36.88347734432871" lon="15.131201173881077"><ele>19.0</ele><time>2026-04-11T13:36:30Z</time></trkpt><trkpt lat="36.88332431067155" lon="15.131193954780027"><ele>18.666666666666664</ele><time>2026-04-11T13:36:31Z</time></trkpt><trkpt lat="36.883167568265755" lon="15.131178304124475"><ele>18.333333333333332</ele><time>2026-04-11T13:36:32Z</time></trkpt><trkpt lat="36.88300617283734" lon="15.1311475864364"><ele>18.0</ele><time>2026-04-11T13:36:33Z</time></trkpt><trkpt lat="36.8828526122203" lon="15.131111756755102"><ele>18.0</ele><time>2026-04-11T13:36:34Z</time></trkpt><trkpt lat="36.88271307707958" lon="15.131067339086922"><ele>18.0</ele><time>2026-04-11T13:36:35Z</time></trkpt><trkpt lat="36.88257375635324" lon="15.131003139312973"><ele>18.0</ele><time>2026-04-11T13:36:36Z</time></trkpt><trkpt lat="36.88243050166826" lon="15.130923114809148"><ele>18.0</ele><time>2026-04-11T13:36:37Z</time></trkpt><trkpt lat="36.88228359652118" lon="15.130836569747832"><ele>17.666666666666668</ele><time>2026-04-11T13:36:38Z</time></trkpt><trkpt lat="36.88212990716068" lon="15.130761213782021"><ele>17.333333333333336</ele><time>2026-04-11T13:36:39Z</time></trkpt><trkpt lat="36.88197555822774" lon="15.13070821389409"><ele>17.0</ele><time>2026-04-11T13:36:40Z</time></trkpt><trkpt lat="36.881826510326995" lon="15.130679415672201"><ele>16.333333333333336</ele><time>2026-04-11T13:36:41Z</time></trkpt><trkpt lat="36.88167948510013" lon="15.13067748850715"><ele>15.666666666666668</ele><time>2026-04-11T13:36:42Z</time></trkpt><trkpt lat="36.881528065617594" lon="15.13068371648708"><ele>15.0</ele><time>2026-04-11T13:36:43Z</time></trkpt><trkpt lat="36.88136959971711" lon="15.130690056766515"><ele>15.0</ele><time>2026-04-11T13:36:44Z</time></trkpt><trkpt lat="36.88120870595306" lon="15.130684239960823"><ele>15.0</ele><time>2026-04-11T13:36:45Z</time></trkpt><trkpt lat="36.88104301474994" lon="15.130662448877676"><ele>15.0</ele><time>2026-04-11T13:36:46Z</time></trkpt><trkpt lat="36.880880711524746" lon="15.13063385418835"><ele>15.0</ele><time>2026-04-11T13:36:47Z</time></trkpt><trkpt lat="36.880723676691254" lon="15.130595982707296"><ele>15.0</ele><time>2026-04-11T13:36:48Z</time></trkpt><trkpt lat="36.88056002628067" lon="15.130538280034777"><ele>15.0</ele><time>2026-04-11T13:36:49Z</time></trkpt><trkpt lat="36.88039633990394" lon="15.13046026720238"><ele>15.0</ele><time>2026-04-11T13:36:50Z</time></trkpt><trkpt lat="36.88022886011851" lon="15.130393309981997"><ele>15.0</ele><time>2026-04-11T13:36:51Z</time></trkpt><trkpt lat="36.88007354006403" lon="15.130315317960381"><ele>15.0</ele><time>2026-04-11T13:36:52Z</time></trkpt><trkpt lat="36.8799194524986" lon="15.130242731660136"><ele>14.0</ele><time>2026-04-11T13:36:53Z</time></trkpt><trkpt lat="36.879782717381616" lon="15.130178671628089"><ele>13.0</ele><time>2026-04-11T13:36:54Z</time></trkpt><trkpt lat="36.879666400753194" lon="15.130111337069689"><ele>12.0</ele><time>2026-04-11T13:36:55Z</time></trkpt><trkpt lat="36.87955644160025" lon="15.130007757441362"><ele>11.0</ele><time>2026-04-11T13:36:56Z</time></trkpt><trkpt lat="36.87945033941773" lon="15.129857004475388"><ele>10.0</ele><time>2026-04-11T13:36:57Z</time></trkpt><trkpt lat="36.87933860837031" lon="15.129667463679846"><ele>9.0</ele><time>2026-04-11T13:36:58Z</time></trkpt><trkpt lat="36.87923168492866" lon="15.129477009851351"><ele>8.0</ele><time>2026-04-11T13:36:59Z</time></trkpt><trkpt lat="36.879123388144826" lon="15.12925642054266"><ele>8.333333333333332</ele><time>2026-04-11T13:37:00Z</time></trkpt><trkpt lat="36.87904686260081" lon="15.129027318075469"><ele>8.666666666666666</ele><time>2026-04-11T13:37:01Z</time></trkpt><trkpt lat="36.87899271318386" lon="15.128789928972672"><ele>9.0</ele><time>2026-04-11T13:37:02Z</time></trkpt><trkpt lat="36.87894409607873" lon="15.12859414154494"><ele>9.0</ele><time>2026-04-11T13:37:03Z</time></trkpt><trkpt lat="36.878882645147606" lon="15.128444877400533"><ele>9.0</ele><time>2026-04-11T13:37:04Z</time></trkpt><trkpt lat="36.878784799382906" lon="15.128331397208553"><ele>9.0</ele><time>2026-04-11T13:37:05Z</time></trkpt><trkpt lat="36.87864127605595" lon="15.128228676920246"><ele>9.0</ele><time>2026-04-11T13:37:06Z</time></trkpt><trkpt lat="36.87846266861156" lon="15.128125801285332"><ele>9.0</ele><time>2026-04-11T13:37:07Z</time></trkpt><trkpt lat="36.87828257831881" lon="15.12801214297266"><ele>9.0</ele><time>2026-04-11T13:37:08Z</time></trkpt><trkpt lat="36.878107368623475" lon="15.12788181782847"><ele>9.0</ele><time>2026-04-11T13:37:09Z</time></trkpt><trkpt lat="36.87793481276748" lon="15.12774431752161"><ele>9.0</ele><time>2026-04-11T13:37:10Z</time></trkpt><trkpt lat="36.8777728658733" lon="15.127612617880736"><ele>9.0</ele><time>2026-04-11T13:37:11Z</time></trkpt><trkpt lat="36.877636166581674" lon="15.127487501593931"><ele>9.0</ele><time>2026-04-11T13:37:12Z</time></trkpt><trkpt lat="36.87750250788817" lon="15.127386389259073"><ele>8.666666666666666</ele><time>2026-04-11T13:37:13Z</time></trkpt><trkpt lat="36.87732327371746" lon="15.12730578360436"><ele>8.333333333333332</ele><time>2026-04-11T13:37:14Z</time></trkpt><trkpt lat="36.87710248694919" lon="15.127257792302828"><ele>8.0</ele><time>2026-04-11T13:37:15Z</time></trkpt><trkpt lat="36.87683931930929" lon="15.127240308190949"><ele>8.0</ele><time>2026-04-11T13:37:16Z</time></trkpt><trkpt lat="36.87655083895597" lon="15.127228309726295"><ele>8.0</ele><time>2026-04-11T13:37:17Z</time></trkpt><trkpt lat="36.87625812620415" lon="15.127202043395418"><ele>8.0</ele><time>2026-04-11T13:37:18Z</time></trkpt><trkpt lat="36.87601567011444" lon="15.127170825156739"><ele>8.0</ele><time>2026-04-11T13:37:19Z</time></trkpt><trkpt lat="36.87580022203404" lon="15.127146194383213"><ele>8.0</ele><time>2026-04-11T13:37:20Z</time></trkpt><trkpt lat="36.87560929340765" lon="15.127126169298146"><ele>8.0</ele><time>2026-04-11T13:37:21Z</time></trkpt><trkpt lat="36.8754247935969" lon="15.127106862942378"><ele>8.0</ele><time>2026-04-11T13:37:22Z</time></trkpt><trkpt lat="36.875238272807515" lon="15.127078258956011"><ele>8.0</ele><time>2026-04-11T13:37:23Z</time></trkpt><trkpt lat="36.87506796061047" lon="15.127042575461482"><ele>8.0</ele><time>2026-04-11T13:37:24Z</time></trkpt><trkpt lat="36.87493754200675" lon="15.12700628700364"><ele>8.0</ele><time>2026-04-11T13:37:25Z</time></trkpt><trkpt lat="36.874810254717" lon="15.126953315055808"><ele>8.0</ele><time>2026-04-11T13:37:26Z</time></trkpt><trkpt lat="36.87470398015312" lon="15.126854764567735"><ele>8.0</ele><time>2026-04-11T13:37:27Z</time></trkpt><trkpt lat="36.87456412196067" lon="15.126735959987014"><ele>8.0</ele><time>2026-04-11T13:37:28Z</time></trkpt><trkpt lat="36.87440995804299" lon="15.126529653366475"><ele>8.0</ele><time>2026-04-11T13:37:29Z</time></trkpt><trkpt lat="36.87427964072306" lon="15.126391441366883"><ele>10.5</ele><time>2026-04-11T13:37:30Z</time></trkpt><trkpt lat="36.87416744802016" lon="15.126307010005265"><ele>13.0</ele><time>2026-04-11T13:37:31Z</time></trkpt><trkpt lat="36.87405064991117" lon="15.126276948001394"><ele>15.5</ele><time>2026-04-11T13:37:32Z</time></trkpt><trkpt lat="36.87392568541867" lon="15.126279505922701"><ele>18.0</ele><time>2026-04-11T13:37:33Z</time></trkpt><trkpt lat="36.873797210431995" lon="15.126332338655759"><ele>18.0</ele><time>2026-04-11T13:37:34Z</time></trkpt><trkpt lat="36.87365594390722" lon="15.126428139564592"><ele>18.0</ele><time>2026-04-11T13:37:35Z</time></trkpt><trkpt lat="36.873490192719196" lon="15.126559289303627"><ele>18.0</ele><time>2026-04-11T13:37:36Z</time></trkpt><trkpt lat="36.873342761878455" lon="15.126674926852415"><ele>16.666666666666668</ele><time>2026-04-11T13:37:37Z</time></trkpt><trkpt lat="36.873196619481696" lon="15.12676524686031"><ele>15.333333333333334</ele><time>2026-04-11T13:37:38Z</time></trkpt><trkpt lat="36.87302460649467" lon="15.126832322381457"><ele>14.0</ele><time>2026-04-11T13:37:39Z</time></trkpt><trkpt lat="36.87285469611248" lon="15.126878112571719"><ele>14.0</ele><time>2026-04-11T13:37:40Z</time></trkpt><trkpt lat="36.87270182815859" lon="15.126929085880887"><ele>14.0</ele><time>2026-04-11T13:37:41Z</time></trkpt><trkpt lat="36.872547384742816" lon="15.127007776313302"><ele>14.0</ele><time>2026-04-11T13:37:42Z</time></trkpt><trkpt lat="36.87240449566435" lon="15.1270972517881"><ele>14.5</ele><time>2026-04-11T13:37:43Z</time></trkpt><trkpt lat="36.87227628892593" lon="15.127183130159278"><ele>15.0</ele><time>2026-04-11T13:37:44Z</time></trkpt><trkpt lat="36.87216138510604" lon="15.127263531921548"><ele>15.5</ele><time>2026-04-11T13:37:45Z</time></trkpt><trkpt lat="36.87205251922573" lon="15.127342848739676"><ele>16.0</ele><time>2026-04-11T13:37:46Z</time></trkpt><trkpt lat="36.87195240216897" lon="15.127417953084205"><ele>16.166666666666664</ele><time>2026-04-11T13:37:46.999Z</time></trkpt><trkpt lat="36.87187032679331" lon="15.127475227462202"><ele>16.333333333333332</ele><time>2026-04-11T13:37:47.999Z</time></trkpt><trkpt lat="36.87179849179214" lon="15.127496570796847"><ele>16.5</ele><time>2026-04-11T13:37:48.999Z</time></trkpt><trkpt lat="36.871725276570956" lon="15.127475396730153"><ele>16.666666666666668</ele><time>2026-04-11T13:37:49.999Z</time></trkpt><trkpt lat="36.87165818801857" lon="15.127432178754708"><ele>16.833333333333336</ele><time>2026-04-11T13:37:50.999Z</time></trkpt><trkpt lat="36.871594684213385" lon="15.1273237540925"><ele>17.0</ele><time>2026-04-11T13:37:51.999Z</time></trkpt><trkpt lat="36.87153219587529" lon="15.12726160542408"><ele>17.0</ele><time>2026-04-11T13:37:53Z</time></trkpt><trkpt lat="36.871453944719605" lon="15.12723808319399"><ele>17.0</ele><time>2026-04-11T13:37:54Z</time></trkpt><trkpt lat="36.87138519844558" lon="15.127262918563696"><ele>17.0</ele><time>2026-04-11T13:37:55Z</time></trkpt><trkpt lat="36.871328798822546" lon="15.127298335822855"><ele>17.0</ele><time>2026-04-11T13:37:56Z</time></trkpt><trkpt lat="36.871229408125906" lon="15.12732661785919"><ele>17.0</ele><time>2026-04-11T13:37:58Z</time></trkpt><trkpt lat="36.87114741464489" lon="15.12730235061358"><ele>17.0</ele><time>2026-04-11T13:38:00Z</time></trkpt><trkpt lat="36.871102233708996" lon="15.127198094483544"><ele>17.0</ele><time>2026-04-11T13:38:02Z</time></trkpt><trkpt lat="36.87103893381664" lon="15.127096131392772"><ele>17.0</ele><time>2026-04-11T13:38:04Z</time></trkpt><trkpt lat="36.87100548361953" lon="15.127020074268943"><ele>17.0</ele><time>2026-04-11T13:38:05Z</time></trkpt><trkpt lat="36.870973175141046" lon="15.126944102921422"><ele>17.0</ele><time>2026-04-11T13:38:06Z</time></trkpt><trkpt lat="36.87094093012893" lon="15.126854029889502"><ele>17.0</ele><time>2026-04-11T13:38:07Z</time></trkpt><trkpt lat="36.870902455875125" lon="15.12675919759659"><ele>17.0</ele><time>2026-04-11T13:38:08Z</time></trkpt><trkpt lat="36.870850059102146" lon="15.126671374716397"><ele>17.25</ele><time>2026-04-11T13:38:09Z</time></trkpt><trkpt lat="36.87077867044266" lon="15.126579358145836"><ele>17.5</ele><time>2026-04-11T13:38:10Z</time></trkpt><trkpt lat="36.87069214455119" lon="15.126488011066126"><ele>17.75</ele><time>2026-04-11T13:38:11Z</time></trkpt><trkpt lat="36.8705942329254" lon="15.126395144607857"><ele>18.0</ele><time>2026-04-11T13:38:12Z</time></trkpt><trkpt lat="36.87048890098609" lon="15.126300998732637"><ele>18.0</ele><time>2026-04-11T13:38:13Z</time></trkpt><trkpt lat="36.87037976344872" lon="15.12620122412666"><ele>18.0</ele><time>2026-04-11T13:38:14Z</time></trkpt><trkpt lat="36.8702589719593" lon="15.126093145706992"><ele>18.0</ele><time>2026-04-11T13:38:15Z</time></trkpt><trkpt lat="36.87014604267387" lon="15.125996252539748"><ele>18.0</ele><time>2026-04-11T13:38:16Z</time></trkpt><trkpt lat="36.87003267174396" lon="15.12591297757779"><ele>18.0</ele><time>2026-04-11T13:38:17Z</time></trkpt><trkpt lat="36.86992048369494" lon="15.125839430722836"><ele>18.0</ele><time>2026-04-11T13:38:18Z</time></trkpt><trkpt lat="36.86980395694802" lon="15.125772535924119"><ele>18.0</ele><time>2026-04-11T13:38:19Z</time></trkpt><trkpt lat="36.86969956280338" lon="15.12570822198783"><ele>18.0</ele><time>2026-04-11T13:38:20Z</time></trkpt><trkpt lat="36.86960823801532" lon="15.125653321538243"><ele>18.166666666666668</ele><time>2026-04-11T13:38:21Z</time></trkpt><trkpt lat="36.8695282093867" lon="15.125610441370544"><ele>18.333333333333332</ele><time>2026-04-11T13:38:22Z</time></trkpt><trkpt lat="36.86945253547203" lon="15.125570783437208"><ele>18.5</ele><time>2026-04-11T13:38:23Z</time></trkpt><trkpt lat="36.86936483014734" lon="15.125521300660429"><ele>18.666666666666664</ele><time>2026-04-11T13:38:24Z</time></trkpt><trkpt lat="36.86928313293967" lon="15.125470216283528"><ele>18.833333333333332</ele><time>2026-04-11T13:38:25Z</time></trkpt><trkpt lat="36.869214650773266" lon="15.125424738795317"><ele>19.0</ele><time>2026-04-11T13:38:26Z</time></trkpt><trkpt lat="36.869152415429966" lon="15.125382005209815"><ele>18.4</ele><time>2026-04-11T13:38:27Z</time></trkpt><trkpt lat="36.869057628162196" lon="15.125323811960708"><ele>17.799999999999997</ele><time>2026-04-11T13:38:29Z</time></trkpt><trkpt lat="36.86896719285674" lon="15.125322897909648"><ele>17.200000000000003</ele><time>2026-04-11T13:38:31Z</time></trkpt><trkpt lat="36.86892793294353" lon="15.125422249069661"><ele>16.6</ele><time>2026-04-11T13:38:32Z</time></trkpt><trkpt lat="36.868901286447354" lon="15.125511479180359"><ele>16.0</ele><time>2026-04-11T13:38:33Z</time></trkpt><trkpt lat="36.86886409317942" lon="15.125617823858112"><ele>16.0</ele><time>2026-04-11T13:38:39.001Z</time></trkpt><trkpt lat="36.86877555945851" lon="15.125628741330623"><ele>16.0</ele><time>2026-04-11T13:38:41.001Z</time></trkpt><trkpt lat="36.868711730491206" lon="15.125582661128638"><ele>16.0</ele><time>2026-04-11T13:38:42.001Z</time></trkpt><trkpt lat="36.86860997071525" lon="15.12551790811612"><ele>16.0</ele><time>2026-04-11T13:38:43.001Z</time></trkpt><trkpt lat="36.868494758622454" lon="15.125444716719496"><ele>16.0</ele><time>2026-04-11T13:38:44.001Z</time></trkpt><trkpt lat="36.86836633235206" lon="15.125369798044472"><ele>16.0</ele><time>2026-04-11T13:38:45.001Z</time></trkpt><trkpt lat="36.86824941406761" lon="15.125301352227556"><ele>16.0</ele><time>2026-04-11T13:38:46.001Z</time></trkpt><trkpt lat="36.868150372267976" lon="15.125239152750726"><ele>16.0</ele><time>2026-04-11T13:38:47.001Z</time></trkpt><trkpt lat="36.86806548909321" lon="15.125182464524284"><ele>16.0</ele><time>2026-04-11T13:38:48.001Z</time></trkpt><trkpt lat="36.86799048075713" lon="15.12512787959668"><ele>16.0</ele><time>2026-04-11T13:38:49.001Z</time></trkpt><trkpt lat="36.86791253733451" lon="15.125074751707865"><ele>16.0</ele><time>2026-04-11T13:38:50.001Z</time></trkpt><trkpt lat="36.86782294969383" lon="15.125018209187145"><ele>16.0</ele><time>2026-04-11T13:38:51.001Z</time></trkpt><trkpt lat="36.86774332757662" lon="15.124975811018311"><ele>16.0</ele><time>2026-04-11T13:38:52.001Z</time></trkpt><trkpt lat="36.867647005661674" lon="15.12496990724459"><ele>16.0</ele><time>2026-04-11T13:38:54.001Z</time></trkpt><trkpt lat="36.86755297098399" lon="15.12517460833508"><ele>15.600000000000001</ele><time>2026-04-11T13:38:57.001Z</time></trkpt><trkpt lat="36.86750947771704" lon="15.125304325507685"><ele>15.200000000000001</ele><time>2026-04-11T13:38:58.001Z</time></trkpt><trkpt lat="36.867478708343015" lon="15.125394924069484"><ele>14.799999999999999</ele><time>2026-04-11T13:38:59.001Z</time></trkpt><trkpt lat="36.867451697423306" lon="15.125476016112778"><ele>14.399999999999999</ele><time>2026-04-11T13:39:00.001Z</time></trkpt><trkpt lat="36.867400810750254" lon="15.125610343256387"><ele>14.0</ele><time>2026-04-11T13:39:02.001Z</time></trkpt><trkpt lat="36.86736400851627" lon="15.125713125596134"><ele>14.0</ele><time>2026-04-11T13:39:04.001Z</time></trkpt><trkpt lat="36.86729341621844" lon="15.12571234574421"><ele>13.999999999999998</ele><time>2026-04-11T13:39:06.001Z</time></trkpt><trkpt lat="36.86725980314342" lon="15.125635480067727"><ele>13.999999999999998</ele><time>2026-04-11T13:39:07.001Z</time></trkpt><trkpt lat="36.86717104529045" lon="15.12558185333119"><ele>14.0</ele><time>2026-04-11T13:39:08.001Z</time></trkpt><trkpt lat="36.867072306620635" lon="15.12551716683136"><ele>14.0</ele><time>2026-04-11T13:39:09.001Z</time></trkpt><trkpt lat="36.86696419517474" lon="15.125445431313945"><ele>14.0</ele><time>2026-04-11T13:39:10.001Z</time></trkpt><trkpt lat="36.866853279544415" lon="15.125372873176959"><ele>13.999999999999998</ele><time>2026-04-11T13:39:11.001Z</time></trkpt><trkpt lat="36.86675791336647" lon="15.125311261595584"><ele>13.999999999999998</ele><time>2026-04-11T13:39:12.001Z</time></trkpt><trkpt lat="36.86665667825782" lon="15.125245858358427"><ele>14.0</ele><time>2026-04-11T13:39:13.001Z</time></trkpt><trkpt lat="36.866570389042515" lon="15.1251901108851"><ele>14.0</ele><time>2026-04-11T13:39:14.001Z</time></trkpt><trkpt lat="36.86649772039007" lon="15.125141128343435"><ele>13.857142857142858</ele><time>2026-04-11T13:39:15.001Z</time></trkpt><trkpt lat="36.86642203522957" lon="15.125089829439784"><ele>13.714285714285715</ele><time>2026-04-11T13:39:16.001Z</time></trkpt><trkpt lat="36.86635156035301" lon="15.125042062161356"><ele>13.571428571428571</ele><time>2026-04-11T13:39:17.001Z</time></trkpt><trkpt lat="36.86629375878841" lon="15.125006470203857"><ele>13.428571428571429</ele><time>2026-04-11T13:39:18.001Z</time></trkpt><trkpt lat="36.86622233735978" lon="15.124981993795204"><ele>13.285714285714286</ele><time>2026-04-11T13:39:19.001Z</time></trkpt><trkpt lat="36.86614930342066" lon="15.124955183980592"><ele>13.142857142857142</ele><time>2026-04-11T13:39:20.001Z</time></trkpt><trkpt lat="36.86608456359888" lon="15.124953499861014"><ele>13.0</ele><time>2026-04-11T13:39:21.001Z</time></trkpt><trkpt lat="36.865974084402744" lon="15.125019344864485"><ele>13.166666666666666</ele><time>2026-04-11T13:39:23.001Z</time></trkpt><trkpt lat="36.86588176775159" lon="15.125084371118142"><ele>13.333333333333332</ele><time>2026-04-11T13:39:25.001Z</time></trkpt><trkpt lat="36.86579603023114" lon="15.12514402013794"><ele>13.5</ele><time>2026-04-11T13:39:27.001Z</time></trkpt><trkpt lat="36.86574239799437" lon="15.125201685175668"><ele>13.666666666666668</ele><time>2026-04-11T13:39:29.001Z</time></trkpt><trkpt lat="36.865676109385085" lon="15.12519616984905"><ele>13.833333333333334</ele><time>2026-04-11T13:39:31.001Z</time></trkpt><trkpt lat="36.865656888033335" lon="15.125102048841574"><ele>14.0</ele><time>2026-04-11T13:39:33.001Z</time></trkpt><trkpt lat="36.86560678865646" lon="15.12495591991595"><ele>14.0</ele><time>2026-04-11T13:39:35.001Z</time></trkpt><trkpt lat="36.865567446977884" lon="15.124839323869844"><ele>13.999999999999998</ele><time>2026-04-11T13:39:36.001Z</time></trkpt><trkpt lat="36.865518639867496" lon="15.1247331674911"><ele>13.999999999999998</ele><time>2026-04-11T13:39:37.001Z</time></trkpt><trkpt lat="36.865499133018965" lon="15.124636863192205"><ele>14.0</ele><time>2026-04-11T13:39:38.001Z</time></trkpt><trkpt lat="36.865444625258334" lon="15.12452649706122"><ele>14.0</ele><time>2026-04-11T13:39:39.001Z</time></trkpt><trkpt lat="36.86540384822785" lon="15.124401790475925"><ele>14.000000000000002</ele><time>2026-04-11T13:39:40.001Z</time></trkpt><trkpt lat="36.86536383724989" lon="15.124309762728501"><ele>14.0</ele><time>2026-04-11T13:39:41.001Z</time></trkpt><trkpt lat="36.86533230434604" lon="15.124228603285289"><ele>14.0</ele><time>2026-04-11T13:39:42.001Z</time></trkpt><trkpt lat="36.865287555133385" lon="15.124124266365758"><ele>14.0</ele><time>2026-04-11T13:39:43.001Z</time></trkpt><trkpt lat="36.86524229824465" lon="15.124026986398828"><ele>14.000000000000002</ele><time>2026-04-11T13:39:44.001Z</time></trkpt><trkpt lat="36.865205664094184" lon="15.123937458056067"><ele>14.0</ele><time>2026-04-11T13:39:45.001Z</time></trkpt><trkpt lat="36.86516606568331" lon="15.12384973528308"><ele>13.399999999999999</ele><time>2026-04-11T13:39:46.001Z</time></trkpt><trkpt lat="36.86513205966357" lon="15.12377448024227"><ele>12.799999999999999</ele><time>2026-04-11T13:39:47.001Z</time></trkpt><trkpt lat="36.86505319007083" lon="15.123682948371917"><ele>12.2</ele><time>2026-04-11T13:39:49.001Z</time></trkpt><trkpt lat="36.86493344104127" lon="15.123623193537107"><ele>11.600000000000001</ele><time>2026-04-11T13:39:51.001Z</time></trkpt><trkpt lat="36.86485807242581" lon="15.123588391025477"><ele>11.0</ele><time>2026-04-11T13:39:52.001Z</time></trkpt><trkpt lat="36.864794803952044" lon="15.123541432634733"><ele>10.833333333333332</ele><time>2026-04-11T13:39:53Z</time></trkpt><trkpt lat="36.86472196021392" lon="15.123477232171657"><ele>10.666666666666666</ele><time>2026-04-11T13:39:54Z</time></trkpt><trkpt lat="36.86463887815309" lon="15.123442559735002"><ele>10.5</ele><time>2026-04-11T13:39:55Z</time></trkpt><trkpt lat="36.86456990237637" lon="15.123369961112532"><ele>10.333333333333334</ele><time>2026-04-11T13:39:56Z</time></trkpt><trkpt lat="36.864501369995224" lon="15.12334318882313"><ele>10.166666666666668</ele><time>2026-04-11T13:39:57Z</time></trkpt><trkpt lat="36.86445105698888" lon="15.12328257341601"><ele>10.0</ele><time>2026-04-11T13:39:58Z</time></trkpt><trkpt lat="36.86438166479894" lon="15.12323154949086"><ele>9.75</ele><time>2026-04-11T13:40:00Z</time></trkpt><trkpt lat="36.864204257302994" lon="15.123431969382763"><ele>9.5</ele><time>2026-04-11T13:40:03Z</time></trkpt><trkpt lat="36.864149032574765" lon="15.123372403675019"><ele>9.25</ele><time>2026-04-11T13:40:05Z</time></trkpt><trkpt lat="36.86408637523972" lon="15.123283278180644"><ele>9.0</ele><time>2026-04-11T13:40:06Z</time></trkpt><trkpt lat="36.864002253072705" lon="15.123187133373674"><ele>9.0</ele><time>2026-04-11T13:40:07Z</time></trkpt><trkpt lat="36.86394253976844" lon="15.123112611328938"><ele>9.0</ele><time>2026-04-11T13:40:08Z</time></trkpt><trkpt lat="36.86388589554041" lon="15.123070915297033"><ele>9.0</ele><time>2026-04-11T13:40:10Z</time></trkpt><trkpt lat="36.863817376714366" lon="15.123158153652366"><ele>9.0</ele><time>2026-04-11T13:40:13Z</time></trkpt><trkpt lat="36.86378592741505" lon="15.123248351356251"><ele>9.0</ele><time>2026-04-11T13:40:14Z</time></trkpt><trkpt lat="36.86375063275951" lon="15.123324221288605"><ele>9.0</ele><time>2026-04-11T13:40:17Z</time></trkpt><trkpt lat="36.863704637639124" lon="15.12338515102545"><ele>9.0</ele><time>2026-04-11T13:40:21Z</time></trkpt><trkpt lat="36.863625593005786" lon="15.123340400720172"><ele>9.0</ele><time>2026-04-11T13:40:24Z</time></trkpt><trkpt lat="36.86355344446419" lon="15.123238277019553"><ele>9.0</ele><time>2026-04-11T13:40:25Z</time></trkpt><trkpt lat="36.86347748320665" lon="15.123140374300457"><ele>9.0</ele><time>2026-04-11T13:40:26Z</time></trkpt><trkpt lat="36.86337282763143" lon="15.123011383839254"><ele>9.5</ele><time>2026-04-11T13:40:27Z</time></trkpt><trkpt lat="36.8632432880647" lon="15.122844131473345"><ele>10.0</ele><time>2026-04-11T13:40:28Z</time></trkpt><trkpt lat="36.86314606231114" lon="15.122725117836616"><ele>10.5</ele><time>2026-04-11T13:40:29Z</time></trkpt><trkpt lat="36.86307125644421" lon="15.122639359831256"><ele>11.0</ele><time>2026-04-11T13:40:30Z</time></trkpt><trkpt lat="36.86300356566914" lon="15.12255605127806"><ele>11.0</ele><time>2026-04-11T13:40:31Z</time></trkpt><trkpt lat="36.86293228776067" lon="15.122462757783653"><ele>11.0</ele><time>2026-04-11T13:40:32Z</time></trkpt><trkpt lat="36.86285845633127" lon="15.122369820608085"><ele>11.0</ele><time>2026-04-11T13:40:33Z</time></trkpt><trkpt lat="36.862777905929086" lon="15.122269687870752"><ele>11.0</ele><time>2026-04-11T13:40:34Z</time></trkpt><trkpt lat="36.86269233469257" lon="15.122161749304285"><ele>11.0</ele><time>2026-04-11T13:40:35Z</time></trkpt><trkpt lat="36.86260142252524" lon="15.122044293632499"><ele>11.25</ele><time>2026-04-11T13:40:36Z</time></trkpt><trkpt lat="36.86251007899032" lon="15.121918938927463"><ele>11.5</ele><time>2026-04-11T13:40:37Z</time></trkpt><trkpt lat="36.86241414845864" lon="15.121791891009032"><ele>11.75</ele><time>2026-04-11T13:40:38Z</time></trkpt><trkpt lat="36.8623202968807" lon="15.121672444065828"><ele>12.0</ele><time>2026-04-11T13:40:39Z</time></trkpt><trkpt lat="36.862226428843094" lon="15.121549591189762"><ele>12.0</ele><time>2026-04-11T13:40:40Z</time></trkpt><trkpt lat="36.86212402991261" lon="15.12142748439597"><ele>12.0</ele><time>2026-04-11T13:40:41.001Z</time></trkpt><trkpt lat="36.86201782336094" lon="15.121301677092704"><ele>12.0</ele><time>2026-04-11T13:40:42.001Z</time></trkpt><trkpt lat="36.86192013874051" lon="15.121174266379755"><ele>12.0</ele><time>2026-04-11T13:40:43.001Z</time></trkpt><trkpt lat="36.86182538462635" lon="15.121033354541922"><ele>11.333333333333334</ele><time>2026-04-11T13:40:44.001Z</time></trkpt><trkpt lat="36.86173524012116" lon="15.120880343022781"><ele>10.666666666666668</ele><time>2026-04-11T13:40:45.001Z</time></trkpt><trkpt lat="36.86164230223467" lon="15.120712375901105"><ele>10.0</ele><time>2026-04-11T13:40:46.001Z</time></trkpt><trkpt lat="36.86155471880292" lon="15.120539539818681"><ele>9.0</ele><time>2026-04-11T13:40:47.001Z</time></trkpt><trkpt lat="36.861460974782325" lon="15.12035718980567"><ele>8.0</ele><time>2026-04-11T13:40:48.001Z</time></trkpt><trkpt lat="36.86136746574366" lon="15.120172415229925"><ele>7.0</ele><time>2026-04-11T13:40:49.001Z</time></trkpt><trkpt lat="36.86128169357961" lon="15.12000264767374"><ele>6.5</ele><time>2026-04-11T13:40:50.001Z</time></trkpt><trkpt lat="36.86120544904749" lon="15.11984622822544"><ele>6.0</ele><time>2026-04-11T13:40:51.001Z</time></trkpt><trkpt lat="36.861130880426664" lon="15.119700743400896"><ele>5.5</ele><time>2026-04-11T13:40:52.001Z</time></trkpt><trkpt lat="36.861061466243044" lon="15.119567112894437"><ele>5.0</ele><time>2026-04-11T13:40:53.001Z</time></trkpt><trkpt lat="36.860996814498705" lon="15.119448071173801"><ele>6.0</ele><time>2026-04-11T13:40:54.001Z</time></trkpt><trkpt lat="36.86093825346444" lon="15.119333784831259"><ele>7.0</ele><time>2026-04-11T13:40:55.001Z</time></trkpt><trkpt lat="36.86088207038027" lon="15.119227426377503"><ele>8.0</ele><time>2026-04-11T13:40:56.001Z</time></trkpt><trkpt lat="36.86082464206413" lon="15.119137284008271"><ele>9.0</ele><time>2026-04-11T13:40:57.001Z</time></trkpt><trkpt lat="36.860781332059595" lon="15.119025840817855"><ele>10.0</ele><time>2026-04-11T13:40:58.001Z</time></trkpt><trkpt lat="36.86072016467308" lon="15.118921170725791"><ele>10.75</ele><time>2026-04-11T13:40:59.001Z</time></trkpt><trkpt lat="36.86066558595758" lon="15.118787652231662"><ele>11.5</ele><time>2026-04-11T13:41:00.001Z</time></trkpt><trkpt lat="36.86059123728101" lon="15.118655515136174"><ele>12.25</ele><time>2026-04-11T13:41:01.001Z</time></trkpt><trkpt lat="36.86049659635973" lon="15.118531214025367"><ele>13.0</ele><time>2026-04-11T13:41:02.001Z</time></trkpt><trkpt lat="36.86037957757566" lon="15.118402525280166"><ele>13.0</ele><time>2026-04-11T13:41:03.001Z</time></trkpt><trkpt lat="36.86025661155314" lon="15.118287589256422"><ele>13.0</ele><time>2026-04-11T13:41:04.001Z</time></trkpt><trkpt lat="36.860132123820286" lon="15.118193572904818"><ele>13.0</ele><time>2026-04-11T13:41:05.001Z</time></trkpt><trkpt lat="36.86000519581582" lon="15.118109858220292"><ele>13.0</ele><time>2026-04-11T13:41:06.001Z</time></trkpt><trkpt lat="36.85988415359947" lon="15.118028057834083"><ele>13.0</ele><time>2026-04-11T13:41:07.001Z</time></trkpt><trkpt lat="36.85977081008697" lon="15.11794225711534"><ele>13.0</ele><time>2026-04-11T13:41:08.001Z</time></trkpt><trkpt lat="36.85966482421803" lon="15.117857514593156"><ele>13.0</ele><time>2026-04-11T13:41:09.001Z</time></trkpt><trkpt lat="36.859567297537154" lon="15.117783511205218"><ele>13.0</ele><time>2026-04-11T13:41:10.001Z</time></trkpt><trkpt lat="36.85946996582612" lon="15.117714989009125"><ele>13.0</ele><time>2026-04-11T13:41:11.001Z</time></trkpt><trkpt lat="36.8593744173539" lon="15.117643221917968"><ele>13.0</ele><time>2026-04-11T13:41:12.001Z</time></trkpt><trkpt lat="36.859286922981966" lon="15.11757394698317"><ele>13.0</ele><time>2026-04-11T13:41:13.001Z</time></trkpt><trkpt lat="36.85920830124555" lon="15.117509092097835"><ele>13.0</ele><time>2026-04-11T13:41:14.001Z</time></trkpt><trkpt lat="36.85912377600293" lon="15.117426083536094"><ele>13.0</ele><time>2026-04-11T13:41:15.001Z</time></trkpt><trkpt lat="36.85902760600499" lon="15.117336598703837"><ele>12.5</ele><time>2026-04-11T13:41:16.001Z</time></trkpt><trkpt lat="36.85891753923247" lon="15.11725682597631"><ele>12.0</ele><time>2026-04-11T13:41:17.001Z</time></trkpt><trkpt lat="36.85880865515297" lon="15.117184595676196"><ele>11.5</ele><time>2026-04-11T13:41:18.001Z</time></trkpt><trkpt lat="36.85869555070817" lon="15.117110090185781"><ele>11.0</ele><time>2026-04-11T13:41:19.001Z</time></trkpt><trkpt lat="36.85858107699453" lon="15.117040539760808"><ele>11.0</ele><time>2026-04-11T13:41:20.001Z</time></trkpt><trkpt lat="36.858462595313505" lon="15.116971174238943"><ele>11.0</ele><time>2026-04-11T13:41:21.001Z</time></trkpt><trkpt lat="36.858343480688" lon="15.116891651904277"><ele>11.0</ele><time>2026-04-11T13:41:22.001Z</time></trkpt><trkpt lat="36.85822812087406" lon="15.11680964391106"><ele>11.0</ele><time>2026-04-11T13:41:23.001Z</time></trkpt><trkpt lat="36.858111978988305" lon="15.116727073472898"><ele>10.75</ele><time>2026-04-11T13:41:24.001Z</time></trkpt><trkpt lat="36.85800417874444" lon="15.116649678469189"><ele>10.5</ele><time>2026-04-11T13:41:25.001Z</time></trkpt><trkpt lat="36.85790572232594" lon="15.11657959035263"><ele>10.25</ele><time>2026-04-11T13:41:26.001Z</time></trkpt><trkpt lat="36.857810095441785" lon="15.116513959769723"><ele>10.0</ele><time>2026-04-11T13:41:27.001Z</time></trkpt><trkpt lat="36.85771448657022" lon="15.116446230560566"><ele>9.5</ele><time>2026-04-11T13:41:28.001Z</time></trkpt><trkpt lat="36.85761381155597" lon="15.11636940849012"><ele>9.0</ele><time>2026-04-11T13:41:29.001Z</time></trkpt><trkpt lat="36.8575045942502" lon="15.116288052976572"><ele>8.5</ele><time>2026-04-11T13:41:30.001Z</time></trkpt><trkpt lat="36.857392383569845" lon="15.116209784249438"><ele>8.0</ele><time>2026-04-11T13:41:31.001Z</time></trkpt><trkpt lat="36.857278954231106" lon="15.116130769364057"><ele>8.0</ele><time>2026-04-11T13:41:32.001Z</time></trkpt><trkpt lat="36.85716247835729" lon="15.116049006755045"><ele>8.0</ele><time>2026-04-11T13:41:33.001Z</time></trkpt><trkpt lat="36.85704917980836" lon="15.115967165067708"><ele>8.0</ele><time>2026-04-11T13:41:34.001Z</time></trkpt><trkpt lat="36.856934720307756" lon="15.115884184487388"><ele>8.0</ele><time>2026-04-11T13:41:35.001Z</time></trkpt><trkpt lat="36.856824468539614" lon="15.115803770231173"><ele>8.0</ele><time>2026-04-11T13:41:36.001Z</time></trkpt><trkpt lat="36.85671365411396" lon="15.115723835763998"><ele>8.0</ele><time>2026-04-11T13:41:37.001Z</time></trkpt><trkpt lat="36.856604397007644" lon="15.115645220160015"><ele>8.0</ele><time>2026-04-11T13:41:38.001Z</time></trkpt><trkpt lat="36.856492088780364" lon="15.115564032767812"><ele>8.0</ele><time>2026-04-11T13:41:39.001Z</time></trkpt><trkpt lat="36.856377072064596" lon="15.11548065244228"><ele>8.0</ele><time>2026-04-11T13:41:40.001Z</time></trkpt><trkpt lat="36.8562619758056" lon="15.115397358069544"><ele>8.0</ele><time>2026-04-11T13:41:41.001Z</time></trkpt><trkpt lat="36.85614159636636" lon="15.115308762704606"><ele>8.0</ele><time>2026-04-11T13:41:42.001Z</time></trkpt><trkpt lat="36.85602204944258" lon="15.1152209014826"><ele>8.0</ele><time>2026-04-11T13:41:43.001Z</time></trkpt><trkpt lat="36.855906686273535" lon="15.115138129535913"><ele>7.5</ele><time>2026-04-11T13:41:44.001Z</time></trkpt><trkpt lat="36.855796699172494" lon="15.115058511181562"><ele>7.0</ele><time>2026-04-11T13:41:45.001Z</time></trkpt><trkpt lat="36.85568732907202" lon="15.114981384040505"><ele>6.5</ele><time>2026-04-11T13:41:46.001Z</time></trkpt><trkpt lat="36.855582587392284" lon="15.11490994584082"><ele>6.0</ele><time>2026-04-11T13:41:47.001Z</time></trkpt><trkpt lat="36.8554876994835" lon="15.114841377094065"><ele>6.0</ele><time>2026-04-11T13:41:48.001Z</time></trkpt><trkpt lat="36.85540101983739" lon="15.114776934815817"><ele>6.0</ele><time>2026-04-11T13:41:49.001Z</time></trkpt><trkpt lat="36.855316416685454" lon="15.114716553762582"><ele>6.0</ele><time>2026-04-11T13:41:50.001Z</time></trkpt><trkpt lat="36.85523242802026" lon="15.114657596609618"><ele>6.0</ele><time>2026-04-11T13:41:51.001Z</time></trkpt><trkpt lat="36.85514329755745" lon="15.114596551946107"><ele>6.0</ele><time>2026-04-11T13:41:52.001Z</time></trkpt><trkpt lat="36.855056979170065" lon="15.114537534252088"><ele>6.4</ele><time>2026-04-11T13:41:53.001Z</time></trkpt><trkpt lat="36.854974104325656" lon="15.114481852198512"><ele>6.8</ele><time>2026-04-11T13:41:54.001Z</time></trkpt><trkpt lat="36.85488696164758" lon="15.114423689284665"><ele>7.200000000000001</ele><time>2026-04-11T13:41:55.001Z</time></trkpt><trkpt lat="36.85479948067442" lon="15.114365872562146"><ele>7.6000000000000005</ele><time>2026-04-11T13:41:56.001Z</time></trkpt><trkpt lat="36.85471884046856" lon="15.114314400787714"><ele>8.0</ele><time>2026-04-11T13:41:57.001Z</time></trkpt><trkpt lat="36.85464192183045" lon="15.11426123360962"><ele>8.0</ele><time>2026-04-11T13:41:58.001Z</time></trkpt><trkpt lat="36.854563550434555" lon="15.11419953948236"><ele>8.0</ele><time>2026-04-11T13:41:59Z</time></trkpt><trkpt lat="36.85448547024914" lon="15.11413510331535"><ele>8.0</ele><time>2026-04-11T13:42:00Z</time></trkpt><trkpt lat="36.85440791836953" lon="15.114060220240024"><ele>8.0</ele><time>2026-04-11T13:42:01Z</time></trkpt><trkpt lat="36.854355553986196" lon="15.113996407154465"><ele>8.0</ele><time>2026-04-11T13:42:02Z</time></trkpt><trkpt lat="36.854274004053174" lon="15.113895846273213"><ele>8.5</ele><time>2026-04-11T13:42:04Z</time></trkpt><trkpt lat="36.854217492878725" lon="15.113806759799916"><ele>9.0</ele><time>2026-04-11T13:42:06Z</time></trkpt><trkpt lat="36.85430638205684" lon="15.113648352964331"><ele>9.5</ele><time>2026-04-11T13:42:07Z</time></trkpt><trkpt lat="36.85436323955853" lon="15.113535306851936"><ele>10.0</ele><time>2026-04-11T13:42:08Z</time></trkpt><trkpt lat="36.85443464630698" lon="15.113402554775034"><ele>10.0</ele><time>2026-04-11T13:42:09Z</time></trkpt><trkpt lat="36.85451679722058" lon="15.113255241787641"><ele>10.0</ele><time>2026-04-11T13:42:10Z</time></trkpt><trkpt lat="36.85459526734038" lon="15.113114778613154"><ele>10.0</ele><time>2026-04-11T13:42:11Z</time></trkpt><trkpt lat="36.854667998024745" lon="15.112978251448812"><ele>10.0</ele><time>2026-04-11T13:42:12Z</time></trkpt><trkpt lat="36.85473589502316" lon="15.112842252218211"><ele>11.0</ele><time>2026-04-11T13:42:13Z</time></trkpt><trkpt lat="36.8547967359095" lon="15.112714644321288"><ele>12.0</ele><time>2026-04-11T13:42:14Z</time></trkpt><trkpt lat="36.854857341717214" lon="15.112586867885419"><ele>13.0</ele><time>2026-04-11T13:42:15Z</time></trkpt><trkpt lat="36.85491534726026" lon="15.11246572237947"><ele>14.0</ele><time>2026-04-11T13:42:16Z</time></trkpt><trkpt lat="36.854974567969215" lon="15.112341611732365"><ele>14.0</ele><time>2026-04-11T13:42:17Z</time></trkpt><trkpt lat="36.85503429211827" lon="15.112215267431349"><ele>14.0</ele><time>2026-04-11T13:42:18Z</time></trkpt><trkpt lat="36.85509760987105" lon="15.112088189060117"><ele>14.0</ele><time>2026-04-11T13:42:19Z</time></trkpt><trkpt lat="36.85516257987814" lon="15.11196047151687"><ele>14.0</ele><time>2026-04-11T13:42:20Z</time></trkpt><trkpt lat="36.85522764397364" lon="15.111830401450701"><ele>14.0</ele><time>2026-04-11T13:42:21Z</time></trkpt><trkpt lat="36.855291967090515" lon="15.111697036006586"><ele>14.0</ele><time>2026-04-11T13:42:22Z</time></trkpt><trkpt lat="36.85535413571784" lon="15.111557658510897"><ele>14.0</ele><time>2026-04-11T13:42:23Z</time></trkpt><trkpt lat="36.85542045003746" lon="15.111414495581466"><ele>14.0</ele><time>2026-04-11T13:42:24Z</time></trkpt><trkpt lat="36.85548870562681" lon="15.111265285273507"><ele>14.5</ele><time>2026-04-11T13:42:25Z</time></trkpt><trkpt lat="36.855557990146515" lon="15.111118104175537"><ele>15.0</ele><time>2026-04-11T13:42:26Z</time></trkpt><trkpt lat="36.85562200534774" lon="15.110989305163233"><ele>15.5</ele><time>2026-04-11T13:42:27Z</time></trkpt><trkpt lat="36.85568433225113" lon="15.110866320268718"><ele>16.0</ele><time>2026-04-11T13:42:28Z</time></trkpt><trkpt lat="36.85575788616379" lon="15.110749270191254"><ele>16.0</ele><time>2026-04-11T13:42:29Z</time></trkpt><trkpt lat="36.85586263198392" lon="15.110658533233106"><ele>16.0</ele><time>2026-04-11T13:42:30Z</time></trkpt><trkpt lat="36.85596051791909" lon="15.11054651628278"><ele>16.0</ele><time>2026-04-11T13:42:31Z</time></trkpt><trkpt lat="36.85607160721272" lon="15.110444906869523"><ele>16.0</ele><time>2026-04-11T13:42:32Z</time></trkpt><trkpt lat="36.8561739903087" lon="15.11034235637514"><ele>16.400000000000002</ele><time>2026-04-11T13:42:33Z</time></trkpt><trkpt lat="36.856260507818554" lon="15.110250017194032"><ele>16.8</ele><time>2026-04-11T13:42:34Z</time></trkpt><trkpt lat="36.856331989489796" lon="15.110175971480437"><ele>17.200000000000003</ele><time>2026-04-11T13:42:35Z</time></trkpt><trkpt lat="36.85641797912187" lon="15.110103279296025"><ele>17.6</ele><time>2026-04-11T13:42:37Z</time></trkpt><trkpt lat="36.85647184468215" lon="15.110060516909055"><ele>18.0</ele><time>2026-04-11T13:42:39.001Z</time></trkpt><trkpt lat="36.85653819380459" lon="15.109988689352349"><ele>18.0</ele><time>2026-04-11T13:42:41.001Z</time></trkpt><trkpt lat="36.856586302445024" lon="15.10991862559466"><ele>18.0</ele><time>2026-04-11T13:42:43.001Z</time></trkpt><trkpt lat="36.85661117416346" lon="15.109826494146862"><ele>18.0</ele><time>2026-04-11T13:42:46.001Z</time></trkpt><trkpt lat="36.856557423657165" lon="15.109748650669566"><ele>18.0</ele><time>2026-04-11T13:42:49.001Z</time></trkpt><trkpt lat="36.85647364791359" lon="15.10968031928314"><ele>18.0</ele><time>2026-04-11T13:42:51.001Z</time></trkpt><trkpt lat="36.85641568936399" lon="15.109628539944998"><ele>18.0</ele><time>2026-04-11T13:42:53.001Z</time></trkpt><trkpt lat="36.8563411263631" lon="15.109695649755501"><ele>18.0</ele><time>2026-04-11T13:42:56.001Z</time></trkpt><trkpt lat="36.85627522587499" lon="15.109777762489843"><ele>18.0</ele><time>2026-04-11T13:42:58.001Z</time></trkpt><trkpt lat="36.8562073551941" lon="15.109796983911645"><ele>18.0</ele><time>2026-04-11T13:43:01.001Z</time></trkpt><trkpt lat="36.85610446325225" lon="15.109695908904925"><ele>18.0</ele><time>2026-04-11T13:43:03.001Z</time></trkpt><trkpt lat="36.85603411089208" lon="15.10963692891504"><ele>18.0</ele><time>2026-04-11T13:43:04.001Z</time></trkpt><trkpt lat="36.85594572977774" lon="15.109569031145364"><ele>17.8</ele><time>2026-04-11T13:43:05.001Z</time></trkpt><trkpt lat="36.85584404703338" lon="15.109499885927406"><ele>17.6</ele><time>2026-04-11T13:43:06.001Z</time></trkpt><trkpt lat="36.85574757351389" lon="15.109452631226944"><ele>17.4</ele><time>2026-04-11T13:43:07.001Z</time></trkpt><trkpt lat="36.85564168790812" lon="15.109403856494586"><ele>17.2</ele><time>2026-04-11T13:43:08.001Z</time></trkpt><trkpt lat="36.85554907512197" lon="15.109336596527639"><ele>17.0</ele><time>2026-04-11T13:43:09.001Z</time></trkpt><trkpt lat="36.855446765542446" lon="15.10928786963159"><ele>17.0</ele><time>2026-04-11T13:43:10.001Z</time></trkpt><trkpt lat="36.85536593977296" lon="15.10925935467733"><ele>17.0</ele><time>2026-04-11T13:43:11.001Z</time></trkpt><trkpt lat="36.855282836312846" lon="15.10922858257462"><ele>17.0</ele><time>2026-04-11T13:43:12.001Z</time></trkpt><trkpt lat="36.85521752784013" lon="15.109202570468664"><ele>17.0</ele><time>2026-04-11T13:43:13.001Z</time></trkpt><trkpt lat="36.85511636499757" lon="15.109096243496026"><ele>17.0</ele><time>2026-04-11T13:43:15.001Z</time></trkpt><trkpt lat="36.855071166213904" lon="15.109020825461531"><ele>17.0</ele><time>2026-04-11T13:43:16.001Z</time></trkpt><trkpt lat="36.854852508248655" lon="15.109185333694915"><ele>15.5</ele><time>2026-04-11T13:43:17.001Z</time></trkpt><trkpt lat="36.85474601938826" lon="15.109153789855949"><ele>14.0</ele><time>2026-04-11T13:43:18.001Z</time></trkpt><trkpt lat="36.85463729421236" lon="15.109133816310859"><ele>12.5</ele><time>2026-04-11T13:43:19.001Z</time></trkpt><trkpt lat="36.85456935261491" lon="15.108901459864935"><ele>11.0</ele><time>2026-04-11T13:43:20.001Z</time></trkpt><trkpt lat="36.85446324520531" lon="15.108879440647147"><ele>10.8</ele><time>2026-04-11T13:43:21.001Z</time></trkpt><trkpt lat="36.85436328196899" lon="15.10885786553425"><ele>10.600000000000001</ele><time>2026-04-11T13:43:22.001Z</time></trkpt><trkpt lat="36.85426087565924" lon="15.108834300463675"><ele>10.4</ele><time>2026-04-11T13:43:23.001Z</time></trkpt><trkpt lat="36.85412636077539" lon="15.1088075590407"><ele>10.2</ele><time>2026-04-11T13:43:24.001Z</time></trkpt><trkpt lat="36.854044384549496" lon="15.108766093834337"><ele>10.0</ele><time>2026-04-11T13:43:25.001Z</time></trkpt><trkpt lat="36.853915901011334" lon="15.108708912956628"><ele>10.0</ele><time>2026-04-11T13:43:26.001Z</time></trkpt><trkpt lat="36.853722718069406" lon="15.10889210709722"><ele>10.0</ele><time>2026-04-11T13:43:27.001Z</time></trkpt><trkpt lat="36.85361068237017" lon="15.10885639658079"><ele>10.0</ele><time>2026-04-11T13:43:28.001Z</time></trkpt><trkpt lat="36.85349578244738" lon="15.10881567361335"><ele>13.0</ele><time>2026-04-11T13:43:29.001Z</time></trkpt><trkpt lat="36.85335574785242" lon="15.108879524328483"><ele>16.0</ele><time>2026-04-11T13:43:30.001Z</time></trkpt><trkpt lat="36.85325050839347" lon="15.108832029508273"><ele>19.0</ele><time>2026-04-11T13:43:31.001Z</time></trkpt><trkpt lat="36.8531538577581" lon="15.108787868595032"><ele>22.0</ele><time>2026-04-11T13:43:32.001Z</time></trkpt><trkpt lat="36.85304846499947" lon="15.10873253705845"><ele>22.0</ele><time>2026-04-11T13:43:33.001Z</time></trkpt><trkpt lat="36.85294597605436" lon="15.10866537107657"><ele>22.0</ele><time>2026-04-11T13:43:34.001Z</time></trkpt><trkpt lat="36.85285305592476" lon="15.108598629551024"><ele>22.0</ele><time>2026-04-11T13:43:35.001Z</time></trkpt><trkpt lat="36.85275092928257" lon="15.108522281199804"><ele>22.0</ele><time>2026-04-11T13:43:36.001Z</time></trkpt><trkpt lat="36.85264254490909" lon="15.108437226913377"><ele>23.0</ele><time>2026-04-11T13:43:37.001Z</time></trkpt><trkpt lat="36.85252087896535" lon="15.108335617792331"><ele>24.0</ele><time>2026-04-11T13:43:38.001Z</time></trkpt><trkpt lat="36.852407988873914" lon="15.108238411841649"><ele>25.0</ele><time>2026-04-11T13:43:39.001Z</time></trkpt><trkpt lat="36.8523193359279" lon="15.108160230412848"><ele>26.0</ele><time>2026-04-11T13:43:40.001Z</time></trkpt><trkpt lat="36.85226242235518" lon="15.108104533344646"><ele>26.0</ele><time>2026-04-11T13:43:41.001Z</time></trkpt><trkpt lat="36.85218315187818" lon="15.108039596150928"><ele>26.0</ele><time>2026-04-11T13:43:43.001Z</time></trkpt><trkpt lat="36.8520638290843" lon="15.107961451911102"><ele>26.0</ele><time>2026-04-11T13:43:45.001Z</time></trkpt><trkpt lat="36.85202507659783" lon="15.107680628404303"><ele>26.0</ele><time>2026-04-11T13:43:47.001Z</time></trkpt><trkpt lat="36.851951040181525" lon="15.107632338253207"><ele>26.0</ele><time>2026-04-11T13:43:48.001Z</time></trkpt><trkpt lat="36.85188513737126" lon="15.107569887460802"><ele>26.0</ele><time>2026-04-11T13:43:49.001Z</time></trkpt><trkpt lat="36.85172856393893" lon="15.107561841566088"><ele>26.0</ele><time>2026-04-11T13:43:50.001Z</time></trkpt><trkpt lat="36.8516648686865" lon="15.107491140341887"><ele>26.0</ele><time>2026-04-11T13:43:51.001Z</time></trkpt><trkpt lat="36.8515811686062" lon="15.107417747383707"><ele>25.200000000000003</ele><time>2026-04-11T13:43:52.001Z</time></trkpt><trkpt lat="36.851492021528905" lon="15.107334419213341"><ele>24.400000000000002</ele><time>2026-04-11T13:43:53.001Z</time></trkpt><trkpt lat="36.8514066270874" lon="15.107253704464878"><ele>23.6</ele><time>2026-04-11T13:43:54.001Z</time></trkpt><trkpt lat="36.85132064947551" lon="15.10717052471555"><ele>22.8</ele><time>2026-04-11T13:43:55.001Z</time></trkpt><trkpt lat="36.85125019761287" lon="15.10710768838623"><ele>22.0</ele><time>2026-04-11T13:43:56.001Z</time></trkpt><trkpt lat="36.85118182019942" lon="15.107047760075968"><ele>22.0</ele><time>2026-04-11T13:43:57.001Z</time></trkpt><trkpt lat="36.85111003985249" lon="15.10698628750073"><ele>22.0</ele><time>2026-04-11T13:43:58.001Z</time></trkpt><trkpt lat="36.85105258234185" lon="15.106951459518072"><ele>22.0</ele><time>2026-04-11T13:43:59.001Z</time></trkpt><trkpt lat="36.850996624726726" lon="15.106913718990212"><ele>22.0</ele><time>2026-04-11T13:44:00.001Z</time></trkpt><trkpt lat="36.85091603313773" lon="15.106924593836341"><ele>22.0</ele><time>2026-04-11T13:44:02.001Z</time></trkpt><trkpt lat="36.85084295262706" lon="15.106911254233838"><ele>22.0</ele><time>2026-04-11T13:44:04.001Z</time></trkpt><trkpt lat="36.85074431128545" lon="15.10693713718497"><ele>18.0</ele><time>2026-04-11T13:44:07Z</time></trkpt><trkpt lat="36.850628303141896" lon="15.106917146802918"><ele>14.0</ele><time>2026-04-11T13:44:09Z</time></trkpt><trkpt lat="36.85053946085733" lon="15.10635405367436"><ele>14.000000000000002</ele><time>2026-04-11T13:44:10Z</time></trkpt><trkpt lat="36.85047443051236" lon="15.106295290815364"><ele>14.0</ele><time>2026-04-11T13:44:11Z</time></trkpt><trkpt lat="36.85040616674585" lon="15.10623756569101"><ele>14.0</ele><time>2026-04-11T13:44:12Z</time></trkpt><trkpt lat="36.850346733333716" lon="15.106186518298513"><ele>14.0</ele><time>2026-04-11T13:44:13Z</time></trkpt><trkpt lat="36.85027967317898" lon="15.106118904995308"><ele>14.000000000000002</ele><time>2026-04-11T13:44:14Z</time></trkpt><trkpt lat="36.85021793581898" lon="15.106062543299211"><ele>14.0</ele><time>2026-04-11T13:44:15Z</time></trkpt><trkpt lat="36.8501579897342" lon="15.106006213035345"><ele>13.833333333333334</ele><time>2026-04-11T13:44:16Z</time></trkpt><trkpt lat="36.85009752442317" lon="15.105957367882636"><ele>13.666666666666668</ele><time>2026-04-11T13:44:17Z</time></trkpt><trkpt lat="36.850030990259974" lon="15.105886108773024"><ele>13.5</ele><time>2026-04-11T13:44:18Z</time></trkpt><trkpt lat="36.849967149532844" lon="15.105819214004505"><ele>13.333333333333332</ele><time>2026-04-11T13:44:19Z</time></trkpt><trkpt lat="36.84989167821053" lon="15.105764621092323"><ele>13.166666666666666</ele><time>2026-04-11T13:44:20Z</time></trkpt><trkpt lat="36.849820663320656" lon="15.105689690387688"><ele>13.0</ele><time>2026-04-11T13:44:21Z</time></trkpt><trkpt lat="36.849738975571505" lon="15.105618295879326"><ele>12.666666666666666</ele><time>2026-04-11T13:44:22Z</time></trkpt><trkpt lat="36.84966664730133" lon="15.105544124263698"><ele>12.333333333333332</ele><time>2026-04-11T13:44:23Z</time></trkpt><trkpt lat="36.84959841687076" lon="15.105494540377473"><ele>12.0</ele><time>2026-04-11T13:44:24Z</time></trkpt><trkpt lat="36.849527340475085" lon="15.105441100588358"><ele>11.666666666666666</ele><time>2026-04-11T13:44:25Z</time></trkpt><trkpt lat="36.84945207008648" lon="15.105367469330252"><ele>11.333333333333332</ele><time>2026-04-11T13:44:26Z</time></trkpt><trkpt lat="36.849378207882864" lon="15.105297728335032"><ele>11.0</ele><time>2026-04-11T13:44:27Z</time></trkpt><trkpt lat="36.84931193685316" lon="15.105234935968019"><ele>11.4</ele><time>2026-04-11T13:44:28Z</time></trkpt><trkpt lat="36.84924476396636" lon="15.105188082841234"><ele>11.8</ele><time>2026-04-11T13:44:29Z</time></trkpt><trkpt lat="36.849167929289834" lon="15.105119389412085"><ele>12.200000000000001</ele><time>2026-04-11T13:44:30Z</time></trkpt><trkpt lat="36.84909044431245" lon="15.105061281146538"><ele>12.600000000000001</ele><time>2026-04-11T13:44:31Z</time></trkpt><trkpt lat="36.8490321399068" lon="15.105009459397246"><ele>13.0</ele><time>2026-04-11T13:44:32Z</time></trkpt><trkpt lat="36.84892983949947" lon="15.10490575903804"><ele>13.600000000000001</ele><time>2026-04-11T13:44:34Z</time></trkpt><trkpt lat="36.84886887740357" lon="15.104837435250161"><ele>14.200000000000001</ele><time>2026-04-11T13:44:35Z</time></trkpt><trkpt lat="36.84878947518107" lon="15.104789166463302"><ele>14.8</ele><time>2026-04-11T13:44:36Z</time></trkpt><trkpt lat="36.848699903404736" lon="15.104702330824116"><ele>15.4</ele><time>2026-04-11T13:44:37Z</time></trkpt><trkpt lat="36.84862633985268" lon="15.10462728152254"><ele>16.0</ele><time>2026-04-11T13:44:38Z</time></trkpt><trkpt lat="36.84855692063133" lon="15.104575292028423"><ele>18.75</ele><time>2026-04-11T13:44:39Z</time></trkpt><trkpt lat="36.84845641488866" lon="15.104471797179999"><ele>21.5</ele><time>2026-04-11T13:44:40Z</time></trkpt><trkpt lat="36.8483609925915" lon="15.1043895810895"><ele>24.25</ele><time>2026-04-11T13:44:41Z</time></trkpt><trkpt lat="36.84828088960864" lon="15.10430665878413"><ele>27.0</ele><time>2026-04-11T13:44:42Z</time></trkpt><trkpt lat="36.84819361938375" lon="15.104232178188292"><ele>27.0</ele><time>2026-04-11T13:44:43.001Z</time></trkpt><trkpt lat="36.84809842584107" lon="15.104147384501369"><ele>27.0</ele><time>2026-04-11T13:44:44.001Z</time></trkpt><trkpt lat="36.84799963764724" lon="15.10406027033843"><ele>27.0</ele><time>2026-04-11T13:44:45.001Z</time></trkpt><trkpt lat="36.84789134908134" lon="15.103960960125631"><ele>27.0</ele><time>2026-04-11T13:44:46.001Z</time></trkpt><trkpt lat="36.8477880901046" lon="15.103876884385274"><ele>27.5</ele><time>2026-04-11T13:44:47.001Z</time></trkpt><trkpt lat="36.84768454203963" lon="15.103781883360977"><ele>28.0</ele><time>2026-04-11T13:44:48.001Z</time></trkpt><trkpt lat="36.847584585855415" lon="15.103690711510746"><ele>28.5</ele><time>2026-04-11T13:44:49.001Z</time></trkpt><trkpt lat="36.84750484626645" lon="15.103613109270633"><ele>29.0</ele><time>2026-04-11T13:44:50.001Z</time></trkpt><trkpt lat="36.84742337035075" lon="15.103541485101898"><ele>29.0</ele><time>2026-04-11T13:44:51.001Z</time></trkpt><trkpt lat="36.847329706229054" lon="15.103462994548936"><ele>29.0</ele><time>2026-04-11T13:44:52.001Z</time></trkpt><trkpt lat="36.84722453296471" lon="15.103368834396418"><ele>29.0</ele><time>2026-04-11T13:44:53.001Z</time></trkpt><trkpt lat="36.847122428725726" lon="15.103279108394583"><ele>29.0</ele><time>2026-04-11T13:44:54.001Z</time></trkpt><trkpt lat="36.84702820250271" lon="15.103198218181543"><ele>29.0</ele><time>2026-04-11T13:44:55.001Z</time></trkpt><trkpt lat="36.84695714280415" lon="15.103126822524903"><ele>29.0</ele><time>2026-04-11T13:44:56.001Z</time></trkpt><trkpt lat="36.84689423827123" lon="15.103045887497167"><ele>29.0</ele><time>2026-04-11T13:44:57.001Z</time></trkpt><trkpt lat="36.84681469280675" lon="15.102959469184203"><ele>29.0</ele><time>2026-04-11T13:44:58.001Z</time></trkpt><trkpt lat="36.846742893805775" lon="15.102878823882815"><ele>29.0</ele><time>2026-04-11T13:44:59.001Z</time></trkpt><trkpt lat="36.846677207625966" lon="15.102781152759153"><ele>28.0</ele><time>2026-04-11T13:45:00.001Z</time></trkpt><trkpt lat="36.84661844215205" lon="15.102689622560732"><ele>27.0</ele><time>2026-04-11T13:45:01.001Z</time></trkpt><trkpt lat="36.84655916528796" lon="15.102590832956961"><ele>26.0</ele><time>2026-04-11T13:45:02.001Z</time></trkpt><trkpt lat="36.84649889686622" lon="15.102486290486096"><ele>25.0</ele><time>2026-04-11T13:45:03.001Z</time></trkpt><trkpt lat="36.84643419941384" lon="15.102373441880463"><ele>24.0</ele><time>2026-04-11T13:45:04.001Z</time></trkpt><trkpt lat="36.84638145718336" lon="15.10225369886754"><ele>23.75</ele><time>2026-04-11T13:45:05.001Z</time></trkpt><trkpt lat="36.84631913693654" lon="15.102127961208616"><ele>23.5</ele><time>2026-04-11T13:45:06.001Z</time></trkpt><trkpt lat="36.84627175649266" lon="15.10200542021958"><ele>23.25</ele><time>2026-04-11T13:45:07.001Z</time></trkpt><trkpt lat="36.84622288089973" lon="15.101867516917839"><ele>23.0</ele><time>2026-04-11T13:45:08.001Z</time></trkpt><trkpt lat="36.84617980469256" lon="15.101732601886123"><ele>23.0</ele><time>2026-04-11T13:45:09.001Z</time></trkpt><trkpt lat="36.846138042972505" lon="15.10160798416147"><ele>23.0</ele><time>2026-04-11T13:45:10.001Z</time></trkpt><trkpt lat="36.84610119509009" lon="15.10147779642973"><ele>23.0</ele><time>2026-04-11T13:45:11.001Z</time></trkpt><trkpt lat="36.846061529903146" lon="15.101350672290156"><ele>23.0</ele><time>2026-04-11T13:45:12.001Z</time></trkpt><trkpt lat="36.846021649831656" lon="15.101221711541552"><ele>23.0</ele><time>2026-04-11T13:45:13.001Z</time></trkpt><trkpt lat="36.84598483099718" lon="15.101090481041549"><ele>21.2</ele><time>2026-04-11T13:45:14.001Z</time></trkpt><trkpt lat="36.84594279864714" lon="15.100977253395003"><ele>19.4</ele><time>2026-04-11T13:45:15.001Z</time></trkpt><trkpt lat="36.8459013771369" lon="15.100844218902528"><ele>17.599999999999998</ele><time>2026-04-11T13:45:16.001Z</time></trkpt><trkpt lat="36.84586396568171" lon="15.100739179294646"><ele>15.799999999999999</ele><time>2026-04-11T13:45:17.001Z</time></trkpt><trkpt lat="36.84583212832027" lon="15.100638261981358"><ele>14.0</ele><time>2026-04-11T13:45:18.001Z</time></trkpt><trkpt lat="36.84580211216174" lon="15.100529021500181"><ele>13.799999999999999</ele><time>2026-04-11T13:45:19.001Z</time></trkpt><trkpt lat="36.8457634207955" lon="15.100415874256974"><ele>13.599999999999998</ele><time>2026-04-11T13:45:20.001Z</time></trkpt><trkpt lat="36.84573001868611" lon="15.100292032441276"><ele>13.4</ele><time>2026-04-11T13:45:21.001Z</time></trkpt><trkpt lat="36.84568259950597" lon="15.100157450110146"><ele>13.2</ele><time>2026-04-11T13:45:22.001Z</time></trkpt><trkpt lat="36.845643378651225" lon="15.100032399318346"><ele>13.0</ele><time>2026-04-11T13:45:23.001Z</time></trkpt><trkpt lat="36.84560196560668" lon="15.09991161071428"><ele>13.0</ele><time>2026-04-11T13:45:24.001Z</time></trkpt><trkpt lat="36.845568026507266" lon="15.099803451261986"><ele>13.0</ele><time>2026-04-11T13:45:25.001Z</time></trkpt><trkpt lat="36.84553689655276" lon="15.099700013406327"><ele>13.0</ele><time>2026-04-11T13:45:26.001Z</time></trkpt><trkpt lat="36.845497037839465" lon="15.099586448600714"><ele>13.0</ele><time>2026-04-11T13:45:27.001Z</time></trkpt><trkpt lat="36.84546777666385" lon="15.099476993069617"><ele>13.0</ele><time>2026-04-11T13:45:28.001Z</time></trkpt><trkpt lat="36.84543106570857" lon="15.099350934675195"><ele>13.0</ele><time>2026-04-11T13:45:29.001Z</time></trkpt><trkpt lat="36.84538521948192" lon="15.099221170872543"><ele>13.0</ele><time>2026-04-11T13:45:30.001Z</time></trkpt><trkpt lat="36.845345270476415" lon="15.09910963779442"><ele>13.0</ele><time>2026-04-11T13:45:31.001Z</time></trkpt><trkpt lat="36.84531877868517" lon="15.099000914110361"><ele>13.0</ele><time>2026-04-11T13:45:32.001Z</time></trkpt><trkpt lat="36.84527220192439" lon="15.098869931349432"><ele>13.0</ele><time>2026-04-11T13:45:33.001Z</time></trkpt><trkpt lat="36.8452352320401" lon="15.098726700966361"><ele>13.4</ele><time>2026-04-11T13:45:34.001Z</time></trkpt><trkpt lat="36.845199332100066" lon="15.098600170984145"><ele>13.8</ele><time>2026-04-11T13:45:35.001Z</time></trkpt><trkpt lat="36.84516580580646" lon="15.098461440482478"><ele>14.2</ele><time>2026-04-11T13:45:36.001Z</time></trkpt><trkpt lat="36.845142207600034" lon="15.098343170200573"><ele>14.6</ele><time>2026-04-11T13:45:37.001Z</time></trkpt><trkpt lat="36.84511846216322" lon="15.098195701619392"><ele>15.0</ele><time>2026-04-11T13:45:38.001Z</time></trkpt><trkpt lat="36.84510150087191" lon="15.09806961968353"><ele>15.0</ele><time>2026-04-11T13:45:39.001Z</time></trkpt><trkpt lat="36.845094214495354" lon="15.097937869305111"><ele>15.0</ele><time>2026-04-11T13:45:40.001Z</time></trkpt><trkpt lat="36.84509164645159" lon="15.097804621304258"><ele>15.0</ele><time>2026-04-11T13:45:41.001Z</time></trkpt><trkpt lat="36.84508787881194" lon="15.097671489717257"><ele>15.0</ele><time>2026-04-11T13:45:42.001Z</time></trkpt><trkpt lat="36.845086740921616" lon="15.097549491149973"><ele>15.0</ele><time>2026-04-11T13:45:43.001Z</time></trkpt><trkpt lat="36.84510050834866" lon="15.097430083133881"><ele>14.4</ele><time>2026-04-11T13:45:44.001Z</time></trkpt><trkpt lat="36.84510650388669" lon="15.097306176463103"><ele>13.8</ele><time>2026-04-11T13:45:45.001Z</time></trkpt><trkpt lat="36.84512252205784" lon="15.097168003860574"><ele>13.2</ele><time>2026-04-11T13:45:46.001Z</time></trkpt><trkpt lat="36.84512963612114" lon="15.097033211342662"><ele>12.6</ele><time>2026-04-11T13:45:47.001Z</time></trkpt><trkpt lat="36.84515231257182" lon="15.096890928325513"><ele>12.0</ele><time>2026-04-11T13:45:48.001Z</time></trkpt><trkpt lat="36.84518840066098" lon="15.096777228414556"><ele>15.0</ele><time>2026-04-11T13:45:49.001Z</time></trkpt><trkpt lat="36.84520265335194" lon="15.096672440913478"><ele>18.0</ele><time>2026-04-11T13:45:50.001Z</time></trkpt><trkpt lat="36.84522424301633" lon="15.096561264514603"><ele>21.0</ele><time>2026-04-11T13:45:51.001Z</time></trkpt><trkpt lat="36.845258276236834" lon="15.09637594807904"><ele>24.0</ele><time>2026-04-11T13:45:52.001Z</time></trkpt><trkpt lat="36.84528674437143" lon="15.096176581503048"><ele>24.5</ele><time>2026-04-11T13:45:53.001Z</time></trkpt><trkpt lat="36.84531448941536" lon="15.095973363659818"><ele>25.0</ele><time>2026-04-11T13:45:54.001Z</time></trkpt><trkpt lat="36.845458531512485" lon="15.096079058336278"><ele>25.5</ele><time>2026-04-11T13:45:55.001Z</time></trkpt><trkpt lat="36.84548312828525" lon="15.095973117500582"><ele>26.0</ele><time>2026-04-11T13:45:56.001Z</time></trkpt><trkpt lat="36.845489572572845" lon="15.095814552751849"><ele>25.166666666666664</ele><time>2026-04-11T13:45:57.001Z</time></trkpt><trkpt lat="36.8454435665517" lon="15.095711860788102"><ele>24.333333333333332</ele><time>2026-04-11T13:46:00.001Z</time></trkpt><trkpt lat="36.84533837454056" lon="15.095726363784552"><ele>23.5</ele><time>2026-04-11T13:46:01.001Z</time></trkpt><trkpt lat="36.845275937134744" lon="15.095710145585885"><ele>22.666666666666664</ele><time>2026-04-11T13:46:04.001Z</time></trkpt><trkpt lat="36.845198508738584" lon="15.095688724079169"><ele>21.833333333333332</ele><time>2026-04-11T13:46:06.001Z</time></trkpt><trkpt lat="36.8451108898572" lon="15.095630559069996"><ele>21.0</ele><time>2026-04-11T13:46:08.001Z</time></trkpt><trkpt lat="36.844995915768465" lon="15.095589420130171"><ele>19.0</ele><time>2026-04-11T13:46:10.001Z</time></trkpt><trkpt lat="36.84493148514549" lon="15.0955636030882"><ele>17.0</ele><time>2026-04-11T13:46:11Z</time></trkpt><trkpt lat="36.84489806217763" lon="15.095418893475316"><ele>15.0</ele><time>2026-04-11T13:46:12Z</time></trkpt><trkpt lat="36.8448410716893" lon="15.095376452055593"><ele>13.0</ele><time>2026-04-11T13:46:13Z</time></trkpt><trkpt lat="36.84472673604459" lon="15.09532883836089"><ele>11.0</ele><time>2026-04-11T13:46:15Z</time></trkpt><trkpt lat="36.84465652408993" lon="15.095322739785622"><ele>9.0</ele><time>2026-04-11T13:46:16Z</time></trkpt><trkpt lat="36.84455293154735" lon="15.095315244454431"><ele>9.0</ele><time>2026-04-11T13:46:17Z</time></trkpt><trkpt lat="36.844469851628624" lon="15.095281337479475"><ele>9.0</ele><time>2026-04-11T13:46:18Z</time></trkpt><trkpt lat="36.84438569644345" lon="15.095256333300872"><ele>9.0</ele><time>2026-04-11T13:46:19Z</time></trkpt><trkpt lat="36.844317704961554" lon="15.095237260356635"><ele>9.0</ele><time>2026-04-11T13:46:20Z</time></trkpt><trkpt lat="36.84423900059808" lon="15.095213724440342"><ele>9.0</ele><time>2026-04-11T13:46:21Z</time></trkpt><trkpt lat="36.844144725196486" lon="15.095187735903973"><ele>9.0</ele><time>2026-04-11T13:46:22Z</time></trkpt><trkpt lat="36.844045224698554" lon="15.095160498215897"><ele>8.2</ele><time>2026-04-11T13:46:23Z</time></trkpt><trkpt lat="36.84395904396896" lon="15.095136709305224"><ele>7.4</ele><time>2026-04-11T13:46:24Z</time></trkpt><trkpt lat="36.8438649343324" lon="15.095109459207157"><ele>6.6</ele><time>2026-04-11T13:46:25Z</time></trkpt><trkpt lat="36.843775903752196" lon="15.095088596617908"><ele>5.8</ele><time>2026-04-11T13:46:26Z</time></trkpt><trkpt lat="36.84367839267837" lon="15.095063909232145"><ele>5.0</ele><time>2026-04-11T13:46:27Z</time></trkpt><trkpt lat="36.84357817732073" lon="15.095041329100178"><ele>5.0</ele><time>2026-04-11T13:46:28Z</time></trkpt><trkpt lat="36.84349599019593" lon="15.095022180650993"><ele>5.0</ele><time>2026-04-11T13:46:29Z</time></trkpt><trkpt lat="36.84342016803111" lon="15.095004687283764"><ele>5.0</ele><time>2026-04-11T13:46:30Z</time></trkpt><trkpt lat="36.84334528834244" lon="15.094982567735055"><ele>5.0</ele><time>2026-04-11T13:46:31Z</time></trkpt><trkpt lat="36.84325992310697" lon="15.094959342253086"><ele>5.0</ele><time>2026-04-11T13:46:32Z</time></trkpt><trkpt lat="36.84316383658501" lon="15.094934914201051"><ele>5.0</ele><time>2026-04-11T13:46:33Z</time></trkpt><trkpt lat="36.843084255015036" lon="15.094906675680294"><ele>5.166666666666667</ele><time>2026-04-11T13:46:34Z</time></trkpt><trkpt lat="36.8430078217438" lon="15.094880383623165"><ele>5.333333333333334</ele><time>2026-04-11T13:46:35Z</time></trkpt><trkpt lat="36.842930022089554" lon="15.094852715672717"><ele>5.5</ele><time>2026-04-11T13:46:36Z</time></trkpt><trkpt lat="36.842853257402254" lon="15.09483059793077"><ele>5.666666666666667</ele><time>2026-04-11T13:46:37Z</time></trkpt><trkpt lat="36.842774643959" lon="15.09480596603733"><ele>5.833333333333333</ele><time>2026-04-11T13:46:38Z</time></trkpt><trkpt lat="36.84270067216742" lon="15.094783727089892"><ele>6.0</ele><time>2026-04-11T13:46:39Z</time></trkpt><trkpt lat="36.84262151852753" lon="15.094763316171663"><ele>6.0</ele><time>2026-04-11T13:46:40Z</time></trkpt><trkpt lat="36.84254347841158" lon="15.094751049887321"><ele>6.0</ele><time>2026-04-11T13:46:41Z</time></trkpt><trkpt lat="36.84242618377023" lon="15.094748790389671"><ele>6.0</ele><time>2026-04-11T13:46:43Z</time></trkpt><trkpt lat="36.84231102615228" lon="15.09465797993287"><ele>6.0</ele><time>2026-04-11T13:46:45Z</time></trkpt><trkpt lat="36.84222069659873" lon="15.094591249083432"><ele>6.0</ele><time>2026-04-11T13:46:46Z</time></trkpt><trkpt lat="36.84213294957574" lon="15.094529943365162"><ele>6.0</ele><time>2026-04-11T13:46:47Z</time></trkpt><trkpt lat="36.84205976056462" lon="15.09448562281573"><ele>6.0</ele><time>2026-04-11T13:46:48Z</time></trkpt><trkpt lat="36.8419994542587" lon="15.094460366441716"><ele>6.0</ele><time>2026-04-11T13:46:49Z</time></trkpt><trkpt lat="36.84191391490427" lon="15.094448084103533"><ele>6.0</ele><time>2026-04-11T13:46:51.001Z</time></trkpt><trkpt lat="36.84186713182033" lon="15.094388797380189"><ele>6.0</ele><time>2026-04-11T13:46:55.001Z</time></trkpt><trkpt lat="36.84188585188186" lon="15.094267121157287"><ele>6.0</ele><time>2026-04-11T13:46:57.001Z</time></trkpt><trkpt lat="36.84191260516528" lon="15.094187527789433"><ele>6.0</ele><time>2026-04-11T13:46:58.001Z</time></trkpt><trkpt lat="36.84195421611875" lon="15.094051421358975"><ele>6.0</ele><time>2026-04-11T13:47:00.001Z</time></trkpt><trkpt lat="36.84197265032397" lon="15.093971761975121"><ele>6.0</ele><time>2026-04-11T13:47:01.001Z</time></trkpt><trkpt lat="36.84199642067255" lon="15.093851239693253"><ele>6.0</ele><time>2026-04-11T13:47:03.001Z</time></trkpt><trkpt lat="36.84201069490316" lon="15.093747902355659"><ele>6.0</ele><time>2026-04-11T13:47:05.001Z</time></trkpt><trkpt lat="36.84199020210064" lon="15.093641694439693"><ele>6.0</ele><time>2026-04-11T13:47:08.001Z</time></trkpt><trkpt lat="36.841931057514884" lon="15.093563165259924"><ele>6.0</ele><time>2026-04-11T13:47:11.001Z</time></trkpt><trkpt lat="36.84196045256794" lon="15.093482012090359"><ele>6.0</ele><time>2026-04-11T13:47:16.001Z</time></trkpt><trkpt lat="36.84203761756264" lon="15.093490552142924"><ele>6.0</ele><time>2026-04-11T13:47:19.001Z</time></trkpt><trkpt lat="36.84207456529479" lon="15.093408743563126"><ele>6.0</ele><time>2026-04-11T13:47:22.001Z</time></trkpt><trkpt lat="36.8420890429422" lon="15.093250994437147"><ele>6.0</ele><time>2026-04-11T13:47:24.001Z</time></trkpt><trkpt lat="36.84210366400786" lon="15.093167570971186"><ele>6.0</ele><time>2026-04-11T13:47:25.001Z</time></trkpt><trkpt lat="36.842116803435246" lon="15.093080571847329"><ele>6.0</ele><time>2026-04-11T13:47:26.001Z</time></trkpt><trkpt lat="36.84213444917226" lon="15.092989215379424"><ele>6.0</ele><time>2026-04-11T13:47:27.001Z</time></trkpt><trkpt lat="36.84215495701281" lon="15.092875280293061"><ele>6.0</ele><time>2026-04-11T13:47:28.001Z</time></trkpt><trkpt lat="36.842170138065065" lon="15.09277767608347"><ele>6.0</ele><time>2026-04-11T13:47:29.001Z</time></trkpt><trkpt lat="36.842184748176145" lon="15.0926941998988"><ele>6.0</ele><time>2026-04-11T13:47:30.001Z</time></trkpt><trkpt lat="36.84220092791892" lon="15.09260134117973"><ele>6.0</ele><time>2026-04-11T13:47:31.001Z</time></trkpt><trkpt lat="36.84221358341096" lon="15.092499807412112"><ele>6.0</ele><time>2026-04-11T13:47:32.001Z</time></trkpt><trkpt lat="36.84222311137252" lon="15.092398259248409"><ele>6.0</ele><time>2026-04-11T13:47:33.001Z</time></trkpt><trkpt lat="36.84223453050808" lon="15.092296726843486"><ele>6.0</ele><time>2026-04-11T13:47:34.001Z</time></trkpt><trkpt lat="36.84224886042844" lon="15.092189461668397"><ele>6.0</ele><time>2026-04-11T13:47:35.001Z</time></trkpt><trkpt lat="36.842266262383525" lon="15.092082268499627"><ele>6.0</ele><time>2026-04-11T13:47:36.001Z</time></trkpt><trkpt lat="36.842280130689254" lon="15.091973329931328"><ele>6.0</ele><time>2026-04-11T13:47:37.001Z</time></trkpt><trkpt lat="36.842290801034025" lon="15.091864338161262"><ele>6.0</ele><time>2026-04-11T13:47:38.001Z</time></trkpt><trkpt lat="36.842297405845336" lon="15.091770868065488"><ele>6.0</ele><time>2026-04-11T13:47:39.001Z</time></trkpt><trkpt lat="36.84230469117701" lon="15.091675517415053"><ele>6.0</ele><time>2026-04-11T13:47:40.001Z</time></trkpt><trkpt lat="36.84231621438314" lon="15.091591070723366"><ele>6.0</ele><time>2026-04-11T13:47:41.001Z</time></trkpt><trkpt lat="36.84234184522352" lon="15.091477808044187"><ele>6.0</ele><time>2026-04-11T13:47:42.001Z</time></trkpt><trkpt lat="36.84236000211833" lon="15.09137213695259"><ele>6.0</ele><time>2026-04-11T13:47:43.001Z</time></trkpt><trkpt lat="36.84237925489381" lon="15.091269085055734"><ele>6.0</ele><time>2026-04-11T13:47:44.001Z</time></trkpt><trkpt lat="36.84239249721269" lon="15.091153167949276"><ele>6.0</ele><time>2026-04-11T13:47:45.001Z</time></trkpt><trkpt lat="36.8423973754159" lon="15.091014521536312"><ele>6.0</ele><time>2026-04-11T13:47:46.001Z</time></trkpt><trkpt lat="36.84240126213907" lon="15.090873121207014"><ele>6.0</ele><time>2026-04-11T13:47:47.001Z</time></trkpt><trkpt lat="36.84240375880212" lon="15.090759351868401"><ele>6.285714285714285</ele><time>2026-04-11T13:47:48.001Z</time></trkpt><trkpt lat="36.84240659539072" lon="15.090658657827554"><ele>6.571428571428571</ele><time>2026-04-11T13:47:49.001Z</time></trkpt><trkpt lat="36.84241544529159" lon="15.090573259847769"><ele>6.857142857142857</ele><time>2026-04-11T13:47:50.001Z</time></trkpt><trkpt lat="36.84243811776018" lon="15.090497283687434"><ele>7.142857142857142</ele><time>2026-04-11T13:47:51.001Z</time></trkpt><trkpt lat="36.84247362514712" lon="15.090417877608354"><ele>7.428571428571428</ele><time>2026-04-11T13:47:52.001Z</time></trkpt><trkpt lat="36.84251503056694" lon="15.090349224990106"><ele>7.7142857142857135</ele><time>2026-04-11T13:47:53.001Z</time></trkpt><trkpt lat="36.84254603360594" lon="15.090249666420208"><ele>8.0</ele><time>2026-04-11T13:47:55.001Z</time></trkpt><trkpt lat="36.8425628185801" lon="15.090168668741986"><ele>8.142857142857142</ele><time>2026-04-11T13:48:05.001Z</time></trkpt><trkpt lat="36.84263136286436" lon="15.090159795311298"><ele>8.285714285714285</ele><time>2026-04-11T13:48:59Z</time></trkpt><trkpt lat="36.8427039816891" lon="15.090186619566035"><ele>8.428571428571429</ele><time>2026-04-11T13:49:03.001Z</time></trkpt><trkpt lat="36.842778967967924" lon="15.090201026619969"><ele>8.571428571428571</ele><time>2026-04-11T13:49:07.001Z</time></trkpt><trkpt lat="36.842842815602616" lon="15.090174224588216"><ele>8.714285714285715</ele><time>2026-04-11T13:49:11.001Z</time></trkpt><trkpt lat="36.842836181817184" lon="15.090080335692877"><ele>8.857142857142858</ele><time>2026-04-11T13:57:28.001Z</time></trkpt><trkpt lat="36.84286055464217" lon="15.089979566601688"><ele>9.0</ele><time>2026-04-11T13:57:39.001Z</time></trkpt><trkpt lat="36.842864202598626" lon="15.089874677786277"><ele>9.0</ele><time>2026-04-11T13:58:08.001Z</time></trkpt><trkpt lat="36.84287747241682" lon="15.089792184308761"><ele>9.0</ele><time>2026-04-11T13:58:11.001Z</time></trkpt><trkpt lat="36.842914444164855" lon="15.08971568294504"><ele>9.0</ele><time>2026-04-11T13:58:14.001Z</time></trkpt><trkpt lat="36.84296893416402" lon="15.08967519274377"><ele>9.0</ele><time>2026-04-11T13:58:16.001Z</time></trkpt><trkpt lat="36.843040587526964" lon="15.089718669953767"><ele>9.0</ele><time>2026-04-11T13:58:19.001Z</time></trkpt><trkpt lat="36.843156813049646" lon="15.089790654089855"><ele>9.0</ele><time>2026-04-11T13:58:21.001Z</time></trkpt><trkpt lat="36.84327977348391" lon="15.089892193694249"><ele>9.0</ele><time>2026-04-11T13:58:22.001Z</time></trkpt><trkpt lat="36.84342877279765" lon="15.08999978464903"><ele>9.0</ele><time>2026-04-11T13:58:23.001Z</time></trkpt><trkpt lat="36.84352737192613" lon="15.090076774950342"><ele>9.0</ele><time>2026-04-11T13:58:24.001Z</time></trkpt><trkpt lat="36.8436167363297" lon="15.090128083195989"><ele>9.0</ele><time>2026-04-11T13:58:25.001Z</time></trkpt><trkpt lat="36.84368427824614" lon="15.090187031693437"><ele>9.0</ele><time>2026-04-11T13:58:26.001Z</time></trkpt><trkpt lat="36.8437603346782" lon="15.090257513574716"><ele>9.0</ele><time>2026-04-11T13:58:27.001Z</time></trkpt><trkpt lat="36.843817931860265" lon="15.09030487675032"><ele>9.0</ele><time>2026-04-11T13:58:28.001Z</time></trkpt><trkpt lat="36.84387081567404" lon="15.090349711410616"><ele>9.0</ele><time>2026-04-11T13:58:29.001Z</time></trkpt><trkpt lat="36.843945537634276" lon="15.09039859192581"><ele>9.0</ele><time>2026-04-11T13:58:31.001Z</time></trkpt><trkpt lat="36.8439957588768" lon="15.090326721741453"><ele>9.0</ele><time>2026-04-11T13:58:34.001Z</time></trkpt><trkpt lat="36.844013999748185" lon="15.090178446936894"><ele>9.0</ele><time>2026-04-11T13:58:36.001Z</time></trkpt><trkpt lat="36.84402554506002" lon="15.09005868648266"><ele>9.0</ele><time>2026-04-11T13:58:37.001Z</time></trkpt><trkpt lat="36.844042959836145" lon="15.089909823606371"><ele>9.0</ele><time>2026-04-11T13:58:38.001Z</time></trkpt><trkpt lat="36.844063641114865" lon="15.089731669224847"><ele>9.0</ele><time>2026-04-11T13:58:39.001Z</time></trkpt><trkpt lat="36.84408613825771" lon="15.089552329970239"><ele>8.75</ele><time>2026-04-11T13:58:40.001Z</time></trkpt><trkpt lat="36.84410634661289" lon="15.08939189841454"><ele>8.5</ele><time>2026-04-11T13:58:41.001Z</time></trkpt><trkpt lat="36.84412353130748" lon="15.089235630097976"><ele>8.25</ele><time>2026-04-11T13:58:42.001Z</time></trkpt><trkpt lat="36.844144019195866" lon="15.08908914209907"><ele>8.0</ele><time>2026-04-11T13:58:43.001Z</time></trkpt><trkpt lat="36.84416299134802" lon="15.08894901985304"><ele>8.0</ele><time>2026-04-11T13:58:44.001Z</time></trkpt><trkpt lat="36.84418244725259" lon="15.088806278607864"><ele>8.0</ele><time>2026-04-11T13:58:45.001Z</time></trkpt><trkpt lat="36.844199866524974" lon="15.088660098416145"><ele>8.0</ele><time>2026-04-11T13:58:46.001Z</time></trkpt><trkpt lat="36.844212994161204" lon="15.088528952687485"><ele>8.0</ele><time>2026-04-11T13:58:47.001Z</time></trkpt><trkpt lat="36.8442298184737" lon="15.088392641340375"><ele>8.0</ele><time>2026-04-11T13:58:48.001Z</time></trkpt><trkpt lat="36.844249389000176" lon="15.088254276655363"><ele>8.0</ele><time>2026-04-11T13:58:49.001Z</time></trkpt><trkpt lat="36.84426837850652" lon="15.088116337099239"><ele>8.0</ele><time>2026-04-11T13:58:50.001Z</time></trkpt><trkpt lat="36.84429007234378" lon="15.087977496314938"><ele>8.0</ele><time>2026-04-11T13:58:51.001Z</time></trkpt><trkpt lat="36.844307724146724" lon="15.08785306449544"><ele>8.0</ele><time>2026-04-11T13:58:52.001Z</time></trkpt><trkpt lat="36.84432003188151" lon="15.087710952746722"><ele>8.0</ele><time>2026-04-11T13:58:53.001Z</time></trkpt><trkpt lat="36.84433523406004" lon="15.087577011634723"><ele>8.0</ele><time>2026-04-11T13:58:54.001Z</time></trkpt><trkpt lat="36.844352380771504" lon="15.08745296767209"><ele>8.0</ele><time>2026-04-11T13:58:55.001Z</time></trkpt><trkpt lat="36.84437060520211" lon="15.087310810424501"><ele>8.0</ele><time>2026-04-11T13:58:56.001Z</time></trkpt><trkpt lat="36.84438984617191" lon="15.087156659116747"><ele>8.0</ele><time>2026-04-11T13:58:57.001Z</time></trkpt><trkpt lat="36.84440361803018" lon="15.086989111244408"><ele>7.800000000000001</ele><time>2026-04-11T13:58:58.001Z</time></trkpt><trkpt lat="36.844418140015485" lon="15.086843408303263"><ele>7.6000000000000005</ele><time>2026-04-11T13:58:59.001Z</time></trkpt><trkpt lat="36.844429740282564" lon="15.086725489963285"><ele>7.3999999999999995</ele><time>2026-04-11T13:59:00.001Z</time></trkpt><trkpt lat="36.84444179683698" lon="15.08661313790389"><ele>7.199999999999999</ele><time>2026-04-11T13:59:01.001Z</time></trkpt><trkpt lat="36.8444535944963" lon="15.086509840864057"><ele>7.0</ele><time>2026-04-11T13:59:02.001Z</time></trkpt><trkpt lat="36.8444640975208" lon="15.086416904863441"><ele>7.0</ele><time>2026-04-11T13:59:03.001Z</time></trkpt><trkpt lat="36.844481929605" lon="15.08630137139853"><ele>7.0</ele><time>2026-04-11T13:59:05.001Z</time></trkpt><trkpt lat="36.844537502837895" lon="15.086221811438758"><ele>7.0</ele><time>2026-04-11T13:59:08.001Z</time></trkpt><trkpt lat="36.84468446988871" lon="15.086237348857775"><ele>7.0</ele><time>2026-04-11T13:59:10.001Z</time></trkpt><trkpt lat="36.84480812457795" lon="15.086252703603638"><ele>7.0</ele><time>2026-04-11T13:59:11.001Z</time></trkpt><trkpt lat="36.84493149435815" lon="15.086261890842046"><ele>7.0</ele><time>2026-04-11T13:59:12.001Z</time></trkpt><trkpt lat="36.845050284222516" lon="15.086264158049671"><ele>7.0</ele><time>2026-04-11T13:59:13.001Z</time></trkpt><trkpt lat="36.84517855169372" lon="15.086275223796365"><ele>7.0</ele><time>2026-04-11T13:59:14.001Z</time></trkpt><trkpt lat="36.84528635035149" lon="15.086285354502024"><ele>7.166666666666667</ele><time>2026-04-11T13:59:15.001Z</time></trkpt><trkpt lat="36.84536926355506" lon="15.086292155768474"><ele>7.333333333333334</ele><time>2026-04-11T13:59:16.001Z</time></trkpt><trkpt lat="36.84546073730126" lon="15.086306637477874"><ele>7.5</ele><time>2026-04-11T13:59:17.001Z</time></trkpt><trkpt lat="36.845550206604244" lon="15.086315202039538"><ele>7.666666666666666</ele><time>2026-04-11T13:59:18.001Z</time></trkpt><trkpt lat="36.845633532475745" lon="15.086324235046346"><ele>7.833333333333333</ele><time>2026-04-11T13:59:19.001Z</time></trkpt><trkpt lat="36.84572715527534" lon="15.086335729416705"><ele>8.0</ele><time>2026-04-11T13:59:20.001Z</time></trkpt><trkpt lat="36.845823867510624" lon="15.086352815922261"><ele>8.0</ele><time>2026-04-11T13:59:21.001Z</time></trkpt><trkpt lat="36.84589306435153" lon="15.086373159907405"><ele>8.0</ele><time>2026-04-11T13:59:22.001Z</time></trkpt><trkpt lat="36.845985209741904" lon="15.086380213931076"><ele>8.0</ele><time>2026-04-11T13:59:23.001Z</time></trkpt><trkpt lat="36.846096015996494" lon="15.086384692846297"><ele>8.0</ele><time>2026-04-11T13:59:24.001Z</time></trkpt><trkpt lat="36.84620684399005" lon="15.08638783557502"><ele>8.0</ele><time>2026-04-11T13:59:25.001Z</time></trkpt><trkpt lat="36.84629964738375" lon="15.08639416190121"><ele>7.999999999999999</ele><time>2026-04-11T13:59:26.001Z</time></trkpt><trkpt lat="36.84640617105099" lon="15.08640428117913"><ele>8.0</ele><time>2026-04-11T13:59:27.001Z</time></trkpt><trkpt lat="36.846489148159044" lon="15.08641701315219"><ele>8.0</ele><time>2026-04-11T13:59:28.001Z</time></trkpt><trkpt lat="36.84655370813948" lon="15.08642780988566"><ele>8.0</ele><time>2026-04-11T13:59:29.001Z</time></trkpt><trkpt lat="36.846618554363474" lon="15.086437861871232"><ele>7.999999999999999</ele><time>2026-04-11T13:59:30.001Z</time></trkpt><trkpt lat="36.84670180666793" lon="15.08646236554438"><ele>8.0</ele><time>2026-04-11T13:59:31.001Z</time></trkpt><trkpt lat="36.846802303417405" lon="15.086485092717114"><ele>9.4</ele><time>2026-04-11T13:59:32.001Z</time></trkpt><trkpt lat="36.8468918203865" lon="15.08650230542486"><ele>10.8</ele><time>2026-04-11T13:59:33.001Z</time></trkpt><trkpt lat="36.84698144808214" lon="15.086526624916994"><ele>12.2</ele><time>2026-04-11T13:59:34.001Z</time></trkpt><trkpt lat="36.84707604969223" lon="15.086543509855842"><ele>13.6</ele><time>2026-04-11T13:59:35.001Z</time></trkpt><trkpt lat="36.84717463763116" lon="15.086556515149905"><ele>15.0</ele><time>2026-04-11T13:59:36.001Z</time></trkpt><trkpt lat="36.847268777478284" lon="15.08655173321079"><ele>15.0</ele><time>2026-04-11T13:59:37.001Z</time></trkpt><trkpt lat="36.847356791732196" lon="15.086537149604663"><ele>15.0</ele><time>2026-04-11T13:59:38.001Z</time></trkpt><trkpt lat="36.84744309765897" lon="15.086524366711885"><ele>15.0</ele><time>2026-04-11T13:59:39.001Z</time></trkpt><trkpt lat="36.84754283078965" lon="15.086509156679549"><ele>15.0</ele><time>2026-04-11T13:59:41.001Z</time></trkpt><trkpt lat="36.84760886700294" lon="15.086501338008507"><ele>15.0</ele><time>2026-04-11T13:59:44.001Z</time></trkpt><trkpt lat="36.84771342050538" lon="15.086550946780259"><ele>17.0</ele><time>2026-04-11T13:59:47.001Z</time></trkpt><trkpt lat="36.847783933661354" lon="15.086605179774914"><ele>19.0</ele><time>2026-04-11T13:59:48.001Z</time></trkpt><trkpt lat="36.84788562138777" lon="15.086649891460302"><ele>21.0</ele><time>2026-04-11T13:59:49.001Z</time></trkpt><trkpt lat="36.8480127974177" lon="15.086698033590178"><ele>23.0</ele><time>2026-04-11T13:59:50.001Z</time></trkpt><trkpt lat="36.84815803984192" lon="15.086757164139277"><ele>23.0</ele><time>2026-04-11T13:59:51.001Z</time></trkpt><trkpt lat="36.848278821123905" lon="15.08680968340741"><ele>23.0</ele><time>2026-04-11T13:59:52.001Z</time></trkpt><trkpt lat="36.84838382184988" lon="15.086847803225638"><ele>23.0</ele><time>2026-04-11T13:59:53.001Z</time></trkpt><trkpt lat="36.84847334972673" lon="15.086862665803885"><ele>23.0</ele><time>2026-04-11T13:59:54.001Z</time></trkpt><trkpt lat="36.84854790681946" lon="15.08686192719196"><ele>23.0</ele><time>2026-04-11T13:59:55.001Z</time></trkpt><trkpt lat="36.84865203422351" lon="15.086760120696036"><ele>27.0</ele><time>2026-04-11T13:59:57.001Z</time></trkpt><trkpt lat="36.84873217560642" lon="15.086640957207027"><ele>31.0</ele><time>2026-04-11T13:59:58.001Z</time></trkpt><trkpt lat="36.84883306516889" lon="15.08650870144464"><ele>35.0</ele><time>2026-04-11T13:59:59.001Z</time></trkpt><trkpt lat="36.848915601841775" lon="15.086292610517983"><ele>35.0</ele><time>2026-04-11T14:00:00.001Z</time></trkpt><trkpt lat="36.848939288478846" lon="15.086064897984253"><ele>35.0</ele><time>2026-04-11T14:00:01.001Z</time></trkpt><trkpt lat="36.84899144906706" lon="15.08590888969163"><ele>35.0</ele><time>2026-04-11T14:00:02.001Z</time></trkpt><trkpt lat="36.8490513397629" lon="15.085824451529673"><ele>35.0</ele><time>2026-04-11T14:00:03.001Z</time></trkpt><trkpt lat="36.849131900646476" lon="15.085780060549704"><ele>35.0</ele><time>2026-04-11T14:00:04.001Z</time></trkpt><trkpt lat="36.84922844467892" lon="15.085775779038443"><ele>35.0</ele><time>2026-04-11T14:00:05.001Z</time></trkpt><trkpt lat="36.84934358896376" lon="15.0858077398494"><ele>35.0</ele><time>2026-04-11T14:00:06.001Z</time></trkpt><trkpt lat="36.849508515533955" lon="15.085863477312879"><ele>35.0</ele><time>2026-04-11T14:00:07.001Z</time></trkpt><trkpt lat="36.84965981712362" lon="15.085909509368367"><ele>35.25</ele><time>2026-04-11T14:00:08.001Z</time></trkpt><trkpt lat="36.849787391537134" lon="15.085945086532572"><ele>35.5</ele><time>2026-04-11T14:00:09.001Z</time></trkpt><trkpt lat="36.849925109587616" lon="15.08598944420657"><ele>35.75</ele><time>2026-04-11T14:00:10.001Z</time></trkpt><trkpt lat="36.85006789492469" lon="15.08603820593877"><ele>36.0</ele><time>2026-04-11T14:00:11.001Z</time></trkpt><trkpt lat="36.850189111391494" lon="15.086079252065003"><ele>36.0</ele><time>2026-04-11T14:00:12.001Z</time></trkpt><trkpt lat="36.850310155424886" lon="15.086115264369823"><ele>36.0</ele><time>2026-04-11T14:00:13.001Z</time></trkpt><trkpt lat="36.85042457921942" lon="15.086137200309532"><ele>36.0</ele><time>2026-04-11T14:00:14.001Z</time></trkpt><trkpt lat="36.85053517156202" lon="15.086155966543316"><ele>36.0</ele><time>2026-04-11T14:00:15.001Z</time></trkpt><trkpt lat="36.850632006822465" lon="15.086184446682095"><ele>36.0</ele><time>2026-04-11T14:00:16.001Z</time></trkpt><trkpt lat="36.850728419142825" lon="15.086212939387593"><ele>36.0</ele><time>2026-04-11T14:00:17.001Z</time></trkpt><trkpt lat="36.85082683884429" lon="15.086244801610105"><ele>36.0</ele><time>2026-04-11T14:00:18.001Z</time></trkpt><trkpt lat="36.8509024083362" lon="15.086270447161773"><ele>36.0</ele><time>2026-04-11T14:00:19.001Z</time></trkpt><trkpt lat="36.8509644532982" lon="15.086305067391848"><ele>36.0</ele><time>2026-04-11T14:00:20.001Z</time></trkpt><trkpt lat="36.851031921507754" lon="15.086357652045821"><ele>36.0</ele><time>2026-04-11T14:00:21.001Z</time></trkpt><trkpt lat="36.85110794797286" lon="15.08643250083161"><ele>36.833333333333336</ele><time>2026-04-11T14:00:22.001Z</time></trkpt><trkpt lat="36.851164113115736" lon="15.086504165519202"><ele>37.666666666666664</ele><time>2026-04-11T14:00:23.001Z</time></trkpt><trkpt lat="36.851218678549905" lon="15.086570893808279"><ele>38.5</ele><time>2026-04-11T14:00:24.001Z</time></trkpt><trkpt lat="36.85130320064151" lon="15.086602979437163"><ele>39.33333333333333</ele><time>2026-04-11T14:00:26.001Z</time></trkpt><trkpt lat="36.85135057159078" lon="15.086534025055414"><ele>40.166666666666664</ele><time>2026-04-11T14:00:27.001Z</time></trkpt><trkpt lat="36.85140111015449" lon="15.086410084961171"><ele>41.0</ele><time>2026-04-11T14:00:28.001Z</time></trkpt><trkpt lat="36.851438359946684" lon="15.086229758619236"><ele>41.0</ele><time>2026-04-11T14:00:29.001Z</time></trkpt><trkpt lat="36.851468534561434" lon="15.08603057474968"><ele>41.0</ele><time>2026-04-11T14:00:30.001Z</time></trkpt><trkpt lat="36.8514915281024" lon="15.085877632356155"><ele>41.0</ele><time>2026-04-11T14:00:31.001Z</time></trkpt><trkpt lat="36.8515129448675" lon="15.085768993100245"><ele>41.0</ele><time>2026-04-11T14:00:32.001Z</time></trkpt><trkpt lat="36.85152695611375" lon="15.085684946164362"><ele>41.0</ele><time>2026-04-11T14:00:33.001Z</time></trkpt><trkpt lat="36.85152637867066" lon="15.085565611949304"><ele>40.4</ele><time>2026-04-11T14:00:35.001Z</time></trkpt><trkpt lat="36.85147564069617" lon="15.085491991831157"><ele>39.8</ele><time>2026-04-11T14:00:37.001Z</time></trkpt><trkpt lat="36.85134699524328" lon="15.085467574294405"><ele>39.199999999999996</ele><time>2026-04-11T14:00:39.001Z</time></trkpt><trkpt lat="36.85123699718014" lon="15.085429071278508"><ele>38.599999999999994</ele><time>2026-04-11T14:00:40.001Z</time></trkpt><trkpt lat="36.85112168997516" lon="15.085407399806424"><ele>38.0</ele><time>2026-04-11T14:00:41.001Z</time></trkpt><trkpt lat="36.85100544073422" lon="15.085397715977672"><ele>37.0</ele><time>2026-04-11T14:00:42.001Z</time></trkpt><trkpt lat="36.85089029260135" lon="15.085355608446273"><ele>36.0</ele><time>2026-04-11T14:00:43.001Z</time></trkpt><trkpt lat="36.85077443444111" lon="15.085334680819104"><ele>35.0</ele><time>2026-04-11T14:00:44.001Z</time></trkpt><trkpt lat="36.850670609037934" lon="15.085310633046715"><ele>34.0</ele><time>2026-04-11T14:00:45.001Z</time></trkpt><trkpt lat="36.850573248466425" lon="15.085288423911013"><ele>33.0</ele><time>2026-04-11T14:00:46.001Z</time></trkpt><trkpt lat="36.850470439284784" lon="15.085264110255363"><ele>33.0</ele><time>2026-04-11T14:00:47.001Z</time></trkpt><trkpt lat="36.850376883742804" lon="15.085247121581379"><ele>33.0</ele><time>2026-04-11T14:00:48.001Z</time></trkpt><trkpt lat="36.85030049258879" lon="15.085213163878192"><ele>33.0</ele><time>2026-04-11T14:00:49.001Z</time></trkpt><trkpt lat="36.850235633346514" lon="15.085199130983037"><ele>33.0</ele><time>2026-04-11T14:00:50.001Z</time></trkpt><trkpt lat="36.85014672299975" lon="15.085195735250599"><ele>33.0</ele><time>2026-04-11T14:00:52Z</time></trkpt><trkpt lat="36.850102685666" lon="15.085112111564886"><ele>33.0</ele><time>2026-04-11T14:00:54Z</time></trkpt><trkpt lat="36.85010181601415" lon="15.084920846480754"><ele>31.2</ele><time>2026-04-11T14:00:56Z</time></trkpt><trkpt lat="36.850098294688195" lon="15.084765936673502"><ele>29.4</ele><time>2026-04-11T14:00:57Z</time></trkpt><trkpt lat="36.85009307197599" lon="15.084634691376683"><ele>27.599999999999998</ele><time>2026-04-11T14:00:58Z</time></trkpt><trkpt lat="36.85008056484396" lon="15.084518336056517"><ele>25.799999999999997</ele><time>2026-04-11T14:00:59Z</time></trkpt><trkpt lat="36.85007489407002" lon="15.084411469553455"><ele>24.0</ele><time>2026-04-11T14:01:00Z</time></trkpt><trkpt lat="36.85007104273866" lon="15.084324008330015"><ele>24.0</ele><time>2026-04-11T14:01:01Z</time></trkpt><trkpt lat="36.85006871723452" lon="15.084242003760862"><ele>24.0</ele><time>2026-04-11T14:01:02Z</time></trkpt><trkpt lat="36.85004046326077" lon="15.08410124286009"><ele>24.0</ele><time>2026-04-11T14:01:04Z</time></trkpt><trkpt lat="36.84995800516141" lon="15.084004498640963"><ele>24.0</ele><time>2026-04-11T14:01:06Z</time></trkpt><trkpt lat="36.84989469170784" lon="15.083950458387855"><ele>24.0</ele><time>2026-04-11T14:01:08Z</time></trkpt><trkpt lat="36.849835896351415" lon="15.083863750649462"><ele>22.75</ele><time>2026-04-11T14:01:14Z</time></trkpt><trkpt lat="36.84979319385777" lon="15.083805610883418"><ele>21.5</ele><time>2026-04-11T14:01:18Z</time></trkpt><trkpt lat="36.84973736979831" lon="15.083714253932852"><ele>20.25</ele><time>2026-04-11T14:01:21Z</time></trkpt><trkpt lat="36.84971358549383" lon="15.083615332809813"><ele>19.0</ele><time>2026-04-11T14:01:24Z</time></trkpt><trkpt lat="36.84994555511409" lon="15.083357107054969"><ele>19.0</ele><time>2026-04-11T14:01:25Z</time></trkpt><trkpt lat="36.849975038728424" lon="15.083270129696517"><ele>19.0</ele><time>2026-04-11T14:01:27Z</time></trkpt><trkpt lat="36.849977492406694" lon="15.08319076019904"><ele>19.0</ele><time>2026-04-11T14:01:29Z</time></trkpt><trkpt lat="36.849993627008665" lon="15.083074092556515"><ele>19.0</ele><time>2026-04-11T14:01:31Z</time></trkpt><trkpt lat="36.850002467544805" lon="15.0829660636799"><ele>19.0</ele><time>2026-04-11T14:01:33Z</time></trkpt><trkpt lat="36.84997743194604" lon="15.082881542060118"><ele>19.0</ele><time>2026-04-11T14:01:35Z</time></trkpt><trkpt lat="36.85001910182927" lon="15.082803197024214"><ele>18.0</ele><time>2026-04-11T14:01:38Z</time></trkpt><trkpt lat="36.85010139650631" lon="15.082764539272386"><ele>17.0</ele><time>2026-04-11T14:01:39Z</time></trkpt><trkpt lat="36.85023265405544" lon="15.082677392173641"><ele>15.999999999999998</ele><time>2026-04-11T14:01:40Z</time></trkpt><trkpt lat="36.85031335245404" lon="15.082603862692036"><ele>15.0</ele><time>2026-04-11T14:01:41Z</time></trkpt><trkpt lat="36.85032659288664" lon="15.082472382934133"><ele>14.0</ele><time>2026-04-11T14:01:43Z</time></trkpt><trkpt lat="36.850260691164614" lon="15.082382161096431"><ele>13.666666666666668</ele><time>2026-04-11T14:01:44Z</time></trkpt><trkpt lat="36.850168464499944" lon="15.082258449530038"><ele>13.333333333333332</ele><time>2026-04-11T14:01:45Z</time></trkpt><trkpt lat="36.85006020732949" lon="15.082069691713734"><ele>13.0</ele><time>2026-04-11T14:01:46Z</time></trkpt><trkpt lat="36.84995123906255" lon="15.081878578356251"><ele>12.999999999999998</ele><time>2026-04-11T14:01:47Z</time></trkpt><trkpt lat="36.84988288987915" lon="15.081760560248533"><ele>13.0</ele><time>2026-04-11T14:01:48Z</time></trkpt><trkpt lat="36.8498437672456" lon="15.08165293528203"><ele>13.0</ele><time>2026-04-11T14:01:49Z</time></trkpt><trkpt lat="36.849789700572934" lon="15.081579791773477"><ele>13.0</ele><time>2026-04-11T14:01:50Z</time></trkpt><trkpt lat="36.84976349443554" lon="15.081503467559848"><ele>12.999999999999998</ele><time>2026-04-11T14:01:51Z</time></trkpt><trkpt lat="36.84975544674048" lon="15.081397143868415"><ele>13.0</ele><time>2026-04-11T14:01:53Z</time></trkpt><trkpt lat="36.84976141877097" lon="15.081297552926914"><ele>12.8</ele><time>2026-04-11T14:01:57Z</time></trkpt><trkpt lat="36.849736573012635" lon="15.081218466736464"><ele>12.600000000000001</ele><time>2026-04-11T14:02:01Z</time></trkpt><trkpt lat="36.84972567384746" lon="15.081115284419848"><ele>12.399999999999999</ele><time>2026-04-11T14:02:04Z</time></trkpt><trkpt lat="36.8496961445989" lon="15.081039415093136"><ele>12.2</ele><time>2026-04-11T14:02:06Z</time></trkpt><trkpt lat="36.849503732446415" lon="15.081030632562898"><ele>12.0</ele><time>2026-04-11T14:02:07Z</time></trkpt><trkpt lat="36.84941767439569" lon="15.08097732279769"><ele>12.0</ele><time>2026-04-11T14:02:09Z</time></trkpt><trkpt lat="36.84933614262354" lon="15.080923996109867"><ele>12.0</ele><time>2026-04-11T14:02:11Z</time></trkpt><trkpt lat="36.84924724617256" lon="15.08086721239497"><ele>12.0</ele><time>2026-04-11T14:02:13Z</time></trkpt><trkpt lat="36.849154883362075" lon="15.080808106511508"><ele>12.0</ele><time>2026-04-11T14:02:15Z</time></trkpt><trkpt lat="36.849061119947145" lon="15.080757952141145"><ele>12.0</ele><time>2026-04-11T14:02:17Z</time></trkpt><trkpt lat="36.84894109784877" lon="15.08070151193985"><ele>11.4</ele><time>2026-04-11T14:02:19Z</time></trkpt><trkpt lat="36.84887141020482" lon="15.080667109968083"><ele>10.799999999999999</ele><time>2026-04-11T14:02:20Z</time></trkpt><trkpt lat="36.84879145524941" lon="15.080622834514125"><ele>10.2</ele><time>2026-04-11T14:02:22.001Z</time></trkpt><trkpt lat="36.848709584253434" lon="15.080589614321635"><ele>9.6</ele><time>2026-04-11T14:02:24.001Z</time></trkpt><trkpt lat="36.848599141097495" lon="15.080561630719535"><ele>9.0</ele><time>2026-04-11T14:02:26.001Z</time></trkpt><trkpt lat="36.848533339917864" lon="15.080234863850078"><ele>9.0</ele><time>2026-04-11T14:02:28.001Z</time></trkpt><trkpt lat="36.84846804192462" lon="15.080227789597554"><ele>9.0</ele><time>2026-04-11T14:02:29.001Z</time></trkpt><trkpt lat="36.84839318342027" lon="15.080219679562587"><ele>9.0</ele><time>2026-04-11T14:02:30.001Z</time></trkpt><trkpt lat="36.84832357476762" lon="15.080212138306456"><ele>9.0</ele><time>2026-04-11T14:02:31.001Z</time></trkpt><trkpt lat="36.84820096150331" lon="15.080197581904278"><ele>9.0</ele><time>2026-04-11T14:02:33.001Z</time></trkpt><trkpt lat="36.84811515612598" lon="15.080186668016438"><ele>9.0</ele><time>2026-04-11T14:02:35.001Z</time></trkpt><trkpt lat="36.84805340684412" lon="15.080236828761988"><ele>8.8</ele><time>2026-04-11T14:02:38.001Z</time></trkpt><trkpt lat="36.847955809028505" lon="15.080127094922405"><ele>8.600000000000001</ele><time>2026-04-11T14:02:40.001Z</time></trkpt><trkpt lat="36.8478633657823" lon="15.080080634975007"><ele>8.4</ele><time>2026-04-11T14:02:41.001Z</time></trkpt><trkpt lat="36.847767356041686" lon="15.080013151850311"><ele>8.200000000000001</ele><time>2026-04-11T14:02:42.001Z</time></trkpt><trkpt lat="36.84770489552367" lon="15.079924784908192"><ele>8.0</ele><time>2026-04-11T14:02:43.001Z</time></trkpt><trkpt lat="36.84766728056554" lon="15.07981213654917"><ele>8.200000000000001</ele><time>2026-04-11T14:02:44.001Z</time></trkpt><trkpt lat="36.847654991001676" lon="15.07967510220199"><ele>8.4</ele><time>2026-04-11T14:02:45.001Z</time></trkpt><trkpt lat="36.84765283915898" lon="15.079528776477028"><ele>8.600000000000001</ele><time>2026-04-11T14:02:46.001Z</time></trkpt><trkpt lat="36.847640601998165" lon="15.079408200488183"><ele>8.8</ele><time>2026-04-11T14:02:47.001Z</time></trkpt><trkpt lat="36.84760638339212" lon="15.079319293090794"><ele>9.0</ele><time>2026-04-11T14:02:48.001Z</time></trkpt><trkpt lat="36.84755531945303" lon="15.079272064331311"><ele>9.0</ele><time>2026-04-11T14:02:49.001Z</time></trkpt><trkpt lat="36.84746001000028" lon="15.079228341051442"><ele>9.0</ele><time>2026-04-11T14:02:51.001Z</time></trkpt><trkpt lat="36.84737265700485" lon="15.079237489291403"><ele>9.0</ele><time>2026-04-11T14:03:06Z</time></trkpt><trkpt lat="36.847338463673076" lon="15.079386134367764"><ele>9.0</ele><time>2026-04-11T14:03:07Z</time></trkpt><trkpt lat="36.84734270584109" lon="15.079467164651236"><ele>9.0</ele><time>2026-04-11T14:03:08Z</time></trkpt><trkpt lat="36.847348336504766" lon="15.079574716907578"><ele>9.0</ele><time>2026-04-11T14:03:09Z</time></trkpt><trkpt lat="36.84735511828657" lon="15.079704256865954"><ele>9.0</ele><time>2026-04-11T14:03:10Z</time></trkpt><trkpt lat="36.847357979206855" lon="15.079833412295713"><ele>9.0</ele><time>2026-04-11T14:03:11Z</time></trkpt><trkpt lat="36.84736801419584" lon="15.07996647871026"><ele>9.0</ele><time>2026-04-11T14:03:12Z</time></trkpt><trkpt lat="36.84734784276729" lon="15.080078718417477"><ele>9.0</ele><time>2026-04-11T14:03:13Z</time></trkpt><trkpt lat="36.847324438057555" lon="15.08016688790763"><ele>9.0</ele><time>2026-04-11T14:03:14Z</time></trkpt><trkpt lat="36.84725102227256" lon="15.08025682079175"><ele>9.0</ele><time>2026-04-11T14:03:18Z</time></trkpt><trkpt lat="36.84717458274236" lon="15.080326736336357"><ele>9.0</ele><time>2026-04-11T14:03:19Z</time></trkpt><trkpt lat="36.84708735943506" lon="15.080407789806136"><ele>9.0</ele><time>2026-04-11T14:03:20Z</time></trkpt><trkpt lat="36.84700985637438" lon="15.080480549672677"><ele>9.0</ele><time>2026-04-11T14:03:21Z</time></trkpt><trkpt lat="36.84692760366952" lon="15.08052453596535"><ele>9.0</ele><time>2026-04-11T14:03:22Z</time></trkpt><trkpt lat="36.846828476085726" lon="15.080535200572658"><ele>9.0</ele><time>2026-04-11T14:03:23Z</time></trkpt><trkpt lat="36.84673562831848" lon="15.080526012218034"><ele>9.0</ele><time>2026-04-11T14:03:24Z</time></trkpt><trkpt lat="36.84663545599114" lon="15.080526170698233"><ele>9.0</ele><time>2026-04-11T14:03:25Z</time></trkpt><trkpt lat="36.84649605706289" lon="15.080530602315399"><ele>9.0</ele><time>2026-04-11T14:03:26Z</time></trkpt><trkpt lat="36.84633435735122" lon="15.080514470095995"><ele>8.666666666666666</ele><time>2026-04-11T14:03:27Z</time></trkpt><trkpt lat="36.84614573739933" lon="15.080483333744214"><ele>8.333333333333332</ele><time>2026-04-11T14:03:28Z</time></trkpt><trkpt lat="36.84593465384891" lon="15.080441924141025"><ele>8.0</ele><time>2026-04-11T14:03:29Z</time></trkpt><trkpt lat="36.84570407029589" lon="15.080409169029194"><ele>9.0</ele><time>2026-04-11T14:03:30Z</time></trkpt><trkpt lat="36.84546014850076" lon="15.080387647994007"><ele>10.0</ele><time>2026-04-11T14:03:31Z</time></trkpt><trkpt lat="36.84520964157279" lon="15.080364006880387"><ele>10.0</ele><time>2026-04-11T14:03:32Z</time></trkpt><trkpt lat="36.844964339634316" lon="15.080338309207821"><ele>10.0</ele><time>2026-04-11T14:03:33Z</time></trkpt><trkpt lat="36.84472420867835" lon="15.08031736126477"><ele>10.0</ele><time>2026-04-11T14:03:34Z</time></trkpt><trkpt lat="36.84448523515394" lon="15.08031187699473"><ele>10.0</ele><time>2026-04-11T14:03:35Z</time></trkpt><trkpt lat="36.844232854548764" lon="15.080336091249947"><ele>10.0</ele><time>2026-04-11T14:03:36Z</time></trkpt><trkpt lat="36.84397394442479" lon="15.0803851525447"><ele>10.0</ele><time>2026-04-11T14:03:37Z</time></trkpt><trkpt lat="36.8437123603459" lon="15.080456536148889"><ele>9.5</ele><time>2026-04-11T14:03:38Z</time></trkpt><trkpt lat="36.84344839528589" lon="15.080544428941396"><ele>9.0</ele><time>2026-04-11T14:03:39Z</time></trkpt><trkpt lat="36.84318126494382" lon="15.08063674057238"><ele>9.0</ele><time>2026-04-11T14:03:40Z</time></trkpt><trkpt lat="36.84291752299494" lon="15.0807236272568"><ele>9.0</ele><time>2026-04-11T14:03:41Z</time></trkpt><trkpt lat="36.84265615474762" lon="15.080806941775597"><ele>9.0</ele><time>2026-04-11T14:03:42Z</time></trkpt><trkpt lat="36.842403805798334" lon="15.080886482812346"><ele>9.0</ele><time>2026-04-11T14:03:43Z</time></trkpt><trkpt lat="36.8421674427848" lon="15.080966792802935"><ele>9.0</ele><time>2026-04-11T14:03:44Z</time></trkpt><trkpt lat="36.84194841844923" lon="15.081046475453453"><ele>9.0</ele><time>2026-04-11T14:03:45Z</time></trkpt><trkpt lat="36.84173273317196" lon="15.081142298510771"><ele>9.0</ele><time>2026-04-11T14:03:46Z</time></trkpt><trkpt lat="36.84151710148326" lon="15.081265166203071"><ele>9.0</ele><time>2026-04-11T14:03:47Z</time></trkpt><trkpt lat="36.84130312551775" lon="15.081415636044849"><ele>9.0</ele><time>2026-04-11T14:03:48Z</time></trkpt><trkpt lat="36.84109242276115" lon="15.081580429713211"><ele>9.0</ele><time>2026-04-11T14:03:49Z</time></trkpt><trkpt lat="36.8408881502003" lon="15.081764476520517"><ele>9.5</ele><time>2026-04-11T14:03:50Z</time></trkpt><trkpt lat="36.84068766979665" lon="15.081961725192633"><ele>10.0</ele><time>2026-04-11T14:03:51Z</time></trkpt><trkpt lat="36.84048454265696" lon="15.082178707944822"><ele>10.0</ele><time>2026-04-11T14:03:52Z</time></trkpt><trkpt lat="36.84027857915713" lon="15.082393770293363"><ele>10.0</ele><time>2026-04-11T14:03:53Z</time></trkpt><trkpt lat="36.840061346392346" lon="15.082587815477906"><ele>9.5</ele><time>2026-04-11T14:03:54Z</time></trkpt><trkpt lat="36.83985990288582" lon="15.082790695832168"><ele>9.0</ele><time>2026-04-11T14:03:55Z</time></trkpt><trkpt lat="36.8396712770676" lon="15.082980954711928"><ele>9.0</ele><time>2026-04-11T14:03:56Z</time></trkpt><trkpt lat="36.83948443823548" lon="15.083169936582241"><ele>9.0</ele><time>2026-04-11T14:03:57Z</time></trkpt><trkpt lat="36.83930707822131" lon="15.083349008586648"><ele>9.666666666666666</ele><time>2026-04-11T14:03:58Z</time></trkpt><trkpt lat="36.83914294482385" lon="15.0835145345152"><ele>10.333333333333332</ele><time>2026-04-11T14:03:59Z</time></trkpt><trkpt lat="36.83897896133522" lon="15.083679711835545"><ele>11.0</ele><time>2026-04-11T14:04:00Z</time></trkpt><trkpt lat="36.83882716487433" lon="15.083832613479291"><ele>11.0</ele><time>2026-04-11T14:04:01Z</time></trkpt><trkpt lat="36.83867700656535" lon="15.083983865008364"><ele>11.0</ele><time>2026-04-11T14:04:02Z</time></trkpt><trkpt lat="36.83853993659069" lon="15.084147797365492"><ele>11.0</ele><time>2026-04-11T14:04:03Z</time></trkpt><trkpt lat="36.838386792533825" lon="15.084295619971527"><ele>11.0</ele><time>2026-04-11T14:04:04Z</time></trkpt><trkpt lat="36.83822836636706" lon="15.084439717007326"><ele>11.0</ele><time>2026-04-11T14:04:05Z</time></trkpt><trkpt lat="36.83806361322187" lon="15.08457248682642"><ele>11.0</ele><time>2026-04-11T14:04:06Z</time></trkpt><trkpt lat="36.83790003196569" lon="15.08468223944761"><ele>11.0</ele><time>2026-04-11T14:04:07Z</time></trkpt><trkpt lat="36.83772454421379" lon="15.08477798020341"><ele>11.0</ele><time>2026-04-11T14:04:08Z</time></trkpt><trkpt lat="36.837541792563286" lon="15.08485632254638"><ele>11.0</ele><time>2026-04-11T14:04:09Z</time></trkpt><trkpt lat="36.83735723674953" lon="15.084917974486402"><ele>12.0</ele><time>2026-04-11T14:04:10Z</time></trkpt><trkpt lat="36.837165724319604" lon="15.08497401534843"><ele>13.0</ele><time>2026-04-11T14:04:11Z</time></trkpt><trkpt lat="36.83697239050407" lon="15.085015753065203"><ele>14.0</ele><time>2026-04-11T14:04:12Z</time></trkpt><trkpt lat="36.83678406799589" lon="15.085037947066951"><ele>15.666666666666668</ele><time>2026-04-11T14:04:13Z</time></trkpt><trkpt lat="36.836603829942334" lon="15.085044701137347"><ele>17.333333333333332</ele><time>2026-04-11T14:04:14Z</time></trkpt><trkpt lat="36.83642146045958" lon="15.08503654088273"><ele>19.0</ele><time>2026-04-11T14:04:15Z</time></trkpt><trkpt lat="36.83623533329645" lon="15.085010252194277"><ele>19.0</ele><time>2026-04-11T14:04:16Z</time></trkpt><trkpt lat="36.83605095090492" lon="15.084968011779843"><ele>19.0</ele><time>2026-04-11T14:04:17Z</time></trkpt><trkpt lat="36.83587088277643" lon="15.084911934593151"><ele>19.0</ele><time>2026-04-11T14:04:18Z</time></trkpt><trkpt lat="36.83569885611417" lon="15.084845010196567"><ele>21.666666666666664</ele><time>2026-04-11T14:04:19Z</time></trkpt><trkpt lat="36.835536738585006" lon="15.084766163052443"><ele>24.333333333333332</ele><time>2026-04-11T14:04:20Z</time></trkpt><trkpt lat="36.835373195823806" lon="15.084678774083244"><ele>27.0</ele><time>2026-04-11T14:04:21Z</time></trkpt><trkpt lat="36.83521315947504" lon="15.084586521307212"><ele>26.333333333333336</ele><time>2026-04-11T14:04:22Z</time></trkpt><trkpt lat="36.835049393811225" lon="15.084493218574046"><ele>25.666666666666668</ele><time>2026-04-11T14:04:23Z</time></trkpt><trkpt lat="36.834887163287334" lon="15.084399507711149"><ele>25.0</ele><time>2026-04-11T14:04:24Z</time></trkpt><trkpt lat="36.83472685786071" lon="15.084304024367233"><ele>25.0</ele><time>2026-04-11T14:04:25Z</time></trkpt><trkpt lat="36.834563007347285" lon="15.08420883325087"><ele>25.0</ele><time>2026-04-11T14:04:26Z</time></trkpt><trkpt lat="36.83440295095934" lon="15.08411934114749"><ele>25.0</ele><time>2026-04-11T14:04:27Z</time></trkpt><trkpt lat="36.83423640846229" lon="15.084025609075303"><ele>26.333333333333336</ele><time>2026-04-11T14:04:28Z</time></trkpt><trkpt lat="36.834073413790954" lon="15.083933532612724"><ele>27.666666666666664</ele><time>2026-04-11T14:04:29.001Z</time></trkpt><trkpt lat="36.83390641103427" lon="15.083843259496414"><ele>29.0</ele><time>2026-04-11T14:04:30.001Z</time></trkpt><trkpt lat="36.8337365049352" lon="15.083758070248669"><ele>29.0</ele><time>2026-04-11T14:04:31.001Z</time></trkpt><trkpt lat="36.83356130941449" lon="15.083680088218692"><ele>29.0</ele><time>2026-04-11T14:04:32.001Z</time></trkpt><trkpt lat="36.833386491754545" lon="15.083608729727388"><ele>29.0</ele><time>2026-04-11T14:04:33.001Z</time></trkpt><trkpt lat="36.83321059544506" lon="15.083541300007825"><ele>28.333333333333332</ele><time>2026-04-11T14:04:34.001Z</time></trkpt><trkpt lat="36.83303008784056" lon="15.083478366344261"><ele>27.666666666666664</ele><time>2026-04-11T14:04:35.001Z</time></trkpt><trkpt lat="36.83284246630546" lon="15.083421951417563"><ele>27.0</ele><time>2026-04-11T14:04:36.001Z</time></trkpt><trkpt lat="36.83265395482664" lon="15.083375542997526"><ele>27.0</ele><time>2026-04-11T14:04:37.001Z</time></trkpt><trkpt lat="36.83247528847331" lon="15.083344149074492"><ele>27.0</ele><time>2026-04-11T14:04:38.001Z</time></trkpt><trkpt lat="36.832298324523805" lon="15.083320167088079"><ele>27.0</ele><time>2026-04-11T14:04:39.001Z</time></trkpt><trkpt lat="36.832120012482775" lon="15.083302666738636"><ele>27.0</ele><time>2026-04-11T14:04:40.001Z</time></trkpt><trkpt lat="36.8319377468055" lon="15.083292806053585"><ele>27.0</ele><time>2026-04-11T14:04:41.001Z</time></trkpt><trkpt lat="36.831745678531604" lon="15.083288078289229"><ele>27.0</ele><time>2026-04-11T14:04:42.001Z</time></trkpt><trkpt lat="36.83154335100061" lon="15.083284024998266"><ele>26.333333333333336</ele><time>2026-04-11T14:04:43.001Z</time></trkpt><trkpt lat="36.831350685504034" lon="15.083280724961607"><ele>25.666666666666668</ele><time>2026-04-11T14:04:44.001Z</time></trkpt><trkpt lat="36.83115141210824" lon="15.083277033081423"><ele>25.0</ele><time>2026-04-11T14:04:45.001Z</time></trkpt><trkpt lat="36.83095270451974" lon="15.083276531070812"><ele>24.0</ele><time>2026-04-11T14:04:46.001Z</time></trkpt><trkpt lat="36.830775369972514" lon="15.083275342565143"><ele>23.0</ele><time>2026-04-11T14:04:47.001Z</time></trkpt><trkpt lat="36.83062020110201" lon="15.083273069043678"><ele>22.0</ele><time>2026-04-11T14:04:48.001Z</time></trkpt><trkpt lat="36.83047803983733" lon="15.083269291207506"><ele>22.0</ele><time>2026-04-11T14:04:49.001Z</time></trkpt><trkpt lat="36.83034440394409" lon="15.083265437164942"><ele>22.0</ele><time>2026-04-11T14:04:50.001Z</time></trkpt><trkpt lat="36.83021608240327" lon="15.083264280806313"><ele>22.0</ele><time>2026-04-11T14:04:51.001Z</time></trkpt><trkpt lat="36.830098015228245" lon="15.083262756509514"><ele>22.0</ele><time>2026-04-11T14:04:52.001Z</time></trkpt><trkpt lat="36.82997490877403" lon="15.083265307684728"><ele>21.6</ele><time>2026-04-11T14:04:53.001Z</time></trkpt><trkpt lat="36.82984739344277" lon="15.083267775016521"><ele>21.200000000000003</ele><time>2026-04-11T14:04:54.001Z</time></trkpt><trkpt lat="36.829729636130224" lon="15.083275269350318"><ele>20.8</ele><time>2026-04-11T14:04:55.001Z</time></trkpt><trkpt lat="36.82962907108091" lon="15.08328604485156"><ele>20.4</ele><time>2026-04-11T14:04:56.001Z</time></trkpt><trkpt lat="36.82954617995309" lon="15.083293703098496"><ele>20.0</ele><time>2026-04-11T14:04:57.001Z</time></trkpt><trkpt lat="36.829447563326354" lon="15.083316001356753"><ele>20.0</ele><time>2026-04-11T14:04:59.001Z</time></trkpt><trkpt lat="36.82941055667318" lon="15.083400017309899"><ele>20.0</ele><time>2026-04-11T14:05:03.001Z</time></trkpt><trkpt lat="36.82934500131782" lon="15.083361040583368"><ele>20.0</ele><time>2026-04-11T14:05:13Z</time></trkpt><trkpt lat="36.82926807772027" lon="15.083318809664565"><ele>20.0</ele><time>2026-04-11T14:05:14Z</time></trkpt><trkpt lat="36.82917277829317" lon="15.083324290732717"><ele>20.0</ele><time>2026-04-11T14:05:15Z</time></trkpt><trkpt lat="36.829066408499266" lon="15.083343779441705"><ele>20.0</ele><time>2026-04-11T14:05:16Z</time></trkpt><trkpt lat="36.82896490673341" lon="15.083366169588201"><ele>20.833333333333336</ele><time>2026-04-11T14:05:17Z</time></trkpt><trkpt lat="36.82888144200183" lon="15.083382061245288"><ele>21.666666666666668</ele><time>2026-04-11T14:05:18Z</time></trkpt><trkpt lat="36.82881971326746" lon="15.083399359972235"><ele>22.5</ele><time>2026-04-11T14:05:19Z</time></trkpt><trkpt lat="36.82874714071256" lon="15.083503873267883"><ele>23.333333333333336</ele><time>2026-04-11T14:05:21Z</time></trkpt><trkpt lat="36.82873397426867" lon="15.08359520335982"><ele>24.166666666666668</ele><time>2026-04-11T14:05:22Z</time></trkpt><trkpt lat="36.82872690471183" lon="15.083678978598211"><ele>25.0</ele><time>2026-04-11T14:05:23Z</time></trkpt><trkpt lat="36.828705059612595" lon="15.083816381747516"><ele>25.000000000000004</ele><time>2026-04-11T14:05:25Z</time></trkpt><trkpt lat="36.82866005705394" lon="15.083954352181067"><ele>25.0</ele><time>2026-04-11T14:05:27Z</time></trkpt><trkpt lat="36.828642670417196" lon="15.084069399613838"><ele>25.0</ele><time>2026-04-11T14:05:29Z</time></trkpt><trkpt lat="36.82864067867336" lon="15.084167884056438"><ele>25.0</ele><time>2026-04-11T14:05:31Z</time></trkpt><trkpt lat="36.828621725111645" lon="15.084257386720719"><ele>25.000000000000004</ele><time>2026-04-11T14:05:33Z</time></trkpt><trkpt lat="36.828569791302385" lon="15.084302810580125"><ele>25.0</ele><time>2026-04-11T14:05:35Z</time></trkpt><trkpt lat="36.828441708834326" lon="15.084238082918198"><ele>25.0</ele><time>2026-04-11T14:05:37Z</time></trkpt><trkpt lat="36.828334732416884" lon="15.084181679518373"><ele>25.0</ele><time>2026-04-11T14:05:38Z</time></trkpt><trkpt lat="36.82822950313691" lon="15.084148630404798"><ele>25.0</ele><time>2026-04-11T14:05:39Z</time></trkpt><trkpt lat="36.82812239454813" lon="15.08411224731969"><ele>25.0</ele><time>2026-04-11T14:05:40Z</time></trkpt><trkpt lat="36.828011527429624" lon="15.084084621618558"><ele>25.0</ele><time>2026-04-11T14:05:41Z</time></trkpt><trkpt lat="36.82792475663254" lon="15.084056999337554"><ele>25.0</ele><time>2026-04-11T14:05:42Z</time></trkpt><trkpt lat="36.827824106425105" lon="15.08402247244187"><ele>25.0</ele><time>2026-04-11T14:05:43Z</time></trkpt><trkpt lat="36.82772375456817" lon="15.083995479419528"><ele>25.0</ele><time>2026-04-11T14:05:44Z</time></trkpt><trkpt lat="36.82762907287887" lon="15.083977470931453"><ele>25.0</ele><time>2026-04-11T14:05:45Z</time></trkpt><trkpt lat="36.82754060144486" lon="15.083943358126586"><ele>25.0</ele><time>2026-04-11T14:05:46Z</time></trkpt><trkpt lat="36.827459700500604" lon="15.083920449365312"><ele>25.0</ele><time>2026-04-11T14:05:47Z</time></trkpt><trkpt lat="36.827359592775856" lon="15.083900194420728"><ele>25.0</ele><time>2026-04-11T14:05:48Z</time></trkpt><trkpt lat="36.827263416404726" lon="15.083858781778128"><ele>25.0</ele><time>2026-04-11T14:05:49Z</time></trkpt><trkpt lat="36.82715985758446" lon="15.083851550125688"><ele>25.0</ele><time>2026-04-11T14:05:50Z</time></trkpt><trkpt lat="36.82707226937061" lon="15.083830830061789"><ele>25.0</ele><time>2026-04-11T14:05:51Z</time></trkpt><trkpt lat="36.82698921572895" lon="15.083810831266364"><ele>25.0</ele><time>2026-04-11T14:05:52Z</time></trkpt><trkpt lat="36.826895965338316" lon="15.083800539835613"><ele>25.0</ele><time>2026-04-11T14:05:53Z</time></trkpt><trkpt lat="36.8267914716826" lon="15.083767079680726"><ele>25.0</ele><time>2026-04-11T14:05:54Z</time></trkpt><trkpt lat="36.82667397238688" lon="15.083764899073659"><ele>25.0</ele><time>2026-04-11T14:05:55Z</time></trkpt><trkpt lat="36.82656033604913" lon="15.083736579428702"><ele>25.0</ele><time>2026-04-11T14:05:56Z</time></trkpt><trkpt lat="36.82646930973315" lon="15.083748412814076"><ele>25.166666666666668</ele><time>2026-04-11T14:05:57Z</time></trkpt><trkpt lat="36.8263895342728" lon="15.083741476865931"><ele>25.333333333333336</ele><time>2026-04-11T14:05:58Z</time></trkpt><trkpt lat="36.82629618320071" lon="15.08373788636719"><ele>25.5</ele><time>2026-04-11T14:05:59Z</time></trkpt><trkpt lat="36.826213060105076" lon="15.083725887657174"><ele>25.666666666666664</ele><time>2026-04-11T14:06:00Z</time></trkpt><trkpt lat="36.82613683174298" lon="15.083724280684109"><ele>25.833333333333332</ele><time>2026-04-11T14:06:01Z</time></trkpt><trkpt lat="36.82606046074849" lon="15.083724987065724"><ele>26.0</ele><time>2026-04-11T14:06:02Z</time></trkpt><trkpt lat="36.825987785723136" lon="15.083737003208054"><ele>26.166666666666664</ele><time>2026-04-11T14:06:03Z</time></trkpt><trkpt lat="36.82592607697599" lon="15.083789557978053"><ele>26.333333333333332</ele><time>2026-04-11T14:06:04Z</time></trkpt><trkpt lat="36.82585857789658" lon="15.083872991772344"><ele>26.5</ele><time>2026-04-11T14:06:05Z</time></trkpt><trkpt lat="36.82580969261081" lon="15.083923454496656"><ele>26.666666666666664</ele><time>2026-04-11T14:06:06Z</time></trkpt><trkpt lat="36.82573422343671" lon="15.083914399747664"><ele>26.833333333333332</ele><time>2026-04-11T14:06:08Z</time></trkpt><trkpt lat="36.82567638893772" lon="15.08387075804302"><ele>27.0</ele><time>2026-04-11T14:06:09Z</time></trkpt><trkpt lat="36.82561326683211" lon="15.083811145300004"><ele>27.0</ele><time>2026-04-11T14:06:10Z</time></trkpt><trkpt lat="36.8255591097566" lon="15.083740765081394"><ele>27.0</ele><time>2026-04-11T14:06:11Z</time></trkpt><trkpt lat="36.82551154590834" lon="15.083686114232469"><ele>27.0</ele><time>2026-04-11T14:06:12Z</time></trkpt><trkpt lat="36.82541274696117" lon="15.083657949472304"><ele>27.0</ele><time>2026-04-11T14:06:14Z</time></trkpt><trkpt lat="36.82531991574796" lon="15.083655780371831"><ele>27.0</ele><time>2026-04-11T14:06:16Z</time></trkpt><trkpt lat="36.82524851286737" lon="15.083636530527771"><ele>27.0</ele><time>2026-04-11T14:06:19Z</time></trkpt><trkpt lat="36.82516642400721" lon="15.083638955087102"><ele>27.0</ele><time>2026-04-11T14:06:22Z</time></trkpt><trkpt lat="36.82508960876878" lon="15.083634880229914"><ele>27.0</ele><time>2026-04-11T14:06:24Z</time></trkpt><trkpt lat="36.82496902009666" lon="15.08363487911625"><ele>27.0</ele><time>2026-04-11T14:06:26Z</time></trkpt><trkpt lat="36.82490296405286" lon="15.08364029784697"><ele>27.0</ele><time>2026-04-11T14:06:27.001Z</time></trkpt><trkpt lat="36.82482638980825" lon="15.08364252411991"><ele>27.0</ele><time>2026-04-11T14:06:28.001Z</time></trkpt><trkpt lat="36.82476185084275" lon="15.083642925404092"><ele>27.0</ele><time>2026-04-11T14:06:29.001Z</time></trkpt><trkpt lat="36.824696426477104" lon="15.083642591212891"><ele>27.0</ele><time>2026-04-11T14:06:30.001Z</time></trkpt><trkpt lat="36.824609193676515" lon="15.083642145622777"><ele>27.000000000000004</ele><time>2026-04-11T14:06:31.001Z</time></trkpt><trkpt lat="36.824445004139676" lon="15.083640014390111"><ele>27.000000000000004</ele><time>2026-04-11T14:06:33.001Z</time></trkpt><trkpt lat="36.82436123438868" lon="15.083638374823144"><ele>27.0</ele><time>2026-04-11T14:06:34.001Z</time></trkpt><trkpt lat="36.82425618826217" lon="15.08363631882671"><ele>27.0</ele><time>2026-04-11T14:06:35.001Z</time></trkpt><trkpt lat="36.824162001965824" lon="15.083638168504184"><ele>27.0</ele><time>2026-04-11T14:06:36.001Z</time></trkpt><trkpt lat="36.82403809104722" lon="15.083625617693931"><ele>27.0</ele><time>2026-04-11T14:06:37.001Z</time></trkpt><trkpt lat="36.82393720672685" lon="15.083613155108779"><ele>27.0</ele><time>2026-04-11T14:06:38.001Z</time></trkpt><trkpt lat="36.82383058651859" lon="15.083622962683236"><ele>27.0</ele><time>2026-04-11T14:06:39.001Z</time></trkpt><trkpt lat="36.82369531722421" lon="15.083623328087898"><ele>27.0</ele><time>2026-04-11T14:06:40.001Z</time></trkpt><trkpt lat="36.82358174509602" lon="15.083606509448767"><ele>27.0</ele><time>2026-04-11T14:06:41.001Z</time></trkpt><trkpt lat="36.823471990999685" lon="15.083597087063445"><ele>27.0</ele><time>2026-04-11T14:06:42.001Z</time></trkpt><trkpt lat="36.82333884393011" lon="15.083596926956771"><ele>27.0</ele><time>2026-04-11T14:06:43.001Z</time></trkpt><trkpt lat="36.82321636809666" lon="15.083576924539129"><ele>27.0</ele><time>2026-04-11T14:06:44.001Z</time></trkpt><trkpt lat="36.82310077923282" lon="15.083562957741968"><ele>27.0</ele><time>2026-04-11T14:06:45.001Z</time></trkpt><trkpt lat="36.82297103328637" lon="15.083559237470059"><ele>27.0</ele><time>2026-04-11T14:06:46.001Z</time></trkpt><trkpt lat="36.82283923446805" lon="15.083553746697767"><ele>27.0</ele><time>2026-04-11T14:06:47.001Z</time></trkpt><trkpt lat="36.82271599120948" lon="15.083537340555546"><ele>27.200000000000003</ele><time>2026-04-11T14:06:48.001Z</time></trkpt><trkpt lat="36.82260414100022" lon="15.08352810807555"><ele>27.400000000000002</ele><time>2026-04-11T14:06:49.001Z</time></trkpt><trkpt lat="36.82251694542452" lon="15.083520910658242"><ele>27.599999999999998</ele><time>2026-04-11T14:06:50.001Z</time></trkpt><trkpt lat="36.82244299865258" lon="15.083500841470206"><ele>27.799999999999997</ele><time>2026-04-11T14:06:51.001Z</time></trkpt><trkpt lat="36.82236167530746" lon="15.083442643387407"><ele>28.0</ele><time>2026-04-11T14:06:52.001Z</time></trkpt><trkpt lat="36.82224785302671" lon="15.08348783023752"><ele>28.0</ele><time>2026-04-11T14:06:54.001Z</time></trkpt><trkpt lat="36.822172198792686" lon="15.08349879274892"><ele>27.999999999999996</ele><time>2026-04-11T14:06:55.001Z</time></trkpt><trkpt lat="36.822081825929025" lon="15.08361099646409"><ele>27.999999999999996</ele><time>2026-04-11T14:06:57.001Z</time></trkpt><trkpt lat="36.82201048051798" lon="15.08363672712897"><ele>28.0</ele><time>2026-04-11T14:06:58.001Z</time></trkpt><trkpt lat="36.82192020825726" lon="15.083659045256395"><ele>28.0</ele><time>2026-04-11T14:06:59.001Z</time></trkpt><trkpt lat="36.82172144371424" lon="15.083316811542176"><ele>27.799999999999997</ele><time>2026-04-11T14:07:00.001Z</time></trkpt><trkpt lat="36.82161404332992" lon="15.083305498301709"><ele>27.599999999999998</ele><time>2026-04-11T14:07:01.001Z</time></trkpt><trkpt lat="36.8215204809579" lon="15.083290983645233"><ele>27.400000000000002</ele><time>2026-04-11T14:07:02.001Z</time></trkpt><trkpt lat="36.821428496864506" lon="15.083283090953866"><ele>27.200000000000003</ele><time>2026-04-11T14:07:03.001Z</time></trkpt><trkpt lat="36.82134515478802" lon="15.083276314653864"><ele>27.0</ele><time>2026-04-11T14:07:04.001Z</time></trkpt><trkpt lat="36.82125552644039" lon="15.083269090093738"><ele>27.0</ele><time>2026-04-11T14:07:05.001Z</time></trkpt><trkpt lat="36.821156287745936" lon="15.083261315103304"><ele>27.000000000000004</ele><time>2026-04-11T14:07:06.001Z</time></trkpt><trkpt lat="36.82107125043215" lon="15.08324214123245"><ele>27.000000000000004</ele><time>2026-04-11T14:07:07.001Z</time></trkpt><trkpt lat="36.82096628085568" lon="15.083233398058423"><ele>27.0</ele><time>2026-04-11T14:07:08.001Z</time></trkpt><trkpt lat="36.82086961187106" lon="15.083226873300491"><ele>27.0</ele><time>2026-04-11T14:07:09.001Z</time></trkpt><trkpt lat="36.82078750491097" lon="15.083219234645517"><ele>27.0</ele><time>2026-04-11T14:07:10Z</time></trkpt><trkpt lat="36.820698336405826" lon="15.083211493363201"><ele>27.0</ele><time>2026-04-11T14:07:11Z</time></trkpt><trkpt lat="36.82063019022786" lon="15.083205896504387"><ele>27.0</ele><time>2026-04-11T14:07:12Z</time></trkpt><trkpt lat="36.82056402003315" lon="15.083200730334768"><ele>27.0</ele><time>2026-04-11T14:07:13Z</time></trkpt><trkpt lat="36.82049176405657" lon="15.08320337784996"><ele>27.0</ele><time>2026-04-11T14:07:14Z</time></trkpt><trkpt lat="36.820405174679706" lon="15.083195586356307"><ele>27.0</ele><time>2026-04-11T14:07:15Z</time></trkpt><trkpt lat="36.82033757505635" lon="15.083188745494498"><ele>27.0</ele><time>2026-04-11T14:07:16Z</time></trkpt><trkpt lat="36.82026089201994" lon="15.08318996743695"><ele>27.0</ele><time>2026-04-11T14:07:17Z</time></trkpt><trkpt lat="36.820182533493174" lon="15.083190461727039"><ele>27.0</ele><time>2026-04-11T14:07:18Z</time></trkpt><trkpt lat="36.8201051857588" lon="15.083174194654088"><ele>27.0</ele><time>2026-04-11T14:07:19Z</time></trkpt><trkpt lat="36.820041458230556" lon="15.083172213782381"><ele>27.0</ele><time>2026-04-11T14:07:20Z</time></trkpt><trkpt lat="36.8199766842811" lon="15.083167520631001"><ele>27.0</ele><time>2026-04-11T14:07:21Z</time></trkpt><trkpt lat="36.81984716892679" lon="15.083156273307795"><ele>27.0</ele><time>2026-04-11T14:07:23Z</time></trkpt><trkpt lat="36.81973790687933" lon="15.083143505279756"><ele>27.0</ele><time>2026-04-11T14:07:25Z</time></trkpt><trkpt lat="36.819669787025795" lon="15.082879849280095"><ele>27.0</ele><time>2026-04-11T14:07:26Z</time></trkpt><trkpt lat="36.81959692226591" lon="15.082883318373533"><ele>27.0</ele><time>2026-04-11T14:07:27Z</time></trkpt><trkpt lat="36.81952808376827" lon="15.082886595775292"><ele>27.0</ele><time>2026-04-11T14:07:28Z</time></trkpt><trkpt lat="36.81945000027158" lon="15.082890313334065"><ele>27.0</ele><time>2026-04-11T14:07:29Z</time></trkpt><trkpt lat="36.81937922252079" lon="15.08289368306589"><ele>27.0</ele><time>2026-04-11T14:07:30Z</time></trkpt><trkpt lat="36.819300870067195" lon="15.082897413428428"><ele>27.0</ele><time>2026-04-11T14:07:31Z</time></trkpt><trkpt lat="36.81923332873844" lon="15.082900629071258"><ele>27.0</ele><time>2026-04-11T14:07:32Z</time></trkpt><trkpt lat="36.81916834788658" lon="15.082903722812626"><ele>27.0</ele><time>2026-04-11T14:07:33Z</time></trkpt><trkpt lat="36.81905696959082" lon="15.082906103158638"><ele>27.25</ele><time>2026-04-11T14:07:35Z</time></trkpt><trkpt lat="36.81894439941182" lon="15.082909450766453"><ele>27.5</ele><time>2026-04-11T14:07:37Z</time></trkpt><trkpt lat="36.81882946332653" lon="15.082912798060388"><ele>27.75</ele><time>2026-04-11T14:07:39Z</time></trkpt><trkpt lat="36.81871821968689" lon="15.082917504927737"><ele>28.0</ele><time>2026-04-11T14:07:41Z</time></trkpt><trkpt lat="36.818592609551004" lon="15.082922819659192"><ele>28.0</ele><time>2026-04-11T14:07:43Z</time></trkpt><trkpt lat="36.818487206082104" lon="15.08292747358674"><ele>27.999999999999996</ele><time>2026-04-11T14:07:45Z</time></trkpt><trkpt lat="36.81838074569008" lon="15.082932492344241"><ele>27.999999999999996</ele><time>2026-04-11T14:07:47Z</time></trkpt><trkpt lat="36.818311132759085" lon="15.082936273563924"><ele>28.0</ele><time>2026-04-11T14:07:48Z</time></trkpt><trkpt lat="36.8181825127903" lon="15.082943719741353"><ele>28.0</ele><time>2026-04-11T14:07:50Z</time></trkpt><trkpt lat="36.81810880121524" lon="15.082947987113009"><ele>27.833333333333336</ele><time>2026-04-11T14:07:51Z</time></trkpt><trkpt lat="36.81804578207695" lon="15.082951378940251"><ele>27.666666666666668</ele><time>2026-04-11T14:07:52Z</time></trkpt><trkpt lat="36.81793692983215" lon="15.082955956380657"><ele>27.5</ele><time>2026-04-11T14:07:54Z</time></trkpt><trkpt lat="36.81786588550076" lon="15.082958813259564"><ele>27.333333333333336</ele><time>2026-04-11T14:07:56Z</time></trkpt><trkpt lat="36.81777328904407" lon="15.082962536805464"><ele>27.166666666666668</ele><time>2026-04-11T14:07:59Z</time></trkpt><trkpt lat="36.81770982374909" lon="15.082965088910978"><ele>27.0</ele><time>2026-04-11T14:08:01Z</time></trkpt><trkpt lat="36.81763963247757" lon="15.08296791148626"><ele>26.75</ele><time>2026-04-11T14:08:03Z</time></trkpt><trkpt lat="36.817527150843084" lon="15.083154384301805"><ele>26.5</ele><time>2026-04-11T14:08:05Z</time></trkpt><trkpt lat="36.817444442836724" lon="15.083163182295236"><ele>26.25</ele><time>2026-04-11T14:08:06Z</time></trkpt><trkpt lat="36.8173583543073" lon="15.083164140351705"><ele>26.0</ele><time>2026-04-11T14:08:07Z</time></trkpt><trkpt lat="36.817260085486716" lon="15.083162876721335"><ele>26.0</ele><time>2026-04-11T14:08:08Z</time></trkpt><trkpt lat="36.81717524596273" lon="15.083167740772124"><ele>26.0</ele><time>2026-04-11T14:08:09Z</time></trkpt><trkpt lat="36.81707655510011" lon="15.083174762815352"><ele>26.0</ele><time>2026-04-11T14:08:10Z</time></trkpt><trkpt lat="36.81697503236127" lon="15.083181041023652"><ele>26.0</ele><time>2026-04-11T14:08:11Z</time></trkpt><trkpt lat="36.816880277948776" lon="15.083183693841745"><ele>26.0</ele><time>2026-04-11T14:08:12Z</time></trkpt><trkpt lat="36.81678327887954" lon="15.083194304908139"><ele>25.8</ele><time>2026-04-11T14:08:13Z</time></trkpt><trkpt lat="36.81670506529578" lon="15.083195508936047"><ele>25.6</ele><time>2026-04-11T14:08:14Z</time></trkpt><trkpt lat="36.816604220911316" lon="15.083203615365266"><ele>25.4</ele><time>2026-04-11T14:08:15Z</time></trkpt><trkpt lat="36.81650654219419" lon="15.083208031006118"><ele>25.2</ele><time>2026-04-11T14:08:16Z</time></trkpt><trkpt lat="36.81639658213121" lon="15.083215348189793"><ele>25.0</ele><time>2026-04-11T14:08:17Z</time></trkpt><trkpt lat="36.81629263261055" lon="15.083217172136445"><ele>25.0</ele><time>2026-04-11T14:08:18Z</time></trkpt><trkpt lat="36.816213152473104" lon="15.083220128809675"><ele>25.0</ele><time>2026-04-11T14:08:19Z</time></trkpt><trkpt lat="36.81610006213178" lon="15.083219673542738"><ele>25.0</ele><time>2026-04-11T14:08:20Z</time></trkpt><trkpt lat="36.815984414379884" lon="15.083232308538435"><ele>25.0</ele><time>2026-04-11T14:08:21Z</time></trkpt><trkpt lat="36.81584897008347" lon="15.083233354317796"><ele>25.0</ele><time>2026-04-11T14:08:22Z</time></trkpt><trkpt lat="36.81566798985388" lon="15.083248415002318"><ele>25.0</ele><time>2026-04-11T14:08:23Z</time></trkpt><trkpt lat="36.815521461835644" lon="15.083254900241048"><ele>25.0</ele><time>2026-04-11T14:08:24Z</time></trkpt><trkpt lat="36.815399179932754" lon="15.083247875210173"><ele>25.0</ele><time>2026-04-11T14:08:25Z</time></trkpt><trkpt lat="36.81528267257302" lon="15.083259296476122"><ele>25.0</ele><time>2026-04-11T14:08:26.001Z</time></trkpt><trkpt lat="36.81516983864685" lon="15.083264064449004"><ele>24.4</ele><time>2026-04-11T14:08:27.001Z</time></trkpt><trkpt lat="36.8150669137383" lon="15.083269765443411"><ele>23.8</ele><time>2026-04-11T14:08:28.001Z</time></trkpt><trkpt lat="36.81495632175882" lon="15.083271270668904"><ele>23.200000000000003</ele><time>2026-04-11T14:08:29.001Z</time></trkpt><trkpt lat="36.814848002665784" lon="15.083294674527155"><ele>22.6</ele><time>2026-04-11T14:08:30.001Z</time></trkpt><trkpt lat="36.8147361249456" lon="15.083288356772696"><ele>22.0</ele><time>2026-04-11T14:08:31.001Z</time></trkpt><trkpt lat="36.8146446586365" lon="15.083300576199285"><ele>22.0</ele><time>2026-04-11T14:08:32.001Z</time></trkpt><trkpt lat="36.81454815896023" lon="15.083322518506797"><ele>22.0</ele><time>2026-04-11T14:08:33.001Z</time></trkpt><trkpt lat="36.81445261929745" lon="15.083326226383784"><ele>22.0</ele><time>2026-04-11T14:08:34.001Z</time></trkpt><trkpt lat="36.81438344597128" lon="15.083329085120608"><ele>22.0</ele><time>2026-04-11T14:08:35.001Z</time></trkpt><trkpt lat="36.81430290131412" lon="15.083329088706737"><ele>22.0</ele><time>2026-04-11T14:08:37.001Z</time></trkpt><trkpt lat="36.814238488740926" lon="15.08333368605695"><ele>22.0</ele><time>2026-04-11T14:08:38.001Z</time></trkpt><trkpt lat="36.81411735299275" lon="15.083336386471347"><ele>21.5</ele><time>2026-04-11T14:08:40.001Z</time></trkpt><trkpt lat="36.81400929020279" lon="15.083148381908815"><ele>21.0</ele><time>2026-04-11T14:08:42.001Z</time></trkpt><trkpt lat="36.813915274825106" lon="15.083152539709685"><ele>20.5</ele><time>2026-04-11T14:08:44.001Z</time></trkpt><trkpt lat="36.81382020071386" lon="15.083156658834985"><ele>20.0</ele><time>2026-04-11T14:08:46.001Z</time></trkpt><trkpt lat="36.81371841927398" lon="15.083160336022974"><ele>20.0</ele><time>2026-04-11T14:08:48.001Z</time></trkpt><trkpt lat="36.81362836243262" lon="15.08316358962247"><ele>20.0</ele><time>2026-04-11T14:08:50.001Z</time></trkpt><trkpt lat="36.81354586356251" lon="15.083166570163714"><ele>20.0</ele><time>2026-04-11T14:08:52.001Z</time></trkpt><trkpt lat="36.81344738767308" lon="15.083170127927675"><ele>20.0</ele><time>2026-04-11T14:08:54.001Z</time></trkpt><trkpt lat="36.8133417914285" lon="15.083173942938917"><ele>20.0</ele><time>2026-04-11T14:08:56.001Z</time></trkpt><trkpt lat="36.813247783955646" lon="15.08317496657956"><ele>20.2</ele><time>2026-04-11T14:08:58.001Z</time></trkpt><trkpt lat="36.81313537511031" lon="15.083174966578662"><ele>20.4</ele><time>2026-04-11T14:09:00.001Z</time></trkpt><trkpt lat="36.81302209773488" lon="15.083174966577497"><ele>20.6</ele><time>2026-04-11T14:09:02.001Z</time></trkpt><trkpt lat="36.81291953539248" lon="15.083174966576651"><ele>20.8</ele><time>2026-04-11T14:09:04.001Z</time></trkpt><trkpt lat="36.812833582828674" lon="15.0831741133816"><ele>21.0</ele><time>2026-04-11T14:09:06.001Z</time></trkpt><trkpt lat="36.81276476407129" lon="15.08317376336267"><ele>21.0</ele><time>2026-04-11T14:09:08.001Z</time></trkpt><trkpt lat="36.81266515918843" lon="15.083172761530076"><ele>21.0</ele><time>2026-04-11T14:09:11.001Z</time></trkpt><trkpt lat="36.81259786370495" lon="15.0831720060309"><ele>21.0</ele><time>2026-04-11T14:09:13.001Z</time></trkpt><trkpt lat="36.81251248653098" lon="15.083171047533703"><ele>21.0</ele><time>2026-04-11T14:09:15.001Z</time></trkpt><trkpt lat="36.81243390175578" lon="15.083168734852409"><ele>21.0</ele><time>2026-04-11T14:09:17Z</time></trkpt><trkpt lat="36.81234321909224" lon="15.083165904673823"><ele>21.0</ele><time>2026-04-11T14:09:19Z</time></trkpt><trkpt lat="36.81227472652149" lon="15.083163767042864"><ele>21.6</ele><time>2026-04-11T14:09:21Z</time></trkpt><trkpt lat="36.8121933681749" lon="15.08316122787307"><ele>22.200000000000003</ele><time>2026-04-11T14:09:23Z</time></trkpt><trkpt lat="36.81211637776708" lon="15.083158825020998"><ele>22.799999999999997</ele><time>2026-04-11T14:09:25Z</time></trkpt><trkpt lat="36.81201099214452" lon="15.083153636009415"><ele>23.4</ele><time>2026-04-11T14:09:28Z</time></trkpt><trkpt lat="36.81189320427244" lon="15.08314786923822"><ele>24.0</ele><time>2026-04-11T14:09:30Z</time></trkpt><trkpt lat="36.811786665589274" lon="15.083142653222053"><ele>24.0</ele><time>2026-04-11T14:09:32Z</time></trkpt><trkpt lat="36.81167388826329" lon="15.08313552035117"><ele>24.0</ele><time>2026-04-11T14:09:34Z</time></trkpt><trkpt lat="36.81160995376624" lon="15.083131232448808"><ele>24.0</ele><time>2026-04-11T14:09:35Z</time></trkpt><trkpt lat="36.81148880110321" lon="15.083122552133736"><ele>24.0</ele><time>2026-04-11T14:09:37Z</time></trkpt><trkpt lat="36.811374147512666" lon="15.08311400795997"><ele>24.0</ele><time>2026-04-11T14:09:39Z</time></trkpt><trkpt lat="36.81130858823861" lon="15.083107872393645"><ele>24.0</ele><time>2026-04-11T14:09:40Z</time></trkpt><trkpt lat="36.81123984270334" lon="15.08310122189561"><ele>24.0</ele><time>2026-04-11T14:09:41Z</time></trkpt><trkpt lat="36.81114846158459" lon="15.083091870005035"><ele>24.0</ele><time>2026-04-11T14:09:43Z</time></trkpt><trkpt lat="36.81102673388923" lon="15.083077429875804"><ele>24.0</ele><time>2026-04-11T14:09:45Z</time></trkpt><trkpt lat="36.81088109074279" lon="15.083059060062915"><ele>24.0</ele><time>2026-04-11T14:09:47Z</time></trkpt><trkpt lat="36.81079818243427" lon="15.083048307695575"><ele>23.5</ele><time>2026-04-11T14:09:48Z</time></trkpt><trkpt lat="36.8107196652425" lon="15.083038124793566"><ele>23.0</ele><time>2026-04-11T14:09:49Z</time></trkpt><trkpt lat="36.81064648449885" lon="15.08302863398599"><ele>22.5</ele><time>2026-04-11T14:09:50Z</time></trkpt><trkpt lat="36.81057202055716" lon="15.083018976762082"><ele>22.0</ele><time>2026-04-11T14:09:51Z</time></trkpt><trkpt lat="36.810500172581385" lon="15.083009658799932"><ele>21.5</ele><time>2026-04-11T14:09:52Z</time></trkpt><trkpt lat="36.81040044276527" lon="15.082996724839735"><ele>21.0</ele><time>2026-04-11T14:09:53Z</time></trkpt><trkpt lat="36.81031883622086" lon="15.082986141283719"><ele>21.0</ele><time>2026-04-11T14:09:54Z</time></trkpt><trkpt lat="36.81023186246071" lon="15.082974861667516"><ele>21.0</ele><time>2026-04-11T14:09:55Z</time></trkpt><trkpt lat="36.81013975511788" lon="15.082962916269635"><ele>21.0</ele><time>2026-04-11T14:09:56Z</time></trkpt><trkpt lat="36.8100549167029" lon="15.082951913581665"><ele>21.0</ele><time>2026-04-11T14:09:57Z</time></trkpt><trkpt lat="36.80992419316873" lon="15.083468657551302"><ele>20.8</ele><time>2026-04-11T14:09:58Z</time></trkpt><trkpt lat="36.8098508478546" lon="15.083455482529502"><ele>20.6</ele><time>2026-04-11T14:09:59Z</time></trkpt><trkpt lat="36.80976967705676" lon="15.08345645551383"><ele>20.4</ele><time>2026-04-11T14:10:00Z</time></trkpt><trkpt lat="36.809702212350885" lon="15.083449977177068"><ele>20.2</ele><time>2026-04-11T14:10:01Z</time></trkpt><trkpt lat="36.80965046312246" lon="15.083247230546295"><ele>20.0</ele><time>2026-04-11T14:10:02Z</time></trkpt><trkpt lat="36.80957132452777" lon="15.08323042612157"><ele>20.0</ele><time>2026-04-11T14:10:03Z</time></trkpt><trkpt lat="36.80950536166009" lon="15.08321328378592"><ele>20.0</ele><time>2026-04-11T14:10:04Z</time></trkpt><trkpt lat="36.80944188559568" lon="15.083193433853896"><ele>20.0</ele><time>2026-04-11T14:10:05Z</time></trkpt><trkpt lat="36.80937981774795" lon="15.083172890590706"><ele>20.0</ele><time>2026-04-11T14:10:06Z</time></trkpt><trkpt lat="36.80930971275067" lon="15.083149274541855"><ele>20.0</ele><time>2026-04-11T14:10:07Z</time></trkpt><trkpt lat="36.809247221204856" lon="15.083127794981412"><ele>20.0</ele><time>2026-04-11T14:10:08Z</time></trkpt><trkpt lat="36.809175218102354" lon="15.083103023094509"><ele>20.0</ele><time>2026-04-11T14:10:09Z</time></trkpt><trkpt lat="36.809047405210066" lon="15.08305905044599"><ele>19.666666666666668</ele><time>2026-04-11T14:10:11Z</time></trkpt><trkpt lat="36.80892277901334" lon="15.083016174185847"><ele>19.333333333333336</ele><time>2026-04-11T14:10:13Z</time></trkpt><trkpt lat="36.80885306332161" lon="15.082992189212746"><ele>19.0</ele><time>2026-04-11T14:10:14Z</time></trkpt><trkpt lat="36.8087834342476" lon="15.082968234050098"><ele>18.666666666666668</ele><time>2026-04-11T14:10:15Z</time></trkpt><trkpt lat="36.80871020803279" lon="15.082943041363785"><ele>18.333333333333332</ele><time>2026-04-11T14:10:16Z</time></trkpt><trkpt lat="36.80863302600774" lon="15.082916487727704"><ele>18.0</ele><time>2026-04-11T14:10:17Z</time></trkpt><trkpt lat="36.80855524042866" lon="15.082889726437923"><ele>17.166666666666668</ele><time>2026-04-11T14:10:18Z</time></trkpt><trkpt lat="36.80847757461374" lon="15.082863006359934"><ele>16.333333333333332</ele><time>2026-04-11T14:10:19Z</time></trkpt><trkpt lat="36.80841013271248" lon="15.082839803687397"><ele>15.5</ele><time>2026-04-11T14:10:20Z</time></trkpt><trkpt lat="36.80829822853917" lon="15.082801832646906"><ele>14.666666666666666</ele><time>2026-04-11T14:10:22.001Z</time></trkpt><trkpt lat="36.80823714775586" lon="15.082781161138682"><ele>13.833333333333332</ele><time>2026-04-11T14:10:23.001Z</time></trkpt><trkpt lat="36.80816135621104" lon="15.082755511148678"><ele>13.0</ele><time>2026-04-11T14:10:25.001Z</time></trkpt><trkpt lat="36.80807964303659" lon="15.082728788688453"><ele>13.0</ele><time>2026-04-11T14:10:27.001Z</time></trkpt><trkpt lat="36.808003443326484" lon="15.082705271854257"><ele>13.0</ele><time>2026-04-11T14:10:29.001Z</time></trkpt><trkpt lat="36.80793730938286" lon="15.082684822487305"><ele>13.0</ele><time>2026-04-11T14:10:31.001Z</time></trkpt><trkpt lat="36.80784998462606" lon="15.082662554358466"><ele>13.0</ele><time>2026-04-11T14:11:04.001Z</time></trkpt><trkpt lat="36.80770796679326" lon="15.082636247672378"><ele>13.0</ele><time>2026-04-11T14:11:06.001Z</time></trkpt><trkpt lat="36.80763422939773" lon="15.082626394639153"><ele>13.2</ele><time>2026-04-11T14:11:07.001Z</time></trkpt><trkpt lat="36.80754720641898" lon="15.082617772578375"><ele>13.4</ele><time>2026-04-11T14:11:08.001Z</time></trkpt><trkpt lat="36.807462335388195" lon="15.08261116326056"><ele>13.599999999999998</ele><time>2026-04-11T14:11:09.001Z</time></trkpt><trkpt lat="36.80736337196209" lon="15.082604381938427"><ele>13.799999999999999</ele><time>2026-04-11T14:11:10.001Z</time></trkpt><trkpt lat="36.80727517229298" lon="15.082598428432687"><ele>14.0</ele><time>2026-04-11T14:11:11.001Z</time></trkpt><trkpt lat="36.807159591488656" lon="15.08259328912948"><ele>14.0</ele><time>2026-04-11T14:11:12.001Z</time></trkpt><trkpt lat="36.807029098933114" lon="15.082594590817571"><ele>14.0</ele><time>2026-04-11T14:11:13.001Z</time></trkpt><trkpt lat="36.80691662259965" lon="15.082598625327135"><ele>14.0</ele><time>2026-04-11T14:11:14.001Z</time></trkpt><trkpt lat="36.80681989993194" lon="15.082603630444174"><ele>14.0</ele><time>2026-04-11T14:11:15.001Z</time></trkpt><trkpt lat="36.8067111586174" lon="15.0826253903438"><ele>14.799999999999999</ele><time>2026-04-11T14:11:16.001Z</time></trkpt><trkpt lat="36.80662778930205" lon="15.082639081228596"><ele>15.599999999999998</ele><time>2026-04-11T14:11:17.001Z</time></trkpt><trkpt lat="36.806544517896675" lon="15.082686606863092"><ele>16.4</ele><time>2026-04-11T14:11:18.001Z</time></trkpt><trkpt lat="36.80647421727226" lon="15.082742087937987"><ele>17.2</ele><time>2026-04-11T14:11:19.001Z</time></trkpt><trkpt lat="36.8064742910999" lon="15.08288210837635"><ele>18.0</ele><time>2026-04-11T14:11:20.001Z</time></trkpt><trkpt lat="36.80642389657385" lon="15.083041304456318"><ele>18.0</ele><time>2026-04-11T14:11:21.001Z</time></trkpt><trkpt lat="36.80630197350966" lon="15.083121382605041"><ele>18.0</ele><time>2026-04-11T14:11:22Z</time></trkpt><trkpt lat="36.806093137041245" lon="15.083124604289914"><ele>18.0</ele><time>2026-04-11T14:11:24Z</time></trkpt><trkpt lat="36.80600257478291" lon="15.083097945294668"><ele>18.0</ele><time>2026-04-11T14:11:25Z</time></trkpt><trkpt lat="36.805918190993346" lon="15.083067603798773"><ele>17.8</ele><time>2026-04-11T14:11:27Z</time></trkpt><trkpt lat="36.80584164381401" lon="15.083037461765699"><ele>17.6</ele><time>2026-04-11T14:11:28Z</time></trkpt><trkpt lat="36.80576232688454" lon="15.083005116474155"><ele>17.4</ele><time>2026-04-11T14:11:30Z</time></trkpt><trkpt lat="36.80568958876253" lon="15.08297219161629"><ele>17.2</ele><time>2026-04-11T14:11:31Z</time></trkpt><trkpt lat="36.80557359937135" lon="15.082921052525977"><ele>17.0</ele><time>2026-04-11T14:11:33Z</time></trkpt><trkpt lat="36.80543697807074" lon="15.082863727151627"><ele>17.0</ele><time>2026-04-11T14:11:35Z</time></trkpt><trkpt lat="36.8053672958126" lon="15.082836485139099"><ele>17.0</ele><time>2026-04-11T14:11:36Z</time></trkpt><trkpt lat="36.805301388890356" lon="15.082813608210746"><ele>17.0</ele><time>2026-04-11T14:11:37Z</time></trkpt><trkpt lat="36.80523392627834" lon="15.082791515534105"><ele>17.0</ele><time>2026-04-11T14:11:38Z</time></trkpt><trkpt lat="36.80510242353219" lon="15.08275805846769"><ele>17.0</ele><time>2026-04-11T14:11:40Z</time></trkpt><trkpt lat="36.805038573232" lon="15.082742839892378"><ele>17.0</ele><time>2026-04-11T14:11:41Z</time></trkpt><trkpt lat="36.80495619116845" lon="15.082756364393923"><ele>17.0</ele><time>2026-04-11T14:11:43Z</time></trkpt><trkpt lat="36.80488754209331" lon="15.082771541176891"><ele>17.0</ele><time>2026-04-11T14:11:45Z</time></trkpt><trkpt lat="36.80481917711988" lon="15.082778625361604"><ele>17.0</ele><time>2026-04-11T14:11:46Z</time></trkpt><trkpt lat="36.80448945572795" lon="15.082093046001457"><ele>16.8</ele><time>2026-04-11T14:11:52Z</time></trkpt><trkpt lat="36.80438636553144" lon="15.08204707654917"><ele>16.6</ele><time>2026-04-11T14:11:54Z</time></trkpt><trkpt lat="36.8043120624104" lon="15.082004571815808"><ele>16.400000000000002</ele><time>2026-04-11T14:11:56Z</time></trkpt><trkpt lat="36.80421760743573" lon="15.081947762698261"><ele>16.2</ele><time>2026-04-11T14:11:58Z</time></trkpt><trkpt lat="36.80411444239724" lon="15.081897652593538"><ele>16.0</ele><time>2026-04-11T14:12:00Z</time></trkpt><trkpt lat="36.804044927449524" lon="15.081862045316683"><ele>16.0</ele><time>2026-04-11T14:12:02Z</time></trkpt><trkpt lat="36.803938618642164" lon="15.081847350814785"><ele>16.0</ele><time>2026-04-11T14:12:04Z</time></trkpt><trkpt lat="36.80383209663095" lon="15.081771570443651"><ele>16.0</ele><time>2026-04-11T14:12:06Z</time></trkpt><trkpt lat="36.80373767740373" lon="15.08172278657794"><ele>16.0</ele><time>2026-04-11T14:12:08Z</time></trkpt><trkpt lat="36.80367862048712" lon="15.081689206942224"><ele>16.0</ele><time>2026-04-11T14:12:10.001Z</time></trkpt><trkpt lat="36.80359260233305" lon="15.081628705112863"><ele>16.2</ele><time>2026-04-11T14:12:12.001Z</time></trkpt><trkpt lat="36.803496035301215" lon="15.081584245951658"><ele>16.400000000000002</ele><time>2026-04-11T14:12:14.001Z</time></trkpt><trkpt lat="36.803385267380804" lon="15.081537481623132"><ele>16.6</ele><time>2026-04-11T14:12:16.001Z</time></trkpt><trkpt lat="36.80332597523441" lon="15.08149959669301"><ele>16.8</ele><time>2026-04-11T14:12:17.001Z</time></trkpt><trkpt lat="36.80323310057544" lon="15.081451470195946"><ele>17.0</ele><time>2026-04-11T14:12:19.001Z</time></trkpt><trkpt lat="36.80314909154759" lon="15.081376542040303"><ele>17.0</ele><time>2026-04-11T14:12:21.001Z</time></trkpt><trkpt lat="36.8030883645138" lon="15.081342907442709"><ele>17.0</ele><time>2026-04-11T14:12:23.001Z</time></trkpt><trkpt lat="36.803135935999016" lon="15.08106105655426"><ele>17.0</ele><time>2026-04-11T14:12:24.001Z</time></trkpt><trkpt lat="36.80306922602458" lon="15.081027429162212"><ele>17.0</ele><time>2026-04-11T14:12:48.001Z</time></trkpt><trkpt lat="36.80299931544978" lon="15.080991514807419"><ele>17.0</ele><time>2026-04-11T14:12:50.001Z</time></trkpt><trkpt lat="36.802927734626515" lon="15.080953869685578"><ele>17.0</ele><time>2026-04-11T14:12:53.001Z</time></trkpt><trkpt lat="36.80286774936938" lon="15.080921892731212"><ele>17.0</ele><time>2026-04-11T14:12:56.001Z</time></trkpt><trkpt lat="36.802791488453074" lon="15.080880134511611"><ele>17.0</ele><time>2026-04-11T14:12:59.001Z</time></trkpt><trkpt lat="36.80271794598177" lon="15.080839864768807"><ele>17.0</ele><time>2026-04-11T14:13:01.001Z</time></trkpt><trkpt lat="36.80265573952378" lon="15.080805802416888"><ele>17.0</ele><time>2026-04-11T14:13:03.001Z</time></trkpt><trkpt lat="36.802590812311735" lon="15.080769127974868"><ele>17.0</ele><time>2026-04-11T14:13:05.001Z</time></trkpt><trkpt lat="36.80251434386768" lon="15.080725609538291"><ele>17.166666666666668</ele><time>2026-04-11T14:13:07.001Z</time></trkpt><trkpt lat="36.80242569223405" lon="15.08067515756081"><ele>17.333333333333336</ele><time>2026-04-11T14:13:09.001Z</time></trkpt><trkpt lat="36.80236796525645" lon="15.080642304896795"><ele>17.5</ele><time>2026-04-11T14:13:11.001Z</time></trkpt><trkpt lat="36.80230015279156" lon="15.080603712686782"><ele>17.666666666666668</ele><time>2026-04-11T14:13:13.001Z</time></trkpt><trkpt lat="36.80223174312338" lon="15.08056422014984"><ele>17.833333333333332</ele><time>2026-04-11T14:13:15.001Z</time></trkpt><trkpt lat="36.802155539059854" lon="15.08051968455063"><ele>18.0</ele><time>2026-04-11T14:13:17.001Z</time></trkpt><trkpt lat="36.80208427662313" lon="15.080478037061722"><ele>18.0</ele><time>2026-04-11T14:13:19.001Z</time></trkpt><trkpt lat="36.802016952220576" lon="15.080438690976996"><ele>18.0</ele><time>2026-04-11T14:13:21.001Z</time></trkpt><trkpt lat="36.801905459766196" lon="15.080669013778401"><ele>18.0</ele><time>2026-04-11T14:14:30.001Z</time></trkpt><trkpt lat="36.80183197203779" lon="15.08062841274182"><ele>18.0</ele><time>2026-04-11T14:14:57.001Z</time></trkpt><trkpt lat="36.80176144202985" lon="15.080587346857833"><ele>18.0</ele><time>2026-04-11T14:15:01.001Z</time></trkpt><trkpt lat="36.801701267734735" lon="15.080548670549398"><ele>18.25</ele><time>2026-04-11T14:15:06.001Z</time></trkpt><trkpt lat="36.8017193206509" lon="15.080266071339114"><ele>18.5</ele><time>2026-04-11T14:15:15.001Z</time></trkpt><trkpt lat="36.80164767058114" lon="15.080224931755163"><ele>18.75</ele><time>2026-04-11T14:15:18.001Z</time></trkpt><trkpt lat="36.80155250819187" lon="15.080170292056735"><ele>19.0</ele><time>2026-04-11T14:15:21.001Z</time></trkpt><trkpt lat="36.80145009011555" lon="15.080111486287809"><ele>19.0</ele><time>2026-04-11T14:15:23.001Z</time></trkpt><trkpt lat="36.80135538058864" lon="15.080057106625906"><ele>19.0</ele><time>2026-04-11T14:15:25.001Z</time></trkpt><trkpt lat="36.801296586019696" lon="15.080023348364755"><ele>19.0</ele><time>2026-04-11T14:15:26.001Z</time></trkpt><trkpt lat="36.80117742388651" lon="15.079954928554628"><ele>19.0</ele><time>2026-04-11T14:15:28.001Z</time></trkpt><trkpt lat="36.801075502656744" lon="15.079896112496069"><ele>19.0</ele><time>2026-04-11T14:15:30.001Z</time></trkpt><trkpt lat="36.800955541949264" lon="15.079826689563639"><ele>19.0</ele><time>2026-04-11T14:15:32.001Z</time></trkpt><trkpt lat="36.80085410236103" lon="15.079767985037561"><ele>19.0</ele><time>2026-04-11T14:15:34Z</time></trkpt><trkpt lat="36.800757664509305" lon="15.079712175180768"><ele>19.0</ele><time>2026-04-11T14:15:36Z</time></trkpt><trkpt lat="36.80065508997912" lon="15.079652813775871"><ele>19.0</ele><time>2026-04-11T14:15:38Z</time></trkpt><trkpt lat="36.80056955154533" lon="15.07960330987211"><ele>19.0</ele><time>2026-04-11T14:15:40Z</time></trkpt><trkpt lat="36.80049569977166" lon="15.079561173694616"><ele>19.0</ele><time>2026-04-11T14:15:42Z</time></trkpt><trkpt lat="36.80039162312879" lon="15.079500848865491"><ele>19.0</ele><time>2026-04-11T14:15:44Z</time></trkpt><trkpt lat="36.80033415527863" lon="15.079467538086703"><ele>19.0</ele><time>2026-04-11T14:15:45Z</time></trkpt><trkpt lat="36.80022134907041" lon="15.079402150851925"><ele>19.0</ele><time>2026-04-11T14:15:47Z</time></trkpt><trkpt lat="36.800097938533476" lon="15.079330616901872"><ele>19.0</ele><time>2026-04-11T14:15:49Z</time></trkpt><trkpt lat="36.79998135262082" lon="15.079263038828485"><ele>19.2</ele><time>2026-04-11T14:15:51Z</time></trkpt><trkpt lat="36.799923638922024" lon="15.079229585888505"><ele>19.4</ele><time>2026-04-11T14:15:52Z</time></trkpt><trkpt lat="36.79982571115189" lon="15.079172520747663"><ele>19.6</ele><time>2026-04-11T14:15:54Z</time></trkpt><trkpt lat="36.79973598949994" lon="15.07912028195937"><ele>19.8</ele><time>2026-04-11T14:15:56Z</time></trkpt><trkpt lat="36.79967512854665" lon="15.079084846742806"><ele>20.0</ele><time>2026-04-11T14:15:57Z</time></trkpt><trkpt lat="36.79957271298496" lon="15.079025217062673"><ele>20.0</ele><time>2026-04-11T14:15:59Z</time></trkpt><trkpt lat="36.799481388240245" lon="15.078972044812325"><ele>20.0</ele><time>2026-04-11T14:16:01Z</time></trkpt><trkpt lat="36.79938493972266" lon="15.078915889364492"><ele>20.0</ele><time>2026-04-11T14:16:03Z</time></trkpt><trkpt lat="36.7993190598138" lon="15.078877531946729"><ele>20.0</ele><time>2026-04-11T14:16:04Z</time></trkpt><trkpt lat="36.79925721251889" lon="15.078841522410952"><ele>20.0</ele><time>2026-04-11T14:16:05Z</time></trkpt><trkpt lat="36.79919433554224" lon="15.078804913361111"><ele>20.0</ele><time>2026-04-11T14:16:06Z</time></trkpt><trkpt lat="36.799085684058" lon="15.078741652936836"><ele>20.0</ele><time>2026-04-11T14:16:08Z</time></trkpt><trkpt lat="36.798983038459056" lon="15.078681889316913"><ele>20.0</ele><time>2026-04-11T14:16:10Z</time></trkpt><trkpt lat="36.79888900536444" lon="15.07862714018716"><ele>20.0</ele><time>2026-04-11T14:16:12Z</time></trkpt><trkpt lat="36.798784355724656" lon="15.078566209750267"><ele>20.0</ele><time>2026-04-11T14:16:14Z</time></trkpt><trkpt lat="36.79872322701757" lon="15.078530618657823"><ele>20.0</ele><time>2026-04-11T14:16:15Z</time></trkpt><trkpt lat="36.798650999304435" lon="15.078488661790233"><ele>20.0</ele><time>2026-04-11T14:16:16.001Z</time></trkpt><trkpt lat="36.798564800175086" lon="15.078438641563462"><ele>20.0</ele><time>2026-04-11T14:16:18.001Z</time></trkpt><trkpt lat="36.79844753438298" lon="15.078370593829266"><ele>20.0</ele><time>2026-04-11T14:16:20.001Z</time></trkpt><trkpt lat="36.79837747198879" lon="15.07832993758142"><ele>20.0</ele><time>2026-04-11T14:16:21.001Z</time></trkpt><trkpt lat="36.79826901744315" lon="15.07826700286435"><ele>20.0</ele><time>2026-04-11T14:16:23.001Z</time></trkpt><trkpt lat="36.798197619618534" lon="15.078225571766518"><ele>20.0</ele><time>2026-04-11T14:16:24.001Z</time></trkpt><trkpt lat="36.79813102583938" lon="15.078186928289414"><ele>20.0</ele><time>2026-04-11T14:16:25.001Z</time></trkpt><trkpt lat="36.798058555907744" lon="15.078144874952661"><ele>20.0</ele><time>2026-04-11T14:16:26.001Z</time></trkpt><trkpt lat="36.797985954023844" lon="15.078102745079617"><ele>20.0</ele><time>2026-04-11T14:16:27.001Z</time></trkpt><trkpt lat="36.797913374486996" lon="15.078060628172018"><ele>20.0</ele><time>2026-04-11T14:16:28.001Z</time></trkpt><trkpt lat="36.797843112096125" lon="15.078019855856757"><ele>20.0</ele><time>2026-04-11T14:16:29.001Z</time></trkpt><trkpt lat="36.79776511743194" lon="15.077974596615364"><ele>20.0</ele><time>2026-04-11T14:16:30.001Z</time></trkpt><trkpt lat="36.797683568906784" lon="15.077927275905958"><ele>20.0</ele><time>2026-04-11T14:16:31.001Z</time></trkpt><trkpt lat="36.79760436620894" lon="15.077881112964562"><ele>20.0</ele><time>2026-04-11T14:16:32.001Z</time></trkpt><trkpt lat="36.797534148559635" lon="15.077840253437262"><ele>20.0</ele><time>2026-04-11T14:16:33.001Z</time></trkpt><trkpt lat="36.797469009872664" lon="15.077802349400743"><ele>20.0</ele><time>2026-04-11T14:16:34.001Z</time></trkpt><trkpt lat="36.79739003500509" lon="15.077756394108484"><ele>20.0</ele><time>2026-04-11T14:16:35.001Z</time></trkpt><trkpt lat="36.79731089715601" lon="15.077710343927608"><ele>20.166666666666668</ele><time>2026-04-11T14:16:36.001Z</time></trkpt><trkpt lat="36.79723463443233" lon="15.077665966787915"><ele>20.333333333333336</ele><time>2026-04-11T14:16:37.001Z</time></trkpt><trkpt lat="36.79716995485144" lon="15.077628329895939"><ele>20.5</ele><time>2026-04-11T14:16:38.001Z</time></trkpt><trkpt lat="36.797101897255494" lon="15.077588830758339"><ele>20.666666666666668</ele><time>2026-04-11T14:16:39.001Z</time></trkpt><trkpt lat="36.79702888578558" lon="15.077546958325229"><ele>20.833333333333332</ele><time>2026-04-11T14:16:40.001Z</time></trkpt><trkpt lat="36.79696149892853" lon="15.077508311648053"><ele>21.0</ele><time>2026-04-11T14:16:41.001Z</time></trkpt><trkpt lat="36.7968942557671" lon="15.077469747412309"><ele>21.166666666666668</ele><time>2026-04-11T14:16:42.001Z</time></trkpt><trkpt lat="36.79682437203082" lon="15.077429668748154"><ele>21.333333333333332</ele><time>2026-04-11T14:16:43.001Z</time></trkpt><trkpt lat="36.79674972649058" lon="15.077386859204843"><ele>21.5</ele><time>2026-04-11T14:16:44.001Z</time></trkpt><trkpt lat="36.796664693656034" lon="15.077338092412331"><ele>21.666666666666664</ele><time>2026-04-11T14:16:45.001Z</time></trkpt><trkpt lat="36.79658569737596" lon="15.077292242326887"><ele>21.833333333333332</ele><time>2026-04-11T14:16:46.001Z</time></trkpt><trkpt lat="36.796503402065305" lon="15.07724421027136"><ele>22.0</ele><time>2026-04-11T14:16:47.001Z</time></trkpt><trkpt lat="36.79643815935377" lon="15.077206130994304"><ele>22.0</ele><time>2026-04-11T14:16:48.001Z</time></trkpt><trkpt lat="36.796370700756796" lon="15.07716675852301"><ele>22.0</ele><time>2026-04-11T14:16:49.001Z</time></trkpt><trkpt lat="36.79629333934131" lon="15.077121606159892"><ele>22.0</ele><time>2026-04-11T14:16:50.001Z</time></trkpt><trkpt lat="36.79622377808191" lon="15.077081006463077"><ele>22.0</ele><time>2026-04-11T14:16:51.001Z</time></trkpt><trkpt lat="36.79615346981636" lon="15.077039970664577"><ele>22.0</ele><time>2026-04-11T14:16:52.001Z</time></trkpt><trkpt lat="36.796090124605456" lon="15.07700303191341"><ele>22.0</ele><time>2026-04-11T14:16:53.001Z</time></trkpt><trkpt lat="36.796026427743655" lon="15.076966291061106"><ele>22.0</ele><time>2026-04-11T14:16:54.001Z</time></trkpt><trkpt lat="36.795960119251866" lon="15.076928043692092"><ele>22.0</ele><time>2026-04-11T14:16:55.001Z</time></trkpt><trkpt lat="36.79588555988083" lon="15.076885037223686"><ele>22.0</ele><time>2026-04-11T14:16:56.001Z</time></trkpt><trkpt lat="36.79581394522424" lon="15.076843729197781"><ele>22.0</ele><time>2026-04-11T14:16:57.001Z</time></trkpt><trkpt lat="36.79574631507703" lon="15.076804719239737"><ele>22.0</ele><time>2026-04-11T14:16:58.001Z</time></trkpt><trkpt lat="36.79566873612059" lon="15.076759747489662"><ele>22.0</ele><time>2026-04-11T14:16:59.001Z</time></trkpt><trkpt lat="36.795594584372296" lon="15.076716790725087"><ele>22.0</ele><time>2026-04-11T14:17:00.001Z</time></trkpt><trkpt lat="36.795534234235305" lon="15.076681828412783"><ele>22.0</ele><time>2026-04-11T14:17:01.001Z</time></trkpt><trkpt lat="36.79546253396247" lon="15.076640290760182"><ele>22.0</ele><time>2026-04-11T14:17:02.001Z</time></trkpt><trkpt lat="36.795391965582695" lon="15.076599408773474"><ele>22.0</ele><time>2026-04-11T14:17:03.001Z</time></trkpt><trkpt lat="36.79528500118653" lon="15.076537442072256"><ele>22.0</ele><time>2026-04-11T14:17:05.001Z</time></trkpt><trkpt lat="36.7951907963443" lon="15.076482540495798"><ele>22.0</ele><time>2026-04-11T14:17:07.001Z</time></trkpt><trkpt lat="36.79510378808533" lon="15.076431898203742"><ele>22.5</ele><time>2026-04-11T14:17:09.001Z</time></trkpt><trkpt lat="36.79503256543908" lon="15.076390443772944"><ele>23.0</ele><time>2026-04-11T14:17:11.001Z</time></trkpt><trkpt lat="36.794970225009216" lon="15.076354159143792"><ele>23.5</ele><time>2026-04-11T14:17:13.001Z</time></trkpt><trkpt lat="36.794899986817235" lon="15.07631327770549"><ele>24.0</ele><time>2026-04-11T14:24:21Z</time></trkpt><trkpt lat="36.79482388334521" lon="15.07626898242907"><ele>24.500000000000004</ele><time>2026-04-11T14:24:24Z</time></trkpt><trkpt lat="36.79473577836406" lon="15.076217701784813"><ele>25.0</ele><time>2026-04-11T14:24:26Z</time></trkpt><trkpt lat="36.794664456578616" lon="15.07617618966774"><ele>25.0</ele><time>2026-04-11T14:24:28Z</time></trkpt><trkpt lat="36.79458135925194" lon="15.076128008264341"><ele>25.0</ele><time>2026-04-11T14:24:30Z</time></trkpt><trkpt lat="36.79449197049123" lon="15.076076231235428"><ele>25.0</ele><time>2026-04-11T14:24:32Z</time></trkpt><trkpt lat="36.79440280642166" lon="15.076024584318056"><ele>25.0</ele><time>2026-04-11T14:24:34Z</time></trkpt><trkpt lat="36.79432321750188" lon="15.075978483660993"><ele>25.0</ele><time>2026-04-11T14:24:36Z</time></trkpt><trkpt lat="36.79424305553414" lon="15.075932051096604"><ele>25.000000000000004</ele><time>2026-04-11T14:24:38Z</time></trkpt><trkpt lat="36.7941813783367" lon="15.075896325526935"><ele>25.0</ele><time>2026-04-11T14:24:39Z</time></trkpt><trkpt lat="36.79412024535288" lon="15.075860915199877"><ele>25.0</ele><time>2026-04-11T14:24:40Z</time></trkpt><trkpt lat="36.79403319379921" lon="15.075810491950014"><ele>25.0</ele><time>2026-04-11T14:24:42Z</time></trkpt><trkpt lat="36.79395150937827" lon="15.075763177508733"><ele>25.000000000000004</ele><time>2026-04-11T14:24:44Z</time></trkpt><trkpt lat="36.79385445161508" lon="15.075706958337303"><ele>25.0</ele><time>2026-04-11T14:24:47Z</time></trkpt><trkpt lat="36.79373416549093" lon="15.07563728450878"><ele>25.0</ele><time>2026-04-11T14:24:49Z</time></trkpt><trkpt lat="36.79365127301878" lon="15.075589270250815"><ele>25.0</ele><time>2026-04-11T14:24:50Z</time></trkpt><trkpt lat="36.79354244427048" lon="15.075526232976724"><ele>25.0</ele><time>2026-04-11T14:24:52Z</time></trkpt><trkpt lat="36.793474294334175" lon="15.075486795078199"><ele>25.0</ele><time>2026-04-11T14:24:53Z</time></trkpt><trkpt lat="36.79341485858766" lon="15.075452397870345"><ele>25.0</ele><time>2026-04-11T14:24:54Z</time></trkpt><trkpt lat="36.793319117967215" lon="15.075396990077403"><ele>25.2</ele><time>2026-04-11T14:24:56Z</time></trkpt><trkpt lat="36.793225293850696" lon="15.075343091147962"><ele>25.4</ele><time>2026-04-11T14:24:58Z</time></trkpt><trkpt lat="36.79313778818649" lon="15.075294341059749"><ele>25.6</ele><time>2026-04-11T14:25:00Z</time></trkpt><trkpt lat="36.793042474077595" lon="15.075245202029794"><ele>25.8</ele><time>2026-04-11T14:25:02Z</time></trkpt><trkpt lat="36.79297344402479" lon="15.075212089441152"><ele>26.0</ele><time>2026-04-11T14:25:04Z</time></trkpt><trkpt lat="36.7928945800976" lon="15.075176468591897"><ele>26.0</ele><time>2026-04-11T14:25:06Z</time></trkpt><trkpt lat="36.79280416913706" lon="15.0751394224494"><ele>26.0</ele><time>2026-04-11T14:25:08Z</time></trkpt><trkpt lat="36.79268427015553" lon="15.075095221005022"><ele>26.0</ele><time>2026-04-11T14:25:10.001Z</time></trkpt><trkpt lat="36.79260118491077" lon="15.075067143059128"><ele>26.0</ele><time>2026-04-11T14:25:11.001Z</time></trkpt><trkpt lat="36.792532603182984" lon="15.075045180513598"><ele>26.0</ele><time>2026-04-11T14:25:12.001Z</time></trkpt><trkpt lat="36.79244491685445" lon="15.07502031068736"><ele>25.666666666666664</ele><time>2026-04-11T14:25:13.001Z</time></trkpt><trkpt lat="36.792373339700966" lon="15.075001679038976"><ele>25.333333333333332</ele><time>2026-04-11T14:25:14.001Z</time></trkpt><trkpt lat="36.79229615670905" lon="15.074983157733605"><ele>25.0</ele><time>2026-04-11T14:25:15.001Z</time></trkpt><trkpt lat="36.792221362700054" lon="15.074967099781025"><ele>24.666666666666664</ele><time>2026-04-11T14:25:16.001Z</time></trkpt><trkpt lat="36.79211973692046" lon="15.074948891087617"><ele>24.333333333333332</ele><time>2026-04-11T14:25:18.001Z</time></trkpt><trkpt lat="36.79202889664783" lon="15.074936193399004"><ele>24.0</ele><time>2026-04-11T14:25:20.001Z</time></trkpt><trkpt lat="36.791951202539146" lon="15.074927772824484"><ele>23.799999999999997</ele><time>2026-04-11T14:25:21.001Z</time></trkpt><trkpt lat="36.791866811802095" lon="15.074921545368978"><ele>23.599999999999998</ele><time>2026-04-11T14:25:22.001Z</time></trkpt><trkpt lat="36.79177593901865" lon="15.074917209329826"><ele>23.4</ele><time>2026-04-11T14:25:23.001Z</time></trkpt><trkpt lat="36.79163216905469" lon="15.07491547172741"><ele>23.2</ele><time>2026-04-11T14:25:25.001Z</time></trkpt><trkpt lat="36.79154946081765" lon="15.074916727343734"><ele>23.0</ele><time>2026-04-11T14:25:26.001Z</time></trkpt><trkpt lat="36.79147677567791" lon="15.074919492350404"><ele>23.0</ele><time>2026-04-11T14:25:27.001Z</time></trkpt><trkpt lat="36.79132074214332" lon="15.074931212438658"><ele>23.0</ele><time>2026-04-11T14:25:29.001Z</time></trkpt><trkpt lat="36.79120700565565" lon="15.07494616758067"><ele>23.0</ele><time>2026-04-11T14:25:30.001Z</time></trkpt><trkpt lat="36.79111663261833" lon="15.074961263342448"><ele>23.0</ele><time>2026-04-11T14:25:31.001Z</time></trkpt><trkpt lat="36.79105378287854" lon="15.074972848193514"><ele>23.0</ele><time>2026-04-11T14:25:32.001Z</time></trkpt><trkpt lat="36.79098715244058" lon="15.07498589604709"><ele>22.333333333333336</ele><time>2026-04-11T14:25:33.001Z</time></trkpt><trkpt lat="36.79092364767639" lon="15.074999510343101"><ele>21.666666666666668</ele><time>2026-04-11T14:25:34.001Z</time></trkpt><trkpt lat="36.79085840968314" lon="15.075014442352375"><ele>21.0</ele><time>2026-04-11T14:25:35.001Z</time></trkpt><trkpt lat="36.79079640667719" lon="15.075032962295827"><ele>20.333333333333332</ele><time>2026-04-11T14:25:36.001Z</time></trkpt><trkpt lat="36.79069882858835" lon="15.075062404132693"><ele>19.666666666666664</ele><time>2026-04-11T14:25:38.001Z</time></trkpt><trkpt lat="36.79057011405396" lon="15.075105222480769"><ele>19.0</ele><time>2026-04-11T14:25:40.001Z</time></trkpt><trkpt lat="36.7904522756746" lon="15.075149763521129"><ele>19.0</ele><time>2026-04-11T14:25:42.001Z</time></trkpt><trkpt lat="36.7903810890763" lon="15.075179283381187"><ele>19.0</ele><time>2026-04-11T14:25:43.001Z</time></trkpt><trkpt lat="36.79031573674289" lon="15.075207828653427"><ele>19.0</ele><time>2026-04-11T14:25:44.001Z</time></trkpt><trkpt lat="36.79023710118526" lon="15.075244539004986"><ele>19.0</ele><time>2026-04-11T14:25:45.001Z</time></trkpt><trkpt lat="36.79016159704657" lon="15.07528262242326"><ele>19.0</ele><time>2026-04-11T14:25:46.001Z</time></trkpt><trkpt lat="36.79010373138861" lon="15.075315153855056"><ele>19.0</ele><time>2026-04-11T14:25:47.001Z</time></trkpt><trkpt lat="36.790032544641406" lon="15.07535533682872"><ele>19.166666666666664</ele><time>2026-04-11T14:25:48.001Z</time></trkpt><trkpt lat="36.7899658965194" lon="15.075396152934346"><ele>19.333333333333332</ele><time>2026-04-11T14:25:49.001Z</time></trkpt><trkpt lat="36.789889838538436" lon="15.075442731769606"><ele>19.5</ele><time>2026-04-11T14:25:50.001Z</time></trkpt><trkpt lat="36.78981740516939" lon="15.075490343952332"><ele>19.666666666666668</ele><time>2026-04-11T14:25:51.001Z</time></trkpt><trkpt lat="36.78974878660808" lon="15.075537116134354"><ele>19.833333333333336</ele><time>2026-04-11T14:25:52.001Z</time></trkpt><trkpt lat="36.78968294359673" lon="15.075585272562291"><ele>20.0</ele><time>2026-04-11T14:25:53.001Z</time></trkpt><trkpt lat="36.78961819013235" lon="15.075632787642261"><ele>20.0</ele><time>2026-04-11T14:25:54.001Z</time></trkpt><trkpt lat="36.78954575898925" lon="15.075687037772708"><ele>20.0</ele><time>2026-04-11T14:25:55.001Z</time></trkpt><trkpt lat="36.789477329724456" lon="15.075740635478509"><ele>20.0</ele><time>2026-04-11T14:25:56.001Z</time></trkpt><trkpt lat="36.78939876491073" lon="15.075802171988355"><ele>20.0</ele><time>2026-04-11T14:25:57.001Z</time></trkpt><trkpt lat="36.78932913971185" lon="15.075856706432496"><ele>20.0</ele><time>2026-04-11T14:25:58.001Z</time></trkpt><trkpt lat="36.789272304178525" lon="15.075901223327957"><ele>20.0</ele><time>2026-04-11T14:25:59.001Z</time></trkpt><trkpt lat="36.78918620664322" lon="15.07596845373318"><ele>19.2</ele><time>2026-04-11T14:26:00.001Z</time></trkpt><trkpt lat="36.789118020588575" lon="15.076021669560394"><ele>18.4</ele><time>2026-04-11T14:26:01.001Z</time></trkpt><trkpt lat="36.789001326785154" lon="15.076112743201303"><ele>17.6</ele><time>2026-04-11T14:26:03.001Z</time></trkpt><trkpt lat="36.788944714604646" lon="15.076157459364563"><ele>16.8</ele><time>2026-04-11T14:26:04Z</time></trkpt><trkpt lat="36.788834840614285" lon="15.076244237358447"><ele>16.0</ele><time>2026-04-11T14:26:06Z</time></trkpt><trkpt lat="36.78877567513337" lon="15.07629105862237"><ele>16.0</ele><time>2026-04-11T14:26:07Z</time></trkpt><trkpt lat="36.78871354008382" lon="15.07634023002613"><ele>16.0</ele><time>2026-04-11T14:26:08Z</time></trkpt><trkpt lat="36.7886552724687" lon="15.076386260443943"><ele>16.0</ele><time>2026-04-11T14:26:09Z</time></trkpt><trkpt lat="36.788552277677645" lon="15.076467235661424"><ele>16.0</ele><time>2026-04-11T14:26:11Z</time></trkpt><trkpt lat="36.78844392046619" lon="15.076552426776285"><ele>16.0</ele><time>2026-04-11T14:26:13Z</time></trkpt><trkpt lat="36.788381496694605" lon="15.076601504830625"><ele>16.166666666666664</ele><time>2026-04-11T14:26:14Z</time></trkpt><trkpt lat="36.78832692786046" lon="15.076644407252633"><ele>16.333333333333332</ele><time>2026-04-11T14:26:15Z</time></trkpt><trkpt lat="36.7882321740397" lon="15.076718903340696"><ele>16.5</ele><time>2026-04-11T14:26:17Z</time></trkpt><trkpt lat="36.78813146684884" lon="15.076798140456512"><ele>16.666666666666668</ele><time>2026-04-11T14:26:19Z</time></trkpt><trkpt lat="36.78807280944778" lon="15.076844304273722"><ele>16.833333333333336</ele><time>2026-04-11T14:26:20Z</time></trkpt><trkpt lat="36.788010518146024" lon="15.076893328019716"><ele>17.0</ele><time>2026-04-11T14:26:21Z</time></trkpt><trkpt lat="36.78794951602549" lon="15.07694133718066"><ele>17.0</ele><time>2026-04-11T14:26:22Z</time></trkpt><trkpt lat="36.78789308660407" lon="15.076985747602395"><ele>17.0</ele><time>2026-04-11T14:26:23Z</time></trkpt><trkpt lat="36.787810101807715" lon="15.077051057299197"><ele>17.0</ele><time>2026-04-11T14:26:25Z</time></trkpt><trkpt lat="36.7877549439829" lon="15.077094466910163"><ele>17.0</ele><time>2026-04-11T14:26:26Z</time></trkpt><trkpt lat="36.78769336235834" lon="15.077142932148226"><ele>17.0</ele><time>2026-04-11T14:26:27Z</time></trkpt><trkpt lat="36.7875877090069" lon="15.077226082185035"><ele>17.0</ele><time>2026-04-11T14:26:29Z</time></trkpt><trkpt lat="36.78752864506296" lon="15.077272546409288"><ele>16.25</ele><time>2026-04-11T14:26:30Z</time></trkpt><trkpt lat="36.78747436801644" lon="15.077315158303893"><ele>15.5</ele><time>2026-04-11T14:26:31Z</time></trkpt><trkpt lat="36.787383593046236" lon="15.077386423935014"><ele>14.75</ele><time>2026-04-11T14:26:33Z</time></trkpt><trkpt lat="36.78731963539885" lon="15.077436635981757"><ele>14.0</ele><time>2026-04-11T14:26:35Z</time></trkpt><trkpt lat="36.78747753284779" lon="15.077885355048572"><ele>14.000000000000002</ele><time>2026-04-11T14:26:58Z</time></trkpt><trkpt lat="36.78754833034595" lon="15.077816446781311"><ele>14.0</ele><time>2026-04-11T14:27:01Z</time></trkpt><trkpt lat="36.78761677760787" lon="15.077740362421562"><ele>14.0</ele><time>2026-04-11T14:27:03Z</time></trkpt><trkpt lat="36.787670114466145" lon="15.077694259423922"><ele>14.0</ele><time>2026-04-11T14:27:04Z</time></trkpt><trkpt lat="36.78774956416702" lon="15.077632023620428"><ele>14.000000000000002</ele><time>2026-04-11T14:27:06Z</time></trkpt><trkpt lat="36.787834368849445" lon="15.077560502823596"><ele>14.0</ele><time>2026-04-11T14:27:08Z</time></trkpt><trkpt lat="36.78790656390052" lon="15.077492758389187"><ele>13.500000000000002</ele><time>2026-04-11T14:27:10Z</time></trkpt><trkpt lat="36.78799216617209" lon="15.077446409275876"><ele>13.0</ele><time>2026-04-11T14:27:12Z</time></trkpt><trkpt lat="36.78806300670531" lon="15.077398273919329"><ele>12.5</ele><time>2026-04-11T14:27:14Z</time></trkpt><trkpt lat="36.78814444700931" lon="15.07733179877517"><ele>12.0</ele><time>2026-04-11T14:27:16Z</time></trkpt><trkpt lat="36.78820456334127" lon="15.077283490873217"><ele>11.5</ele><time>2026-04-11T14:27:17Z</time></trkpt><trkpt lat="36.78826445103008" lon="15.077243471382264"><ele>11.0</ele><time>2026-04-11T14:27:18Z</time></trkpt><trkpt lat="36.788343717769045" lon="15.077177054847583"><ele>11.4</ele><time>2026-04-11T14:27:20Z</time></trkpt><trkpt lat="36.78841409041341" lon="15.077175137874047"><ele>11.8</ele><time>2026-04-11T14:27:22Z</time></trkpt><trkpt lat="36.78855018905921" lon="15.077219452515005"><ele>12.200000000000001</ele><time>2026-04-11T14:27:24Z</time></trkpt><trkpt lat="36.78863480827173" lon="15.07724167147528"><ele>12.600000000000001</ele><time>2026-04-11T14:27:25Z</time></trkpt><trkpt lat="36.78871136103591" lon="15.077262232685644"><ele>13.0</ele><time>2026-04-11T14:27:26Z</time></trkpt><trkpt lat="36.788804261057585" lon="15.07728518060871"><ele>12.999999999999998</ele><time>2026-04-11T14:27:27Z</time></trkpt><trkpt lat="36.78887862821651" lon="15.07731158332558"><ele>13.0</ele><time>2026-04-11T14:27:28Z</time></trkpt><trkpt lat="36.788947120767325" lon="15.077322747501363"><ele>13.0</ele><time>2026-04-11T14:27:29.001Z</time></trkpt><trkpt lat="36.78902330367496" lon="15.077343907628064"><ele>13.0</ele><time>2026-04-11T14:27:30.001Z</time></trkpt><trkpt lat="36.78912297626607" lon="15.077372379834374"><ele>12.999999999999998</ele><time>2026-04-11T14:27:31.001Z</time></trkpt><trkpt lat="36.78921264968443" lon="15.077390573553409"><ele>13.0</ele><time>2026-04-11T14:27:32.001Z</time></trkpt><trkpt lat="36.78927619600922" lon="15.077402270425525"><ele>13.0</ele><time>2026-04-11T14:27:33.001Z</time></trkpt><trkpt lat="36.789386613399415" lon="15.07741442879661"><ele>13.0</ele><time>2026-04-11T14:27:35.001Z</time></trkpt><trkpt lat="36.78941994519323" lon="15.077273779256853"><ele>13.0</ele><time>2026-04-11T14:27:38.001Z</time></trkpt><trkpt lat="36.789441214005045" lon="15.077167161100709"><ele>13.0</ele><time>2026-04-11T14:27:39.001Z</time></trkpt><trkpt lat="36.78948710247625" lon="15.07702006915949"><ele>13.0</ele><time>2026-04-11T14:27:40.001Z</time></trkpt><trkpt lat="36.78952348966468" lon="15.07689335602544"><ele>12.999999999999998</ele><time>2026-04-11T14:27:41.001Z</time></trkpt><trkpt lat="36.78954938897574" lon="15.076797492043994"><ele>13.0</ele><time>2026-04-11T14:27:42.001Z</time></trkpt><trkpt lat="36.78958131374249" lon="15.076711363408462"><ele>13.0</ele><time>2026-04-11T14:27:43.001Z</time></trkpt><trkpt lat="36.78962978714688" lon="15.076591123729143"><ele>13.0</ele><time>2026-04-11T14:27:45.001Z</time></trkpt><trkpt lat="36.78965474097049" lon="15.076500265229027"><ele>12.999999999999998</ele><time>2026-04-11T14:27:47.001Z</time></trkpt><trkpt lat="36.78968782153569" lon="15.076414766802515"><ele>13.0</ele><time>2026-04-11T14:27:50.001Z</time></trkpt><trkpt lat="36.78962271829699" lon="15.076413078548816"><ele>13.333333333333332</ele><time>2026-04-11T14:27:53.001Z</time></trkpt><trkpt lat="36.78957273669346" lon="15.076469040008968"><ele>13.666666666666666</ele><time>2026-04-11T14:27:54.001Z</time></trkpt><trkpt lat="36.789508910283594" lon="15.076546418526485"><ele>14.0</ele><time>2026-04-11T14:27:57.001Z</time></trkpt><trkpt lat="36.78943793151504" lon="15.076544428403928"><ele>14.333333333333332</ele><time>2026-04-11T14:27:58.001Z</time></trkpt><trkpt lat="36.78937665494168" lon="15.076511203812952"><ele>14.666666666666666</ele><time>2026-04-11T14:27:59.001Z</time></trkpt><trkpt lat="36.78931307328188" lon="15.076466577033722"><ele>15.0</ele><time>2026-04-11T14:28:00.001Z</time></trkpt><trkpt lat="36.789221938238825" lon="15.076489842430883"><ele>15.166666666666666</ele><time>2026-04-11T14:28:02.001Z</time></trkpt><trkpt lat="36.789158895495135" lon="15.076559404185309"><ele>15.333333333333332</ele><time>2026-04-11T14:28:03.001Z</time></trkpt><trkpt lat="36.789093060297965" lon="15.07661503620316"><ele>15.5</ele><time>2026-04-11T14:28:04.001Z</time></trkpt><trkpt lat="36.78900180565491" lon="15.0766748669083"><ele>15.666666666666666</ele><time>2026-04-11T14:28:06.001Z</time></trkpt><trkpt lat="36.78893706412067" lon="15.076663869606888"><ele>15.833333333333332</ele><time>2026-04-11T14:28:08.001Z</time></trkpt><trkpt lat="36.78889365493171" lon="15.076585884682968"><ele>16.0</ele><time>2026-04-11T14:28:10Z</time></trkpt><trkpt lat="36.78884356751095" lon="15.076485057058308"><ele>16.0</ele><time>2026-04-11T14:28:11Z</time></trkpt><trkpt lat="36.78880182122418" lon="15.076366237341515"><ele>16.0</ele><time>2026-04-11T14:28:12Z</time></trkpt><trkpt lat="36.78875439213563" lon="15.07626580482564"><ele>16.0</ele><time>2026-04-11T14:28:14Z</time></trkpt><trkpt lat="36.788736708800386" lon="15.076177753676411"><ele>16.0</ele><time>2026-04-11T14:28:16Z</time></trkpt><trkpt lat="36.78877742329679" lon="15.075993856058899"><ele>16.0</ele><time>2026-04-11T14:28:18Z</time></trkpt><trkpt lat="36.78880442980282" lon="15.075873584521332"><ele>15.999999999999998</ele><time>2026-04-11T14:28:19Z</time></trkpt><trkpt lat="36.788821804176784" lon="15.075794774001391"><ele>16.0</ele><time>2026-04-11T14:28:20Z</time></trkpt><trkpt lat="36.788824381324794" lon="15.07566602353474"><ele>16.0</ele><time>2026-04-11T14:28:22Z</time></trkpt><trkpt lat="36.788824252432455" lon="15.075582875892746"><ele>16.0</ele><time>2026-04-11T14:28:23Z</time></trkpt><trkpt lat="36.78880633345472" lon="15.075491882617484"><ele>15.999999999999998</ele><time>2026-04-11T14:28:24Z</time></trkpt><trkpt lat="36.78875697502723" lon="15.075375536435725"><ele>16.0</ele><time>2026-04-11T14:28:26Z</time></trkpt><trkpt lat="36.788706563377815" lon="15.075327623569324"><ele>16.166666666666664</ele><time>2026-04-11T14:28:27Z</time></trkpt><trkpt lat="36.78864031663436" lon="15.075266302865218"><ele>16.333333333333332</ele><time>2026-04-11T14:28:28Z</time></trkpt><trkpt lat="36.788589419839" lon="15.075213050853437"><ele>16.5</ele><time>2026-04-11T14:28:29Z</time></trkpt><trkpt lat="36.78853276340771" lon="15.075170297972626"><ele>16.666666666666668</ele><time>2026-04-11T14:28:30Z</time></trkpt><trkpt lat="36.788448351187895" lon="15.075133966554281"><ele>16.833333333333336</ele><time>2026-04-11T14:28:32Z</time></trkpt><trkpt lat="36.78833338563812" lon="15.075081785166969"><ele>17.0</ele><time>2026-04-11T14:28:34Z</time></trkpt><trkpt lat="36.78825003563372" lon="15.075054869924472"><ele>18.2</ele><time>2026-04-11T14:28:35Z</time></trkpt><trkpt lat="36.7881671624891" lon="15.07503295054699"><ele>19.4</ele><time>2026-04-11T14:28:36Z</time></trkpt><trkpt lat="36.788099199489444" lon="15.075032072468922"><ele>20.599999999999998</ele><time>2026-04-11T14:28:37Z</time></trkpt><trkpt lat="36.78800294033255" lon="15.075119803815435"><ele>21.799999999999997</ele><time>2026-04-11T14:28:39Z</time></trkpt><trkpt lat="36.78794999081925" lon="15.075185624391404"><ele>23.0</ele><time>2026-04-11T14:28:40Z</time></trkpt><trkpt lat="36.78783185341729" lon="15.075235032877128"><ele>23.0</ele><time>2026-04-11T14:28:42Z</time></trkpt><trkpt lat="36.787767237411956" lon="15.075323617829925"><ele>23.0</ele><time>2026-04-11T14:28:44Z</time></trkpt><trkpt lat="36.78774134487647" lon="15.075423848815333"><ele>23.0</ele><time>2026-04-11T14:28:45Z</time></trkpt><trkpt lat="36.78770218850501" lon="15.075544912711463"><ele>23.0</ele><time>2026-04-11T14:28:46Z</time></trkpt><trkpt lat="36.787677734137525" lon="15.075648765592643"><ele>23.0</ele><time>2026-04-11T14:28:47Z</time></trkpt><trkpt lat="36.78766251928886" lon="15.075732722564743"><ele>23.0</ele><time>2026-04-11T14:28:48Z</time></trkpt><trkpt lat="36.78766757383418" lon="15.07583779293571"><ele>22.833333333333336</ele><time>2026-04-11T14:28:50Z</time></trkpt><trkpt lat="36.787732044566404" lon="15.075894996099889"><ele>22.666666666666668</ele><time>2026-04-11T14:28:52Z</time></trkpt><trkpt lat="36.78779127826681" lon="15.075923515210075"><ele>22.5</ele><time>2026-04-11T14:28:53Z</time></trkpt><trkpt lat="36.78785730873696" lon="15.075954698181773"><ele>22.333333333333332</ele><time>2026-04-11T14:28:54Z</time></trkpt><trkpt lat="36.78796650200114" lon="15.076020908462532"><ele>22.166666666666664</ele><time>2026-04-11T14:28:56Z</time></trkpt><trkpt lat="36.78803032546193" lon="15.076051653396414"><ele>22.0</ele><time>2026-04-11T14:28:57Z</time></trkpt><trkpt lat="36.78811133863487" lon="15.076096614693007"><ele>22.0</ele><time>2026-04-11T14:28:58Z</time></trkpt><trkpt lat="36.78817189925292" lon="15.07615253785312"><ele>22.0</ele><time>2026-04-11T14:28:59Z</time></trkpt><trkpt lat="36.78820523630715" lon="15.076276677679175"><ele>22.0</ele><time>2026-04-11T14:29:01Z</time></trkpt><trkpt lat="36.7881785036498" lon="15.076376278034243"><ele>22.0</ele><time>2026-04-11T14:29:03Z</time></trkpt><trkpt lat="36.788166205074496" lon="15.076458254655334"><ele>22.0</ele><time>2026-04-11T14:29:08Z</time></trkpt><trkpt lat="36.7881077742277" lon="15.076496314019046"><ele>22.0</ele><time>2026-04-11T14:29:28Z</time></trkpt><trkpt lat="36.78805276540058" lon="15.076539392042458"><ele>21.0</ele><time>2026-04-11T14:29:31Z</time></trkpt><trkpt lat="36.78812372301637" lon="15.07671837846212"><ele>20.0</ele><time>2026-04-11T14:29:32Z</time></trkpt><trkpt lat="36.788176745159625" lon="15.076664239735864"><ele>19.0</ele><time>2026-04-11T14:29:45Z</time></trkpt><trkpt lat="36.78819826566193" lon="15.076745035891623"><ele>18.0</ele><time>2026-04-11T14:39:11Z</time></trkpt><trkpt lat="36.78810110296228" lon="15.076834675311492"><ele>17.0</ele><time>2026-04-11T14:39:13Z</time></trkpt><trkpt lat="36.78801401372134" lon="15.076890291641288"><ele>17.0</ele><time>2026-04-11T14:39:14Z</time></trkpt><trkpt lat="36.78792350476933" lon="15.076957617982961"><ele>17.0</ele><time>2026-04-11T14:39:15Z</time></trkpt><trkpt lat="36.78782863236066" lon="15.077034250591344"><ele>17.0</ele><time>2026-04-11T14:39:16Z</time></trkpt><trkpt lat="36.78771759966165" lon="15.077116885895794"><ele>17.0</ele><time>2026-04-11T14:39:17Z</time></trkpt><trkpt lat="36.78760503302695" lon="15.07719975018711"><ele>16.0</ele><time>2026-04-11T14:39:18Z</time></trkpt><trkpt lat="36.78748570498397" lon="15.077294325476398"><ele>15.0</ele><time>2026-04-11T14:39:19Z</time></trkpt><trkpt lat="36.78735776070792" lon="15.077396013588661"><ele>14.0</ele><time>2026-04-11T14:39:20Z</time></trkpt><trkpt lat="36.78721394495503" lon="15.077507649604497"><ele>14.0</ele><time>2026-04-11T14:39:21Z</time></trkpt><trkpt lat="36.78702858938398" lon="15.07765381008077"><ele>14.0</ele><time>2026-04-11T14:39:22Z</time></trkpt><trkpt lat="36.78685463930313" lon="15.07778942174907"><ele>14.0</ele><time>2026-04-11T14:39:23Z</time></trkpt><trkpt lat="36.786697088520526" lon="15.077907733399865"><ele>15.666666666666668</ele><time>2026-04-11T14:39:24Z</time></trkpt><trkpt lat="36.78655475382398" lon="15.078017616466221"><ele>17.333333333333332</ele><time>2026-04-11T14:39:25Z</time></trkpt><trkpt lat="36.78641217943924" lon="15.07813119203646"><ele>19.0</ele><time>2026-04-11T14:39:26Z</time></trkpt><trkpt lat="36.78627212116283" lon="15.07824364756324"><ele>16.666666666666664</ele><time>2026-04-11T14:39:27Z</time></trkpt><trkpt lat="36.78610414495935" lon="15.078376557681025"><ele>14.333333333333332</ele><time>2026-04-11T14:39:28Z</time></trkpt><trkpt lat="36.785904833737554" lon="15.078531954049417"><ele>12.0</ele><time>2026-04-11T14:39:29Z</time></trkpt><trkpt lat="36.78569132016234" lon="15.07868940189583"><ele>12.0</ele><time>2026-04-11T14:39:30Z</time></trkpt><trkpt lat="36.785440372317396" lon="15.078872464114573"><ele>12.0</ele><time>2026-04-11T14:39:31Z</time></trkpt><trkpt lat="36.78516685285791" lon="15.079062116675098"><ele>10.0</ele><time>2026-04-11T14:39:32Z</time></trkpt><trkpt lat="36.78486461158644" lon="15.079244345411674"><ele>8.0</ele><time>2026-04-11T14:39:33Z</time></trkpt><trkpt lat="36.784573719798374" lon="15.079395029907316"><ele>7.5</ele><time>2026-04-11T14:39:34Z</time></trkpt><trkpt lat="36.78431001394698" lon="15.079514331464619"><ele>7.0</ele><time>2026-04-11T14:39:35Z</time></trkpt><trkpt lat="36.784062741201886" lon="15.079623075823948"><ele>7.0</ele><time>2026-04-11T14:39:36Z</time></trkpt><trkpt lat="36.783833823669944" lon="15.079712666530414"><ele>7.0</ele><time>2026-04-11T14:39:37Z</time></trkpt><trkpt lat="36.783624640519086" lon="15.079780758985438"><ele>8.0</ele><time>2026-04-11T14:39:38Z</time></trkpt><trkpt lat="36.783424288648305" lon="15.079837014948465"><ele>9.0</ele><time>2026-04-11T14:39:39Z</time></trkpt><trkpt lat="36.783232042450685" lon="15.079880501842409"><ele>10.0</ele><time>2026-04-11T14:39:40Z</time></trkpt><trkpt lat="36.783049322699505" lon="15.079917753470935"><ele>9.333333333333334</ele><time>2026-04-11T14:39:41.001Z</time></trkpt><trkpt lat="36.78287619723145" lon="15.079956189990101"><ele>8.666666666666666</ele><time>2026-04-11T14:39:42.001Z</time></trkpt><trkpt lat="36.782696761180986" lon="15.079990729597831"><ele>8.0</ele><time>2026-04-11T14:39:43.001Z</time></trkpt><trkpt lat="36.78251563393031" lon="15.080016174566909"><ele>8.0</ele><time>2026-04-11T14:39:44.001Z</time></trkpt><trkpt lat="36.78232903316403" lon="15.080034322314212"><ele>8.0</ele><time>2026-04-11T14:39:45.001Z</time></trkpt><trkpt lat="36.78214347249593" lon="15.080045700189467"><ele>8.0</ele><time>2026-04-11T14:39:46.001Z</time></trkpt><trkpt lat="36.781958075462406" lon="15.080053897798047"><ele>7.666666666666666</ele><time>2026-04-11T14:39:47.001Z</time></trkpt><trkpt lat="36.7817766950978" lon="15.08005601269381"><ele>7.333333333333334</ele><time>2026-04-11T14:39:48.001Z</time></trkpt><trkpt lat="36.78159358883249" lon="15.080050141586254"><ele>7.0</ele><time>2026-04-11T14:39:49.001Z</time></trkpt><trkpt lat="36.781410362775944" lon="15.080039917879697"><ele>7.0</ele><time>2026-04-11T14:39:50.001Z</time></trkpt><trkpt lat="36.78121507213272" lon="15.080026517202535"><ele>7.0</ele><time>2026-04-11T14:39:51.001Z</time></trkpt><trkpt lat="36.78101295003273" lon="15.080003808429488"><ele>7.0</ele><time>2026-04-11T14:39:52.001Z</time></trkpt><trkpt lat="36.780807952123645" lon="15.079972746619275"><ele>7.5</ele><time>2026-04-11T14:39:53.001Z</time></trkpt><trkpt lat="36.78058311968137" lon="15.079934050853115"><ele>8.0</ele><time>2026-04-11T14:39:54.001Z</time></trkpt><trkpt lat="36.78035541353116" lon="15.079893696666216"><ele>10.5</ele><time>2026-04-11T14:39:55.001Z</time></trkpt><trkpt lat="36.78012285595156" lon="15.079846387303363"><ele>13.0</ele><time>2026-04-11T14:39:56.001Z</time></trkpt><trkpt lat="36.779892700115255" lon="15.079792612194623"><ele>13.0</ele><time>2026-04-11T14:39:57.001Z</time></trkpt><trkpt lat="36.77966059619019" lon="15.079738273149882"><ele>13.0</ele><time>2026-04-11T14:39:58.001Z</time></trkpt><trkpt lat="36.7794283920108" lon="15.079687217059915"><ele>14.0</ele><time>2026-04-11T14:39:59.001Z</time></trkpt><trkpt lat="36.77920466871669" lon="15.079640153629091"><ele>15.0</ele><time>2026-04-11T14:40:00.001Z</time></trkpt><trkpt lat="36.77898114586906" lon="15.079592306808266"><ele>15.0</ele><time>2026-04-11T14:40:01.001Z</time></trkpt><trkpt lat="36.77876279574909" lon="15.0795450921365"><ele>15.0</ele><time>2026-04-11T14:40:02.001Z</time></trkpt><trkpt lat="36.77854449723279" lon="15.079498904233198"><ele>15.0</ele><time>2026-04-11T14:40:03.001Z</time></trkpt><trkpt lat="36.778329721349046" lon="15.07945262513563"><ele>14.666666666666668</ele><time>2026-04-11T14:40:04.001Z</time></trkpt><trkpt lat="36.778121347158056" lon="15.079410267603132"><ele>14.333333333333334</ele><time>2026-04-11T14:40:05.001Z</time></trkpt><trkpt lat="36.777916822639284" lon="15.079372279976056"><ele>14.0</ele><time>2026-04-11T14:40:06.001Z</time></trkpt><trkpt lat="36.77771404473876" lon="15.079325017336465"><ele>14.333333333333334</ele><time>2026-04-11T14:40:07.001Z</time></trkpt><trkpt lat="36.77750618923974" lon="15.079274611266634"><ele>14.666666666666668</ele><time>2026-04-11T14:40:08.001Z</time></trkpt><trkpt lat="36.777295826094985" lon="15.079224826698654"><ele>15.0</ele><time>2026-04-11T14:40:09.001Z</time></trkpt><trkpt lat="36.777072471865424" lon="15.07916960110037"><ele>15.5</ele><time>2026-04-11T14:40:10.001Z</time></trkpt><trkpt lat="36.776851115009066" lon="15.079110117713759"><ele>16.0</ele><time>2026-04-11T14:40:11.001Z</time></trkpt><trkpt lat="36.776621830178215" lon="15.079041824269666"><ele>17.5</ele><time>2026-04-11T14:40:12.001Z</time></trkpt><trkpt lat="36.77638483650842" lon="15.078966820432768"><ele>19.0</ele><time>2026-04-11T14:40:13.001Z</time></trkpt><trkpt lat="36.77614501502192" lon="15.078890752473646"><ele>18.0</ele><time>2026-04-11T14:40:14.001Z</time></trkpt><trkpt lat="36.77589922985113" lon="15.07880603649532"><ele>17.0</ele><time>2026-04-11T14:40:15.001Z</time></trkpt><trkpt lat="36.775658905460226" lon="15.078716613543905"><ele>17.0</ele><time>2026-04-11T14:40:16.001Z</time></trkpt><trkpt lat="36.77540945712311" lon="15.078613621238752"><ele>17.0</ele><time>2026-04-11T14:40:17.001Z</time></trkpt><trkpt lat="36.77516370015192" lon="15.078508671123357"><ele>15.5</ele><time>2026-04-11T14:40:18.001Z</time></trkpt><trkpt lat="36.77491149301219" lon="15.07839778709503"><ele>14.0</ele><time>2026-04-11T14:40:19.001Z</time></trkpt><trkpt lat="36.774665170042326" lon="15.078286480090586"><ele>12.5</ele><time>2026-04-11T14:40:20.001Z</time></trkpt><trkpt lat="36.77441891799658" lon="15.07817599545012"><ele>11.0</ele><time>2026-04-11T14:40:21.001Z</time></trkpt><trkpt lat="36.77417414248519" lon="15.07806620702841"><ele>10.0</ele><time>2026-04-11T14:40:22.001Z</time></trkpt><trkpt lat="36.77393060982215" lon="15.077957286092298"><ele>9.0</ele><time>2026-04-11T14:40:23.001Z</time></trkpt><trkpt lat="36.7736866159261" lon="15.077848699588573"><ele>10.0</ele><time>2026-04-11T14:40:24.001Z</time></trkpt><trkpt lat="36.77344360731071" lon="15.07774164402953"><ele>11.0</ele><time>2026-04-11T14:40:25.001Z</time></trkpt><trkpt lat="36.77320094950126" lon="15.077632373082052"><ele>11.0</ele><time>2026-04-11T14:40:26.001Z</time></trkpt><trkpt lat="36.77295975178179" lon="15.077522257931804"><ele>11.0</ele><time>2026-04-11T14:40:27.001Z</time></trkpt><trkpt lat="36.77272328159292" lon="15.077420613786996"><ele>10.0</ele><time>2026-04-11T14:40:28.001Z</time></trkpt><trkpt lat="36.77248217872182" lon="15.077320543725925"><ele>9.0</ele><time>2026-04-11T14:40:29.001Z</time></trkpt><trkpt lat="36.772242513356645" lon="15.07723549634388"><ele>9.0</ele><time>2026-04-11T14:40:30.001Z</time></trkpt><trkpt lat="36.77200084811884" lon="15.077162458754712"><ele>9.0</ele><time>2026-04-11T14:40:31.001Z</time></trkpt><trkpt lat="36.77175765255948" lon="15.077108530222011"><ele>8.5</ele><time>2026-04-11T14:40:32.001Z</time></trkpt><trkpt lat="36.77150645978236" lon="15.077067821024944"><ele>8.0</ele><time>2026-04-11T14:40:33.001Z</time></trkpt><trkpt lat="36.77125650358688" lon="15.077041954081771"><ele>7.0</ele><time>2026-04-11T14:40:34.001Z</time></trkpt><trkpt lat="36.77100618188732" lon="15.07704024641532"><ele>6.0</ele><time>2026-04-11T14:40:35.001Z</time></trkpt><trkpt lat="36.77074577919861" lon="15.077057463993977"><ele>6.0</ele><time>2026-04-11T14:40:36.001Z</time></trkpt><trkpt lat="36.770480145593986" lon="15.077092123326285"><ele>6.0</ele><time>2026-04-11T14:40:37.001Z</time></trkpt><trkpt lat="36.77021412215049" lon="15.077151464400496"><ele>5.5</ele><time>2026-04-11T14:40:38.001Z</time></trkpt><trkpt lat="36.76994112987146" lon="15.077226589683402"><ele>5.0</ele><time>2026-04-11T14:40:39.001Z</time></trkpt><trkpt lat="36.769666742744505" lon="15.077325614291983"><ele>5.5</ele><time>2026-04-11T14:40:40.001Z</time></trkpt><trkpt lat="36.76939542229912" lon="15.077437488795566"><ele>6.0</ele><time>2026-04-11T14:40:41.001Z</time></trkpt><trkpt lat="36.76912760576951" lon="15.077545040281581"><ele>6.0</ele><time>2026-04-11T14:40:42.001Z</time></trkpt><trkpt lat="36.76886994697566" lon="15.077648715222372"><ele>6.0</ele><time>2026-04-11T14:40:43.001Z</time></trkpt><trkpt lat="36.76862260377662" lon="15.077744402478409"><ele>6.0</ele><time>2026-04-11T14:40:44.001Z</time></trkpt><trkpt lat="36.76838907772446" lon="15.077829261981734"><ele>6.0</ele><time>2026-04-11T14:40:45.001Z</time></trkpt><trkpt lat="36.76816618757747" lon="15.077911891380385"><ele>6.0</ele><time>2026-04-11T14:40:46Z</time></trkpt><trkpt lat="36.76795212731792" lon="15.077994039520194"><ele>6.0</ele><time>2026-04-11T14:40:47Z</time></trkpt><trkpt lat="36.767736452625" lon="15.078076967455269"><ele>5.666666666666667</ele><time>2026-04-11T14:40:48Z</time></trkpt><trkpt lat="36.767533756363825" lon="15.078153405816598"><ele>5.333333333333334</ele><time>2026-04-11T14:40:49Z</time></trkpt><trkpt lat="36.76732954442227" lon="15.078230826316334"><ele>5.0</ele><time>2026-04-11T14:40:50Z</time></trkpt><trkpt lat="36.76710464255475" lon="15.078314939526871"><ele>5.0</ele><time>2026-04-11T14:40:51Z</time></trkpt><trkpt lat="36.76687914227485" lon="15.078403171715255"><ele>5.0</ele><time>2026-04-11T14:40:52Z</time></trkpt><trkpt lat="36.76665218431441" lon="15.078493388345178"><ele>6.0</ele><time>2026-04-11T14:40:53Z</time></trkpt><trkpt lat="36.76642376867451" lon="15.078582762493786"><ele>7.0</ele><time>2026-04-11T14:40:54Z</time></trkpt><trkpt lat="36.766200400685975" lon="15.078667863350598"><ele>7.0</ele><time>2026-04-11T14:40:55Z</time></trkpt><trkpt lat="36.76598642876783" lon="15.078750718665372"><ele>7.0</ele><time>2026-04-11T14:40:56Z</time></trkpt><trkpt lat="36.765791518318856" lon="15.078825934238857"><ele>7.0</ele><time>2026-04-11T14:40:57Z</time></trkpt><trkpt lat="36.76559600557569" lon="15.078899849495508"><ele>7.0</ele><time>2026-04-11T14:40:58Z</time></trkpt><trkpt lat="36.76539926800138" lon="15.07897524700083"><ele>7.0</ele><time>2026-04-11T14:40:59Z</time></trkpt><trkpt lat="36.76520293765031" lon="15.079050715496408"><ele>7.0</ele><time>2026-04-11T14:41:00Z</time></trkpt><trkpt lat="36.76500666143567" lon="15.079126956140884"><ele>8.666666666666668</ele><time>2026-04-11T14:41:01Z</time></trkpt><trkpt lat="36.76480932286615" lon="15.079202224139665"><ele>10.333333333333334</ele><time>2026-04-11T14:41:02Z</time></trkpt><trkpt lat="36.764599516042466" lon="15.079280837186099"><ele>12.0</ele><time>2026-04-11T14:41:03Z</time></trkpt><trkpt lat="36.76438708633153" lon="15.079362315023598"><ele>12.333333333333332</ele><time>2026-04-11T14:41:04Z</time></trkpt><trkpt lat="36.76417439348091" lon="15.079443534204549"><ele>12.666666666666666</ele><time>2026-04-11T14:41:05Z</time></trkpt><trkpt lat="36.76396229067312" lon="15.079525305302145"><ele>13.0</ele><time>2026-04-11T14:41:06Z</time></trkpt><trkpt lat="36.7637456772149" lon="15.079608215152017"><ele>13.0</ele><time>2026-04-11T14:41:07Z</time></trkpt><trkpt lat="36.7635324166499" lon="15.079691927201795"><ele>13.0</ele><time>2026-04-11T14:41:08Z</time></trkpt><trkpt lat="36.76331401644391" lon="15.079776259821703"><ele>14.333333333333332</ele><time>2026-04-11T14:41:09Z</time></trkpt><trkpt lat="36.76309994946894" lon="15.079856850386317"><ele>15.666666666666668</ele><time>2026-04-11T14:41:10Z</time></trkpt><trkpt lat="36.76288483516877" lon="15.07993359190558"><ele>17.0</ele><time>2026-04-11T14:41:11Z</time></trkpt><trkpt lat="36.76266645831914" lon="15.080006662825005"><ele>20.0</ele><time>2026-04-11T14:41:12Z</time></trkpt><trkpt lat="36.76244487363775" lon="15.080071213794533"><ele>23.0</ele><time>2026-04-11T14:41:13Z</time></trkpt><trkpt lat="36.76221893714443" lon="15.080133073924033"><ele>23.0</ele><time>2026-04-11T14:41:14Z</time></trkpt><trkpt lat="36.76199427406269" lon="15.080189258489595"><ele>23.0</ele><time>2026-04-11T14:41:15Z</time></trkpt><trkpt lat="36.761765170518004" lon="15.080239885684362"><ele>22.0</ele><time>2026-04-11T14:41:16Z</time></trkpt><trkpt lat="36.76153625928829" lon="15.08028158763097"><ele>21.0</ele><time>2026-04-11T14:41:17Z</time></trkpt><trkpt lat="36.76130776343069" lon="15.080317998020412"><ele>21.0</ele><time>2026-04-11T14:41:18Z</time></trkpt><trkpt lat="36.7610752401299" lon="15.080342685293795"><ele>21.0</ele><time>2026-04-11T14:41:19Z</time></trkpt><trkpt lat="36.760838471217326" lon="15.080363224855164"><ele>18.5</ele><time>2026-04-11T14:41:20Z</time></trkpt><trkpt lat="36.760603520631136" lon="15.080377014753457"><ele>16.0</ele><time>2026-04-11T14:41:21Z</time></trkpt><trkpt lat="36.7603632876796" lon="15.08038464782688"><ele>15.5</ele><time>2026-04-11T14:41:22Z</time></trkpt><trkpt lat="36.760119160356446" lon="15.0803912754372"><ele>15.0</ele><time>2026-04-11T14:41:23Z</time></trkpt><trkpt lat="36.759871244283595" lon="15.08039824278643"><ele>15.0</ele><time>2026-04-11T14:41:24Z</time></trkpt><trkpt lat="36.759628928806585" lon="15.080404485226596"><ele>15.0</ele><time>2026-04-11T14:41:25Z</time></trkpt><trkpt lat="36.75938623480545" lon="15.080410646909485"><ele>13.0</ele><time>2026-04-11T14:41:26Z</time></trkpt><trkpt lat="36.759144236516605" lon="15.08041667520129"><ele>11.0</ele><time>2026-04-11T14:41:27Z</time></trkpt><trkpt lat="36.75890045565028" lon="15.080421983682726"><ele>11.0</ele><time>2026-04-11T14:41:28Z</time></trkpt><trkpt lat="36.7586573411599" lon="15.080427526107535"><ele>11.0</ele><time>2026-04-11T14:41:29Z</time></trkpt><trkpt lat="36.75841734620936" lon="15.080434034975474"><ele>12.0</ele><time>2026-04-11T14:41:30Z</time></trkpt><trkpt lat="36.75818069809445" lon="15.08043957221801"><ele>13.0</ele><time>2026-04-11T14:41:31Z</time></trkpt><trkpt lat="36.757950384726016" lon="15.080443495702195"><ele>13.0</ele><time>2026-04-11T14:41:32Z</time></trkpt><trkpt lat="36.75772930699263" lon="15.080446390945024"><ele>13.0</ele><time>2026-04-11T14:41:33Z</time></trkpt><trkpt lat="36.757515741323616" lon="15.080452081629623"><ele>13.0</ele><time>2026-04-11T14:41:34Z</time></trkpt><trkpt lat="36.75731210191653" lon="15.080459082332283"><ele>14.666666666666666</ele><time>2026-04-11T14:41:35Z</time></trkpt><trkpt lat="36.75711786248497" lon="15.080463870847677"><ele>16.333333333333332</ele><time>2026-04-11T14:41:36Z</time></trkpt><trkpt lat="36.7569280311206" lon="15.080467284875724"><ele>18.0</ele><time>2026-04-11T14:41:37Z</time></trkpt><trkpt lat="36.7567332224323" lon="15.080468525590618"><ele>18.333333333333332</ele><time>2026-04-11T14:41:38Z</time></trkpt><trkpt lat="36.75655089773039" lon="15.08047104013934"><ele>18.666666666666664</ele><time>2026-04-11T14:41:39Z</time></trkpt><trkpt lat="36.75638089167869" lon="15.08047338368055"><ele>19.0</ele><time>2026-04-11T14:41:40Z</time></trkpt><trkpt lat="36.756216956736736" lon="15.080477606790303"><ele>19.0</ele><time>2026-04-11T14:41:41Z</time></trkpt><trkpt lat="36.75606036258843" lon="15.080483070622774"><ele>19.0</ele><time>2026-04-11T14:41:42Z</time></trkpt><trkpt lat="36.75590404021147" lon="15.080488293514167"><ele>19.0</ele><time>2026-04-11T14:41:43Z</time></trkpt><trkpt lat="36.75574955705909" lon="15.08049191242902"><ele>18.333333333333332</ele><time>2026-04-11T14:41:44Z</time></trkpt><trkpt lat="36.755591802241824" lon="15.080497072812294"><ele>17.666666666666668</ele><time>2026-04-11T14:41:45.001Z</time></trkpt><trkpt lat="36.75542932351981" lon="15.080501565986909"><ele>17.0</ele><time>2026-04-11T14:41:46.001Z</time></trkpt><trkpt lat="36.75526377337036" lon="15.080507166173822"><ele>18.666666666666668</ele><time>2026-04-11T14:41:47.001Z</time></trkpt><trkpt lat="36.75509073435215" lon="15.080515221822596"><ele>20.333333333333332</ele><time>2026-04-11T14:41:48.001Z</time></trkpt><trkpt lat="36.754916854978724" lon="15.080523266418126"><ele>22.0</ele><time>2026-04-11T14:41:49.001Z</time></trkpt><trkpt lat="36.754735510141856" lon="15.080527031359987"><ele>22.0</ele><time>2026-04-11T14:41:50.001Z</time></trkpt><trkpt lat="36.75455343011558" lon="15.080531304453716"><ele>22.0</ele><time>2026-04-11T14:41:51.001Z</time></trkpt><trkpt lat="36.7543679511692" lon="15.080533001075986"><ele>22.0</ele><time>2026-04-11T14:41:52.001Z</time></trkpt><trkpt lat="36.754179900420226" lon="15.080538149316022"><ele>22.333333333333332</ele><time>2026-04-11T14:41:53.001Z</time></trkpt><trkpt lat="36.75399369452258" lon="15.080542708547105"><ele>22.666666666666668</ele><time>2026-04-11T14:41:54.001Z</time></trkpt><trkpt lat="36.75380531782838" lon="15.080548620980377"><ele>23.0</ele><time>2026-04-11T14:41:55.001Z</time></trkpt><trkpt lat="36.75361869887296" lon="15.080552933855444"><ele>22.333333333333336</ele><time>2026-04-11T14:41:56.001Z</time></trkpt><trkpt lat="36.753427016664865" lon="15.08056042877109"><ele>21.666666666666668</ele><time>2026-04-11T14:41:57.001Z</time></trkpt><trkpt lat="36.75323839705896" lon="15.080568589582853"><ele>21.0</ele><time>2026-04-11T14:41:58.001Z</time></trkpt><trkpt lat="36.753046065842575" lon="15.080571490347944"><ele>21.0</ele><time>2026-04-11T14:41:59.001Z</time></trkpt><trkpt lat="36.752850285565515" lon="15.080574399393411"><ele>21.0</ele><time>2026-04-11T14:42:00.001Z</time></trkpt><trkpt lat="36.75265640234779" lon="15.080572910383182"><ele>21.0</ele><time>2026-04-11T14:42:01.001Z</time></trkpt><trkpt lat="36.75246738539806" lon="15.080576136358653"><ele>21.0</ele><time>2026-04-11T14:42:02.001Z</time></trkpt><trkpt lat="36.752277668506444" lon="15.080584032810615"><ele>21.0</ele><time>2026-04-11T14:42:03.001Z</time></trkpt><trkpt lat="36.75209245095571" lon="15.080591331836473"><ele>21.0</ele><time>2026-04-11T14:42:04.001Z</time></trkpt><trkpt lat="36.751908135241386" lon="15.080597648901044"><ele>20.333333333333332</ele><time>2026-04-11T14:42:05.001Z</time></trkpt><trkpt lat="36.75172527941009" lon="15.080601815521026"><ele>19.666666666666664</ele><time>2026-04-11T14:42:06.001Z</time></trkpt><trkpt lat="36.75154481130018" lon="15.080605763267664"><ele>19.0</ele><time>2026-04-11T14:42:07.001Z</time></trkpt><trkpt lat="36.75136418931908" lon="15.080610578205256"><ele>19.0</ele><time>2026-04-11T14:42:08.001Z</time></trkpt><trkpt lat="36.751183599707026" lon="15.080614665236984"><ele>19.0</ele><time>2026-04-11T14:42:09.001Z</time></trkpt><trkpt lat="36.75100789801697" lon="15.080619651761697"><ele>19.0</ele><time>2026-04-11T14:42:10.001Z</time></trkpt><trkpt lat="36.75083173104166" lon="15.080624556297174"><ele>18.333333333333332</ele><time>2026-04-11T14:42:11.001Z</time></trkpt><trkpt lat="36.7506556998183" lon="15.080628834699716"><ele>17.666666666666668</ele><time>2026-04-11T14:42:12.001Z</time></trkpt><trkpt lat="36.75048009024484" lon="15.080634371869408"><ele>17.0</ele><time>2026-04-11T14:42:13.001Z</time></trkpt><trkpt lat="36.750303400082096" lon="15.080637916445474"><ele>17.333333333333336</ele><time>2026-04-11T14:42:14.001Z</time></trkpt><trkpt lat="36.7501301302712" lon="15.08064113429288"><ele>17.666666666666668</ele><time>2026-04-11T14:42:15.001Z</time></trkpt><trkpt lat="36.74995816647899" lon="15.080645338070337"><ele>18.0</ele><time>2026-04-11T14:42:16.001Z</time></trkpt><trkpt lat="36.74978260553372" lon="15.080650405937813"><ele>18.0</ele><time>2026-04-11T14:42:17.001Z</time></trkpt><trkpt lat="36.749605190869715" lon="15.080656240913934"><ele>18.0</ele><time>2026-04-11T14:42:18.001Z</time></trkpt><trkpt lat="36.749429747211686" lon="15.080660218924857"><ele>18.0</ele><time>2026-04-11T14:42:19.001Z</time></trkpt><trkpt lat="36.749256955851706" lon="15.080663484739011"><ele>18.333333333333332</ele><time>2026-04-11T14:42:20.001Z</time></trkpt><trkpt lat="36.74908065489734" lon="15.080666972758436"><ele>18.666666666666664</ele><time>2026-04-11T14:42:21.001Z</time></trkpt><trkpt lat="36.748905172446825" lon="15.080672347600734"><ele>19.0</ele><time>2026-04-11T14:42:22.001Z</time></trkpt><trkpt lat="36.74872329549959" lon="15.08067658668522"><ele>19.0</ele><time>2026-04-11T14:42:23.001Z</time></trkpt><trkpt lat="36.74854313060924" lon="15.08067901315731"><ele>19.0</ele><time>2026-04-11T14:42:24.001Z</time></trkpt><trkpt lat="36.74835767620488" lon="15.080681475197336"><ele>19.0</ele><time>2026-04-11T14:42:25.001Z</time></trkpt><trkpt lat="36.748173993321494" lon="15.08068598925615"><ele>19.666666666666664</ele><time>2026-04-11T14:42:26.001Z</time></trkpt><trkpt lat="36.747987806795834" lon="15.080689731713413"><ele>20.333333333333332</ele><time>2026-04-11T14:42:27.001Z</time></trkpt><trkpt lat="36.74780446671438" lon="15.08069362048235"><ele>21.0</ele><time>2026-04-11T14:42:28.001Z</time></trkpt><trkpt lat="36.747621141294026" lon="15.080698278110464"><ele>21.666666666666668</ele><time>2026-04-11T14:42:29.001Z</time></trkpt><trkpt lat="36.74743350479359" lon="15.080700863778107"><ele>22.333333333333336</ele><time>2026-04-11T14:42:30.001Z</time></trkpt><trkpt lat="36.74724939930623" lon="15.080706451329156"><ele>23.0</ele><time>2026-04-11T14:42:31.001Z</time></trkpt><trkpt lat="36.747084897484214" lon="15.080711018084234"><ele>23.0</ele><time>2026-04-11T14:42:32.001Z</time></trkpt><trkpt lat="36.746971694071526" lon="15.080714224911485"><ele>23.0</ele><time>2026-04-11T14:42:33.001Z</time></trkpt><trkpt lat="36.746881626041244" lon="15.080719123032777"><ele>23.0</ele><time>2026-04-11T14:42:34.001Z</time></trkpt><trkpt lat="36.746769796726554" lon="15.080722837199387"><ele>23.0</ele><time>2026-04-11T14:42:35.001Z</time></trkpt><trkpt lat="36.7466461546525" lon="15.080721209587868"><ele>23.0</ele><time>2026-04-11T14:42:36.001Z</time></trkpt><trkpt lat="36.74651763957007" lon="15.080722418277322"><ele>24.0</ele><time>2026-04-11T14:42:37.001Z</time></trkpt><trkpt lat="36.746375608141996" lon="15.08072675680961"><ele>25.0</ele><time>2026-04-11T14:42:38.001Z</time></trkpt><trkpt lat="36.74620133863537" lon="15.08073402852472"><ele>26.0</ele><time>2026-04-11T14:42:39.001Z</time></trkpt><trkpt lat="36.746027449142815" lon="15.08074351808239"><ele>27.0</ele><time>2026-04-11T14:42:40.001Z</time></trkpt><trkpt lat="36.74586487429647" lon="15.080749905612235"><ele>28.0</ele><time>2026-04-11T14:42:41.001Z</time></trkpt><trkpt lat="36.745714958211884" lon="15.080752986674646"><ele>29.0</ele><time>2026-04-11T14:42:42.001Z</time></trkpt><trkpt lat="36.74555913356375" lon="15.080757420162575"><ele>29.0</ele><time>2026-04-11T14:42:43.001Z</time></trkpt><trkpt lat="36.74539834614639" lon="15.080760954102958"><ele>29.0</ele><time>2026-04-11T14:42:44.001Z</time></trkpt><trkpt lat="36.74523281841862" lon="15.080763925770249"><ele>29.0</ele><time>2026-04-11T14:42:45.001Z</time></trkpt><trkpt lat="36.745063056597985" lon="15.080768301306898"><ele>29.0</ele><time>2026-04-11T14:42:46.001Z</time></trkpt><trkpt lat="36.74488880192725" lon="15.080774787195404"><ele>29.0</ele><time>2026-04-11T14:42:47.001Z</time></trkpt><trkpt lat="36.74471298773025" lon="15.08077917572684"><ele>29.0</ele><time>2026-04-11T14:42:48.001Z</time></trkpt><trkpt lat="36.74453955728715" lon="15.080783376881245"><ele>29.0</ele><time>2026-04-11T14:42:49.001Z</time></trkpt><trkpt lat="36.744385966216285" lon="15.08078692187676"><ele>29.0</ele><time>2026-04-11T14:42:50.001Z</time></trkpt><trkpt lat="36.74423001372733" lon="15.080789934441988"><ele>29.0</ele><time>2026-04-11T14:42:51.001Z</time></trkpt><trkpt lat="36.744064552560744" lon="15.080797424615453"><ele>28.0</ele><time>2026-04-11T14:42:52Z</time></trkpt><trkpt lat="36.743903597302854" lon="15.08080066989158"><ele>27.0</ele><time>2026-04-11T14:42:53Z</time></trkpt><trkpt lat="36.74373599508428" lon="15.080804578793707"><ele>26.0</ele><time>2026-04-11T14:42:54Z</time></trkpt><trkpt lat="36.7435701075994" lon="15.080811168476801"><ele>24.666666666666664</ele><time>2026-04-11T14:42:55Z</time></trkpt><trkpt lat="36.743403425451184" lon="15.0808184958819"><ele>23.333333333333332</ele><time>2026-04-11T14:42:56Z</time></trkpt><trkpt lat="36.743223363977826" lon="15.080804949894741"><ele>22.0</ele><time>2026-04-11T14:42:57Z</time></trkpt><trkpt lat="36.74303648279853" lon="15.080809620338965"><ele>22.0</ele><time>2026-04-11T14:42:58Z</time></trkpt><trkpt lat="36.74284564201234" lon="15.08081438974666"><ele>22.0</ele><time>2026-04-11T14:42:59Z</time></trkpt><trkpt lat="36.742744026829605" lon="15.080827332762736"><ele>22.0</ele><time>2026-04-11T14:43:00Z</time></trkpt><trkpt lat="36.742582439209684" lon="15.080834825200787"><ele>21.333333333333332</ele><time>2026-04-11T14:43:01Z</time></trkpt><trkpt lat="36.74242505077658" lon="15.08083907565591"><ele>20.666666666666668</ele><time>2026-04-11T14:43:02Z</time></trkpt><trkpt lat="36.74226479387832" lon="15.080841752365526"><ele>20.0</ele><time>2026-04-11T14:43:03Z</time></trkpt><trkpt lat="36.74210199068428" lon="15.080842163732722"><ele>20.0</ele><time>2026-04-11T14:43:04Z</time></trkpt><trkpt lat="36.74192969033318" lon="15.080849048965169"><ele>20.0</ele><time>2026-04-11T14:43:05Z</time></trkpt><trkpt lat="36.74174838037443" lon="15.080852292358795"><ele>20.0</ele><time>2026-04-11T14:43:06Z</time></trkpt><trkpt lat="36.74157006172308" lon="15.080852395824309"><ele>19.666666666666668</ele><time>2026-04-11T14:43:07Z</time></trkpt><trkpt lat="36.7413911552578" lon="15.080862337792505"><ele>19.333333333333332</ele><time>2026-04-11T14:43:08Z</time></trkpt><trkpt lat="36.74121023014613" lon="15.080864916460895"><ele>19.0</ele><time>2026-04-11T14:43:09Z</time></trkpt><trkpt lat="36.7410282138701" lon="15.08087338208301"><ele>19.666666666666664</ele><time>2026-04-11T14:43:10Z</time></trkpt><trkpt lat="36.740847311611184" lon="15.080874234205384"><ele>20.333333333333332</ele><time>2026-04-11T14:43:11Z</time></trkpt><trkpt lat="36.7406672485623" lon="15.08087507551757"><ele>21.0</ele><time>2026-04-11T14:43:12Z</time></trkpt><trkpt lat="36.74048755410364" lon="15.080879598337498"><ele>21.0</ele><time>2026-04-11T14:43:13Z</time></trkpt><trkpt lat="36.74030929413411" lon="15.080884032200746"><ele>21.0</ele><time>2026-04-11T14:43:14Z</time></trkpt><trkpt lat="36.740135574225064" lon="15.08088815181333"><ele>21.0</ele><time>2026-04-11T14:43:15Z</time></trkpt><trkpt lat="36.739952426683224" lon="15.08089311381115"><ele>20.333333333333332</ele><time>2026-04-11T14:43:16Z</time></trkpt><trkpt lat="36.739769414037255" lon="15.080894827941297"><ele>19.666666666666664</ele><time>2026-04-11T14:43:17Z</time></trkpt><trkpt lat="36.73958800724569" lon="15.080899015383894"><ele>19.0</ele><time>2026-04-11T14:43:18Z</time></trkpt><trkpt lat="36.739411551618076" lon="15.080906140108638"><ele>19.666666666666664</ele><time>2026-04-11T14:43:19Z</time></trkpt><trkpt lat="36.73923391781052" lon="15.08090884220698"><ele>20.333333333333332</ele><time>2026-04-11T14:43:20Z</time></trkpt><trkpt lat="36.7390542859525" lon="15.080911575197435"><ele>21.0</ele><time>2026-04-11T14:43:21Z</time></trkpt><trkpt lat="36.738875147694976" lon="15.0809140744053"><ele>21.0</ele><time>2026-04-11T14:43:22Z</time></trkpt><trkpt lat="36.738697033116054" lon="15.080923222198335"><ele>21.0</ele><time>2026-04-11T14:43:23Z</time></trkpt><trkpt lat="36.73851693764768" lon="15.08092954305428"><ele>21.0</ele><time>2026-04-11T14:43:24Z</time></trkpt><trkpt lat="36.73834124014234" lon="15.080938367190214"><ele>21.666666666666668</ele><time>2026-04-11T14:43:25Z</time></trkpt><trkpt lat="36.73814730046323" lon="15.080942120034083"><ele>22.333333333333336</ele><time>2026-04-11T14:43:26Z</time></trkpt><trkpt lat="36.73796405258424" lon="15.080942407030035"><ele>23.0</ele><time>2026-04-11T14:43:27Z</time></trkpt><trkpt lat="36.737781164618106" lon="15.080944738490993"><ele>24.0</ele><time>2026-04-11T14:43:28Z</time></trkpt><trkpt lat="36.73759813111469" lon="15.080949651154082"><ele>25.0</ele><time>2026-04-11T14:43:29Z</time></trkpt><trkpt lat="36.737410985582024" lon="15.080957792860266"><ele>26.0</ele><time>2026-04-11T14:43:30Z</time></trkpt><trkpt lat="36.73722350856525" lon="15.080965731248435"><ele>26.0</ele><time>2026-04-11T14:43:31.001Z</time></trkpt><trkpt lat="36.73704102800001" lon="15.080971293590855"><ele>26.0</ele><time>2026-04-11T14:43:32.001Z</time></trkpt><trkpt lat="36.73686416913515" lon="15.08097242548231"><ele>26.0</ele><time>2026-04-11T14:43:33.001Z</time></trkpt><trkpt lat="36.73669361857069" lon="15.080976686216651"><ele>27.0</ele><time>2026-04-11T14:43:34.001Z</time></trkpt><trkpt lat="36.73652024701853" lon="15.080983951135533"><ele>28.0</ele><time>2026-04-11T14:43:35.001Z</time></trkpt><trkpt lat="36.736350784839416" lon="15.080990138807516"><ele>29.0</ele><time>2026-04-11T14:43:36.001Z</time></trkpt><trkpt lat="36.73619090198487" lon="15.080999775586372"><ele>30.0</ele><time>2026-04-11T14:43:37.001Z</time></trkpt><trkpt lat="36.73604437845875" lon="15.081013439433804"><ele>31.0</ele><time>2026-04-11T14:43:38.001Z</time></trkpt><trkpt lat="36.73591130318351" lon="15.081026189976976"><ele>32.0</ele><time>2026-04-11T14:43:39.001Z</time></trkpt><trkpt lat="36.73579101004514" lon="15.081034826026876"><ele>33.0</ele><time>2026-04-11T14:43:40.001Z</time></trkpt><trkpt lat="36.73567755201358" lon="15.081044262483251"><ele>33.0</ele><time>2026-04-11T14:43:41.001Z</time></trkpt><trkpt lat="36.73557514186988" lon="15.081055430494464"><ele>33.0</ele><time>2026-04-11T14:43:42.001Z</time></trkpt><trkpt lat="36.73548416943731" lon="15.081061807756768"><ele>33.0</ele><time>2026-04-11T14:43:43.001Z</time></trkpt><trkpt lat="36.73540028690284" lon="15.081055344354777"><ele>33.0</ele><time>2026-04-11T14:43:44.001Z</time></trkpt><trkpt lat="36.73533540029951" lon="15.081033121345582"><ele>33.0</ele><time>2026-04-11T14:43:45.001Z</time></trkpt><trkpt lat="36.73525006446774" lon="15.080906716712477"><ele>33.0</ele><time>2026-04-11T14:43:47.001Z</time></trkpt><trkpt lat="36.73529794719223" lon="15.080784351134733"><ele>33.0</ele><time>2026-04-11T14:43:48.001Z</time></trkpt><trkpt lat="36.73532209654292" lon="15.080654136365231"><ele>33.0</ele><time>2026-04-11T14:43:49.001Z</time></trkpt><trkpt lat="36.73534796960367" lon="15.080514627289919"><ele>33.0</ele><time>2026-04-11T14:43:50.001Z</time></trkpt><trkpt lat="36.73536082343962" lon="15.080376972910067"><ele>33.0</ele><time>2026-04-11T14:43:51.001Z</time></trkpt><trkpt lat="36.73538648417668" lon="15.080251205559431"><ele>33.166666666666664</ele><time>2026-04-11T14:43:52.001Z</time></trkpt><trkpt lat="36.7354098518532" lon="15.080139897807271"><ele>33.333333333333336</ele><time>2026-04-11T14:43:53.001Z</time></trkpt><trkpt lat="36.7354311858853" lon="15.080040881832035"><ele>33.5</ele><time>2026-04-11T14:43:54.001Z</time></trkpt><trkpt lat="36.73545424067788" lon="15.07994700632032"><ele>33.66666666666667</ele><time>2026-04-11T14:43:55.001Z</time></trkpt><trkpt lat="36.7354682063851" lon="15.079851113755552"><ele>33.833333333333336</ele><time>2026-04-11T14:43:56.001Z</time></trkpt><trkpt lat="36.735488623454025" lon="15.079755948883836"><ele>34.0</ele><time>2026-04-11T14:43:57.001Z</time></trkpt><trkpt lat="36.73550777050146" lon="15.079652752634884"><ele>34.2</ele><time>2026-04-11T14:43:58.001Z</time></trkpt><trkpt lat="36.73552980286751" lon="15.079545346142595"><ele>34.4</ele><time>2026-04-11T14:43:59.001Z</time></trkpt><trkpt lat="36.7355544751274" lon="15.079427060944049"><ele>34.6</ele><time>2026-04-11T14:44:00.001Z</time></trkpt><trkpt lat="36.735581053497114" lon="15.07930030068679"><ele>34.8</ele><time>2026-04-11T14:44:01.001Z</time></trkpt><trkpt lat="36.73560792019018" lon="15.079165428208338"><ele>35.0</ele><time>2026-04-11T14:44:02.001Z</time></trkpt><trkpt lat="36.735649774504914" lon="15.079030144521"><ele>35.25</ele><time>2026-04-11T14:44:03.001Z</time></trkpt><trkpt lat="36.73567815442616" lon="15.078891213149118"><ele>35.5</ele><time>2026-04-11T14:44:04.001Z</time></trkpt><trkpt lat="36.735706786427215" lon="15.078751047748023"><ele>35.75</ele><time>2026-04-11T14:44:05.001Z</time></trkpt><trkpt lat="36.73572207138708" lon="15.078602121391777"><ele>36.0</ele><time>2026-04-11T14:44:06.001Z</time></trkpt><trkpt lat="36.735755119951" lon="15.07843712211319"><ele>36.333333333333336</ele><time>2026-04-11T14:44:07.001Z</time></trkpt><trkpt lat="36.73579128008894" lon="15.078252944774828"><ele>36.66666666666667</ele><time>2026-04-11T14:44:08.001Z</time></trkpt><trkpt lat="36.73583296218408" lon="15.07805972424085"><ele>37.0</ele><time>2026-04-11T14:44:09.001Z</time></trkpt><trkpt lat="36.735878941002454" lon="15.077850168126458"><ele>37.0</ele><time>2026-04-11T14:44:10.001Z</time></trkpt><trkpt lat="36.73593568956678" lon="15.077586570422294"><ele>37.0</ele><time>2026-04-11T14:44:11.001Z</time></trkpt><trkpt lat="36.735990598363465" lon="15.077347687111589"><ele>37.0</ele><time>2026-04-11T14:44:12.001Z</time></trkpt><trkpt lat="36.736038646426096" lon="15.077126623262892"><ele>35.0</ele><time>2026-04-11T14:44:13.001Z</time></trkpt><trkpt lat="36.736086051703445" lon="15.076908955217839"><ele>33.0</ele><time>2026-04-11T14:44:14.001Z</time></trkpt><trkpt lat="36.73612952302331" lon="15.076696052324682"><ele>31.0</ele><time>2026-04-11T14:44:15.001Z</time></trkpt><trkpt lat="36.73616999002741" lon="15.076480770389239"><ele>30.333333333333336</ele><time>2026-04-11T14:44:16.001Z</time></trkpt><trkpt lat="36.73621316547697" lon="15.076267631428228"><ele>29.666666666666664</ele><time>2026-04-11T14:44:17.001Z</time></trkpt><trkpt lat="36.736255417732124" lon="15.07606843182562"><ele>29.0</ele><time>2026-04-11T14:44:18.001Z</time></trkpt><trkpt lat="36.736294632157716" lon="15.075871716308527"><ele>30.333333333333332</ele><time>2026-04-11T14:44:19.001Z</time></trkpt><trkpt lat="36.73633495954179" lon="15.075683867387188"><ele>31.666666666666664</ele><time>2026-04-11T14:44:20.001Z</time></trkpt><trkpt lat="36.73637798651515" lon="15.075501049514713"><ele>33.0</ele><time>2026-04-11T14:44:21.001Z</time></trkpt><trkpt lat="36.73641664827784" lon="15.075322620420641"><ele>33.0</ele><time>2026-04-11T14:44:22.001Z</time></trkpt><trkpt lat="36.736462547745056" lon="15.075119158574715"><ele>33.0</ele><time>2026-04-11T14:44:23.001Z</time></trkpt><trkpt lat="36.736514880489935" lon="15.07488119249266"><ele>33.0</ele><time>2026-04-11T14:44:24.001Z</time></trkpt><trkpt lat="36.736554000511134" lon="15.074694198946595"><ele>33.666666666666664</ele><time>2026-04-11T14:44:25.001Z</time></trkpt><trkpt lat="36.73659558322734" lon="15.074455988889012"><ele>34.33333333333333</ele><time>2026-04-11T14:44:26.001Z</time></trkpt><trkpt lat="36.7366684547055" lon="15.074163967125742"><ele>35.0</ele><time>2026-04-11T14:44:27.001Z</time></trkpt><trkpt lat="36.73670330935223" lon="15.07382806808673"><ele>35.0</ele><time>2026-04-11T14:44:28.001Z</time></trkpt><trkpt lat="36.73673918788288" lon="15.073491116477031"><ele>35.0</ele><time>2026-04-11T14:44:29.001Z</time></trkpt><trkpt lat="36.736736447731936" lon="15.07316554073918"><ele>35.0</ele><time>2026-04-11T14:44:30.001Z</time></trkpt><trkpt lat="36.73671950183038" lon="15.072880717586832"><ele>35.0</ele><time>2026-04-11T14:44:31.001Z</time></trkpt><trkpt lat="36.73670740574653" lon="15.072634830161201"><ele>35.0</ele><time>2026-04-11T14:44:32.001Z</time></trkpt><trkpt lat="36.73670376541032" lon="15.072413231619779"><ele>35.0</ele><time>2026-04-11T14:44:33.001Z</time></trkpt><trkpt lat="36.73670503467179" lon="15.072206026808358"><ele>35.0</ele><time>2026-04-11T14:44:34.001Z</time></trkpt><trkpt lat="36.73670680763283" lon="15.072015929834558"><ele>35.0</ele><time>2026-04-11T14:44:35.001Z</time></trkpt><trkpt lat="36.7367037975347" lon="15.07185104384862"><ele>35.0</ele><time>2026-04-11T14:44:36.001Z</time></trkpt><trkpt lat="36.736698704109784" lon="15.071698020938438"><ele>35.0</ele><time>2026-04-11T14:44:37.001Z</time></trkpt><trkpt lat="36.73669838397171" lon="15.071531586072814"><ele>35.0</ele><time>2026-04-11T14:44:38.001Z</time></trkpt><trkpt lat="36.73670984181081" lon="15.071362132522404"><ele>35.0</ele><time>2026-04-11T14:44:39.001Z</time></trkpt><trkpt lat="36.736725312896475" lon="15.071202550720017"><ele>35.0</ele><time>2026-04-11T14:44:40.001Z</time></trkpt><trkpt lat="36.73674358303209" lon="15.071053512277402"><ele>35.0</ele><time>2026-04-11T14:44:41.001Z</time></trkpt><trkpt lat="36.73676081515011" lon="15.070903736896419"><ele>35.0</ele><time>2026-04-11T14:44:42.001Z</time></trkpt><trkpt lat="36.73677902958643" lon="15.070741355081456"><ele>35.0</ele><time>2026-04-11T14:44:43.001Z</time></trkpt><trkpt lat="36.73679544707077" lon="15.07056426899909"><ele>35.5</ele><time>2026-04-11T14:44:44.002Z</time></trkpt><trkpt lat="36.73681708470431" lon="15.070409683020271"><ele>36.0</ele><time>2026-04-11T14:44:45.002Z</time></trkpt><trkpt lat="36.73684212901585" lon="15.07027856876277"><ele>36.5</ele><time>2026-04-11T14:44:46.002Z</time></trkpt><trkpt lat="36.73685986603047" lon="15.070147825219625"><ele>37.0</ele><time>2026-04-11T14:44:47.002Z</time></trkpt><trkpt lat="36.73687444261457" lon="15.07001104306176"><ele>36.25</ele><time>2026-04-11T14:44:48.002Z</time></trkpt><trkpt lat="36.73689274631234" lon="15.069851829102568"><ele>35.5</ele><time>2026-04-11T14:44:49.002Z</time></trkpt><trkpt lat="36.736917129585464" lon="15.069683139797423"><ele>34.75</ele><time>2026-04-11T14:44:50.002Z</time></trkpt><trkpt lat="36.73694501597125" lon="15.069503273772927"><ele>34.0</ele><time>2026-04-11T14:44:51.002Z</time></trkpt><trkpt lat="36.73697205012285" lon="15.0693186026227"><ele>34.0</ele><time>2026-04-11T14:44:52.002Z</time></trkpt><trkpt lat="36.7369994285635" lon="15.069131867065963"><ele>34.0</ele><time>2026-04-11T14:44:53.002Z</time></trkpt><trkpt lat="36.73702243605195" lon="15.068946315569134"><ele>34.0</ele><time>2026-04-11T14:44:54.002Z</time></trkpt><trkpt lat="36.73704658156998" lon="15.068769404295566"><ele>34.0</ele><time>2026-04-11T14:44:55.002Z</time></trkpt><trkpt lat="36.73709485452751" lon="15.068607013174576"><ele>34.0</ele><time>2026-04-11T14:44:56.002Z</time></trkpt><trkpt lat="36.73712343447537" lon="15.068449091033226"><ele>34.0</ele><time>2026-04-11T14:44:57.002Z</time></trkpt><trkpt lat="36.737181467499994" lon="15.06828417078821"><ele>34.0</ele><time>2026-04-11T14:44:58.001Z</time></trkpt><trkpt lat="36.73725547335975" lon="15.068051199137757"><ele>34.5</ele><time>2026-04-11T14:44:59.001Z</time></trkpt><trkpt lat="36.737346326670405" lon="15.067767538017936"><ele>35.0</ele><time>2026-04-11T14:45:00.001Z</time></trkpt><trkpt lat="36.73744148653296" lon="15.06747360458142"><ele>34.33333333333333</ele><time>2026-04-11T14:45:01.001Z</time></trkpt><trkpt lat="36.737525849296944" lon="15.067220612331004"><ele>33.666666666666664</ele><time>2026-04-11T14:45:02.001Z</time></trkpt><trkpt lat="36.73759124412277" lon="15.067015408367892"><ele>33.0</ele><time>2026-04-11T14:45:03.001Z</time></trkpt><trkpt lat="36.737644005164476" lon="15.066848458459722"><ele>33.0</ele><time>2026-04-11T14:45:04.001Z</time></trkpt><trkpt lat="36.737692605316454" lon="15.066701072356688"><ele>33.0</ele><time>2026-04-11T14:45:05.001Z</time></trkpt><trkpt lat="36.73773515996502" lon="15.066560989567988"><ele>33.0</ele><time>2026-04-11T14:45:06.001Z</time></trkpt><trkpt lat="36.73777191972826" lon="15.066436917475166"><ele>33.0</ele><time>2026-04-11T14:45:07.001Z</time></trkpt><trkpt lat="36.73780589241191" lon="15.066321341048056"><ele>33.0</ele><time>2026-04-11T14:45:08.001Z</time></trkpt><trkpt lat="36.73785286902499" lon="15.066230638061032"><ele>33.0</ele><time>2026-04-11T14:45:09.001Z</time></trkpt><trkpt lat="36.737879665870345" lon="15.066159198715305"><ele>33.0</ele><time>2026-04-11T14:45:10.001Z</time></trkpt><trkpt lat="36.73778172560942" lon="15.066005463320032"><ele>33.0</ele><time>2026-04-11T14:45:12.001Z</time></trkpt><trkpt lat="36.73771524954342" lon="15.06594295091197"><ele>33.0</ele><time>2026-04-11T14:45:13.001Z</time></trkpt><trkpt lat="36.737635258693544" lon="15.065856698365478"><ele>32.666666666666664</ele><time>2026-04-11T14:45:14.001Z</time></trkpt><trkpt lat="36.73753890238572" lon="15.065726566463143"><ele>32.33333333333333</ele><time>2026-04-11T14:45:15.001Z</time></trkpt><trkpt lat="36.737404877813866" lon="15.065558555903568"><ele>32.0</ele><time>2026-04-11T14:45:16.001Z</time></trkpt><trkpt lat="36.737232266985124" lon="15.065341181831071"><ele>32.0</ele><time>2026-04-11T14:45:17.001Z</time></trkpt><trkpt lat="36.7370585434405" lon="15.065084639279158"><ele>32.0</ele><time>2026-04-11T14:45:18.001Z</time></trkpt><trkpt lat="36.7368854010087" lon="15.064816837037048"><ele>33.33333333333333</ele><time>2026-04-11T14:45:19.001Z</time></trkpt><trkpt lat="36.73673390429904" lon="15.064577885630634"><ele>34.666666666666664</ele><time>2026-04-11T14:45:20.001Z</time></trkpt><trkpt lat="36.7366261018772" lon="15.064393799788109"><ele>36.0</ele><time>2026-04-11T14:45:21.001Z</time></trkpt><trkpt lat="36.73652019689171" lon="15.06422071638504"><ele>36.0</ele><time>2026-04-11T14:45:22.001Z</time></trkpt><trkpt lat="36.7364141448424" lon="15.06407293460451"><ele>36.0</ele><time>2026-04-11T14:45:23.001Z</time></trkpt><trkpt lat="36.73630454362216" lon="15.063939819692521"><ele>36.0</ele><time>2026-04-11T14:45:24.001Z</time></trkpt><trkpt lat="36.736188360129304" lon="15.063813936204998"><ele>36.0</ele><time>2026-04-11T14:45:25.001Z</time></trkpt><trkpt lat="36.73607336062361" lon="15.06368905594385"><ele>36.0</ele><time>2026-04-11T14:45:26.001Z</time></trkpt><trkpt lat="36.73596816635555" lon="15.063569654253655"><ele>36.0</ele><time>2026-04-11T14:45:27.001Z</time></trkpt><trkpt lat="36.73587855631741" lon="15.063433362171823"><ele>36.0</ele><time>2026-04-11T14:45:28.001Z</time></trkpt><trkpt lat="36.73576919258" lon="15.063324315140342"><ele>36.0</ele><time>2026-04-11T14:45:29.001Z</time></trkpt><trkpt lat="36.73567043515266" lon="15.063199084152675"><ele>36.0</ele><time>2026-04-11T14:45:30.001Z</time></trkpt><trkpt lat="36.73557066469483" lon="15.063077155455236"><ele>36.0</ele><time>2026-04-11T14:45:31.001Z</time></trkpt><trkpt lat="36.73546954053838" lon="15.062958036028464"><ele>36.0</ele><time>2026-04-11T14:45:32.001Z</time></trkpt><trkpt lat="36.73537749204843" lon="15.062852546379982"><ele>36.0</ele><time>2026-04-11T14:45:33.001Z</time></trkpt><trkpt lat="36.735290975408496" lon="15.062750583620465"><ele>36.0</ele><time>2026-04-11T14:45:34.001Z</time></trkpt><trkpt lat="36.73521030677383" lon="15.062655232282554"><ele>36.0</ele><time>2026-04-11T14:45:35.001Z</time></trkpt><trkpt lat="36.735141913127556" lon="15.062568840390899"><ele>36.0</ele><time>2026-04-11T14:45:36.001Z</time></trkpt><trkpt lat="36.73507526529251" lon="15.062492240766197"><ele>36.0</ele><time>2026-04-11T14:45:37.001Z</time></trkpt><trkpt lat="36.73499237841061" lon="15.062402114721747"><ele>36.75</ele><time>2026-04-11T14:45:38.001Z</time></trkpt><trkpt lat="36.734906584413864" lon="15.062308708226164"><ele>37.5</ele><time>2026-04-11T14:45:39.001Z</time></trkpt><trkpt lat="36.73481600181049" lon="15.062212647758788"><ele>38.25</ele><time>2026-04-11T14:45:40.001Z</time></trkpt><trkpt lat="36.734723421166464" lon="15.062113104801858"><ele>39.0</ele><time>2026-04-11T14:45:41.001Z</time></trkpt><trkpt lat="36.73463809880119" lon="15.062017299554025"><ele>39.0</ele><time>2026-04-11T14:45:42.001Z</time></trkpt><trkpt lat="36.73454635882395" lon="15.061920626949448"><ele>39.0</ele><time>2026-04-11T14:45:43.001Z</time></trkpt><trkpt lat="36.73444352547407" lon="15.061823226798744"><ele>39.0</ele><time>2026-04-11T14:45:44.001Z</time></trkpt><trkpt lat="36.734331759721066" lon="15.06172423717418"><ele>39.0</ele><time>2026-04-11T14:45:45.001Z</time></trkpt><trkpt lat="36.73421048469953" lon="15.06162384557508"><ele>38.666666666666664</ele><time>2026-04-11T14:45:46.001Z</time></trkpt><trkpt lat="36.7340864766579" lon="15.061525228210677"><ele>38.33333333333333</ele><time>2026-04-11T14:45:47.001Z</time></trkpt><trkpt lat="36.73395888846777" lon="15.06142523901766"><ele>38.0</ele><time>2026-04-11T14:45:48.001Z</time></trkpt><trkpt lat="36.73382566574351" lon="15.061321274711629"><ele>38.0</ele><time>2026-04-11T14:45:49.001Z</time></trkpt><trkpt lat="36.73368832639975" lon="15.061212329772964"><ele>38.0</ele><time>2026-04-11T14:45:50.001Z</time></trkpt><trkpt lat="36.73354980789951" lon="15.061100906031546"><ele>38.0</ele><time>2026-04-11T14:45:51.001Z</time></trkpt><trkpt lat="36.733410683536455" lon="15.060985968964692"><ele>38.666666666666664</ele><time>2026-04-11T14:45:52.001Z</time></trkpt><trkpt lat="36.73327901631702" lon="15.060874193929472"><ele>39.333333333333336</ele><time>2026-04-11T14:45:53.001Z</time></trkpt><trkpt lat="36.73313716859373" lon="15.06075191754984"><ele>40.0</ele><time>2026-04-11T14:45:54.001Z</time></trkpt><trkpt lat="36.732993918556794" lon="15.060631002340061"><ele>40.0</ele><time>2026-04-11T14:45:55.001Z</time></trkpt><trkpt lat="36.732876177327135" lon="15.060516981487108"><ele>40.0</ele><time>2026-04-11T14:45:56.001Z</time></trkpt><trkpt lat="36.73276667073448" lon="15.060365740431193"><ele>40.0</ele><time>2026-04-11T14:45:57.001Z</time></trkpt><trkpt lat="36.73263306160516" lon="15.060209620593925"><ele>39.66666666666667</ele><time>2026-04-11T14:45:58.001Z</time></trkpt><trkpt lat="36.73249057804766" lon="15.060043096211023"><ele>39.333333333333336</ele><time>2026-04-11T14:45:59.001Z</time></trkpt><trkpt lat="36.732342624145524" lon="15.059871831368069"><ele>39.0</ele><time>2026-04-11T14:46:00.001Z</time></trkpt><trkpt lat="36.73219754047666" lon="15.059711664874415"><ele>38.666666666666664</ele><time>2026-04-11T14:46:01.001Z</time></trkpt><trkpt lat="36.73206533819695" lon="15.059571011307717"><ele>38.33333333333333</ele><time>2026-04-11T14:46:02.001Z</time></trkpt><trkpt lat="36.731936490633416" lon="15.059434198112504"><ele>38.0</ele><time>2026-04-11T14:46:03.001Z</time></trkpt><trkpt lat="36.73179776119863" lon="15.059311595096048"><ele>37.33333333333333</ele><time>2026-04-11T14:46:04.001Z</time></trkpt><trkpt lat="36.73166904572764" lon="15.0591743434102"><ele>36.666666666666664</ele><time>2026-04-11T14:46:05.001Z</time></trkpt><trkpt lat="36.73154443589251" lon="15.059035951272786"><ele>36.0</ele><time>2026-04-11T14:46:06.001Z</time></trkpt><trkpt lat="36.73142277776662" lon="15.058898585664421"><ele>36.0</ele><time>2026-04-11T14:46:07.001Z</time></trkpt><trkpt lat="36.73131632361774" lon="15.058751765156076"><ele>36.0</ele><time>2026-04-11T14:46:08.001Z</time></trkpt><trkpt lat="36.73118964556799" lon="15.05863242538346"><ele>36.0</ele><time>2026-04-11T14:46:09.001Z</time></trkpt><trkpt lat="36.731075500653105" lon="15.058493245002062"><ele>36.666666666666664</ele><time>2026-04-11T14:46:10.001Z</time></trkpt><trkpt lat="36.73095675888323" lon="15.058360719513558"><ele>37.33333333333333</ele><time>2026-04-11T14:46:11.001Z</time></trkpt><trkpt lat="36.73083376503828" lon="15.058226571443234"><ele>38.0</ele><time>2026-04-11T14:46:12.001Z</time></trkpt><trkpt lat="36.73071224000696" lon="15.05809949471319"><ele>36.666666666666664</ele><time>2026-04-11T14:46:13.001Z</time></trkpt><trkpt lat="36.730593250830026" lon="15.057966850928052"><ele>35.333333333333336</ele><time>2026-04-11T14:46:14.001Z</time></trkpt><trkpt lat="36.73048364024492" lon="15.057838982998417"><ele>34.0</ele><time>2026-04-11T14:46:15.001Z</time></trkpt><trkpt lat="36.730365705457224" lon="15.057724580579386"><ele>34.0</ele><time>2026-04-11T14:46:16.001Z</time></trkpt><trkpt lat="36.73022213329699" lon="15.057615752721338"><ele>34.0</ele><time>2026-04-11T14:46:17.001Z</time></trkpt><trkpt lat="36.73005041726865" lon="15.057513463151016"><ele>34.0</ele><time>2026-04-11T14:46:18.001Z</time></trkpt><trkpt lat="36.729855020010646" lon="15.057369698752737"><ele>34.0</ele><time>2026-04-11T14:46:19.001Z</time></trkpt><trkpt lat="36.729630234644326" lon="15.057235325027023"><ele>34.0</ele><time>2026-04-11T14:46:20.001Z</time></trkpt><trkpt lat="36.729391552703675" lon="15.057107476369502"><ele>35.5</ele><time>2026-04-11T14:46:21.001Z</time></trkpt><trkpt lat="36.72914949539266" lon="15.05694911658795"><ele>37.0</ele><time>2026-04-11T14:46:22.001Z</time></trkpt><trkpt lat="36.728933664798234" lon="15.056814258080836"><ele>37.0</ele><time>2026-04-11T14:46:23.001Z</time></trkpt><trkpt lat="36.72873670749433" lon="15.056688114719622"><ele>37.0</ele><time>2026-04-11T14:46:24.001Z</time></trkpt><trkpt lat="36.728546857841785" lon="15.056571231209283"><ele>37.0</ele><time>2026-04-11T14:46:25.001Z</time></trkpt><trkpt lat="36.728358650687156" lon="15.056468449795059"><ele>36.333333333333336</ele><time>2026-04-11T14:46:26.001Z</time></trkpt><trkpt lat="36.72816079667308" lon="15.05636966298857"><ele>35.666666666666664</ele><time>2026-04-11T14:46:27.001Z</time></trkpt><trkpt lat="36.727963074262384" lon="15.056289344485737"><ele>35.0</ele><time>2026-04-11T14:46:28.001Z</time></trkpt><trkpt lat="36.7277364285355" lon="15.056215200715402"><ele>34.0</ele><time>2026-04-11T14:46:29.001Z</time></trkpt><trkpt lat="36.727484867414326" lon="15.05613960472253"><ele>33.0</ele><time>2026-04-11T14:46:30.001Z</time></trkpt><trkpt lat="36.72722930020681" lon="15.056030951873025"><ele>33.0</ele><time>2026-04-11T14:46:31.001Z</time></trkpt><trkpt lat="36.726984335539406" lon="15.055936400729122"><ele>33.0</ele><time>2026-04-11T14:46:32.001Z</time></trkpt><trkpt lat="36.72675405792619" lon="15.055855264992648"><ele>32.333333333333336</ele><time>2026-04-11T14:46:33.001Z</time></trkpt><trkpt lat="36.726544117946816" lon="15.055763902701099"><ele>31.666666666666668</ele><time>2026-04-11T14:46:34.001Z</time></trkpt><trkpt lat="36.7263485434208" lon="15.055679911727474"><ele>31.0</ele><time>2026-04-11T14:46:35.001Z</time></trkpt><trkpt lat="36.72615525825207" lon="15.055597151091668"><ele>32.0</ele><time>2026-04-11T14:46:36.001Z</time></trkpt><trkpt lat="36.725966375225944" lon="15.055499566379812"><ele>33.0</ele><time>2026-04-11T14:46:37.001Z</time></trkpt><trkpt lat="36.72576620633828" lon="15.055434099212384"><ele>34.0</ele><time>2026-04-11T14:46:38.001Z</time></trkpt><trkpt lat="36.725572240382085" lon="15.055352840408283"><ele>34.0</ele><time>2026-04-11T14:46:39.001Z</time></trkpt><trkpt lat="36.72537604666833" lon="15.055271562873603"><ele>34.0</ele><time>2026-04-11T14:46:40.001Z</time></trkpt><trkpt lat="36.7251801474474" lon="15.055192387161922"><ele>34.0</ele><time>2026-04-11T14:46:41.001Z</time></trkpt><trkpt lat="36.72498912272799" lon="15.055110784717211"><ele>34.0</ele><time>2026-04-11T14:46:42.001Z</time></trkpt><trkpt lat="36.72482478964596" lon="15.055035735167877"><ele>34.0</ele><time>2026-04-11T14:46:43.002Z</time></trkpt><trkpt lat="36.72468447137613" lon="15.05497081797243"><ele>34.0</ele><time>2026-04-11T14:46:44.002Z</time></trkpt><trkpt lat="36.72457346717829" lon="15.054872268079256"><ele>34.0</ele><time>2026-04-11T14:46:45.002Z</time></trkpt><trkpt lat="36.724484121394816" lon="15.05477506104617"><ele>34.0</ele><time>2026-04-11T14:46:46.002Z</time></trkpt><trkpt lat="36.724391826859716" lon="15.054672305324875"><ele>34.0</ele><time>2026-04-11T14:46:47.002Z</time></trkpt><trkpt lat="36.72429248268861" lon="15.054546247183064"><ele>34.0</ele><time>2026-04-11T14:46:48.002Z</time></trkpt><trkpt lat="36.72419429840852" lon="15.054396304614714"><ele>34.0</ele><time>2026-04-11T14:46:49.002Z</time></trkpt><trkpt lat="36.724082284247245" lon="15.054252692872327"><ele>34.0</ele><time>2026-04-11T14:46:50.002Z</time></trkpt><trkpt lat="36.723977874634635" lon="15.054090165789095"><ele>34.0</ele><time>2026-04-11T14:46:51.002Z</time></trkpt><trkpt lat="36.72388151293158" lon="15.053947965505854"><ele>33.25</ele><time>2026-04-11T14:46:52.002Z</time></trkpt><trkpt lat="36.723797940239734" lon="15.053835965428737"><ele>32.5</ele><time>2026-04-11T14:46:53.002Z</time></trkpt><trkpt lat="36.72371645326081" lon="15.053725280149981"><ele>31.75</ele><time>2026-04-11T14:46:54.002Z</time></trkpt><trkpt lat="36.72364404314294" lon="15.053621752880805"><ele>31.0</ele><time>2026-04-11T14:46:55.002Z</time></trkpt><trkpt lat="36.72357501151587" lon="15.053531646284437"><ele>30.666666666666668</ele><time>2026-04-11T14:46:56.002Z</time></trkpt><trkpt lat="36.72351111999624" lon="15.053447364126384"><ele>30.333333333333336</ele><time>2026-04-11T14:46:57.002Z</time></trkpt><trkpt lat="36.723451481878364" lon="15.053361834714392"><ele>30.0</ele><time>2026-04-11T14:46:58.002Z</time></trkpt><trkpt lat="36.72339712808521" lon="15.053288730519462"><ele>29.666666666666664</ele><time>2026-04-11T14:46:59.002Z</time></trkpt><trkpt lat="36.72334710006258" lon="15.053226649142779"><ele>29.333333333333332</ele><time>2026-04-11T14:47:00.002Z</time></trkpt><trkpt lat="36.72327487952286" lon="15.053133765831342"><ele>29.0</ele><time>2026-04-11T14:47:02.002Z</time></trkpt><trkpt lat="36.72322590380788" lon="15.05306554047375"><ele>28.333333333333332</ele><time>2026-04-11T14:47:07.001Z</time></trkpt><trkpt lat="36.72318151241633" lon="15.052997917885484"><ele>27.666666666666664</ele><time>2026-04-11T14:47:23.001Z</time></trkpt><trkpt lat="36.7231412775698" lon="15.052937130157165"><ele>27.0</ele><time>2026-04-11T14:47:25.001Z</time></trkpt><trkpt lat="36.723098836186466" lon="15.052846554491946"><ele>26.333333333333336</ele><time>2026-04-11T14:47:26.001Z</time></trkpt><trkpt lat="36.723039269851185" lon="15.052748577373801"><ele>25.666666666666668</ele><time>2026-04-11T14:47:27.001Z</time></trkpt><trkpt lat="36.72295943069562" lon="15.052617254688558"><ele>25.0</ele><time>2026-04-11T14:47:28.001Z</time></trkpt><trkpt lat="36.722819820894145" lon="15.052549243339584"><ele>26.0</ele><time>2026-04-11T14:47:29.001Z</time></trkpt><trkpt lat="36.72272992915476" lon="15.05244345744675"><ele>27.0</ele><time>2026-04-11T14:47:30.001Z</time></trkpt><trkpt lat="36.72263476206211" lon="15.052335918437164"><ele>28.0</ele><time>2026-04-11T14:47:31.001Z</time></trkpt><trkpt lat="36.72253645099078" lon="15.052224331280055"><ele>29.0</ele><time>2026-04-11T14:47:32.001Z</time></trkpt><trkpt lat="36.72244182762399" lon="15.052118550033333"><ele>29.0</ele><time>2026-04-11T14:47:33.001Z</time></trkpt><trkpt lat="36.72233470286366" lon="15.052000443276425"><ele>29.0</ele><time>2026-04-11T14:47:34.001Z</time></trkpt><trkpt lat="36.72222461108549" lon="15.05185816792217"><ele>29.0</ele><time>2026-04-11T14:47:35.001Z</time></trkpt><trkpt lat="36.72210331455657" lon="15.05170534071549"><ele>29.0</ele><time>2026-04-11T14:47:36.001Z</time></trkpt><trkpt lat="36.72196607458429" lon="15.051560162774395"><ele>29.0</ele><time>2026-04-11T14:47:37.001Z</time></trkpt><trkpt lat="36.72183594822977" lon="15.051428794665641"><ele>29.0</ele><time>2026-04-11T14:47:38.001Z</time></trkpt><trkpt lat="36.721710150966565" lon="15.051302976737341"><ele>29.0</ele><time>2026-04-11T14:47:39.001Z</time></trkpt><trkpt lat="36.72158343002543" lon="15.051169413619794"><ele>29.0</ele><time>2026-04-11T14:47:40.001Z</time></trkpt><trkpt lat="36.72146802990043" lon="15.051036804545417"><ele>29.0</ele><time>2026-04-11T14:47:41.001Z</time></trkpt><trkpt lat="36.721354135208706" lon="15.05088955617522"><ele>29.0</ele><time>2026-04-11T14:47:42.001Z</time></trkpt><trkpt lat="36.72124995361083" lon="15.05073263020659"><ele>29.0</ele><time>2026-04-11T14:47:43.001Z</time></trkpt><trkpt lat="36.72115084765067" lon="15.050566973218888"><ele>29.0</ele><time>2026-04-11T14:47:44.001Z</time></trkpt><trkpt lat="36.721054413650414" lon="15.050399269651843"><ele>29.0</ele><time>2026-04-11T14:47:45.001Z</time></trkpt><trkpt lat="36.72096366767722" lon="15.050239028334438"><ele>29.0</ele><time>2026-04-11T14:47:46.001Z</time></trkpt><trkpt lat="36.720874163029016" lon="15.050085769315395"><ele>29.0</ele><time>2026-04-11T14:47:47.001Z</time></trkpt><trkpt lat="36.720785047291244" lon="15.049928561166054"><ele>27.666666666666664</ele><time>2026-04-11T14:47:48.001Z</time></trkpt><trkpt lat="36.72068692139225" lon="15.049756750876119"><ele>26.333333333333336</ele><time>2026-04-11T14:47:49.001Z</time></trkpt><trkpt lat="36.72058458223867" lon="15.049588715896382"><ele>25.0</ele><time>2026-04-11T14:47:50.001Z</time></trkpt><trkpt lat="36.72048878870077" lon="15.049427183576373"><ele>25.0</ele><time>2026-04-11T14:47:51.001Z</time></trkpt><trkpt lat="36.72038199722886" lon="15.049252393323473"><ele>25.0</ele><time>2026-04-11T14:47:52.001Z</time></trkpt><trkpt lat="36.72027412614093" lon="15.049081974924759"><ele>25.0</ele><time>2026-04-11T14:47:53.001Z</time></trkpt><trkpt lat="36.72014953406806" lon="15.048918803319408"><ele>25.0</ele><time>2026-04-11T14:47:54.001Z</time></trkpt><trkpt lat="36.72000878730061" lon="15.048770717052417"><ele>25.0</ele><time>2026-04-11T14:47:55.001Z</time></trkpt><trkpt lat="36.71985799002646" lon="15.048627804295165"><ele>25.0</ele><time>2026-04-11T14:47:56.001Z</time></trkpt><trkpt lat="36.71970539514115" lon="15.048485624155438"><ele>25.0</ele><time>2026-04-11T14:47:57.001Z</time></trkpt><trkpt lat="36.71956559824109" lon="15.048354688508404"><ele>25.0</ele><time>2026-04-11T14:47:58.001Z</time></trkpt><trkpt lat="36.71943597351749" lon="15.048232854757057"><ele>25.0</ele><time>2026-04-11T14:47:59.001Z</time></trkpt><trkpt lat="36.71931308846629" lon="15.048099942644201"><ele>24.0</ele><time>2026-04-11T14:48:00.001Z</time></trkpt><trkpt lat="36.71916218318993" lon="15.048007849845161"><ele>23.0</ele><time>2026-04-11T14:48:01.001Z</time></trkpt><trkpt lat="36.719013566070615" lon="15.047902306418488"><ele>22.0</ele><time>2026-04-11T14:48:02.001Z</time></trkpt><trkpt lat="36.718860559578125" lon="15.047802417390896"><ele>22.0</ele><time>2026-04-11T14:48:03.001Z</time></trkpt><trkpt lat="36.718700792667164" lon="15.047705396559733"><ele>22.0</ele><time>2026-04-11T14:48:04.001Z</time></trkpt><trkpt lat="36.7185370578483" lon="15.047607302630942"><ele>22.0</ele><time>2026-04-11T14:48:05.001Z</time></trkpt><trkpt lat="36.71837423978693" lon="15.047505997011404"><ele>22.0</ele><time>2026-04-11T14:48:06.001Z</time></trkpt><trkpt lat="36.71820811043011" lon="15.047403798039921"><ele>22.0</ele><time>2026-04-11T14:48:07.001Z</time></trkpt><trkpt lat="36.718038225238544" lon="15.047298953866836"><ele>22.0</ele><time>2026-04-11T14:48:08.001Z</time></trkpt><trkpt lat="36.71788541936015" lon="15.047171477588881"><ele>22.0</ele><time>2026-04-11T14:48:09.001Z</time></trkpt><trkpt lat="36.71773865090644" lon="15.047074567656622"><ele>22.0</ele><time>2026-04-11T14:48:10.001Z</time></trkpt><trkpt lat="36.71760882947859" lon="15.046940138921483"><ele>22.0</ele><time>2026-04-11T14:48:11.001Z</time></trkpt><trkpt lat="36.71748763802006" lon="15.046794360886452"><ele>22.333333333333332</ele><time>2026-04-11T14:48:12.001Z</time></trkpt><trkpt lat="36.717382020331726" lon="15.046630722866981"><ele>22.666666666666668</ele><time>2026-04-11T14:48:13.001Z</time></trkpt><trkpt lat="36.71729313219056" lon="15.046411816451323"><ele>23.0</ele><time>2026-04-11T14:48:14.001Z</time></trkpt><trkpt lat="36.7172036481698" lon="15.046179703874607"><ele>22.0</ele><time>2026-04-11T14:48:15.001Z</time></trkpt><trkpt lat="36.71710840847521" lon="15.045971629488493"><ele>21.0</ele><time>2026-04-11T14:48:16.001Z</time></trkpt><trkpt lat="36.71701879359867" lon="15.045760032917117"><ele>20.0</ele><time>2026-04-11T14:48:17.001Z</time></trkpt><trkpt lat="36.71690181813292" lon="15.045556889662908"><ele>18.0</ele><time>2026-04-11T14:48:18.001Z</time></trkpt><trkpt lat="36.716768703732555" lon="15.045356497066342"><ele>16.0</ele><time>2026-04-11T14:48:19.001Z</time></trkpt><trkpt lat="36.716632080582826" lon="15.045146559764918"><ele>14.0</ele><time>2026-04-11T14:48:20.001Z</time></trkpt><trkpt lat="36.71652156157811" lon="15.044960511031272"><ele>13.333333333333334</ele><time>2026-04-11T14:48:21.001Z</time></trkpt><trkpt lat="36.71641268412812" lon="15.044770781359773"><ele>12.666666666666668</ele><time>2026-04-11T14:48:22.001Z</time></trkpt><trkpt lat="36.71631075221184" lon="15.044580840801604"><ele>12.0</ele><time>2026-04-11T14:48:23.001Z</time></trkpt><trkpt lat="36.71621749816405" lon="15.044379352966263"><ele>12.0</ele><time>2026-04-11T14:48:24.001Z</time></trkpt><trkpt lat="36.7161315953007" lon="15.044167222654607"><ele>12.0</ele><time>2026-04-11T14:48:25.001Z</time></trkpt><trkpt lat="36.71605522996911" lon="15.043950545377607"><ele>12.0</ele><time>2026-04-11T14:48:26.001Z</time></trkpt><trkpt lat="36.715992199252305" lon="15.043723824714544"><ele>11.666666666666666</ele><time>2026-04-11T14:48:27.001Z</time></trkpt><trkpt lat="36.71596774127869" lon="15.0434774040524"><ele>11.333333333333332</ele><time>2026-04-11T14:48:28.001Z</time></trkpt><trkpt lat="36.715913574829536" lon="15.043235632542569"><ele>11.0</ele><time>2026-04-11T14:48:29.001Z</time></trkpt><trkpt lat="36.715875743906686" lon="15.042981717813294"><ele>10.666666666666666</ele><time>2026-04-11T14:48:30.001Z</time></trkpt><trkpt lat="36.71581896145496" lon="15.042729276492537"><ele>10.333333333333334</ele><time>2026-04-11T14:48:31.001Z</time></trkpt><trkpt lat="36.71575058010868" lon="15.04248189887751"><ele>10.0</ele><time>2026-04-11T14:48:32.001Z</time></trkpt><trkpt lat="36.71568060420133" lon="15.04223465187862"><ele>10.0</ele><time>2026-04-11T14:48:33.001Z</time></trkpt><trkpt lat="36.71560977785393" lon="15.04199263360807"><ele>10.0</ele><time>2026-04-11T14:48:34.001Z</time></trkpt><trkpt lat="36.715534450611784" lon="15.041759526745384"><ele>10.0</ele><time>2026-04-11T14:48:35.001Z</time></trkpt><trkpt lat="36.71544722241542" lon="15.041540369897909"><ele>10.0</ele><time>2026-04-11T14:48:36.001Z</time></trkpt><trkpt lat="36.71533582717882" lon="15.041335092069968"><ele>10.0</ele><time>2026-04-11T14:48:37.001Z</time></trkpt><trkpt lat="36.715202396260196" lon="15.04114828129212"><ele>10.0</ele><time>2026-04-11T14:48:38.001Z</time></trkpt><trkpt lat="36.715059629222104" lon="15.04097061701963"><ele>9.666666666666668</ele><time>2026-04-11T14:48:39.001Z</time></trkpt><trkpt lat="36.71494079142457" lon="15.040770354734812"><ele>9.333333333333334</ele><time>2026-04-11T14:48:40.001Z</time></trkpt><trkpt lat="36.71482995014989" lon="15.04057967601353"><ele>9.0</ele><time>2026-04-11T14:48:41.001Z</time></trkpt><trkpt lat="36.71474980003417" lon="15.040365379876903"><ele>9.0</ele><time>2026-04-11T14:48:42.001Z</time></trkpt><trkpt lat="36.71469269251472" lon="15.040122972972116"><ele>9.0</ele><time>2026-04-11T14:48:43.001Z</time></trkpt><trkpt lat="36.71466629971177" lon="15.039873907244878"><ele>9.0</ele><time>2026-04-11T14:48:44.001Z</time></trkpt><trkpt lat="36.71465357094644" lon="15.039632241558998"><ele>8.666666666666666</ele><time>2026-04-11T14:48:45.001Z</time></trkpt><trkpt lat="36.71463051828748" lon="15.039423277425557"><ele>8.333333333333332</ele><time>2026-04-11T14:48:46.001Z</time></trkpt><trkpt lat="36.71461650557881" lon="15.039239466646453"><ele>8.0</ele><time>2026-04-11T14:48:47.001Z</time></trkpt><trkpt lat="36.714571889163636" lon="15.03904428187501"><ele>8.0</ele><time>2026-04-11T14:48:48.001Z</time></trkpt><trkpt lat="36.71449286373154" lon="15.038837367677383"><ele>8.0</ele><time>2026-04-11T14:48:49.001Z</time></trkpt><trkpt lat="36.71439392548827" lon="15.038633046842028"><ele>8.0</ele><time>2026-04-11T14:48:50.001Z</time></trkpt><trkpt lat="36.714277947904314" lon="15.03842330305298"><ele>8.333333333333332</ele><time>2026-04-11T14:48:51.001Z</time></trkpt><trkpt lat="36.714158412362735" lon="15.03822565201427"><ele>8.666666666666666</ele><time>2026-04-11T14:48:52.001Z</time></trkpt><trkpt lat="36.71406494127013" lon="15.038065479441778"><ele>9.0</ele><time>2026-04-11T14:48:53.001Z</time></trkpt><trkpt lat="36.71398968858579" lon="15.037935009751363"><ele>9.0</ele><time>2026-04-11T14:48:54.002Z</time></trkpt><trkpt lat="36.71393306117898" lon="15.03783098692909"><ele>9.0</ele><time>2026-04-11T14:48:55.002Z</time></trkpt><trkpt lat="36.71389240969076" lon="15.037738354863365"><ele>9.0</ele><time>2026-04-11T14:48:56.002Z</time></trkpt><trkpt lat="36.71387524567375" lon="15.03759032775176"><ele>9.0</ele><time>2026-04-11T14:48:58.002Z</time></trkpt><trkpt lat="36.71394792476161" lon="15.03744609593376"><ele>9.0</ele><time>2026-04-11T14:49:00.002Z</time></trkpt><trkpt lat="36.71404366936802" lon="15.037401821166974"><ele>8.75</ele><time>2026-04-11T14:49:01.002Z</time></trkpt><trkpt lat="36.71416675415285" lon="15.037303301774477"><ele>8.5</ele><time>2026-04-11T14:49:02.002Z</time></trkpt><trkpt lat="36.714297598958304" lon="15.037195004488156"><ele>8.25</ele><time>2026-04-11T14:49:03.002Z</time></trkpt><trkpt lat="36.71441920253525" lon="15.03710177239584"><ele>8.0</ele><time>2026-04-11T14:49:04.002Z</time></trkpt><trkpt lat="36.71453057726712" lon="15.037019451617025"><ele>7.666666666666666</ele><time>2026-04-11T14:49:05.002Z</time></trkpt><trkpt lat="36.71462824999103" lon="15.03694578535014"><ele>7.333333333333333</ele><time>2026-04-11T14:49:06.002Z</time></trkpt><trkpt lat="36.714705249539406" lon="15.036863066426536"><ele>7.0</ele><time>2026-04-11T14:49:07.002Z</time></trkpt><trkpt lat="36.71477901517605" lon="15.03681120401312"><ele>6.666666666666666</ele><time>2026-04-11T14:49:08.002Z</time></trkpt><trkpt lat="36.71484342467743" lon="15.036760224697645"><ele>6.333333333333333</ele><time>2026-04-11T14:49:09.001Z</time></trkpt><trkpt lat="36.71489155314753" lon="15.036703053670436"><ele>6.0</ele><time>2026-04-11T14:49:10.001Z</time></trkpt><trkpt lat="36.71492144880266" lon="15.036630659468385"><ele>6.0</ele><time>2026-04-11T14:49:11.001Z</time></trkpt><trkpt lat="36.71492716677827" lon="15.03653433094083"><ele>6.0</ele><time>2026-04-11T14:49:12.001Z</time></trkpt><trkpt lat="36.7148999644562" lon="15.036423700541436"><ele>6.0</ele><time>2026-04-11T14:49:13.001Z</time></trkpt><trkpt lat="36.71484128243545" lon="15.036284179884744"><ele>6.0</ele><time>2026-04-11T14:49:14.001Z</time></trkpt><trkpt lat="36.714753984016696" lon="15.036111659821021"><ele>6.0</ele><time>2026-04-11T14:49:15.001Z</time></trkpt><trkpt lat="36.714662097452035" lon="15.035887258803147"><ele>6.0</ele><time>2026-04-11T14:49:16.001Z</time></trkpt><trkpt lat="36.71455771791377" lon="15.035626780895354"><ele>6.0</ele><time>2026-04-11T14:49:17.001Z</time></trkpt><trkpt lat="36.71446114496452" lon="15.035371697598595"><ele>5.666666666666667</ele><time>2026-04-11T14:49:18.001Z</time></trkpt><trkpt lat="36.71438372452415" lon="15.035138032658448"><ele>5.333333333333334</ele><time>2026-04-11T14:49:19.001Z</time></trkpt><trkpt lat="36.714313741654664" lon="15.03489316969467"><ele>5.0</ele><time>2026-04-11T14:49:20.001Z</time></trkpt><trkpt lat="36.71425170130969" lon="15.03463916389617"><ele>5.0</ele><time>2026-04-11T14:49:21.001Z</time></trkpt><trkpt lat="36.714191693058964" lon="15.034371070682951"><ele>5.0</ele><time>2026-04-11T14:49:22.001Z</time></trkpt><trkpt lat="36.714143152981485" lon="15.03410878310068"><ele>5.0</ele><time>2026-04-11T14:49:23.001Z</time></trkpt><trkpt lat="36.714095806843076" lon="15.033841842184"><ele>4.666666666666667</ele><time>2026-04-11T14:49:24.001Z</time></trkpt><trkpt lat="36.71403652250609" lon="15.033579557932278"><ele>4.333333333333333</ele><time>2026-04-11T14:49:25.001Z</time></trkpt><trkpt lat="36.7139939710439" lon="15.033317600546775"><ele>4.0</ele><time>2026-04-11T14:49:26.001Z</time></trkpt><trkpt lat="36.71395228859615" lon="15.033080654783404"><ele>4.0</ele><time>2026-04-11T14:49:27.001Z</time></trkpt><trkpt lat="36.71391178395454" lon="15.032864987947443"><ele>4.0</ele><time>2026-04-11T14:49:28.001Z</time></trkpt><trkpt lat="36.71387462598154" lon="15.032665573904316"><ele>4.0</ele><time>2026-04-11T14:49:29.001Z</time></trkpt><trkpt lat="36.71384265313235" lon="15.032458011278393"><ele>4.0</ele><time>2026-04-11T14:49:30.001Z</time></trkpt><trkpt lat="36.71381712738908" lon="15.0322426646289"><ele>4.0</ele><time>2026-04-11T14:49:31.001Z</time></trkpt><trkpt lat="36.71379996126215" lon="15.032013198512054"><ele>4.0</ele><time>2026-04-11T14:49:32.001Z</time></trkpt><trkpt lat="36.713797752815026" lon="15.03176915777921"><ele>3.6666666666666665</ele><time>2026-04-11T14:49:33.001Z</time></trkpt><trkpt lat="36.71380689716861" lon="15.031505689593125"><ele>3.333333333333333</ele><time>2026-04-11T14:49:34.001Z</time></trkpt><trkpt lat="36.71382611112259" lon="15.03122612886324"><ele>3.0</ele><time>2026-04-11T14:49:35.001Z</time></trkpt><trkpt lat="36.71384785209431" lon="15.030943294676646"><ele>2.6666666666666665</ele><time>2026-04-11T14:49:36.001Z</time></trkpt><trkpt lat="36.71386491177672" lon="15.03066658582893"><ele>2.333333333333333</ele><time>2026-04-11T14:49:37.001Z</time></trkpt><trkpt lat="36.71387671731824" lon="15.030415141785156"><ele>2.0</ele><time>2026-04-11T14:49:38.001Z</time></trkpt><trkpt lat="36.71388633285165" lon="15.030181029792555"><ele>1.6666666666666665</ele><time>2026-04-11T14:49:39.001Z</time></trkpt><trkpt lat="36.71390118397332" lon="15.029955686770391"><ele>1.3333333333333333</ele><time>2026-04-11T14:49:40.001Z</time></trkpt><trkpt lat="36.7139413493137" lon="15.029742870120195"><ele>1.0</ele><time>2026-04-11T14:49:41.001Z</time></trkpt><trkpt lat="36.71396701455107" lon="15.029497886990827"><ele>1.0</ele><time>2026-04-11T14:49:42.001Z</time></trkpt><trkpt lat="36.71402449223676" lon="15.029290056401916"><ele>1.0</ele><time>2026-04-11T14:49:43.001Z</time></trkpt><trkpt lat="36.71408208452826" lon="15.029100874123596"><ele>1.0</ele><time>2026-04-11T14:49:44.001Z</time></trkpt><trkpt lat="36.7141227903931" lon="15.028913184556627"><ele>1.25</ele><time>2026-04-11T14:49:45.001Z</time></trkpt><trkpt lat="36.71413070178881" lon="15.028728418541645"><ele>1.5</ele><time>2026-04-11T14:49:46.001Z</time></trkpt><trkpt lat="36.714106493334086" lon="15.028546187661108"><ele>1.75</ele><time>2026-04-11T14:49:47.001Z</time></trkpt><trkpt lat="36.71404724376336" lon="15.028377000884436"><ele>2.0</ele><time>2026-04-11T14:49:48.001Z</time></trkpt><trkpt lat="36.71395952655082" lon="15.02819983506467"><ele>2.0</ele><time>2026-04-11T14:49:49.001Z</time></trkpt><trkpt lat="36.71384368695769" lon="15.028002212611106"><ele>2.0</ele><time>2026-04-11T14:49:50.001Z</time></trkpt><trkpt lat="36.71371073976933" lon="15.027778057172174"><ele>2.0</ele><time>2026-04-11T14:49:51.001Z</time></trkpt><trkpt lat="36.71356813289842" lon="15.02752275636563"><ele>2.0</ele><time>2026-04-11T14:49:52.001Z</time></trkpt><trkpt lat="36.713411611474" lon="15.027244136758167"><ele>2.0</ele><time>2026-04-11T14:49:53.001Z</time></trkpt><trkpt lat="36.713251922329654" lon="15.026962854742314"><ele>2.0</ele><time>2026-04-11T14:49:54.001Z</time></trkpt><trkpt lat="36.71310981896005" lon="15.026708030873758"><ele>2.0</ele><time>2026-04-11T14:49:55.001Z</time></trkpt><trkpt lat="36.712972002771636" lon="15.02646579420142"><ele>2.0</ele><time>2026-04-11T14:49:56.001Z</time></trkpt><trkpt lat="36.71284001774168" lon="15.026231071205967"><ele>2.0</ele><time>2026-04-11T14:49:57.001Z</time></trkpt><trkpt lat="36.71271348976385" lon="15.026002195212977"><ele>1.6666666666666665</ele><time>2026-04-11T14:49:58.001Z</time></trkpt><trkpt lat="36.71258799356191" lon="15.025775811631929"><ele>1.3333333333333333</ele><time>2026-04-11T14:49:59.001Z</time></trkpt><trkpt lat="36.71246067771612" lon="15.025550390902774"><ele>1.0</ele><time>2026-04-11T14:50:00.001Z</time></trkpt><trkpt lat="36.71233106195686" lon="15.0253184381984"><ele>1.0</ele><time>2026-04-11T14:50:01.001Z</time></trkpt><trkpt lat="36.712211046981935" lon="15.02508004504748"><ele>1.0</ele><time>2026-04-11T14:50:02.001Z</time></trkpt><trkpt lat="36.71210532948099" lon="15.024846519278803"><ele>1.0</ele><time>2026-04-11T14:50:03.001Z</time></trkpt><trkpt lat="36.71200937392129" lon="15.024634879328488"><ele>1.0</ele><time>2026-04-11T14:50:04.001Z</time></trkpt><trkpt lat="36.71192436151724" lon="15.024443145808654"><ele>1.0</ele><time>2026-04-11T14:50:05.001Z</time></trkpt><trkpt lat="36.7118520340628" lon="15.02423021392981"><ele>1.0</ele><time>2026-04-11T14:50:06.001Z</time></trkpt><trkpt lat="36.7118125549154" lon="15.023968712565457"><ele>2.0</ele><time>2026-04-11T14:50:07.001Z</time></trkpt><trkpt lat="36.71174784301979" lon="15.0236850525848"><ele>3.0</ele><time>2026-04-11T14:50:08.001Z</time></trkpt><trkpt lat="36.7116976868726" lon="15.023399227650673"><ele>2.5</ele><time>2026-04-11T14:50:09.001Z</time></trkpt><trkpt lat="36.71164824208805" lon="15.02311263070344"><ele>2.0</ele><time>2026-04-11T14:50:10.001Z</time></trkpt><trkpt lat="36.71160418157928" lon="15.022836369318096"><ele>2.0</ele><time>2026-04-11T14:50:11.001Z</time></trkpt><trkpt lat="36.7115676176695" lon="15.022580336062736"><ele>2.0</ele><time>2026-04-11T14:50:12.001Z</time></trkpt><trkpt lat="36.71153801247536" lon="15.022355092974824"><ele>2.0</ele><time>2026-04-11T14:50:13.001Z</time></trkpt><trkpt lat="36.711513503739035" lon="15.022155619754642"><ele>2.0</ele><time>2026-04-11T14:50:14.001Z</time></trkpt><trkpt lat="36.71149112793523" lon="15.021981947438904"><ele>2.0</ele><time>2026-04-11T14:50:15.001Z</time></trkpt><trkpt lat="36.71146923766257" lon="15.021828950257524"><ele>2.0</ele><time>2026-04-11T14:50:16.001Z</time></trkpt><trkpt lat="36.711450828237325" lon="15.021686428573787"><ele>2.0</ele><time>2026-04-11T14:50:17.001Z</time></trkpt><trkpt lat="36.71146024555271" lon="15.021550780307502"><ele>2.4000000000000004</ele><time>2026-04-11T14:50:18.001Z</time></trkpt><trkpt lat="36.711461522825" lon="15.021412545764946"><ele>2.8000000000000003</ele><time>2026-04-11T14:50:19.001Z</time></trkpt><trkpt lat="36.71143803176243" lon="15.021286910889627"><ele>3.2</ele><time>2026-04-11T14:50:20.001Z</time></trkpt><trkpt lat="36.71136861835849" lon="15.021198118181074"><ele>3.6</ele><time>2026-04-11T14:50:21.001Z</time></trkpt><trkpt lat="36.71130518100664" lon="15.021131658248292"><ele>4.0</ele><time>2026-04-11T14:50:22.001Z</time></trkpt><trkpt lat="36.71122150355358" lon="15.021087183189335"><ele>4.0</ele><time>2026-04-11T14:50:23.001Z</time></trkpt><trkpt lat="36.71109142224278" lon="15.021054831901248"><ele>4.0</ele><time>2026-04-11T14:50:24.001Z</time></trkpt><trkpt lat="36.710924763912764" lon="15.02102455235415"><ele>4.0</ele><time>2026-04-11T14:50:25.001Z</time></trkpt><trkpt lat="36.71074206412768" lon="15.020956345991456"><ele>3.0</ele><time>2026-04-11T14:50:26.001Z</time></trkpt><trkpt lat="36.71053318835584" lon="15.020880735162509"><ele>2.0</ele><time>2026-04-11T14:50:27.001Z</time></trkpt><trkpt lat="36.710303142626714" lon="15.020819942771004"><ele>2.5</ele><time>2026-04-11T14:50:28.001Z</time></trkpt><trkpt lat="36.71006967716266" lon="15.020733841463988"><ele>3.0</ele><time>2026-04-11T14:50:29.001Z</time></trkpt><trkpt lat="36.70985142061679" lon="15.020651826406924"><ele>3.0</ele><time>2026-04-11T14:50:30.001Z</time></trkpt><trkpt lat="36.70963360839517" lon="15.020573229520325"><ele>3.0</ele><time>2026-04-11T14:50:31.001Z</time></trkpt><trkpt lat="36.70941930818265" lon="15.020498909561006"><ele>3.0</ele><time>2026-04-11T14:50:32.001Z</time></trkpt><trkpt lat="36.709225351855736" lon="15.020428515198423"><ele>3.0</ele><time>2026-04-11T14:50:33.001Z</time></trkpt><trkpt lat="36.70903269858343" lon="15.020354579821896"><ele>3.0</ele><time>2026-04-11T14:50:34.001Z</time></trkpt><trkpt lat="36.70885155483743" lon="15.02028398799716"><ele>3.0</ele><time>2026-04-11T14:50:35.001Z</time></trkpt><trkpt lat="36.70867980206475" lon="15.020218354731943"><ele>2.6666666666666665</ele><time>2026-04-11T14:50:36.001Z</time></trkpt><trkpt lat="36.708513553774495" lon="15.020157718089365"><ele>2.333333333333333</ele><time>2026-04-11T14:50:37.001Z</time></trkpt><trkpt lat="36.7083611101792" lon="15.020097569909646"><ele>2.0</ele><time>2026-04-11T14:50:38.001Z</time></trkpt><trkpt lat="36.70823299983434" lon="15.02003085939239"><ele>2.0</ele><time>2026-04-11T14:50:39.001Z</time></trkpt><trkpt lat="36.70812014480073" lon="15.019944066763594"><ele>2.0</ele><time>2026-04-11T14:50:40.001Z</time></trkpt><trkpt lat="36.70801736626907" lon="15.01980630439244"><ele>2.0</ele><time>2026-04-11T14:50:41.001Z</time></trkpt><trkpt lat="36.70790193425723" lon="15.019661333143587"><ele>2.0</ele><time>2026-04-11T14:50:42.001Z</time></trkpt><trkpt lat="36.70780599632161" lon="15.019528634448939"><ele>2.0</ele><time>2026-04-11T14:50:43.001Z</time></trkpt><trkpt lat="36.707706956755516" lon="15.019400549469164"><ele>2.0</ele><time>2026-04-11T14:50:44.001Z</time></trkpt><trkpt lat="36.70765017108345" lon="15.01919813602271"><ele>2.0</ele><time>2026-04-11T14:50:45.001Z</time></trkpt><trkpt lat="36.70757730900846" lon="15.018964479723405"><ele>2.0</ele><time>2026-04-11T14:50:46.001Z</time></trkpt><trkpt lat="36.70748882237722" lon="15.018697591241638"><ele>2.0</ele><time>2026-04-11T14:50:47.001Z</time></trkpt><trkpt lat="36.70738239349982" lon="15.018427058395838"><ele>2.5</ele><time>2026-04-11T14:50:48.001Z</time></trkpt><trkpt lat="36.70728415371765" lon="15.018125672738234"><ele>3.0</ele><time>2026-04-11T14:50:49.001Z</time></trkpt><trkpt lat="36.70717993910839" lon="15.017813284959836"><ele>3.0</ele><time>2026-04-11T14:50:50.001Z</time></trkpt><trkpt lat="36.70708124914059" lon="15.017526918515381"><ele>3.0</ele><time>2026-04-11T14:50:51.001Z</time></trkpt><trkpt lat="36.706994748257216" lon="15.0172703963331"><ele>3.0</ele><time>2026-04-11T14:50:52.001Z</time></trkpt><trkpt lat="36.706913530245146" lon="15.017026397192533"><ele>3.0</ele><time>2026-04-11T14:50:53.001Z</time></trkpt><trkpt lat="36.70683712998879" lon="15.01679459638285"><ele>3.0</ele><time>2026-04-11T14:50:54.001Z</time></trkpt><trkpt lat="36.70676300550513" lon="15.016574992847936"><ele>3.0</ele><time>2026-04-11T14:50:55.001Z</time></trkpt><trkpt lat="36.706683737887154" lon="15.016346039213316"><ele>3.0</ele><time>2026-04-11T14:50:56.001Z</time></trkpt><trkpt lat="36.70660492522368" lon="15.016119469775479"><ele>3.0</ele><time>2026-04-11T14:50:57.001Z</time></trkpt><trkpt lat="36.70652389271348" lon="15.015885469120686"><ele>2.6666666666666665</ele><time>2026-04-11T14:50:58.001Z</time></trkpt><trkpt lat="36.70644841299447" lon="15.015661924561503"><ele>2.333333333333333</ele><time>2026-04-11T14:50:59.001Z</time></trkpt><trkpt lat="36.70637195482228" lon="15.015432829064265"><ele>2.0</ele><time>2026-04-11T14:51:00.001Z</time></trkpt><trkpt lat="36.70629807842802" lon="15.015213611763444"><ele>2.0</ele><time>2026-04-11T14:51:01.001Z</time></trkpt><trkpt lat="36.70622520457177" lon="15.014992209834183"><ele>2.0</ele><time>2026-04-11T14:51:02.001Z</time></trkpt><trkpt lat="36.70615250207837" lon="15.014773561320283"><ele>2.0</ele><time>2026-04-11T14:51:03.001Z</time></trkpt><trkpt lat="36.706082011795075" lon="15.01455852459109"><ele>2.0</ele><time>2026-04-11T14:51:04.001Z</time></trkpt><trkpt lat="36.70601623081916" lon="15.014344477991514"><ele>2.0</ele><time>2026-04-11T14:51:05.001Z</time></trkpt><trkpt lat="36.705978457318665" lon="15.014122750538084"><ele>2.0</ele><time>2026-04-11T14:51:06.001Z</time></trkpt><trkpt lat="36.70595649945709" lon="15.013885429442176"><ele>2.0</ele><time>2026-04-11T14:51:07.001Z</time></trkpt><trkpt lat="36.705945209249165" lon="15.013639230766492"><ele>2.0</ele><time>2026-04-11T14:51:08.001Z</time></trkpt><trkpt lat="36.705924857763414" lon="15.013412102417083"><ele>2.0</ele><time>2026-04-11T14:51:09.001Z</time></trkpt><trkpt lat="36.70592108412765" lon="15.013202805737487"><ele>2.0</ele><time>2026-04-11T14:51:10.001Z</time></trkpt><trkpt lat="36.70591558416489" lon="15.01300983639433"><ele>2.0</ele><time>2026-04-11T14:51:11.001Z</time></trkpt><trkpt lat="36.70590960150961" lon="15.01283854777447"><ele>2.0</ele><time>2026-04-11T14:51:12.001Z</time></trkpt><trkpt lat="36.705904449386395" lon="15.012677596692562"><ele>2.0</ele><time>2026-04-11T14:51:13.001Z</time></trkpt><trkpt lat="36.70592465729499" lon="15.012508528263837"><ele>2.333333333333333</ele><time>2026-04-11T14:51:14.001Z</time></trkpt><trkpt lat="36.70595192668825" lon="15.012332006185654"><ele>2.6666666666666665</ele><time>2026-04-11T14:51:15.001Z</time></trkpt><trkpt lat="36.705983805809794" lon="15.01213580034399"><ele>3.0</ele><time>2026-04-11T14:51:16.001Z</time></trkpt><trkpt lat="36.706027851702" lon="15.01195609981003"><ele>3.0</ele><time>2026-04-11T14:51:17.001Z</time></trkpt><trkpt lat="36.70606492297871" lon="15.011810266061506"><ele>3.0</ele><time>2026-04-11T14:51:18.001Z</time></trkpt><trkpt lat="36.70609735892738" lon="15.011658364518002"><ele>3.0</ele><time>2026-04-11T14:51:19.001Z</time></trkpt><trkpt lat="36.70613449965487" lon="15.011484960480372"><ele>3.0</ele><time>2026-04-11T14:51:20.001Z</time></trkpt><trkpt lat="36.70617663122766" lon="15.011298568856175"><ele>3.0</ele><time>2026-04-11T14:51:21.001Z</time></trkpt><trkpt lat="36.706221109848116" lon="15.011104749922165"><ele>3.0</ele><time>2026-04-11T14:51:22.001Z</time></trkpt><trkpt lat="36.706264414221415" lon="15.010908302171567"><ele>3.0</ele><time>2026-04-11T14:51:23.001Z</time></trkpt><trkpt lat="36.70630433188661" lon="15.010714796027912"><ele>3.0</ele><time>2026-04-11T14:51:24.001Z</time></trkpt><trkpt lat="36.70633945598867" lon="15.010540705221079"><ele>3.0</ele><time>2026-04-11T14:51:25.001Z</time></trkpt><trkpt lat="36.706372865113494" lon="15.01037637092884"><ele>3.0</ele><time>2026-04-11T14:51:26.001Z</time></trkpt><trkpt lat="36.70643313134147" lon="15.01021366201869"><ele>3.0</ele><time>2026-04-11T14:51:27.001Z</time></trkpt><trkpt lat="36.70648328203186" lon="15.010044438796312"><ele>2.6666666666666665</ele><time>2026-04-11T14:51:28.001Z</time></trkpt><trkpt lat="36.706546180663125" lon="15.009875102376016"><ele>2.333333333333333</ele><time>2026-04-11T14:51:29.001Z</time></trkpt><trkpt lat="36.706603660241385" lon="15.009699366612297"><ele>2.0</ele><time>2026-04-11T14:51:30.001Z</time></trkpt><trkpt lat="36.70668071667818" lon="15.009528098722969"><ele>2.0</ele><time>2026-04-11T14:51:31.001Z</time></trkpt><trkpt lat="36.70675829409163" lon="15.009353444314513"><ele>2.0</ele><time>2026-04-11T14:51:32.001Z</time></trkpt><trkpt lat="36.706831079261974" lon="15.009187884649743"><ele>2.0</ele><time>2026-04-11T14:51:33.001Z</time></trkpt><trkpt lat="36.70690341017805" lon="15.009026630735967"><ele>2.0</ele><time>2026-04-11T14:51:34.001Z</time></trkpt><trkpt lat="36.706975725526775" lon="15.008873379378691"><ele>2.0</ele><time>2026-04-11T14:51:35.001Z</time></trkpt><trkpt lat="36.70704343980533" lon="15.008726594420004"><ele>2.0</ele><time>2026-04-11T14:51:36.001Z</time></trkpt><trkpt lat="36.707102019145054" lon="15.008586010134112"><ele>2.0</ele><time>2026-04-11T14:51:37.001Z</time></trkpt><trkpt lat="36.70714773991058" lon="15.008443455553795"><ele>1.75</ele><time>2026-04-11T14:51:38.001Z</time></trkpt><trkpt lat="36.707186055447075" lon="15.008296726451904"><ele>1.5</ele><time>2026-04-11T14:51:39.001Z</time></trkpt><trkpt lat="36.70721883774567" lon="15.00813966693685"><ele>1.25</ele><time>2026-04-11T14:51:40.001Z</time></trkpt><trkpt lat="36.70725325235376" lon="15.007982780421722"><ele>1.0</ele><time>2026-04-11T14:51:41.001Z</time></trkpt><trkpt lat="36.707285169753426" lon="15.007828620325895"><ele>1.0</ele><time>2026-04-11T14:51:42.001Z</time></trkpt><trkpt lat="36.70731106616284" lon="15.007667259112447"><ele>1.0</ele><time>2026-04-11T14:51:43.001Z</time></trkpt><trkpt lat="36.707331905628514" lon="15.007503306791836"><ele>1.0</ele><time>2026-04-11T14:51:44.001Z</time></trkpt><trkpt lat="36.707347289748995" lon="15.007333382019985"><ele>1.0</ele><time>2026-04-11T14:51:45.001Z</time></trkpt><trkpt lat="36.70735894783181" lon="15.007156827865996"><ele>1.3333333333333333</ele><time>2026-04-11T14:51:46.001Z</time></trkpt><trkpt lat="36.70736963632194" lon="15.006972601792741"><ele>1.6666666666666665</ele><time>2026-04-11T14:51:47.001Z</time></trkpt><trkpt lat="36.70738334229115" lon="15.006782195194873"><ele>2.0</ele><time>2026-04-11T14:51:48.001Z</time></trkpt><trkpt lat="36.707398340357614" lon="15.006582947048212"><ele>2.0</ele><time>2026-04-11T14:51:49.001Z</time></trkpt><trkpt lat="36.70741296045261" lon="15.006377742073285"><ele>2.0</ele><time>2026-04-11T14:51:50.001Z</time></trkpt><trkpt lat="36.70742823247652" lon="15.006164125298685"><ele>2.0</ele><time>2026-04-11T14:51:51.001Z</time></trkpt><trkpt lat="36.707442551055685" lon="15.005947477902485"><ele>2.0</ele><time>2026-04-11T14:51:52.001Z</time></trkpt><trkpt lat="36.70746038375697" lon="15.005729675088086"><ele>2.0</ele><time>2026-04-11T14:51:53.001Z</time></trkpt><trkpt lat="36.707475049890036" lon="15.005500703371377"><ele>2.0</ele><time>2026-04-11T14:51:54.001Z</time></trkpt><trkpt lat="36.7074914454984" lon="15.005275358750088"><ele>2.0</ele><time>2026-04-11T14:51:55.001Z</time></trkpt><trkpt lat="36.707508849467445" lon="15.00504646010088"><ele>2.0</ele><time>2026-04-11T14:51:56.001Z</time></trkpt><trkpt lat="36.70752532916622" lon="15.004819824507624"><ele>2.0</ele><time>2026-04-11T14:51:57.001Z</time></trkpt><trkpt lat="36.7075409439057" lon="15.004598692780457"><ele>2.0</ele><time>2026-04-11T14:51:58.001Z</time></trkpt><trkpt lat="36.707550935614236" lon="15.004393470664203"><ele>2.0</ele><time>2026-04-11T14:51:59.001Z</time></trkpt><trkpt lat="36.70758028897992" lon="15.004203377553637"><ele>2.0</ele><time>2026-04-11T14:52:00.001Z</time></trkpt><trkpt lat="36.70759462016344" lon="15.003963806583439"><ele>2.25</ele><time>2026-04-11T14:52:01.001Z</time></trkpt><trkpt lat="36.707604005481166" lon="15.003787798917111"><ele>2.5</ele><time>2026-04-11T14:52:02.001Z</time></trkpt><trkpt lat="36.707620170605" lon="15.003601650874932"><ele>2.75</ele><time>2026-04-11T14:52:03.001Z</time></trkpt><trkpt lat="36.707632610528236" lon="15.003423098346524"><ele>3.0</ele><time>2026-04-11T14:52:04.001Z</time></trkpt><trkpt lat="36.707667032880494" lon="15.00327124461403"><ele>2.25</ele><time>2026-04-11T14:52:05.001Z</time></trkpt><trkpt lat="36.707707424469355" lon="15.003102482949334"><ele>1.5</ele><time>2026-04-11T14:52:06.001Z</time></trkpt><trkpt lat="36.707754053140086" lon="15.00293511078855"><ele>0.75</ele><time>2026-04-11T14:52:07.001Z</time></trkpt><trkpt lat="36.707789202610705" lon="15.002782565763992"><ele>0.0</ele><time>2026-04-11T14:52:08.001Z</time></trkpt><trkpt lat="36.70784395907523" lon="15.00265525044023"><ele>-0.2</ele><time>2026-04-11T14:52:09.001Z</time></trkpt><trkpt lat="36.70788693914598" lon="15.002546302617363"><ele>-0.4</ele><time>2026-04-11T14:52:10.001Z</time></trkpt><trkpt lat="36.707921901710634" lon="15.002438099455844"><ele>-0.6000000000000001</ele><time>2026-04-11T14:52:11.001Z</time></trkpt><trkpt lat="36.707958582552585" lon="15.002309549354871"><ele>-0.8</ele><time>2026-04-11T14:52:12.001Z</time></trkpt><trkpt lat="36.70800107771549" lon="15.002169115198127"><ele>-1.0</ele><time>2026-04-11T14:52:13.001Z</time></trkpt><trkpt lat="36.70803555382673" lon="15.002022168419868"><ele>-1.0</ele><time>2026-04-11T14:52:14.001Z</time></trkpt><trkpt lat="36.7080570036982" lon="15.001883480067557"><ele>-1.0</ele><time>2026-04-11T14:52:15.001Z</time></trkpt><trkpt lat="36.70806305907772" lon="15.001744466673026"><ele>-1.0</ele><time>2026-04-11T14:52:16.001Z</time></trkpt><trkpt lat="36.70805776580205" lon="15.001614406523698"><ele>-1.0</ele><time>2026-04-11T14:52:17.001Z</time></trkpt><trkpt lat="36.70804564623009" lon="15.001483569986448"><ele>-1.0</ele><time>2026-04-11T14:52:18.001Z</time></trkpt><trkpt lat="36.70802643729809" lon="15.001354735093964"><ele>-1.0</ele><time>2026-04-11T14:52:19.001Z</time></trkpt><trkpt lat="36.7080001742017" lon="15.001234194671115"><ele>-1.0</ele><time>2026-04-11T14:52:20.001Z</time></trkpt><trkpt lat="36.707959837703676" lon="15.001119309636966"><ele>-1.0</ele><time>2026-04-11T14:52:21.001Z</time></trkpt><trkpt lat="36.707903763969846" lon="15.00100899525655"><ele>-1.0</ele><time>2026-04-11T14:52:22.001Z</time></trkpt><trkpt lat="36.707845689260985" lon="15.000909888043024"><ele>-1.0</ele><time>2026-04-11T14:52:23.001Z</time></trkpt><trkpt lat="36.707803838340844" lon="15.000831756236735"><ele>-1.25</ele><time>2026-04-11T14:52:24.001Z</time></trkpt><trkpt lat="36.70776260488184" lon="15.00075619147931"><ele>-1.5</ele><time>2026-04-11T14:52:25.001Z</time></trkpt><trkpt lat="36.70768001294507" lon="15.000614095222117"><ele>-1.75</ele><time>2026-04-11T14:52:27.001Z</time></trkpt><trkpt lat="36.707615304980614" lon="15.000458441089298"><ele>-2.0</ele><time>2026-04-11T14:52:29.001Z</time></trkpt><trkpt lat="36.70755010401503" lon="15.00033036205923"><ele>-2.25</ele><time>2026-04-11T14:52:30.001Z</time></trkpt><trkpt lat="36.70748557146799" lon="15.000203595819936"><ele>-2.5</ele><time>2026-04-11T14:52:31.001Z</time></trkpt><trkpt lat="36.707430582606314" lon="15.000095577407455"><ele>-2.75</ele><time>2026-04-11T14:52:32.001Z</time></trkpt><trkpt lat="36.707369755684425" lon="14.999974418359859"><ele>-3.0</ele><time>2026-04-11T14:52:33.001Z</time></trkpt><trkpt lat="36.70730498989007" lon="14.99984528969019"><ele>-3.0</ele><time>2026-04-11T14:52:34.001Z</time></trkpt><trkpt lat="36.707237506775144" lon="14.999710743538623"><ele>-3.0</ele><time>2026-04-11T14:52:35.001Z</time></trkpt><trkpt lat="36.70716382075778" lon="14.999591506162982"><ele>-3.0</ele><time>2026-04-11T14:52:36.001Z</time></trkpt><trkpt lat="36.70709869730821" lon="14.999460013845823"><ele>-3.0</ele><time>2026-04-11T14:52:37.001Z</time></trkpt><trkpt lat="36.70702692987345" lon="14.999308870719391"><ele>-2.0</ele><time>2026-04-11T14:52:38.001Z</time></trkpt><trkpt lat="36.70694819247633" lon="14.999144490799228"><ele>-1.0</ele><time>2026-04-11T14:52:39.001Z</time></trkpt><trkpt lat="36.70686051755014" lon="14.998975308823464"><ele>0.0</ele><time>2026-04-11T14:52:40.001Z</time></trkpt><trkpt lat="36.70677221073737" lon="14.99880859777621"><ele>0.3333333333333333</ele><time>2026-04-11T14:52:41.001Z</time></trkpt><trkpt lat="36.70668681716052" lon="14.998636623830341"><ele>0.6666666666666666</ele><time>2026-04-11T14:52:42.001Z</time></trkpt><trkpt lat="36.70659376281757" lon="14.9984488374951"><ele>1.0</ele><time>2026-04-11T14:52:43.001Z</time></trkpt><trkpt lat="36.706494827168925" lon="14.998258597314168"><ele>1.3333333333333333</ele><time>2026-04-11T14:52:44.001Z</time></trkpt><trkpt lat="36.706389833798724" lon="14.998059934970422"><ele>1.6666666666666665</ele><time>2026-04-11T14:52:45.001Z</time></trkpt><trkpt lat="36.706282966790546" lon="14.997855307767516"><ele>2.0</ele><time>2026-04-11T14:52:46.001Z</time></trkpt><trkpt lat="36.706188037914345" lon="14.997671217601619"><ele>2.0</ele><time>2026-04-11T14:52:47.001Z</time></trkpt><trkpt lat="36.706096042339944" lon="14.99749377436949"><ele>2.0</ele><time>2026-04-11T14:52:48.001Z</time></trkpt><trkpt lat="36.706009292867144" lon="14.997323655588264"><ele>2.0</ele><time>2026-04-11T14:52:49.001Z</time></trkpt><trkpt lat="36.705928778569984" lon="14.99716026898516"><ele>2.0</ele><time>2026-04-11T14:52:50.001Z</time></trkpt><trkpt lat="36.70586781870116" lon="14.997001563291349"><ele>2.0</ele><time>2026-04-11T14:52:51.001Z</time></trkpt><trkpt lat="36.7058217583261" lon="14.996824639640826"><ele>2.0</ele><time>2026-04-11T14:52:52.001Z</time></trkpt><trkpt lat="36.70579886231737" lon="14.996625251635194"><ele>2.0</ele><time>2026-04-11T14:52:53.001Z</time></trkpt><trkpt lat="36.70578895043347" lon="14.996404717996693"><ele>2.0</ele><time>2026-04-11T14:52:54.001Z</time></trkpt><trkpt lat="36.70578967340665" lon="14.996185383608685"><ele>2.0</ele><time>2026-04-11T14:52:55.001Z</time></trkpt><trkpt lat="36.7058023084687" lon="14.99599085466234"><ele>3.333333333333333</ele><time>2026-04-11T14:52:56.001Z</time></trkpt><trkpt lat="36.705823891247135" lon="14.995808696504012"><ele>4.666666666666667</ele><time>2026-04-11T14:52:57.001Z</time></trkpt><trkpt lat="36.70586490405726" lon="14.99562761310252"><ele>6.0</ele><time>2026-04-11T14:52:58.001Z</time></trkpt><trkpt lat="36.705921373188694" lon="14.995449056504329"><ele>6.0</ele><time>2026-04-11T14:52:59.001Z</time></trkpt><trkpt lat="36.706014169011354" lon="14.99529283659921"><ele>6.0</ele><time>2026-04-11T14:53:00.001Z</time></trkpt><trkpt lat="36.706110171191526" lon="14.99511339259305"><ele>6.0</ele><time>2026-04-11T14:53:01.001Z</time></trkpt><trkpt lat="36.70620381284846" lon="14.994914663109816"><ele>7.333333333333334</ele><time>2026-04-11T14:53:02.001Z</time></trkpt><trkpt lat="36.70631388676256" lon="14.994733316715468"><ele>8.666666666666668</ele><time>2026-04-11T14:53:03.001Z</time></trkpt><trkpt lat="36.7064260315498" lon="14.99454335999483"><ele>10.0</ele><time>2026-04-11T14:53:04.001Z</time></trkpt><trkpt lat="36.7065339940686" lon="14.994352455373672"><ele>11.0</ele><time>2026-04-11T14:53:05.001Z</time></trkpt><trkpt lat="36.706642067750536" lon="14.99415372273465"><ele>12.0</ele><time>2026-04-11T14:53:06.001Z</time></trkpt><trkpt lat="36.70674834858852" lon="14.99395194419376"><ele>13.0</ele><time>2026-04-11T14:53:07.001Z</time></trkpt><trkpt lat="36.706853411753" lon="14.993749920529378"><ele>13.666666666666666</ele><time>2026-04-11T14:53:08.001Z</time></trkpt><trkpt lat="36.7069643081294" lon="14.993547031151499"><ele>14.333333333333332</ele><time>2026-04-11T14:53:09.001Z</time></trkpt><trkpt lat="36.70707711981586" lon="14.993344025547353"><ele>15.0</ele><time>2026-04-11T14:53:10.001Z</time></trkpt><trkpt lat="36.70718918115109" lon="14.993137700474673"><ele>15.0</ele><time>2026-04-11T14:53:11.001Z</time></trkpt><trkpt lat="36.70729937250931" lon="14.992935654086144"><ele>15.0</ele><time>2026-04-11T14:53:12.001Z</time></trkpt><trkpt lat="36.707410259488114" lon="14.992735869005886"><ele>15.0</ele><time>2026-04-11T14:53:13.001Z</time></trkpt><trkpt lat="36.70752099644295" lon="14.992539221369002"><ele>15.333333333333332</ele><time>2026-04-11T14:53:14.001Z</time></trkpt><trkpt lat="36.70763314583927" lon="14.992339762580333"><ele>15.666666666666666</ele><time>2026-04-11T14:53:15.001Z</time></trkpt><trkpt lat="36.707740386007195" lon="14.992141834851632"><ele>16.0</ele><time>2026-04-11T14:53:16.001Z</time></trkpt><trkpt lat="36.70784727884918" lon="14.991948979986924"><ele>15.333333333333332</ele><time>2026-04-11T14:53:17.001Z</time></trkpt><trkpt lat="36.70794654104638" lon="14.991768777396501"><ele>14.666666666666668</ele><time>2026-04-11T14:53:18.001Z</time></trkpt><trkpt lat="36.70804058305455" lon="14.991599434210348"><ele>14.0</ele><time>2026-04-11T14:53:19.001Z</time></trkpt><trkpt lat="36.70812219499879" lon="14.991448582550065"><ele>14.666666666666668</ele><time>2026-04-11T14:53:20.001Z</time></trkpt><trkpt lat="36.70819118658327" lon="14.991323235326355"><ele>15.333333333333334</ele><time>2026-04-11T14:53:21.001Z</time></trkpt><trkpt lat="36.70824815881841" lon="14.99122032809998"><ele>16.0</ele><time>2026-04-11T14:53:22.001Z</time></trkpt><trkpt lat="36.708298470280994" lon="14.991131029526294"><ele>16.666666666666668</ele><time>2026-04-11T14:53:23.001Z</time></trkpt><trkpt lat="36.70833841249683" lon="14.991056432140862"><ele>17.333333333333332</ele><time>2026-04-11T14:53:24.001Z</time></trkpt><trkpt lat="36.708374568184894" lon="14.990987870148636"><ele>18.0</ele><time>2026-04-11T14:53:25.001Z</time></trkpt><trkpt lat="36.708450084942974" lon="14.990877806015304"><ele>18.0</ele><time>2026-04-11T14:53:27.001Z</time></trkpt><trkpt lat="36.70849823049827" lon="14.990789815607972"><ele>18.0</ele><time>2026-04-11T14:53:29.001Z</time></trkpt><trkpt lat="36.70831101451438" lon="14.99065621551036"><ele>18.0</ele><time>2026-04-11T14:53:31.001Z</time></trkpt><trkpt lat="36.708218706047504" lon="14.990652793600256"><ele>18.0</ele><time>2026-04-11T14:53:32.001Z</time></trkpt><trkpt lat="36.70811964891743" lon="14.990715905145272"><ele>18.0</ele><time>2026-04-11T14:53:33.001Z</time></trkpt><trkpt lat="36.707972985900184" lon="14.990673339474133"><ele>18.0</ele><time>2026-04-11T14:53:34.001Z</time></trkpt><trkpt lat="36.70782462522111" lon="14.990681057600089"><ele>18.0</ele><time>2026-04-11T14:53:35.001Z</time></trkpt><trkpt lat="36.707657756425775" lon="14.990692336100787"><ele>18.666666666666668</ele><time>2026-04-11T14:53:36.001Z</time></trkpt><trkpt lat="36.707483430397374" lon="14.990694078033398"><ele>19.333333333333336</ele><time>2026-04-11T14:53:37.001Z</time></trkpt><trkpt lat="36.707309845402214" lon="14.990684295689281"><ele>20.0</ele><time>2026-04-11T14:53:38.001Z</time></trkpt><trkpt lat="36.70713106599273" lon="14.990683045871483"><ele>20.0</ele><time>2026-04-11T14:53:39Z</time></trkpt><trkpt lat="36.706940111802346" lon="14.990688922433543"><ele>20.0</ele><time>2026-04-11T14:53:40Z</time></trkpt><trkpt lat="36.70674672806164" lon="14.990691388568965"><ele>20.0</ele><time>2026-04-11T14:53:41Z</time></trkpt><trkpt lat="36.70655457406364" lon="14.99069102982271"><ele>20.0</ele><time>2026-04-11T14:53:42Z</time></trkpt><trkpt lat="36.7063617330886" lon="14.990689067010818"><ele>20.0</ele><time>2026-04-11T14:53:43Z</time></trkpt><trkpt lat="36.706177930742605" lon="14.990686199589684"><ele>20.0</ele><time>2026-04-11T14:53:44Z</time></trkpt><trkpt lat="36.70600410142406" lon="14.99068811661993"><ele>19.666666666666668</ele><time>2026-04-11T14:53:45Z</time></trkpt><trkpt lat="36.705832396862036" lon="14.990688506023629"><ele>19.333333333333332</ele><time>2026-04-11T14:53:46Z</time></trkpt><trkpt lat="36.70566679051315" lon="14.990688928213162"><ele>19.0</ele><time>2026-04-11T14:53:47Z</time></trkpt><trkpt lat="36.705513609093785" lon="14.990690195434713"><ele>19.0</ele><time>2026-04-11T14:53:48Z</time></trkpt><trkpt lat="36.70537480127297" lon="14.990691013822618"><ele>19.0</ele><time>2026-04-11T14:53:49Z</time></trkpt><trkpt lat="36.705242802221086" lon="14.990694733513076"><ele>19.0</ele><time>2026-04-11T14:53:50Z</time></trkpt><trkpt lat="36.70512860548955" lon="14.990698923361075"><ele>19.0</ele><time>2026-04-11T14:53:51Z</time></trkpt><trkpt lat="36.705023472051415" lon="14.990697710281973"><ele>19.6</ele><time>2026-04-11T14:53:52Z</time></trkpt><trkpt lat="36.704925736731916" lon="14.99069761042765"><ele>20.2</ele><time>2026-04-11T14:53:53Z</time></trkpt><trkpt lat="36.7048314596212" lon="14.99070532652897"><ele>20.8</ele><time>2026-04-11T14:53:54Z</time></trkpt><trkpt lat="36.70473661075799" lon="14.990711834534766"><ele>21.400000000000002</ele><time>2026-04-11T14:53:55Z</time></trkpt><trkpt lat="36.704637843225434" lon="14.990711845355897"><ele>22.0</ele><time>2026-04-11T14:53:56Z</time></trkpt><trkpt lat="36.70453670001419" lon="14.990714734705449"><ele>22.0</ele><time>2026-04-11T14:53:57Z</time></trkpt><trkpt lat="36.704448490161816" lon="14.990720761321166"><ele>22.0</ele><time>2026-04-11T14:53:58Z</time></trkpt><trkpt lat="36.70437365347802" lon="14.990723358567257"><ele>22.0</ele><time>2026-04-11T14:53:59Z</time></trkpt><trkpt lat="36.70429915893701" lon="14.990726706201457"><ele>22.0</ele><time>2026-04-11T14:54:00Z</time></trkpt><trkpt lat="36.70421225432123" lon="14.990725672755907"><ele>22.0</ele><time>2026-04-11T14:54:01Z</time></trkpt><trkpt lat="36.70413971340902" lon="14.99072444003313"><ele>22.0</ele><time>2026-04-11T14:54:02Z</time></trkpt><trkpt lat="36.704057657947764" lon="14.990723583090322"><ele>21.8</ele><time>2026-04-11T14:54:03Z</time></trkpt><trkpt lat="36.70396034512354" lon="14.990723532115021"><ele>21.6</ele><time>2026-04-11T14:54:04Z</time></trkpt><trkpt lat="36.70385045948588" lon="14.990728532880484"><ele>21.400000000000002</ele><time>2026-04-11T14:54:05Z</time></trkpt><trkpt lat="36.70374463728402" lon="14.990732678537604"><ele>21.200000000000003</ele><time>2026-04-11T14:54:06Z</time></trkpt><trkpt lat="36.70363867241613" lon="14.9907351437041"><ele>21.0</ele><time>2026-04-11T14:54:07Z</time></trkpt><trkpt lat="36.70354267829606" lon="14.990736542134497"><ele>20.25</ele><time>2026-04-11T14:54:08Z</time></trkpt><trkpt lat="36.703431467759465" lon="14.990740378246908"><ele>19.5</ele><time>2026-04-11T14:54:09Z</time></trkpt><trkpt lat="36.70331404165936" lon="14.990742918428866"><ele>18.75</ele><time>2026-04-11T14:54:10Z</time></trkpt><trkpt lat="36.703182674134574" lon="14.990743835332923"><ele>18.0</ele><time>2026-04-11T14:54:11Z</time></trkpt><trkpt lat="36.703045082062" lon="14.990746528516322"><ele>18.0</ele><time>2026-04-11T14:54:12Z</time></trkpt><trkpt lat="36.702902861715074" lon="14.990749736995493"><ele>18.0</ele><time>2026-04-11T14:54:13Z</time></trkpt><trkpt lat="36.702751591362585" lon="14.99075557793352"><ele>18.0</ele><time>2026-04-11T14:54:14Z</time></trkpt><trkpt lat="36.702597309617886" lon="14.990757859807482"><ele>18.0</ele><time>2026-04-11T14:54:15Z</time></trkpt><trkpt lat="36.70243433378028" lon="14.990759474485335"><ele>16.666666666666668</ele><time>2026-04-11T14:54:16Z</time></trkpt><trkpt lat="36.702268478796526" lon="14.990762320898884"><ele>15.333333333333334</ele><time>2026-04-11T14:54:17Z</time></trkpt><trkpt lat="36.70209220960535" lon="14.990765428897026"><ele>14.0</ele><time>2026-04-11T14:54:18Z</time></trkpt><trkpt lat="36.70191345827519" lon="14.990767924276835"><ele>12.333333333333334</ele><time>2026-04-11T14:54:19Z</time></trkpt><trkpt lat="36.701724995379536" lon="14.990772893616672"><ele>10.666666666666668</ele><time>2026-04-11T14:54:20Z</time></trkpt><trkpt lat="36.70155196381318" lon="14.99077522527467"><ele>9.0</ele><time>2026-04-11T14:54:21.001Z</time></trkpt><trkpt lat="36.7013885851878" lon="14.990779215290033"><ele>9.0</ele><time>2026-04-11T14:54:22.001Z</time></trkpt><trkpt lat="36.70122776781969" lon="14.990782595469163"><ele>9.0</ele><time>2026-04-11T14:54:23.001Z</time></trkpt><trkpt lat="36.701061908414054" lon="14.99078572880254"><ele>9.0</ele><time>2026-04-11T14:54:24.001Z</time></trkpt><trkpt lat="36.70088852951629" lon="14.990787822527983"><ele>8.666666666666666</ele><time>2026-04-11T14:54:25.001Z</time></trkpt><trkpt lat="36.70071403494668" lon="14.990791931371964"><ele>8.333333333333332</ele><time>2026-04-11T14:54:26.001Z</time></trkpt><trkpt lat="36.70052840023938" lon="14.990795526020579"><ele>8.0</ele><time>2026-04-11T14:54:27.001Z</time></trkpt><trkpt lat="36.70034619770566" lon="14.99080183412315"><ele>8.0</ele><time>2026-04-11T14:54:28.001Z</time></trkpt><trkpt lat="36.70017047061721" lon="14.990807507231375"><ele>8.0</ele><time>2026-04-11T14:54:29.001Z</time></trkpt><trkpt lat="36.699998869685245" lon="14.990813520523071"><ele>8.0</ele><time>2026-04-11T14:54:30.001Z</time></trkpt><trkpt lat="36.69981817193728" lon="14.990817981619227"><ele>8.0</ele><time>2026-04-11T14:54:31.001Z</time></trkpt><trkpt lat="36.69964505129412" lon="14.990811146663065"><ele>8.0</ele><time>2026-04-11T14:54:32.001Z</time></trkpt><trkpt lat="36.69947280125111" lon="14.990791167395576"><ele>8.0</ele><time>2026-04-11T14:54:33.001Z</time></trkpt><trkpt lat="36.699313329940274" lon="14.990717219219338"><ele>7.666666666666666</ele><time>2026-04-11T14:54:34.001Z</time></trkpt><trkpt lat="36.69915086181482" lon="14.990660963250935"><ele>7.333333333333334</ele><time>2026-04-11T14:54:35.001Z</time></trkpt><trkpt lat="36.69900293456127" lon="14.990561706574937"><ele>7.0</ele><time>2026-04-11T14:54:36.001Z</time></trkpt><trkpt lat="36.69886421239805" lon="14.990439599271737"><ele>7.0</ele><time>2026-04-11T14:54:37.001Z</time></trkpt><trkpt lat="36.69873899571874" lon="14.990296376325652"><ele>7.0</ele><time>2026-04-11T14:54:38.001Z</time></trkpt><trkpt lat="36.69863440328634" lon="14.990141925956854"><ele>7.0</ele><time>2026-04-11T14:54:39.001Z</time></trkpt><trkpt lat="36.698546544255656" lon="14.98997861380728"><ele>7.333333333333334</ele><time>2026-04-11T14:54:40.001Z</time></trkpt><trkpt lat="36.698476588339815" lon="14.989806731506587"><ele>7.666666666666666</ele><time>2026-04-11T14:54:41.001Z</time></trkpt><trkpt lat="36.698430849221246" lon="14.989609726897843"><ele>8.0</ele><time>2026-04-11T14:54:42.001Z</time></trkpt><trkpt lat="36.69837288581744" lon="14.989412865439183"><ele>8.0</ele><time>2026-04-11T14:54:43.001Z</time></trkpt><trkpt lat="36.69829788396189" lon="14.989218265324231"><ele>8.0</ele><time>2026-04-11T14:54:44.001Z</time></trkpt><trkpt lat="36.69825098514029" lon="14.989000558195103"><ele>8.0</ele><time>2026-04-11T14:54:45.001Z</time></trkpt><trkpt lat="36.6981853802266" lon="14.988783279494237"><ele>8.0</ele><time>2026-04-11T14:54:46.001Z</time></trkpt><trkpt lat="36.69810199916067" lon="14.988565317874869"><ele>8.0</ele><time>2026-04-11T14:54:47.001Z</time></trkpt><trkpt lat="36.69803884251176" lon="14.988345963639045"><ele>8.0</ele><time>2026-04-11T14:54:48.001Z</time></trkpt><trkpt lat="36.69797463031614" lon="14.988124683530357"><ele>6.666666666666666</ele><time>2026-04-11T14:54:49.001Z</time></trkpt><trkpt lat="36.6979164707956" lon="14.987919528634821"><ele>5.333333333333333</ele><time>2026-04-11T14:54:50.001Z</time></trkpt><trkpt lat="36.69786470336944" lon="14.987722592738214"><ele>4.0</ele><time>2026-04-11T14:54:51.001Z</time></trkpt><trkpt lat="36.69781775130726" lon="14.987518970979876"><ele>4.0</ele><time>2026-04-11T14:54:52.001Z</time></trkpt><trkpt lat="36.69777929541743" lon="14.987318315107462"><ele>4.0</ele><time>2026-04-11T14:54:53.001Z</time></trkpt><trkpt lat="36.697747840439284" lon="14.987124266219327"><ele>4.0</ele><time>2026-04-11T14:54:54.001Z</time></trkpt><trkpt lat="36.697717920219304" lon="14.986944103020837"><ele>4.0</ele><time>2026-04-11T14:54:55.001Z</time></trkpt><trkpt lat="36.697682375502865" lon="14.986757534723015"><ele>4.0</ele><time>2026-04-11T14:54:56.001Z</time></trkpt><trkpt lat="36.69764835947764" lon="14.986567633393708"><ele>4.0</ele><time>2026-04-11T14:54:57.001Z</time></trkpt><trkpt lat="36.69761728561101" lon="14.986378425651408"><ele>4.0</ele><time>2026-04-11T14:54:58.001Z</time></trkpt><trkpt lat="36.69758675255198" lon="14.986183802575624"><ele>4.0</ele><time>2026-04-11T14:54:59.001Z</time></trkpt><trkpt lat="36.69755660176342" lon="14.985990967307997"><ele>4.0</ele><time>2026-04-11T14:55:00.001Z</time></trkpt><trkpt lat="36.697526442707606" lon="14.985796100722364"><ele>4.333333333333333</ele><time>2026-04-11T14:55:01.001Z</time></trkpt><trkpt lat="36.697491584336326" lon="14.985601557368287"><ele>4.666666666666667</ele><time>2026-04-11T14:55:02.001Z</time></trkpt><trkpt lat="36.69745341596246" lon="14.985405649545953"><ele>5.0</ele><time>2026-04-11T14:55:03.001Z</time></trkpt><trkpt lat="36.69741033124423" lon="14.985205115797891"><ele>4.666666666666667</ele><time>2026-04-11T14:55:04.001Z</time></trkpt><trkpt lat="36.69735515528961" lon="14.984997839052161"><ele>4.333333333333333</ele><time>2026-04-11T14:55:05.001Z</time></trkpt><trkpt lat="36.6972869750122" lon="14.984780690700916"><ele>4.0</ele><time>2026-04-11T14:55:06.001Z</time></trkpt><trkpt lat="36.69721178209277" lon="14.98456402505342"><ele>4.0</ele><time>2026-04-11T14:55:07.001Z</time></trkpt><trkpt lat="36.697136115470464" lon="14.984344476266559"><ele>4.0</ele><time>2026-04-11T14:55:08.001Z</time></trkpt><trkpt lat="36.69706609473291" lon="14.98414236375254"><ele>4.0</ele><time>2026-04-11T14:55:09.001Z</time></trkpt><trkpt lat="36.69700005193066" lon="14.983939652435563"><ele>4.0</ele><time>2026-04-11T14:55:10.001Z</time></trkpt><trkpt lat="36.696937767321344" lon="14.983752558593807"><ele>4.0</ele><time>2026-04-11T14:55:11.001Z</time></trkpt><trkpt lat="36.696876167663305" lon="14.983570292317399"><ele>4.0</ele><time>2026-04-11T14:55:12.001Z</time></trkpt><trkpt lat="36.69681349268386" lon="14.98338670964239"><ele>5.0</ele><time>2026-04-11T14:55:13.001Z</time></trkpt><trkpt lat="36.69675627942127" lon="14.983212600908209"><ele>6.0</ele><time>2026-04-11T14:55:14.001Z</time></trkpt><trkpt lat="36.69669757833949" lon="14.983034878354436"><ele>7.0</ele><time>2026-04-11T14:55:15.001Z</time></trkpt><trkpt lat="36.69664239954214" lon="14.982858062977359"><ele>7.0</ele><time>2026-04-11T14:55:16.001Z</time></trkpt><trkpt lat="36.696582815506275" lon="14.98267604478569"><ele>7.0</ele><time>2026-04-11T14:55:17.001Z</time></trkpt><trkpt lat="36.696516818811595" lon="14.98247845545438"><ele>7.0</ele><time>2026-04-11T14:55:18.001Z</time></trkpt><trkpt lat="36.696450289473354" lon="14.982280543763714"><ele>6.666666666666667</ele><time>2026-04-11T14:55:19.001Z</time></trkpt><trkpt lat="36.696377175322866" lon="14.982064519974498"><ele>6.333333333333334</ele><time>2026-04-11T14:55:20.001Z</time></trkpt><trkpt lat="36.69630259275691" lon="14.98183670105794"><ele>6.0</ele><time>2026-04-11T14:55:21.001Z</time></trkpt><trkpt lat="36.696225637343396" lon="14.981609187184855"><ele>6.0</ele><time>2026-04-11T14:55:22.001Z</time></trkpt><trkpt lat="36.69614397100181" lon="14.98137670930966"><ele>6.0</ele><time>2026-04-11T14:55:23.001Z</time></trkpt><trkpt lat="36.69605987804722" lon="14.981147979121323"><ele>6.0</ele><time>2026-04-11T14:55:24.001Z</time></trkpt><trkpt lat="36.695974137314856" lon="14.980914626672238"><ele>7.0</ele><time>2026-04-11T14:55:25.001Z</time></trkpt><trkpt lat="36.69588471856874" lon="14.9806826808231"><ele>8.0</ele><time>2026-04-11T14:55:26Z</time></trkpt><trkpt lat="36.69579065600469" lon="14.980452723078347"><ele>9.0</ele><time>2026-04-11T14:55:27Z</time></trkpt><trkpt lat="36.69569735536783" lon="14.980228929027508"><ele>9.333333333333334</ele><time>2026-04-11T14:55:28Z</time></trkpt><trkpt lat="36.69560638176315" lon="14.980011605231384"><ele>9.666666666666668</ele><time>2026-04-11T14:55:29Z</time></trkpt><trkpt lat="36.69551356227679" lon="14.979788153302213"><ele>10.0</ele><time>2026-04-11T14:55:30Z</time></trkpt><trkpt lat="36.695416000848084" lon="14.9795553679309"><ele>10.0</ele><time>2026-04-11T14:55:31Z</time></trkpt><trkpt lat="36.695344298009395" lon="14.979371268813672"><ele>10.0</ele><time>2026-04-11T14:55:32Z</time></trkpt><trkpt lat="36.6952584888659" lon="14.979164535414368"><ele>10.0</ele><time>2026-04-11T14:55:33Z</time></trkpt><trkpt lat="36.695171508208695" lon="14.978957684803188"><ele>9.333333333333334</ele><time>2026-04-11T14:55:34Z</time></trkpt><trkpt lat="36.69509605870598" lon="14.97875737485076"><ele>8.666666666666666</ele><time>2026-04-11T14:55:35Z</time></trkpt><trkpt lat="36.6950438806517" lon="14.978537362750865"><ele>8.0</ele><time>2026-04-11T14:55:36Z</time></trkpt><trkpt lat="36.694974460468096" lon="14.978310995559081"><ele>8.0</ele><time>2026-04-11T14:55:37Z</time></trkpt><trkpt lat="36.694926856554794" lon="14.978062767559994"><ele>8.0</ele><time>2026-04-11T14:55:38Z</time></trkpt><trkpt lat="36.694878266209855" lon="14.97779852838168"><ele>8.0</ele><time>2026-04-11T14:55:39Z</time></trkpt><trkpt lat="36.69482386970103" lon="14.977526760600675"><ele>7.0</ele><time>2026-04-11T14:55:40Z</time></trkpt><trkpt lat="36.69477290539858" lon="14.97725309945916"><ele>6.0</ele><time>2026-04-11T14:55:41Z</time></trkpt><trkpt lat="36.694719578181314" lon="14.97697892344981"><ele>6.0</ele><time>2026-04-11T14:55:42Z</time></trkpt><trkpt lat="36.69466136311729" lon="14.9766983000518"><ele>6.0</ele><time>2026-04-11T14:55:43Z</time></trkpt><trkpt lat="36.69460957168116" lon="14.976413237285698"><ele>6.0</ele><time>2026-04-11T14:55:44Z</time></trkpt><trkpt lat="36.69455121165443" lon="14.976123164822011"><ele>6.0</ele><time>2026-04-11T14:55:45Z</time></trkpt><trkpt lat="36.69449393679966" lon="14.975841901622989"><ele>5.5</ele><time>2026-04-11T14:55:46Z</time></trkpt><trkpt lat="36.69443587983311" lon="14.975555143494343"><ele>5.0</ele><time>2026-04-11T14:55:47Z</time></trkpt><trkpt lat="36.69437448223781" lon="14.975269162458918"><ele>5.0</ele><time>2026-04-11T14:55:48Z</time></trkpt><trkpt lat="36.69431443657319" lon="14.97499046622086"><ele>5.0</ele><time>2026-04-11T14:55:49Z</time></trkpt><trkpt lat="36.694263114105404" lon="14.974716283206373"><ele>5.0</ele><time>2026-04-11T14:55:50Z</time></trkpt><trkpt lat="36.69420311518489" lon="14.974444526826511"><ele>5.0</ele><time>2026-04-11T14:55:51Z</time></trkpt><trkpt lat="36.69415180490082" lon="14.97418067810322"><ele>5.0</ele><time>2026-04-11T14:55:52Z</time></trkpt><trkpt lat="36.69409639803018" lon="14.973916003154027"><ele>5.0</ele><time>2026-04-11T14:55:53Z</time></trkpt><trkpt lat="36.69405673935463" lon="14.973664989119808"><ele>5.0</ele><time>2026-04-11T14:55:54Z</time></trkpt><trkpt lat="36.69402015985584" lon="14.973413222599453"><ele>5.0</ele><time>2026-04-11T14:55:55Z</time></trkpt><trkpt lat="36.69399585806879" lon="14.973157189428987"><ele>5.0</ele><time>2026-04-11T14:55:56Z</time></trkpt><trkpt lat="36.69398406167086" lon="14.972907059587941"><ele>5.0</ele><time>2026-04-11T14:55:57Z</time></trkpt><trkpt lat="36.693979799103325" lon="14.972663824754227"><ele>5.0</ele><time>2026-04-11T14:55:58Z</time></trkpt><trkpt lat="36.693994162591046" lon="14.972408302797806"><ele>5.0</ele><time>2026-04-11T14:55:59Z</time></trkpt><trkpt lat="36.694021003630226" lon="14.972162710912535"><ele>5.0</ele><time>2026-04-11T14:56:00Z</time></trkpt><trkpt lat="36.694056138234004" lon="14.97191246522035"><ele>5.0</ele><time>2026-04-11T14:56:01Z</time></trkpt><trkpt lat="36.69409011363396" lon="14.971664555089728"><ele>4.666666666666667</ele><time>2026-04-11T14:56:02Z</time></trkpt><trkpt lat="36.69412237073394" lon="14.971418313735228"><ele>4.333333333333333</ele><time>2026-04-11T14:56:03Z</time></trkpt><trkpt lat="36.69415644911648" lon="14.971169666905526"><ele>4.0</ele><time>2026-04-11T14:56:04Z</time></trkpt><trkpt lat="36.694189327873495" lon="14.970924479905023"><ele>4.666666666666666</ele><time>2026-04-11T14:56:05Z</time></trkpt><trkpt lat="36.694219115117335" lon="14.97069099613155"><ele>5.333333333333333</ele><time>2026-04-11T14:56:06Z</time></trkpt><trkpt lat="36.69424403723862" lon="14.970474885947219"><ele>6.0</ele><time>2026-04-11T14:56:07Z</time></trkpt><trkpt lat="36.69426755696827" lon="14.970276244943795"><ele>6.0</ele><time>2026-04-11T14:56:08Z</time></trkpt><trkpt lat="36.694286378857825" lon="14.970089867361768"><ele>6.0</ele><time>2026-04-11T14:56:09Z</time></trkpt><trkpt lat="36.69430151054557" lon="14.969921221198456"><ele>6.0</ele><time>2026-04-11T14:56:10Z</time></trkpt><trkpt lat="36.69431562817952" lon="14.969760631859934"><ele>6.0</ele><time>2026-04-11T14:56:11Z</time></trkpt><trkpt lat="36.69432585026904" lon="14.969612876262632"><ele>6.199999999999999</ele><time>2026-04-11T14:56:12Z</time></trkpt><trkpt lat="36.69433232580604" lon="14.96948263005608"><ele>6.3999999999999995</ele><time>2026-04-11T14:56:13Z</time></trkpt><trkpt lat="36.69433943059984" lon="14.969372687642606"><ele>6.6</ele><time>2026-04-11T14:56:14Z</time></trkpt><trkpt lat="36.69434711592967" lon="14.969251044662924"><ele>6.8</ele><time>2026-04-11T14:56:16Z</time></trkpt><trkpt lat="36.69426826421065" lon="14.969197537081747"><ele>7.0</ele><time>2026-04-11T14:56:19Z</time></trkpt><trkpt lat="36.69416304724466" lon="14.969192698936425"><ele>7.000000000000001</ele><time>2026-04-11T14:56:21Z</time></trkpt><trkpt lat="36.69408645826924" lon="14.96921147532324"><ele>7.0</ele><time>2026-04-11T14:56:23Z</time></trkpt><trkpt lat="36.69399694457374" lon="14.969217751755778"><ele>7.0</ele><time>2026-04-11T14:56:25Z</time></trkpt><trkpt lat="36.693915183310274" lon="14.969229452886983"><ele>7.0</ele><time>2026-04-11T14:56:27Z</time></trkpt><trkpt lat="36.69382889605112" lon="14.969218414495794"><ele>7.000000000000001</ele><time>2026-04-11T14:56:30Z</time></trkpt><trkpt lat="36.69375853152699" lon="14.969200648152725"><ele>7.0</ele><time>2026-04-11T14:56:32Z</time></trkpt><trkpt lat="36.69368925249131" lon="14.969188258570579"><ele>7.000000000000001</ele><time>2026-04-11T14:56:34Z</time></trkpt><trkpt lat="36.693596554834905" lon="14.969210523113016"><ele>7.0</ele><time>2026-04-11T14:56:36Z</time></trkpt><trkpt lat="36.693533866149444" lon="14.969218957615242"><ele>7.0</ele><time>2026-04-11T14:56:38Z</time></trkpt><trkpt lat="36.693484969478256" lon="14.969130390057286"><ele>7.0</ele><time>2026-04-11T14:56:42Z</time></trkpt><trkpt lat="36.693407471117865" lon="14.969081036457068"><ele>7.000000000000001</ele><time>2026-04-11T14:56:44Z</time></trkpt><trkpt lat="36.693336725777975" lon="14.969035983410857"><ele>7.0</ele><time>2026-04-11T14:56:46Z</time></trkpt><trkpt lat="36.6932029951918" lon="14.96909214177246"><ele>7.0</ele><time>2026-04-11T14:56:48.001Z</time></trkpt><trkpt lat="36.69313740200915" lon="14.969107231055679"><ele>6.999999999999999</ele><time>2026-04-11T14:56:50.001Z</time></trkpt><trkpt lat="36.693096500984716" lon="14.969253742067488"><ele>6.999999999999999</ele><time>2026-04-11T14:56:52.001Z</time></trkpt><trkpt lat="36.6930842716625" lon="14.969377789483627"><ele>7.0</ele><time>2026-04-11T14:56:53.001Z</time></trkpt><trkpt lat="36.69307904768525" lon="14.969480572600322"><ele>7.0</ele><time>2026-04-11T14:56:54.001Z</time></trkpt><trkpt lat="36.6931322519106" lon="14.969607028870467"><ele>7.199999999999999</ele><time>2026-04-11T14:56:56.001Z</time></trkpt><trkpt lat="36.69315830514339" lon="14.969717454190512"><ele>7.3999999999999995</ele><time>2026-04-11T14:56:58.001Z</time></trkpt><trkpt lat="36.69311885938388" lon="14.969831979745608"><ele>7.6000000000000005</ele><time>2026-04-11T14:57:00.001Z</time></trkpt><trkpt lat="36.693088207228385" lon="14.969905616024612"><ele>7.800000000000001</ele><time>2026-04-11T14:57:01.001Z</time></trkpt><trkpt lat="36.6930376939957" lon="14.970028316820482"><ele>8.0</ele><time>2026-04-11T14:57:03.001Z</time></trkpt><trkpt lat="36.693002235359074" lon="14.97014087831248"><ele>6.0</ele><time>2026-04-11T14:57:05.001Z</time></trkpt><trkpt lat="36.69296801238183" lon="14.970228383966703"><ele>6.0</ele><time>2026-04-11T14:57:07.001Z</time></trkpt><trkpt lat="36.69289117661838" lon="14.970268122582587"><ele>6.0</ele><time>2026-04-11T14:57:10.001Z</time></trkpt><trkpt lat="36.69280750119826" lon="14.970265859388864"><ele>6.0</ele><time>2026-04-11T14:57:13.001Z</time></trkpt><trkpt lat="36.69273511514921" lon="14.970270092927311"><ele>5.0</ele><time>2026-04-11T14:57:17.001Z</time></trkpt></trkseg><trkseg><trkpt lat="36.69361493698105" lon="14.969249271197006"><ele>7.000000000000001</ele><time>2026-04-11T15:14:01.872Z</time></trkpt><trkpt lat="36.69369506878496" lon="14.969224886608773"><ele>7.0</ele><time>2026-04-11T15:14:04Z</time></trkpt><trkpt lat="36.69377093860379" lon="14.9692281130726"><ele>7.0</ele><time>2026-04-11T15:14:06Z</time></trkpt><trkpt lat="36.69383636467733" lon="14.96926254964341"><ele>7.0</ele><time>2026-04-11T15:14:07Z</time></trkpt><trkpt lat="36.69392015570897" lon="14.969262587771029"><ele>7.000000000000001</ele><time>2026-04-11T15:14:08Z</time></trkpt><trkpt lat="36.69403746200641" lon="14.96924990208074"><ele>7.0</ele><time>2026-04-11T15:14:10Z</time></trkpt><trkpt lat="36.69410920498692" lon="14.969238915501936"><ele>7.000000000000001</ele><time>2026-04-11T15:14:12Z</time></trkpt><trkpt lat="36.69418742998793" lon="14.969234080253038"><ele>7.0</ele><time>2026-04-11T15:14:16Z</time></trkpt><trkpt lat="36.694257714996674" lon="14.96922158488943"><ele>7.0</ele><time>2026-04-11T15:14:21Z</time></trkpt><trkpt lat="36.69431886586308" lon="14.969257880843514"><ele>7.0</ele><time>2026-04-11T15:14:25Z</time></trkpt><trkpt lat="36.694374878408425" lon="14.969161673029006"><ele>7.000000000000001</ele><time>2026-04-11T15:14:32Z</time></trkpt><trkpt lat="36.694375087505136" lon="14.969064064376566"><ele>7.0</ele><time>2026-04-11T15:14:33Z</time></trkpt><trkpt lat="36.694374107801934" lon="14.968970606788499"><ele>7.333333333333334</ele><time>2026-04-11T15:14:34Z</time></trkpt><trkpt lat="36.69437651267551" lon="14.968869737995792"><ele>7.666666666666667</ele><time>2026-04-11T15:14:35Z</time></trkpt><trkpt lat="36.69438788147465" lon="14.968760821418874"><ele>8.0</ele><time>2026-04-11T15:14:36Z</time></trkpt><trkpt lat="36.694402883833" lon="14.968662812790603"><ele>8.333333333333334</ele><time>2026-04-11T15:14:37Z</time></trkpt><trkpt lat="36.69440840732992" lon="14.968564412816596"><ele>8.666666666666666</ele><time>2026-04-11T15:14:38Z</time></trkpt><trkpt lat="36.694416130144056" lon="14.968473467602015"><ele>9.0</ele><time>2026-04-11T15:14:39Z</time></trkpt><trkpt lat="36.69442681013006" lon="14.968378942125797"><ele>9.0</ele><time>2026-04-11T15:14:40Z</time></trkpt><trkpt lat="36.694436585646166" lon="14.968277823161902"><ele>9.0</ele><time>2026-04-11T15:14:41Z</time></trkpt><trkpt lat="36.69444631082771" lon="14.968160446145701"><ele>9.0</ele><time>2026-04-11T15:14:42Z</time></trkpt><trkpt lat="36.6944566341559" lon="14.968031965075628"><ele>9.0</ele><time>2026-04-11T15:14:43Z</time></trkpt><trkpt lat="36.6944700040782" lon="14.967884008822308"><ele>9.0</ele><time>2026-04-11T15:14:44Z</time></trkpt><trkpt lat="36.694482609053445" lon="14.967729700192153"><ele>9.0</ele><time>2026-04-11T15:14:45Z</time></trkpt><trkpt lat="36.69449375648302" lon="14.967558011058054"><ele>9.0</ele><time>2026-04-11T15:14:46Z</time></trkpt><trkpt lat="36.6945049424299" lon="14.967368217472087"><ele>9.0</ele><time>2026-04-11T15:14:47Z</time></trkpt><trkpt lat="36.694517277910265" lon="14.967171044700528"><ele>9.0</ele><time>2026-04-11T15:14:48Z</time></trkpt><trkpt lat="36.69453099585761" lon="14.966968183280853"><ele>8.0</ele><time>2026-04-11T15:14:49Z</time></trkpt><trkpt lat="36.694547815354404" lon="14.966754278244306"><ele>7.0</ele><time>2026-04-11T15:14:50Z</time></trkpt><trkpt lat="36.69456572484248" lon="14.966534636092252"><ele>6.0</ele><time>2026-04-11T15:14:51Z</time></trkpt><trkpt lat="36.6945798021748" lon="14.966309159116006"><ele>5.333333333333333</ele><time>2026-04-11T15:14:52Z</time></trkpt><trkpt lat="36.69459230485221" lon="14.966080425908602"><ele>4.666666666666666</ele><time>2026-04-11T15:14:53Z</time></trkpt><trkpt lat="36.69460590252895" lon="14.965872310658996"><ele>4.0</ele><time>2026-04-11T15:14:54Z</time></trkpt><trkpt lat="36.69462037684523" lon="14.96568815342638"><ele>4.0</ele><time>2026-04-11T15:14:55Z</time></trkpt><trkpt lat="36.69463365736876" lon="14.96550866368272"><ele>4.0</ele><time>2026-04-11T15:14:56Z</time></trkpt><trkpt lat="36.69464646857414" lon="14.965319408462372"><ele>4.0</ele><time>2026-04-11T15:14:57Z</time></trkpt><trkpt lat="36.69465995028232" lon="14.965133654026344"><ele>4.0</ele><time>2026-04-11T15:14:58Z</time></trkpt><trkpt lat="36.69467342433414" lon="14.964965590330007"><ele>4.0</ele><time>2026-04-11T15:14:59Z</time></trkpt><trkpt lat="36.6946829263819" lon="14.964822678350197"><ele>4.0</ele><time>2026-04-11T15:15:00Z</time></trkpt><trkpt lat="36.69468982497187" lon="14.964674566068968"><ele>4.0</ele><time>2026-04-11T15:15:01Z</time></trkpt><trkpt lat="36.69469925885892" lon="14.964528956016052"><ele>4.0</ele><time>2026-04-11T15:15:02Z</time></trkpt><trkpt lat="36.69470685411238" lon="14.964405566522377"><ele>3.9999999999999996</ele><time>2026-04-11T15:15:03Z</time></trkpt><trkpt lat="36.694712281594875" lon="14.964300713517584"><ele>4.0</ele><time>2026-04-11T15:15:04Z</time></trkpt><trkpt lat="36.694719382149394" lon="14.964200353378981"><ele>4.0</ele><time>2026-04-11T15:15:05Z</time></trkpt><trkpt lat="36.69472871448817" lon="14.96411358329063"><ele>4.0</ele><time>2026-04-11T15:15:06Z</time></trkpt><trkpt lat="36.69477331936119" lon="14.96401513779393"><ele>3.9999999999999996</ele><time>2026-04-11T15:15:08Z</time></trkpt><trkpt lat="36.694716888527594" lon="14.963977505002491"><ele>4.0</ele><time>2026-04-11T15:15:11Z</time></trkpt><trkpt lat="36.69470772829195" lon="14.964114898964162"><ele>4.0</ele><time>2026-04-11T15:15:14Z</time></trkpt><trkpt lat="36.69470601755932" lon="14.964229834373983"><ele>4.0</ele><time>2026-04-11T15:15:15Z</time></trkpt><trkpt lat="36.694708989313774" lon="14.964363976076001"><ele>4.0</ele><time>2026-04-11T15:15:16Z</time></trkpt><trkpt lat="36.69469465155994" lon="14.964502519673538"><ele>4.0</ele><time>2026-04-11T15:15:17Z</time></trkpt><trkpt lat="36.694680679878125" lon="14.964701646949353"><ele>4.0</ele><time>2026-04-11T15:15:18Z</time></trkpt><trkpt lat="36.69466461914132" lon="14.964954280364774"><ele>4.0</ele><time>2026-04-11T15:15:19Z</time></trkpt><trkpt lat="36.694644460774654" lon="14.96524535144404"><ele>4.0</ele><time>2026-04-11T15:15:20Z</time></trkpt><trkpt lat="36.69462456115043" lon="14.965563669259387"><ele>4.0</ele><time>2026-04-11T15:15:21Z</time></trkpt><trkpt lat="36.69460457561415" lon="14.96590565038265"><ele>4.0</ele><time>2026-04-11T15:15:22Z</time></trkpt><trkpt lat="36.69458283026204" lon="14.966266935141096"><ele>4.0</ele><time>2026-04-11T15:15:23Z</time></trkpt><trkpt lat="36.69454889439055" lon="14.966671642709155"><ele>4.0</ele><time>2026-04-11T15:15:24Z</time></trkpt><trkpt lat="36.6945199953848" lon="14.967027473792369"><ele>5.0</ele><time>2026-04-11T15:15:25Z</time></trkpt><trkpt lat="36.694490662670006" lon="14.967341270346607"><ele>6.0</ele><time>2026-04-11T15:15:26Z</time></trkpt><trkpt lat="36.69446661755509" lon="14.967622761554926"><ele>6.333333333333334</ele><time>2026-04-11T15:15:27Z</time></trkpt><trkpt lat="36.694445723045476" lon="14.967873235352195"><ele>6.666666666666667</ele><time>2026-04-11T15:15:28Z</time></trkpt><trkpt lat="36.694431005699904" lon="14.968090340028393"><ele>7.0</ele><time>2026-04-11T15:15:29Z</time></trkpt><trkpt lat="36.69441981712652" lon="14.968289987451476"><ele>7.666666666666667</ele><time>2026-04-11T15:15:30Z</time></trkpt><trkpt lat="36.69440754619874" lon="14.968471498783854"><ele>8.333333333333334</ele><time>2026-04-11T15:15:31Z</time></trkpt><trkpt lat="36.694392264597404" lon="14.968657615659778"><ele>9.0</ele><time>2026-04-11T15:15:32Z</time></trkpt><trkpt lat="36.69437887486178" lon="14.96885348181883"><ele>9.0</ele><time>2026-04-11T15:15:33Z</time></trkpt><trkpt lat="36.69436531014284" lon="14.969050357967514"><ele>9.0</ele><time>2026-04-11T15:15:34Z</time></trkpt><trkpt lat="36.69432653067571" lon="14.96923688241662"><ele>9.0</ele><time>2026-04-11T15:15:35Z</time></trkpt><trkpt lat="36.69431365665811" lon="14.969426287807744"><ele>8.5</ele><time>2026-04-11T15:15:36Z</time></trkpt><trkpt lat="36.69430104517816" lon="14.96960840518496"><ele>8.0</ele><time>2026-04-11T15:15:37Z</time></trkpt><trkpt lat="36.694287203121256" lon="14.969788351738556"><ele>7.5</ele><time>2026-04-11T15:15:38Z</time></trkpt><trkpt lat="36.69427047375448" lon="14.969967679934198"><ele>7.0</ele><time>2026-04-11T15:15:39Z</time></trkpt><trkpt lat="36.69425151608306" lon="14.97014847207535"><ele>6.75</ele><time>2026-04-11T15:15:40Z</time></trkpt><trkpt lat="36.69423083205264" lon="14.970327982805385"><ele>6.5</ele><time>2026-04-11T15:15:41Z</time></trkpt><trkpt lat="36.69420902614217" lon="14.970511080382456"><ele>6.25</ele><time>2026-04-11T15:15:42Z</time></trkpt><trkpt lat="36.694186967716156" lon="14.970690671895394"><ele>6.0</ele><time>2026-04-11T15:15:43Z</time></trkpt><trkpt lat="36.694165322917044" lon="14.970861195324552"><ele>5.5</ele><time>2026-04-11T15:15:44Z</time></trkpt><trkpt lat="36.69414295455064" lon="14.97103741871809"><ele>5.0</ele><time>2026-04-11T15:15:45Z</time></trkpt><trkpt lat="36.69412157167588" lon="14.971205878488249"><ele>4.5</ele><time>2026-04-11T15:15:46Z</time></trkpt><trkpt lat="36.69410006993318" lon="14.971375274559039"><ele>4.0</ele><time>2026-04-11T15:15:47Z</time></trkpt><trkpt lat="36.694078526944885" lon="14.971546755835252"><ele>4.25</ele><time>2026-04-11T15:15:48Z</time></trkpt><trkpt lat="36.694057515041244" lon="14.971715451564014"><ele>4.5</ele><time>2026-04-11T15:15:49Z</time></trkpt><trkpt lat="36.69403638306275" lon="14.971885629169616"><ele>4.75</ele><time>2026-04-11T15:15:50Z</time></trkpt><trkpt lat="36.69401557292631" lon="14.972053119300016"><ele>5.0</ele><time>2026-04-11T15:15:51Z</time></trkpt><trkpt lat="36.69399611928801" lon="14.972222123393475"><ele>5.0</ele><time>2026-04-11T15:15:52Z</time></trkpt><trkpt lat="36.69397785671748" lon="14.972384517535854"><ele>5.0</ele><time>2026-04-11T15:15:53Z</time></trkpt><trkpt lat="36.69396289121278" lon="14.972533911679626"><ele>5.0</ele><time>2026-04-11T15:15:54Z</time></trkpt><trkpt lat="36.69395373123469" lon="14.972666977556132"><ele>5.0</ele><time>2026-04-11T15:15:55Z</time></trkpt><trkpt lat="36.693949997078846" lon="14.972794330669863"><ele>5.0</ele><time>2026-04-11T15:15:56Z</time></trkpt><trkpt lat="36.693950353957014" lon="14.972907551541292"><ele>5.0</ele><time>2026-04-11T15:15:57Z</time></trkpt><trkpt lat="36.693952784658784" lon="14.972992456476687"><ele>5.0</ele><time>2026-04-11T15:15:58Z</time></trkpt><trkpt lat="36.69395951812155" lon="14.973101710218543"><ele>5.0</ele><time>2026-04-11T15:16:00Z</time></trkpt><trkpt lat="36.693975211732386" lon="14.973183077675428"><ele>5.0</ele><time>2026-04-11T15:16:03Z</time></trkpt><trkpt lat="36.694112736604815" lon="14.973118302104007"><ele>5.0</ele><time>2026-04-11T15:16:04Z</time></trkpt><trkpt lat="36.694180402847856" lon="14.973121534275158"><ele>5.0</ele><time>2026-04-11T15:16:05Z</time></trkpt><trkpt lat="36.694251773432235" lon="14.973095616993984"><ele>5.0</ele><time>2026-04-11T15:16:06Z</time></trkpt><trkpt lat="36.694337498568785" lon="14.973077383009203"><ele>5.0</ele><time>2026-04-11T15:16:07Z</time></trkpt><trkpt lat="36.694427745841686" lon="14.973082734654598"><ele>5.0</ele><time>2026-04-11T15:16:08Z</time></trkpt><trkpt lat="36.69452903250073" lon="14.973088146568049"><ele>5.0</ele><time>2026-04-11T15:16:09Z</time></trkpt><trkpt lat="36.69462882058828" lon="14.973090893684349"><ele>4.6</ele><time>2026-04-11T15:16:10Z</time></trkpt><trkpt lat="36.694730122570455" lon="14.973088587797347"><ele>4.2</ele><time>2026-04-11T15:16:11Z</time></trkpt><trkpt lat="36.69483379347165" lon="14.97307071150351"><ele>3.8</ele><time>2026-04-11T15:16:12Z</time></trkpt><trkpt lat="36.694937941064126" lon="14.973041629572899"><ele>3.4</ele><time>2026-04-11T15:16:13Z</time></trkpt><trkpt lat="36.69504378415133" lon="14.973012698243647"><ele>3.0</ele><time>2026-04-11T15:16:14Z</time></trkpt><trkpt lat="36.69515190682839" lon="14.972986416650489"><ele>3.5999999999999996</ele><time>2026-04-11T15:16:15Z</time></trkpt><trkpt lat="36.69526048850742" lon="14.972964663649009"><ele>4.199999999999999</ele><time>2026-04-11T15:16:16Z</time></trkpt><trkpt lat="36.69536750620962" lon="14.972947544641896"><ele>4.8</ele><time>2026-04-11T15:16:17Z</time></trkpt><trkpt lat="36.69547549480478" lon="14.972927275733767"><ele>5.3999999999999995</ele><time>2026-04-11T15:16:18Z</time></trkpt><trkpt lat="36.69558350879944" lon="14.972904199185518"><ele>6.0</ele><time>2026-04-11T15:16:19Z</time></trkpt><trkpt lat="36.69568806083448" lon="14.97288298823088"><ele>6.0</ele><time>2026-04-11T15:16:20Z</time></trkpt><trkpt lat="36.6957913134142" lon="14.972863200825886"><ele>6.0</ele><time>2026-04-11T15:16:21Z</time></trkpt><trkpt lat="36.6958980213697" lon="14.972840796643899"><ele>6.0</ele><time>2026-04-11T15:16:22Z</time></trkpt><trkpt lat="36.696003679450904" lon="14.972820916103657"><ele>6.0</ele><time>2026-04-11T15:16:23Z</time></trkpt><trkpt lat="36.69610975621412" lon="14.972807014533391"><ele>6.0</ele><time>2026-04-11T15:16:24Z</time></trkpt><trkpt lat="36.696217481990125" lon="14.97280186636165"><ele>7.199999999999999</ele><time>2026-04-11T15:16:25Z</time></trkpt><trkpt lat="36.69632658972161" lon="14.972806804692915"><ele>8.399999999999999</ele><time>2026-04-11T15:16:26Z</time></trkpt><trkpt lat="36.696431822998925" lon="14.972816143461479"><ele>9.6</ele><time>2026-04-11T15:16:27Z</time></trkpt><trkpt lat="36.696544535699104" lon="14.972823077274981"><ele>10.799999999999999</ele><time>2026-04-11T15:16:28Z</time></trkpt><trkpt lat="36.69666095532695" lon="14.972831226528104"><ele>12.0</ele><time>2026-04-11T15:16:29Z</time></trkpt><trkpt lat="36.696775289796456" lon="14.972836798718445"><ele>12.0</ele><time>2026-04-11T15:16:30Z</time></trkpt><trkpt lat="36.69690031337172" lon="14.97283976272749"><ele>12.0</ele><time>2026-04-11T15:16:31Z</time></trkpt><trkpt lat="36.697038822602714" lon="14.972837286058786"><ele>12.0</ele><time>2026-04-11T15:16:32Z</time></trkpt><trkpt lat="36.697182685449825" lon="14.972833499488896"><ele>12.0</ele><time>2026-04-11T15:16:33Z</time></trkpt><trkpt lat="36.6973235321703" lon="14.97283147304436"><ele>11.666666666666666</ele><time>2026-04-11T15:16:34Z</time></trkpt><trkpt lat="36.697470416338234" lon="14.972829399499787"><ele>11.333333333333332</ele><time>2026-04-11T15:16:35Z</time></trkpt><trkpt lat="36.697625356964245" lon="14.972827817078759"><ele>11.0</ele><time>2026-04-11T15:16:36Z</time></trkpt><trkpt lat="36.697784662088885" lon="14.972826205271614"><ele>10.0</ele><time>2026-04-11T15:16:37Z</time></trkpt><trkpt lat="36.69794335971433" lon="14.972824983096675"><ele>9.0</ele><time>2026-04-11T15:16:38Z</time></trkpt><trkpt lat="36.698104886602934" lon="14.972823489789766"><ele>8.0</ele><time>2026-04-11T15:16:39Z</time></trkpt><trkpt lat="36.698268735172924" lon="14.97281923343293"><ele>8.0</ele><time>2026-04-11T15:16:40Z</time></trkpt><trkpt lat="36.69841552592985" lon="14.972816317035866"><ele>8.0</ele><time>2026-04-11T15:16:41Z</time></trkpt><trkpt lat="36.69857397170234" lon="14.972813770566507"><ele>8.0</ele><time>2026-04-11T15:16:42Z</time></trkpt><trkpt lat="36.69872817356402" lon="14.972812288055545"><ele>9.333333333333332</ele><time>2026-04-11T15:16:43Z</time></trkpt><trkpt lat="36.69887867072958" lon="14.972807299940074"><ele>10.666666666666666</ele><time>2026-04-11T15:16:44Z</time></trkpt><trkpt lat="36.69903033971016" lon="14.97279863205765"><ele>12.0</ele><time>2026-04-11T15:16:45Z</time></trkpt><trkpt lat="36.69918107532846" lon="14.972790969332761"><ele>12.0</ele><time>2026-04-11T15:16:46Z</time></trkpt><trkpt lat="36.69932781971748" lon="14.97278297951282"><ele>12.0</ele><time>2026-04-11T15:16:47Z</time></trkpt><trkpt lat="36.69947031622645" lon="14.972778657148327"><ele>12.0</ele><time>2026-04-11T15:16:48Z</time></trkpt><trkpt lat="36.69961431843392" lon="14.972774708959708"><ele>12.0</ele><time>2026-04-11T15:16:49Z</time></trkpt><trkpt lat="36.699763687275286" lon="14.972773125243572"><ele>13.0</ele><time>2026-04-11T15:16:50Z</time></trkpt><trkpt lat="36.69991660953229" lon="14.97276751179486"><ele>14.0</ele><time>2026-04-11T15:16:51Z</time></trkpt><trkpt lat="36.70007462980971" lon="14.972770848048794"><ele>15.0</ele><time>2026-04-11T15:16:52Z</time></trkpt><trkpt lat="36.700227853366314" lon="14.972770907986327"><ele>15.25</ele><time>2026-04-11T15:16:53Z</time></trkpt><trkpt lat="36.70036848715364" lon="14.972765654803236"><ele>15.5</ele><time>2026-04-11T15:16:54Z</time></trkpt><trkpt lat="36.70049573207565" lon="14.972758091205124"><ele>15.75</ele><time>2026-04-11T15:16:55Z</time></trkpt><trkpt lat="36.70061425592878" lon="14.972749813266063"><ele>16.0</ele><time>2026-04-11T15:16:56Z</time></trkpt><trkpt lat="36.70071419879267" lon="14.972745810668956"><ele>16.0</ele><time>2026-04-11T15:16:57Z</time></trkpt><trkpt lat="36.70079646964793" lon="14.97273409284288"><ele>16.0</ele><time>2026-04-11T15:16:58Z</time></trkpt><trkpt lat="36.70088812028153" lon="14.972734987065845"><ele>16.0</ele><time>2026-04-11T15:17:00Z</time></trkpt><trkpt lat="36.70088006946914" lon="14.97255346362798"><ele>16.0</ele><time>2026-04-11T15:17:02Z</time></trkpt><trkpt lat="36.70088590677248" lon="14.972432785930483"><ele>16.0</ele><time>2026-04-11T15:17:03Z</time></trkpt><trkpt lat="36.70086069641445" lon="14.972270173842587"><ele>15.75</ele><time>2026-04-11T15:17:04Z</time></trkpt><trkpt lat="36.70085005450344" lon="14.972100724499212"><ele>15.5</ele><time>2026-04-11T15:17:05Z</time></trkpt><trkpt lat="36.70085137065729" lon="14.971918466522322"><ele>15.25</ele><time>2026-04-11T15:17:06Z</time></trkpt><trkpt lat="36.700856268236194" lon="14.971712480258748"><ele>15.0</ele><time>2026-04-11T15:17:07Z</time></trkpt><trkpt lat="36.700861758767026" lon="14.971502709014175"><ele>14.666666666666668</ele><time>2026-04-11T15:17:08Z</time></trkpt><trkpt lat="36.70086317483006" lon="14.971287612402191"><ele>14.333333333333334</ele><time>2026-04-11T15:17:09Z</time></trkpt><trkpt lat="36.70086422788466" lon="14.971075569620963"><ele>14.0</ele><time>2026-04-11T15:17:10Z</time></trkpt><trkpt lat="36.70086505194871" lon="14.970863145018924"><ele>14.0</ele><time>2026-04-11T15:17:11Z</time></trkpt><trkpt lat="36.70086814607851" lon="14.970656625754401"><ele>14.0</ele><time>2026-04-11T15:17:12Z</time></trkpt><trkpt lat="36.700871268276025" lon="14.970464657340138"><ele>14.0</ele><time>2026-04-11T15:17:13Z</time></trkpt><trkpt lat="36.70087246979672" lon="14.970281078394354"><ele>14.0</ele><time>2026-04-11T15:17:14Z</time></trkpt><trkpt lat="36.70087595373344" lon="14.97010062546092"><ele>14.0</ele><time>2026-04-11T15:17:15Z</time></trkpt><trkpt lat="36.70088077274336" lon="14.969912608231647"><ele>14.0</ele><time>2026-04-11T15:17:16Z</time></trkpt><trkpt lat="36.70089365345771" lon="14.969732912407748"><ele>14.0</ele><time>2026-04-11T15:17:17Z</time></trkpt><trkpt lat="36.70090875441733" lon="14.9695483310777"><ele>15.25</ele><time>2026-04-11T15:17:18Z</time></trkpt><trkpt lat="36.70092786896738" lon="14.969366363856613"><ele>16.5</ele><time>2026-04-11T15:17:19Z</time></trkpt><trkpt lat="36.7009456958643" lon="14.969191888849648"><ele>17.75</ele><time>2026-04-11T15:17:20Z</time></trkpt><trkpt lat="36.700963357266794" lon="14.96902955021143"><ele>19.0</ele><time>2026-04-11T15:17:21Z</time></trkpt><trkpt lat="36.70097821296759" lon="14.968883263186214"><ele>20.5</ele><time>2026-04-11T15:17:22Z</time></trkpt><trkpt lat="36.700994063481176" lon="14.968732823755815"><ele>22.0</ele><time>2026-04-11T15:17:23Z</time></trkpt><trkpt lat="36.70101067715834" lon="14.96858042991091"><ele>23.5</ele><time>2026-04-11T15:17:24Z</time></trkpt><trkpt lat="36.70102918683366" lon="14.96843042752673"><ele>25.0</ele><time>2026-04-11T15:17:25Z</time></trkpt><trkpt lat="36.70104769158378" lon="14.968284377387052"><ele>24.75</ele><time>2026-04-11T15:17:26Z</time></trkpt><trkpt lat="36.70106493988978" lon="14.968135662216918"><ele>24.5</ele><time>2026-04-11T15:17:27Z</time></trkpt><trkpt lat="36.701077071828294" lon="14.967994130186552"><ele>24.25</ele><time>2026-04-11T15:17:28Z</time></trkpt><trkpt lat="36.70108671687053" lon="14.967841939612553"><ele>24.0</ele><time>2026-04-11T15:17:29Z</time></trkpt><trkpt lat="36.701091224884664" lon="14.967684934864298"><ele>24.0</ele><time>2026-04-11T15:17:30Z</time></trkpt><trkpt lat="36.70109578585976" lon="14.967531266503059"><ele>24.0</ele><time>2026-04-11T15:17:31Z</time></trkpt><trkpt lat="36.70109629212398" lon="14.967378995071641"><ele>24.0</ele><time>2026-04-11T15:17:32Z</time></trkpt><trkpt lat="36.70109545080232" lon="14.967228160824225"><ele>24.0</ele><time>2026-04-11T15:17:33Z</time></trkpt><trkpt lat="36.70109425662486" lon="14.96709199996976"><ele>24.2</ele><time>2026-04-11T15:17:34Z</time></trkpt><trkpt lat="36.701092804157994" lon="14.966959448304312"><ele>24.4</ele><time>2026-04-11T15:17:35Z</time></trkpt><trkpt lat="36.70109088268835" lon="14.966835364284943"><ele>24.6</ele><time>2026-04-11T15:17:36Z</time></trkpt><trkpt lat="36.70108936530651" lon="14.966721913272801"><ele>24.8</ele><time>2026-04-11T15:17:37Z</time></trkpt><trkpt lat="36.70108391653723" lon="14.966613698831132"><ele>25.0</ele><time>2026-04-11T15:17:38Z</time></trkpt><trkpt lat="36.70107169700435" lon="14.966503728068119"><ele>25.166666666666668</ele><time>2026-04-11T15:17:39Z</time></trkpt><trkpt lat="36.70107303528197" lon="14.966379847403822"><ele>25.333333333333336</ele><time>2026-04-11T15:17:40Z</time></trkpt><trkpt lat="36.701058867745914" lon="14.966262673283653"><ele>25.5</ele><time>2026-04-11T15:17:41Z</time></trkpt><trkpt lat="36.70104842019253" lon="14.9661514530762"><ele>25.666666666666664</ele><time>2026-04-11T15:17:42Z</time></trkpt><trkpt lat="36.70105467479255" lon="14.966053375472335"><ele>25.833333333333332</ele><time>2026-04-11T15:17:43Z</time></trkpt><trkpt lat="36.70105984886686" lon="14.965971132084753"><ele>26.0</ele><time>2026-04-11T15:17:44Z</time></trkpt><trkpt lat="36.70106475776336" lon="14.965834072438883"><ele>25.666666666666664</ele><time>2026-04-11T15:17:46Z</time></trkpt><trkpt lat="36.701070456385175" lon="14.965691996704782"><ele>25.333333333333332</ele><time>2026-04-11T15:17:48Z</time></trkpt><trkpt lat="36.70107036838537" lon="14.965608571300546"><ele>25.0</ele><time>2026-04-11T15:17:49Z</time></trkpt><trkpt lat="36.70107270125966" lon="14.965514924136352"><ele>24.666666666666664</ele><time>2026-04-11T15:17:50Z</time></trkpt><trkpt lat="36.701074604145305" lon="14.965409882170153"><ele>24.333333333333332</ele><time>2026-04-11T15:17:51Z</time></trkpt><trkpt lat="36.70107199773821" lon="14.965293620622992"><ele>24.0</ele><time>2026-04-11T15:17:52Z</time></trkpt><trkpt lat="36.701069137767156" lon="14.965178532344371"><ele>24.0</ele><time>2026-04-11T15:17:53Z</time></trkpt><trkpt lat="36.70106844549577" lon="14.965073519814117"><ele>24.0</ele><time>2026-04-11T15:17:54Z</time></trkpt><trkpt lat="36.701065747994434" lon="14.964978681941536"><ele>24.0</ele><time>2026-04-11T15:17:55Z</time></trkpt><trkpt lat="36.701059197458434" lon="14.96488977193481"><ele>24.0</ele><time>2026-04-11T15:17:56Z</time></trkpt><trkpt lat="36.70105112669466" lon="14.964804449027591"><ele>24.0</ele><time>2026-04-11T15:17:57Z</time></trkpt><trkpt lat="36.701037544581666" lon="14.964653448155662"><ele>24.0</ele><time>2026-04-11T15:17:59Z</time></trkpt><trkpt lat="36.70102460142808" lon="14.964509979778795"><ele>23.833333333333332</ele><time>2026-04-11T15:18:01Z</time></trkpt><trkpt lat="36.70101725385945" lon="14.964375288647638"><ele>23.666666666666668</ele><time>2026-04-11T15:18:03Z</time></trkpt><trkpt lat="36.70100477318213" lon="14.964236685522607"><ele>23.5</ele><time>2026-04-11T15:18:05Z</time></trkpt><trkpt lat="36.700999085758134" lon="14.964149533952646"><ele>23.333333333333336</ele><time>2026-04-11T15:18:06Z</time></trkpt><trkpt lat="36.70098991381083" lon="14.96406113065772"><ele>23.166666666666668</ele><time>2026-04-11T15:18:07Z</time></trkpt><trkpt lat="36.700976134425204" lon="14.96396417988583"><ele>23.0</ele><time>2026-04-11T15:18:08Z</time></trkpt><trkpt lat="36.70096253703512" lon="14.963873255167748"><ele>22.571428571428573</ele><time>2026-04-11T15:18:09Z</time></trkpt><trkpt lat="36.7009478724614" lon="14.963790371359368"><ele>22.142857142857142</ele><time>2026-04-11T15:18:10Z</time></trkpt><trkpt lat="36.70093264384826" lon="14.963709686591569"><ele>21.714285714285715</ele><time>2026-04-11T15:18:11Z</time></trkpt><trkpt lat="36.70091952147806" lon="14.9636321403812"><ele>21.285714285714285</ele><time>2026-04-11T15:18:12Z</time></trkpt><trkpt lat="36.70090630150429" lon="14.963548161995629"><ele>20.857142857142858</ele><time>2026-04-11T15:18:13Z</time></trkpt><trkpt lat="36.70089074012029" lon="14.963456618119391"><ele>20.428571428571427</ele><time>2026-04-11T15:18:14Z</time></trkpt><trkpt lat="36.70087521740962" lon="14.963365624832926"><ele>20.0</ele><time>2026-04-11T15:18:15Z</time></trkpt><trkpt lat="36.700859526789486" lon="14.963267146796001"><ele>19.2</ele><time>2026-04-11T15:18:16Z</time></trkpt><trkpt lat="36.70084534431532" lon="14.963161734860916"><ele>18.4</ele><time>2026-04-11T15:18:17Z</time></trkpt><trkpt lat="36.70083005174695" lon="14.963044509021628"><ele>17.6</ele><time>2026-04-11T15:18:18Z</time></trkpt><trkpt lat="36.70081594981862" lon="14.962925962514415"><ele>16.8</ele><time>2026-04-11T15:18:19Z</time></trkpt><trkpt lat="36.70080978816955" lon="14.962805526247534"><ele>16.0</ele><time>2026-04-11T15:18:20Z</time></trkpt><trkpt lat="36.700802289519615" lon="14.96263336232015"><ele>15.5</ele><time>2026-04-11T15:18:21Z</time></trkpt><trkpt lat="36.700812661951836" lon="14.962471154599276"><ele>15.0</ele><time>2026-04-11T15:18:22Z</time></trkpt><trkpt lat="36.70083345692954" lon="14.96230873749652"><ele>14.5</ele><time>2026-04-11T15:18:23Z</time></trkpt><trkpt lat="36.700867793439514" lon="14.962141944827557"><ele>14.0</ele><time>2026-04-11T15:18:24Z</time></trkpt><trkpt lat="36.70090738164846" lon="14.961967849908403"><ele>14.0</ele><time>2026-04-11T15:18:25Z</time></trkpt><trkpt lat="36.70095546153831" lon="14.96179634684867"><ele>14.0</ele><time>2026-04-11T15:18:26Z</time></trkpt><trkpt lat="36.70099761144514" lon="14.961638542911292"><ele>14.0</ele><time>2026-04-11T15:18:27Z</time></trkpt><trkpt lat="36.70102523616608" lon="14.961495817670352"><ele>14.0</ele><time>2026-04-11T15:18:28Z</time></trkpt><trkpt lat="36.70105864246364" lon="14.961359102384234"><ele>14.25</ele><time>2026-04-11T15:18:29Z</time></trkpt><trkpt lat="36.70110453991878" lon="14.961203595862509"><ele>14.5</ele><time>2026-04-11T15:18:30Z</time></trkpt><trkpt lat="36.70115470037773" lon="14.961035776579317"><ele>14.75</ele><time>2026-04-11T15:18:31Z</time></trkpt><trkpt lat="36.701207545131005" lon="14.960861610193772"><ele>15.0</ele><time>2026-04-11T15:18:32Z</time></trkpt><trkpt lat="36.70125623276317" lon="14.96070089613054"><ele>14.0</ele><time>2026-04-11T15:18:33Z</time></trkpt><trkpt lat="36.70130007592222" lon="14.960549150977258"><ele>13.0</ele><time>2026-04-11T15:18:34Z</time></trkpt><trkpt lat="36.70133505235482" lon="14.960402584414958"><ele>12.0</ele><time>2026-04-11T15:18:35Z</time></trkpt><trkpt lat="36.701351412377676" lon="14.960238795085175"><ele>11.0</ele><time>2026-04-11T15:18:36Z</time></trkpt><trkpt lat="36.70134543014574" lon="14.960059499462727"><ele>9.666666666666666</ele><time>2026-04-11T15:18:37Z</time></trkpt><trkpt lat="36.70132010705987" lon="14.959885383300236"><ele>8.333333333333334</ele><time>2026-04-11T15:18:38Z</time></trkpt><trkpt lat="36.701304060156595" lon="14.95969647841171"><ele>7.0</ele><time>2026-04-11T15:18:39Z</time></trkpt><trkpt lat="36.701283179646495" lon="14.959501062646886"><ele>7.0</ele><time>2026-04-11T15:18:40Z</time></trkpt><trkpt lat="36.70125694110866" lon="14.959301080633917"><ele>7.0</ele><time>2026-04-11T15:18:41Z</time></trkpt><trkpt lat="36.70122448513682" lon="14.959101545528483"><ele>7.0</ele><time>2026-04-11T15:18:42Z</time></trkpt><trkpt lat="36.70118782028104" lon="14.958917084422545"><ele>6.666666666666667</ele><time>2026-04-11T15:18:43Z</time></trkpt><trkpt lat="36.70115985890921" lon="14.958726597068218"><ele>6.333333333333334</ele><time>2026-04-11T15:18:44Z</time></trkpt><trkpt lat="36.70113290679764" lon="14.958531551217543"><ele>6.0</ele><time>2026-04-11T15:18:45Z</time></trkpt><trkpt lat="36.7011028004865" lon="14.95833026809218"><ele>6.0</ele><time>2026-04-11T15:18:46Z</time></trkpt><trkpt lat="36.701073961679285" lon="14.958125692533383"><ele>6.0</ele><time>2026-04-11T15:18:47Z</time></trkpt><trkpt lat="36.701045018412515" lon="14.957917978717173"><ele>6.0</ele><time>2026-04-11T15:18:48Z</time></trkpt><trkpt lat="36.70101726954009" lon="14.95771201932413"><ele>5.666666666666667</ele><time>2026-04-11T15:18:49Z</time></trkpt><trkpt lat="36.700991041011314" lon="14.95749893105362"><ele>5.333333333333334</ele><time>2026-04-11T15:18:50Z</time></trkpt><trkpt lat="36.70096755530571" lon="14.957285638504082"><ele>5.0</ele><time>2026-04-11T15:18:51Z</time></trkpt><trkpt lat="36.70094700171907" lon="14.95707734835643"><ele>5.0</ele><time>2026-04-11T15:18:52Z</time></trkpt><trkpt lat="36.70092550974608" lon="14.9568859224408"><ele>5.0</ele><time>2026-04-11T15:18:53Z</time></trkpt><trkpt lat="36.700894425604695" lon="14.956702785756898"><ele>5.0</ele><time>2026-04-11T15:18:54Z</time></trkpt><trkpt lat="36.70085388841492" lon="14.95652343054912"><ele>5.0</ele><time>2026-04-11T15:18:55Z</time></trkpt><trkpt lat="36.70080986874576" lon="14.956343743901757"><ele>5.0</ele><time>2026-04-11T15:18:56Z</time></trkpt><trkpt lat="36.70076854202684" lon="14.956159669302446"><ele>5.0</ele><time>2026-04-11T15:18:57Z</time></trkpt><trkpt lat="36.70073745826681" lon="14.955982290719431"><ele>5.0</ele><time>2026-04-11T15:18:58Z</time></trkpt><trkpt lat="36.70071617908195" lon="14.955809374900571"><ele>5.0</ele><time>2026-04-11T15:18:59Z</time></trkpt><trkpt lat="36.70069630605412" lon="14.955641478098423"><ele>5.0</ele><time>2026-04-11T15:19:00Z</time></trkpt><trkpt lat="36.70067238329139" lon="14.95548766450452"><ele>5.0</ele><time>2026-04-11T15:19:01Z</time></trkpt><trkpt lat="36.70064363993431" lon="14.955369061639797"><ele>5.0</ele><time>2026-04-11T15:19:02Z</time></trkpt><trkpt lat="36.70062099587882" lon="14.955285817162459"><ele>5.0</ele><time>2026-04-11T15:19:03Z</time></trkpt><trkpt lat="36.700587610576996" lon="14.95519227230921"><ele>5.0</ele><time>2026-04-11T15:19:05Z</time></trkpt><trkpt lat="36.700520642267925" lon="14.955083183693759"><ele>5.0</ele><time>2026-04-11T15:19:09Z</time></trkpt><trkpt lat="36.70049119430001" lon="14.955008630919691"><ele>5.0</ele><time>2026-04-11T15:19:10Z</time></trkpt><trkpt lat="36.70034701082015" lon="14.955004504614934"><ele>5.0</ele><time>2026-04-11T15:19:11Z</time></trkpt><trkpt lat="36.70020790921557" lon="14.954960531953759"><ele>4.666666666666667</ele><time>2026-04-11T15:19:12Z</time></trkpt><trkpt lat="36.70004915106418" lon="14.95491061799843"><ele>4.333333333333333</ele><time>2026-04-11T15:19:13Z</time></trkpt><trkpt lat="36.69989998950063" lon="14.954853513687661"><ele>4.0</ele><time>2026-04-11T15:19:14Z</time></trkpt><trkpt lat="36.69975770796725" lon="14.954802445567195"><ele>4.0</ele><time>2026-04-11T15:19:15Z</time></trkpt><trkpt lat="36.699615537172015" lon="14.954754784110236"><ele>4.0</ele><time>2026-04-11T15:19:16Z</time></trkpt><trkpt lat="36.699473056437625" lon="14.954702761257945"><ele>4.0</ele><time>2026-04-11T15:19:17Z</time></trkpt><trkpt lat="36.69933174797062" lon="14.954651088796757"><ele>4.0</ele><time>2026-04-11T15:19:18Z</time></trkpt><trkpt lat="36.699192676753704" lon="14.954600132106178"><ele>4.25</ele><time>2026-04-11T15:19:19Z</time></trkpt><trkpt lat="36.6990573458559" lon="14.95455130071554"><ele>4.5</ele><time>2026-04-11T15:19:20Z</time></trkpt><trkpt lat="36.698913510813036" lon="14.95449984495725"><ele>4.75</ele><time>2026-04-11T15:19:21Z</time></trkpt><trkpt lat="36.69876427229052" lon="14.954444606274485"><ele>5.0</ele><time>2026-04-11T15:19:22Z</time></trkpt><trkpt lat="36.69860947745939" lon="14.954388383375079"><ele>4.666666666666667</ele><time>2026-04-11T15:19:23Z</time></trkpt><trkpt lat="36.69845695957427" lon="14.954333645719311"><ele>4.333333333333333</ele><time>2026-04-11T15:19:24Z</time></trkpt><trkpt lat="36.698302497814055" lon="14.95427927747252"><ele>4.0</ele><time>2026-04-11T15:19:25Z</time></trkpt><trkpt lat="36.69814784081616" lon="14.95422366815455"><ele>4.0</ele><time>2026-04-11T15:19:26Z</time></trkpt><trkpt lat="36.69799349707318" lon="14.95417022835684"><ele>4.0</ele><time>2026-04-11T15:19:27Z</time></trkpt><trkpt lat="36.697843683189156" lon="14.95411730540171"><ele>4.0</ele><time>2026-04-11T15:19:28Z</time></trkpt><trkpt lat="36.69769567078862" lon="14.954064198254466"><ele>4.0</ele><time>2026-04-11T15:19:29Z</time></trkpt><trkpt lat="36.69755765099992" lon="14.954015614037353"><ele>4.0</ele><time>2026-04-11T15:19:30Z</time></trkpt><trkpt lat="36.697406067471135" lon="14.95396356975814"><ele>4.0</ele><time>2026-04-11T15:19:31Z</time></trkpt><trkpt lat="36.69727397352569" lon="14.953915267773544"><ele>4.0</ele><time>2026-04-11T15:19:32Z</time></trkpt><trkpt lat="36.69714419969657" lon="14.953871204542686"><ele>4.0</ele><time>2026-04-11T15:19:33Z</time></trkpt><trkpt lat="36.69702173285862" lon="14.953830578836888"><ele>4.0</ele><time>2026-04-11T15:19:34Z</time></trkpt><trkpt lat="36.69690785495367" lon="14.953791127678313"><ele>4.0</ele><time>2026-04-11T15:19:35Z</time></trkpt><trkpt lat="36.69680542288205" lon="14.95375358654662"><ele>4.0</ele><time>2026-04-11T15:19:36Z</time></trkpt><trkpt lat="36.6967069401727" lon="14.953715589234553"><ele>4.0</ele><time>2026-04-11T15:19:37Z</time></trkpt><trkpt lat="36.69662421268823" lon="14.953665552258299"><ele>4.0</ele><time>2026-04-11T15:19:38Z</time></trkpt><trkpt lat="36.696554953385494" lon="14.95361926841071"><ele>4.0</ele><time>2026-04-11T15:19:39Z</time></trkpt><trkpt lat="36.69649522251129" lon="14.953579460687342"><ele>4.0</ele><time>2026-04-11T15:19:40Z</time></trkpt><trkpt lat="36.69653917147156" lon="14.953342413336049"><ele>4.0</ele><time>2026-04-11T15:19:42Z</time></trkpt><trkpt lat="36.69657109710672" lon="14.95326183304977"><ele>4.25</ele><time>2026-04-11T15:19:43Z</time></trkpt><trkpt lat="36.69663071723679" lon="14.953145659918507"><ele>4.5</ele><time>2026-04-11T15:19:44Z</time></trkpt><trkpt lat="36.69671591062124" lon="14.953005729362657"><ele>4.75</ele><time>2026-04-11T15:19:45Z</time></trkpt><trkpt lat="36.69681578789002" lon="14.952855137340038"><ele>5.0</ele><time>2026-04-11T15:19:46Z</time></trkpt><trkpt lat="36.69691687316716" lon="14.95270082324555"><ele>4.666666666666667</ele><time>2026-04-11T15:19:47Z</time></trkpt><trkpt lat="36.69702027077128" lon="14.952537895746119"><ele>4.333333333333333</ele><time>2026-04-11T15:19:48Z</time></trkpt><trkpt lat="36.69712943510622" lon="14.952368474537682"><ele>4.0</ele><time>2026-04-11T15:19:49Z</time></trkpt><trkpt lat="36.697232297453745" lon="14.952206877883626"><ele>4.0</ele><time>2026-04-11T15:19:50Z</time></trkpt><trkpt lat="36.69732474012193" lon="14.952057722506153"><ele>4.0</ele><time>2026-04-11T15:19:51Z</time></trkpt><trkpt lat="36.69741586942819" lon="14.95191082209069"><ele>4.0</ele><time>2026-04-11T15:19:52Z</time></trkpt><trkpt lat="36.69751301208989" lon="14.951758065013683"><ele>4.0</ele><time>2026-04-11T15:19:53Z</time></trkpt><trkpt lat="36.697614028491124" lon="14.951596850836655"><ele>4.0</ele><time>2026-04-11T15:19:54Z</time></trkpt><trkpt lat="36.69771615307313" lon="14.951438978396851"><ele>4.0</ele><time>2026-04-11T15:19:55Z</time></trkpt><trkpt lat="36.69781855963525" lon="14.951276730651546"><ele>4.666666666666666</ele><time>2026-04-11T15:19:56Z</time></trkpt><trkpt lat="36.6979250443447" lon="14.951109020706626"><ele>5.333333333333333</ele><time>2026-04-11T15:19:57Z</time></trkpt><trkpt lat="36.69803902232166" lon="14.950943640875897"><ele>6.0</ele><time>2026-04-11T15:19:58Z</time></trkpt><trkpt lat="36.69815811528337" lon="14.950777357718266"><ele>6.0</ele><time>2026-04-11T15:19:59Z</time></trkpt><trkpt lat="36.698282842695576" lon="14.950610722131026"><ele>6.0</ele><time>2026-04-11T15:20:00Z</time></trkpt><trkpt lat="36.69841690318278" lon="14.950443096518754"><ele>6.0</ele><time>2026-04-11T15:20:01Z</time></trkpt><trkpt lat="36.6985596675118" lon="14.95026967065096"><ele>5.333333333333333</ele><time>2026-04-11T15:20:02Z</time></trkpt><trkpt lat="36.698696172898664" lon="14.950099236918067"><ele>4.666666666666666</ele><time>2026-04-11T15:20:03Z</time></trkpt><trkpt lat="36.698824993911394" lon="14.949936293338618"><ele>4.0</ele><time>2026-04-11T15:20:04Z</time></trkpt><trkpt lat="36.69894499736886" lon="14.949783492208953"><ele>4.0</ele><time>2026-04-11T15:20:05Z</time></trkpt><trkpt lat="36.69906071483066" lon="14.949641153828775"><ele>4.0</ele><time>2026-04-11T15:20:06Z</time></trkpt><trkpt lat="36.699186658193" lon="14.949485725540594"><ele>4.0</ele><time>2026-04-11T15:20:07Z</time></trkpt><trkpt lat="36.699320496051165" lon="14.949319980273645"><ele>4.0</ele><time>2026-04-11T15:20:08Z</time></trkpt><trkpt lat="36.6994642540345" lon="14.94914323304941"><ele>4.0</ele><time>2026-04-11T15:20:09Z</time></trkpt><trkpt lat="36.699605491995065" lon="14.948969954379157"><ele>4.0</ele><time>2026-04-11T15:20:10Z</time></trkpt><trkpt lat="36.69975050018523" lon="14.948791647434994"><ele>4.0</ele><time>2026-04-11T15:20:11Z</time></trkpt><trkpt lat="36.6998887483141" lon="14.948621943015702"><ele>4.0</ele><time>2026-04-11T15:20:12Z</time></trkpt><trkpt lat="36.7000287990606" lon="14.948448946814734"><ele>4.0</ele><time>2026-04-11T15:20:13Z</time></trkpt><trkpt lat="36.70016829605976" lon="14.948276891161198"><ele>4.666666666666666</ele><time>2026-04-11T15:20:14Z</time></trkpt><trkpt lat="36.700307956460016" lon="14.948101567327129"><ele>5.333333333333333</ele><time>2026-04-11T15:20:15Z</time></trkpt><trkpt lat="36.70044677015991" lon="14.94792580305975"><ele>6.0</ele><time>2026-04-11T15:20:16Z</time></trkpt><trkpt lat="36.7005897105025" lon="14.947748130982662"><ele>6.0</ele><time>2026-04-11T15:20:17Z</time></trkpt><trkpt lat="36.70073361859295" lon="14.947573022260189"><ele>6.0</ele><time>2026-04-11T15:20:18Z</time></trkpt><trkpt lat="36.70088132463247" lon="14.947391615292283"><ele>6.0</ele><time>2026-04-11T15:20:19Z</time></trkpt><trkpt lat="36.70102992558898" lon="14.947205531918469"><ele>5.666666666666667</ele><time>2026-04-11T15:20:20Z</time></trkpt><trkpt lat="36.70117821793744" lon="14.947021735965912"><ele>5.333333333333334</ele><time>2026-04-11T15:20:21Z</time></trkpt><trkpt lat="36.70131731611404" lon="14.946853082792986"><ele>5.0</ele><time>2026-04-11T15:20:22Z</time></trkpt><trkpt lat="36.70144575996841" lon="14.946698052508406"><ele>5.0</ele><time>2026-04-11T15:20:23Z</time></trkpt><trkpt lat="36.70156591166737" lon="14.946553427127599"><ele>5.0</ele><time>2026-04-11T15:20:24Z</time></trkpt><trkpt lat="36.701676778691194" lon="14.946414884913738"><ele>5.0</ele><time>2026-04-11T15:20:25Z</time></trkpt><trkpt lat="36.70179016172009" lon="14.946274235794437"><ele>5.0</ele><time>2026-04-11T15:20:26Z</time></trkpt><trkpt lat="36.70191430720667" lon="14.94612259097243"><ele>5.0</ele><time>2026-04-11T15:20:27Z</time></trkpt><trkpt lat="36.70204780458522" lon="14.945953960425445"><ele>5.0</ele><time>2026-04-11T15:20:28Z</time></trkpt><trkpt lat="36.70219110183232" lon="14.945778023003937"><ele>5.0</ele><time>2026-04-11T15:20:29Z</time></trkpt><trkpt lat="36.70233229294367" lon="14.945603393945387"><ele>5.0</ele><time>2026-04-11T15:20:30Z</time></trkpt><trkpt lat="36.70246924233463" lon="14.945430984716062"><ele>5.0</ele><time>2026-04-11T15:20:31Z</time></trkpt><trkpt lat="36.702596417546445" lon="14.945268292285888"><ele>5.0</ele><time>2026-04-11T15:20:32Z</time></trkpt><trkpt lat="36.70272606257576" lon="14.94510430850955"><ele>5.0</ele><time>2026-04-11T15:20:33Z</time></trkpt><trkpt lat="36.70285509682471" lon="14.944945322902374"><ele>5.0</ele><time>2026-04-11T15:20:34Z</time></trkpt><trkpt lat="36.702982182688174" lon="14.944786144285143"><ele>4.666666666666667</ele><time>2026-04-11T15:20:35Z</time></trkpt><trkpt lat="36.70311025456357" lon="14.944623493177668"><ele>4.333333333333333</ele><time>2026-04-11T15:20:36Z</time></trkpt><trkpt lat="36.70323814084119" lon="14.944451483732607"><ele>4.0</ele><time>2026-04-11T15:20:37Z</time></trkpt><trkpt lat="36.70336807679154" lon="14.94427419111974"><ele>4.333333333333333</ele><time>2026-04-11T15:20:38Z</time></trkpt><trkpt lat="36.70348935111867" lon="14.944114148560278"><ele>4.666666666666667</ele><time>2026-04-11T15:20:39Z</time></trkpt><trkpt lat="36.703609504468375" lon="14.943957992878564"><ele>5.0</ele><time>2026-04-11T15:20:40Z</time></trkpt><trkpt lat="36.703728606254174" lon="14.943793469386325"><ele>5.0</ele><time>2026-04-11T15:20:41Z</time></trkpt><trkpt lat="36.703851000294534" lon="14.94362597728989"><ele>5.0</ele><time>2026-04-11T15:20:42Z</time></trkpt><trkpt lat="36.70397989633621" lon="14.943456515260406"><ele>5.0</ele><time>2026-04-11T15:20:43Z</time></trkpt><trkpt lat="36.7041138913276" lon="14.943293221949673"><ele>5.0</ele><time>2026-04-11T15:20:44Z</time></trkpt><trkpt lat="36.70425737650779" lon="14.943132681785443"><ele>5.0</ele><time>2026-04-11T15:20:45Z</time></trkpt><trkpt lat="36.70439700323638" lon="14.94296502674065"><ele>5.0</ele><time>2026-04-11T15:20:46Z</time></trkpt><trkpt lat="36.70453819610971" lon="14.942782184943734"><ele>4.666666666666667</ele><time>2026-04-11T15:20:47Z</time></trkpt><trkpt lat="36.704681823337715" lon="14.942595420507107"><ele>4.333333333333333</ele><time>2026-04-11T15:20:48Z</time></trkpt><trkpt lat="36.70482605337245" lon="14.942411416991606"><ele>4.0</ele><time>2026-04-11T15:20:49Z</time></trkpt><trkpt lat="36.7049688942327" lon="14.942226450860264"><ele>4.0</ele><time>2026-04-11T15:20:50Z</time></trkpt><trkpt lat="36.70511298481557" lon="14.942039479028384"><ele>4.0</ele><time>2026-04-11T15:20:51Z</time></trkpt><trkpt lat="36.70525502630059" lon="14.941856015777566"><ele>4.0</ele><time>2026-04-11T15:20:52Z</time></trkpt><trkpt lat="36.70539371239548" lon="14.941679969064854"><ele>4.333333333333333</ele><time>2026-04-11T15:20:53Z</time></trkpt><trkpt lat="36.705530939046916" lon="14.941502163473396"><ele>4.666666666666667</ele><time>2026-04-11T15:20:54Z</time></trkpt><trkpt lat="36.705666018076585" lon="14.941323857942795"><ele>5.0</ele><time>2026-04-11T15:20:55Z</time></trkpt><trkpt lat="36.705802187095735" lon="14.941144764061741"><ele>5.0</ele><time>2026-04-11T15:20:56Z</time></trkpt><trkpt lat="36.705935286182914" lon="14.940970299399964"><ele>5.0</ele><time>2026-04-11T15:20:57Z</time></trkpt><trkpt lat="36.70605648322708" lon="14.940808537280757"><ele>5.0</ele><time>2026-04-11T15:20:58Z</time></trkpt><trkpt lat="36.70615907571579" lon="14.940672297698452"><ele>5.0</ele><time>2026-04-11T15:20:59Z</time></trkpt><trkpt lat="36.706251169490244" lon="14.940551281631944"><ele>5.0</ele><time>2026-04-11T15:21:00Z</time></trkpt><trkpt lat="36.70634103038336" lon="14.940429294299461"><ele>5.0</ele><time>2026-04-11T15:21:01Z</time></trkpt><trkpt lat="36.70642825400878" lon="14.940310744305288"><ele>5.0</ele><time>2026-04-11T15:21:02Z</time></trkpt><trkpt lat="36.70650874397866" lon="14.94020136325758"><ele>5.0</ele><time>2026-04-11T15:21:03Z</time></trkpt><trkpt lat="36.7065844201975" lon="14.940117188954382"><ele>5.0</ele><time>2026-04-11T15:21:04Z</time></trkpt><trkpt lat="36.70666552935373" lon="14.94006950485247"><ele>5.0</ele><time>2026-04-11T15:21:05Z</time></trkpt><trkpt lat="36.706710650616664" lon="14.940004364826851"><ele>5.0</ele><time>2026-04-11T15:21:06Z</time></trkpt><trkpt lat="36.706907739529626" lon="14.940135854371876"><ele>5.0</ele><time>2026-04-11T15:21:08Z</time></trkpt><trkpt lat="36.7069774568466" lon="14.940209639792835"><ele>5.0</ele><time>2026-04-11T15:21:09Z</time></trkpt><trkpt lat="36.707037524449596" lon="14.940305084044462"><ele>5.0</ele><time>2026-04-11T15:21:11Z</time></trkpt><trkpt lat="36.70709785819798" lon="14.940368303702424"><ele>5.0</ele><time>2026-04-11T15:21:16Z</time></trkpt><trkpt lat="36.70721496927412" lon="14.940491368214788"><ele>5.0</ele><time>2026-04-11T15:21:18Z</time></trkpt><trkpt lat="36.70728362623325" lon="14.940554028671286"><ele>5.0</ele><time>2026-04-11T15:21:19Z</time></trkpt><trkpt lat="36.707338761516255" lon="14.940638682242486"><ele>5.0</ele><time>2026-04-11T15:21:20Z</time></trkpt><trkpt lat="36.70740899601149" lon="14.94071277742908"><ele>5.0</ele><time>2026-04-11T15:21:21Z</time></trkpt><trkpt lat="36.70748019178754" lon="14.94078236356703"><ele>5.0</ele><time>2026-04-11T15:21:22Z</time></trkpt><trkpt lat="36.707578614255475" lon="14.940828524330168"><ele>5.0</ele><time>2026-04-11T15:21:23Z</time></trkpt><trkpt lat="36.70765475433213" lon="14.940873072986495"><ele>5.0</ele><time>2026-04-11T15:21:24Z</time></trkpt><trkpt lat="36.70773435240025" lon="14.940916850226973"><ele>5.0</ele><time>2026-04-11T15:21:25Z</time></trkpt><trkpt lat="36.70780238045227" lon="14.940947634290552"><ele>5.0</ele><time>2026-04-11T15:21:26Z</time></trkpt><trkpt lat="36.70789257422945" lon="14.940991334583348"><ele>5.0</ele><time>2026-04-11T15:21:28Z</time></trkpt><trkpt lat="36.70802977705871" lon="14.941032579198485"><ele>5.0</ele><time>2026-04-11T15:21:30Z</time></trkpt><trkpt lat="36.708100114804985" lon="14.941055510948516"><ele>5.0</ele><time>2026-04-11T15:21:31Z</time></trkpt><trkpt lat="36.7081634307183" lon="14.94107771904026"><ele>5.0</ele><time>2026-04-11T15:21:32Z</time></trkpt><trkpt lat="36.70827709426485" lon="14.941118653151685"><ele>5.0</ele><time>2026-04-11T15:21:34Z</time></trkpt><trkpt lat="36.70840098807694" lon="14.941163254394251"><ele>5.0</ele><time>2026-04-11T15:21:36Z</time></trkpt><trkpt lat="36.70847312167723" lon="14.941188878260698"><ele>5.0</ele><time>2026-04-11T15:21:37Z</time></trkpt><trkpt lat="36.708556998429046" lon="14.941216989958152"><ele>5.0</ele><time>2026-04-11T15:21:38Z</time></trkpt><trkpt lat="36.70864864410757" lon="14.94124836987607"><ele>5.0</ele><time>2026-04-11T15:21:39Z</time></trkpt><trkpt lat="36.708746439821766" lon="14.94128304367318"><ele>5.0</ele><time>2026-04-11T15:21:40Z</time></trkpt><trkpt lat="36.70884617914315" lon="14.941316535251985"><ele>5.0</ele><time>2026-04-11T15:21:41Z</time></trkpt><trkpt lat="36.7089479770739" lon="14.941350603767889"><ele>5.0</ele><time>2026-04-11T15:21:42Z</time></trkpt><trkpt lat="36.70905425325701" lon="14.941387050196742"><ele>5.0</ele><time>2026-04-11T15:21:43Z</time></trkpt><trkpt lat="36.70916801905147" lon="14.941426990065754"><ele>5.0</ele><time>2026-04-11T15:21:44Z</time></trkpt><trkpt lat="36.7092751513468" lon="14.941463986981166"><ele>5.0</ele><time>2026-04-11T15:21:45Z</time></trkpt><trkpt lat="36.70937502194822" lon="14.94149940144658"><ele>5.0</ele><time>2026-04-11T15:21:46Z</time></trkpt><trkpt lat="36.709479627302244" lon="14.941537875508287"><ele>5.0</ele><time>2026-04-11T15:21:47Z</time></trkpt><trkpt lat="36.709578104482695" lon="14.941571543246308"><ele>5.0</ele><time>2026-04-11T15:21:48Z</time></trkpt><trkpt lat="36.709678536480915" lon="14.941603946228371"><ele>5.0</ele><time>2026-04-11T15:21:49Z</time></trkpt><trkpt lat="36.709776236854466" lon="14.941637092190057"><ele>5.0</ele><time>2026-04-11T15:21:50Z</time></trkpt><trkpt lat="36.70987208349163" lon="14.941670402533356"><ele>5.0</ele><time>2026-04-11T15:21:51Z</time></trkpt><trkpt lat="36.70996741179955" lon="14.941702731507258"><ele>5.0</ele><time>2026-04-11T15:21:52Z</time></trkpt><trkpt lat="36.71005605773853" lon="14.941734012718678"><ele>5.0</ele><time>2026-04-11T15:21:53Z</time></trkpt><trkpt lat="36.71013350552234" lon="14.941759756416376"><ele>5.0</ele><time>2026-04-11T15:21:54Z</time></trkpt><trkpt lat="36.71020367000641" lon="14.941785832486003"><ele>5.0</ele><time>2026-04-11T15:21:55Z</time></trkpt><trkpt lat="36.71026999365375" lon="14.941806773948827"><ele>5.0</ele><time>2026-04-11T15:21:56Z</time></trkpt><trkpt lat="36.7103712211772" lon="14.941847552560013"><ele>5.0</ele><time>2026-04-11T15:21:58Z</time></trkpt><trkpt lat="36.71044282397266" lon="14.941684716178088"><ele>5.2</ele><time>2026-04-11T15:22:00Z</time></trkpt><trkpt lat="36.71045237018471" lon="14.94157357404742"><ele>5.4</ele><time>2026-04-11T15:22:01Z</time></trkpt><trkpt lat="36.710475163915305" lon="14.941449936438675"><ele>5.6</ele><time>2026-04-11T15:22:02Z</time></trkpt><trkpt lat="36.71050677386066" lon="14.941328496295931"><ele>5.8</ele><time>2026-04-11T15:22:03Z</time></trkpt><trkpt lat="36.71053602612157" lon="14.941211901868293"><ele>6.0</ele><time>2026-04-11T15:22:04Z</time></trkpt><trkpt lat="36.710562811926586" lon="14.941101942065286"><ele>6.0</ele><time>2026-04-11T15:22:05Z</time></trkpt><trkpt lat="36.71059112625804" lon="14.940982607183914"><ele>6.0</ele><time>2026-04-11T15:22:06Z</time></trkpt><trkpt lat="36.71061727965522" lon="14.940866615977406"><ele>6.0</ele><time>2026-04-11T15:22:07Z</time></trkpt><trkpt lat="36.71064105809029" lon="14.940748318888048"><ele>6.0</ele><time>2026-04-11T15:22:08Z</time></trkpt><trkpt lat="36.71067071278797" lon="14.94061647805912"><ele>6.0</ele><time>2026-04-11T15:22:09Z</time></trkpt><trkpt lat="36.7107013776394" lon="14.94048582057404"><ele>5.8</ele><time>2026-04-11T15:22:10Z</time></trkpt><trkpt lat="36.71072948193356" lon="14.94036888079764"><ele>5.6</ele><time>2026-04-11T15:22:11Z</time></trkpt><trkpt lat="36.710759751687505" lon="14.940258751138792"><ele>5.4</ele><time>2026-04-11T15:22:12Z</time></trkpt><trkpt lat="36.710789890570055" lon="14.94013902720336"><ele>5.2</ele><time>2026-04-11T15:22:13Z</time></trkpt><trkpt lat="36.710816868751124" lon="14.940007129609437"><ele>5.0</ele><time>2026-04-11T15:22:14Z</time></trkpt><trkpt lat="36.71084439891453" lon="14.939869865220695"><ele>4.75</ele><time>2026-04-11T15:22:15Z</time></trkpt><trkpt lat="36.71087848447906" lon="14.939723914859053"><ele>4.5</ele><time>2026-04-11T15:22:16Z</time></trkpt><trkpt lat="36.71091646087126" lon="14.939576174332991"><ele>4.25</ele><time>2026-04-11T15:22:17Z</time></trkpt><trkpt lat="36.71095389286403" lon="14.93942225160524"><ele>4.0</ele><time>2026-04-11T15:22:18Z</time></trkpt><trkpt lat="36.710990222011716" lon="14.939262711073857"><ele>4.0</ele><time>2026-04-11T15:22:19Z</time></trkpt><trkpt lat="36.7110345045803" lon="14.939095423703373"><ele>4.0</ele><time>2026-04-11T15:22:20Z</time></trkpt><trkpt lat="36.71107445951737" lon="14.938926109625761"><ele>4.0</ele><time>2026-04-11T15:22:21Z</time></trkpt><trkpt lat="36.71111244701508" lon="14.938761379425392"><ele>4.0</ele><time>2026-04-11T15:22:22Z</time></trkpt><trkpt lat="36.71115316842369" lon="14.938595362064133"><ele>4.25</ele><time>2026-04-11T15:22:23Z</time></trkpt><trkpt lat="36.71119324771448" lon="14.938427193839926"><ele>4.5</ele><time>2026-04-11T15:22:24Z</time></trkpt><trkpt lat="36.7112323464332" lon="14.938249258731798"><ele>4.75</ele><time>2026-04-11T15:22:25Z</time></trkpt><trkpt lat="36.711271680679204" lon="14.93807922700806"><ele>5.0</ele><time>2026-04-11T15:22:26Z</time></trkpt><trkpt lat="36.7113118362133" lon="14.937898539335084"><ele>5.0</ele><time>2026-04-11T15:22:27Z</time></trkpt><trkpt lat="36.71135215313562" lon="14.937726773900357"><ele>5.0</ele><time>2026-04-11T15:22:28Z</time></trkpt><trkpt lat="36.7113940628675" lon="14.937554107310843"><ele>5.0</ele><time>2026-04-11T15:22:29Z</time></trkpt><trkpt lat="36.711432407320174" lon="14.937396111291672"><ele>5.0</ele><time>2026-04-11T15:22:30Z</time></trkpt><trkpt lat="36.71146980307716" lon="14.937249604155282"><ele>5.0</ele><time>2026-04-11T15:22:31Z</time></trkpt><trkpt lat="36.711503865301545" lon="14.937096055966034"><ele>5.0</ele><time>2026-04-11T15:22:32Z</time></trkpt><trkpt lat="36.711539754717" lon="14.93693424637201"><ele>5.0</ele><time>2026-04-11T15:22:33Z</time></trkpt><trkpt lat="36.71157752733949" lon="14.936767728588842"><ele>5.0</ele><time>2026-04-11T15:22:34Z</time></trkpt><trkpt lat="36.71161514079615" lon="14.936609963182466"><ele>5.25</ele><time>2026-04-11T15:22:35Z</time></trkpt><trkpt lat="36.71164584387012" lon="14.936467126196158"><ele>5.5</ele><time>2026-04-11T15:22:36Z</time></trkpt><trkpt lat="36.71167508943534" lon="14.936326024200685"><ele>5.75</ele><time>2026-04-11T15:22:37Z</time></trkpt><trkpt lat="36.71171072931183" lon="14.93617809041807"><ele>6.0</ele><time>2026-04-11T15:22:38Z</time></trkpt><trkpt lat="36.711746110409265" lon="14.936030748571477"><ele>6.0</ele><time>2026-04-11T15:22:39Z</time></trkpt><trkpt lat="36.71178020385229" lon="14.935893899919373"><ele>6.0</ele><time>2026-04-11T15:22:40Z</time></trkpt><trkpt lat="36.711810442089245" lon="14.935762380542695"><ele>6.0</ele><time>2026-04-11T15:22:41Z</time></trkpt><trkpt lat="36.711839077710685" lon="14.935635420108188"><ele>6.0</ele><time>2026-04-11T15:22:42Z</time></trkpt><trkpt lat="36.711868545872804" lon="14.935508049483895"><ele>6.0</ele><time>2026-04-11T15:22:43Z</time></trkpt><trkpt lat="36.71189659751322" lon="14.935384927589357"><ele>6.0</ele><time>2026-04-11T15:22:44Z</time></trkpt><trkpt lat="36.71192288053667" lon="14.935255787124843"><ele>6.0</ele><time>2026-04-11T15:22:45Z</time></trkpt><trkpt lat="36.711950787365666" lon="14.935131642108868"><ele>6.0</ele><time>2026-04-11T15:22:46Z</time></trkpt><trkpt lat="36.711974595377946" lon="14.935024517301938"><ele>6.0</ele><time>2026-04-11T15:22:47Z</time></trkpt><trkpt lat="36.71199785569266" lon="14.934924545645979"><ele>6.0</ele><time>2026-04-11T15:22:48Z</time></trkpt><trkpt lat="36.71202184378574" lon="14.934824734322426"><ele>6.0</ele><time>2026-04-11T15:22:49Z</time></trkpt><trkpt lat="36.71204714889913" lon="14.934716800957043"><ele>6.0</ele><time>2026-04-11T15:22:50Z</time></trkpt><trkpt lat="36.7120725472137" lon="14.934600633553318"><ele>6.0</ele><time>2026-04-11T15:22:51Z</time></trkpt><trkpt lat="36.71209654563231" lon="14.934493265718146"><ele>6.0</ele><time>2026-04-11T15:22:52Z</time></trkpt><trkpt lat="36.71212246217134" lon="14.934395338298836"><ele>6.0</ele><time>2026-04-11T15:22:53Z</time></trkpt><trkpt lat="36.71214960586386" lon="14.934298733583697"><ele>6.0</ele><time>2026-04-11T15:22:54Z</time></trkpt><trkpt lat="36.71217720027605" lon="14.934188439708652"><ele>5.6</ele><time>2026-04-11T15:22:55Z</time></trkpt><trkpt lat="36.71220454261912" lon="14.934069543850208"><ele>5.199999999999999</ele><time>2026-04-11T15:22:56Z</time></trkpt><trkpt lat="36.7122319746161" lon="14.933949057755882"><ele>4.800000000000001</ele><time>2026-04-11T15:22:57Z</time></trkpt><trkpt lat="36.71225725557571" lon="14.93383617770272"><ele>4.4</ele><time>2026-04-11T15:22:58Z</time></trkpt><trkpt lat="36.712277783990864" lon="14.933733083513413"><ele>4.0</ele><time>2026-04-11T15:22:59Z</time></trkpt><trkpt lat="36.71229645070538" lon="14.933633799386449"><ele>4.0</ele><time>2026-04-11T15:23:00Z</time></trkpt><trkpt lat="36.71231898961099" lon="14.933525472982891"><ele>4.0</ele><time>2026-04-11T15:23:01Z</time></trkpt><trkpt lat="36.712338762678485" lon="14.93341625455978"><ele>4.0</ele><time>2026-04-11T15:23:02Z</time></trkpt><trkpt lat="36.712360148675685" lon="14.933296251743723"><ele>4.0</ele><time>2026-04-11T15:23:03Z</time></trkpt><trkpt lat="36.71238309653063" lon="14.933177872332593"><ele>4.0</ele><time>2026-04-11T15:23:04Z</time></trkpt><trkpt lat="36.712406459262496" lon="14.933064777775847"><ele>4.166666666666666</ele><time>2026-04-11T15:23:05Z</time></trkpt><trkpt lat="36.71242684232459" lon="14.932961801312532"><ele>4.333333333333333</ele><time>2026-04-11T15:23:06Z</time></trkpt><trkpt lat="36.71244755480137" lon="14.932865673036005"><ele>4.5</ele><time>2026-04-11T15:23:07Z</time></trkpt><trkpt lat="36.71246473883341" lon="14.93276905896541"><ele>4.666666666666667</ele><time>2026-04-11T15:23:08Z</time></trkpt><trkpt lat="36.71248280971052" lon="14.932665112173476"><ele>4.833333333333334</ele><time>2026-04-11T15:23:09Z</time></trkpt><trkpt lat="36.712499822057964" lon="14.93255972139476"><ele>5.0</ele><time>2026-04-11T15:23:10Z</time></trkpt><trkpt lat="36.7125173417864" lon="14.932462851930737"><ele>5.0</ele><time>2026-04-11T15:23:11Z</time></trkpt><trkpt lat="36.712533438307" lon="14.932368896049569"><ele>5.0</ele><time>2026-04-11T15:23:12Z</time></trkpt><trkpt lat="36.712548757566914" lon="14.932282290787457"><ele>5.0</ele><time>2026-04-11T15:23:13Z</time></trkpt><trkpt lat="36.71256955176196" lon="14.932141659939454"><ele>5.0</ele><time>2026-04-11T15:23:15Z</time></trkpt><trkpt lat="36.71258021754035" lon="14.932046121258875"><ele>5.0</ele><time>2026-04-11T15:23:17Z</time></trkpt><trkpt lat="36.71258762416233" lon="14.931952774597114"><ele>5.0</ele><time>2026-04-11T15:23:19Z</time></trkpt><trkpt lat="36.71260094261547" lon="14.931857381762041"><ele>5.2</ele><time>2026-04-11T15:23:21Z</time></trkpt><trkpt lat="36.71266526286678" lon="14.931721069342688"><ele>5.4</ele><time>2026-04-11T15:23:23Z</time></trkpt><trkpt lat="36.71271998727415" lon="14.931644498494894"><ele>5.6</ele><time>2026-04-11T15:23:24Z</time></trkpt><trkpt lat="36.71277498662965" lon="14.931559702877262"><ele>5.8</ele><time>2026-04-11T15:23:25Z</time></trkpt><trkpt lat="36.71283677021508" lon="14.9314711990242"><ele>6.0</ele><time>2026-04-11T15:23:26Z</time></trkpt><trkpt lat="36.712908605515125" lon="14.931372427902042"><ele>5.5</ele><time>2026-04-11T15:23:27Z</time></trkpt><trkpt lat="36.712983544586606" lon="14.931261125817386"><ele>5.0</ele><time>2026-04-11T15:23:28Z</time></trkpt><trkpt lat="36.71306026254536" lon="14.93114694255291"><ele>4.5</ele><time>2026-04-11T15:23:29Z</time></trkpt><trkpt lat="36.7131434765245" lon="14.931029756408208"><ele>4.0</ele><time>2026-04-11T15:23:30Z</time></trkpt><trkpt lat="36.71323387684669" lon="14.930908183045714"><ele>4.5</ele><time>2026-04-11T15:23:31Z</time></trkpt><trkpt lat="36.7133294746791" lon="14.93077821751063"><ele>5.0</ele><time>2026-04-11T15:23:32Z</time></trkpt><trkpt lat="36.71342362588918" lon="14.930644092808041"><ele>5.5</ele><time>2026-04-11T15:23:33Z</time></trkpt><trkpt lat="36.71351895376567" lon="14.930503329818443"><ele>6.0</ele><time>2026-04-11T15:23:34Z</time></trkpt><trkpt lat="36.713615982991705" lon="14.930361176616863"><ele>6.0</ele><time>2026-04-11T15:23:35Z</time></trkpt><trkpt lat="36.71371430642534" lon="14.930221564262007"><ele>6.0</ele><time>2026-04-11T15:23:36Z</time></trkpt><trkpt lat="36.713814263054026" lon="14.93007438418748"><ele>6.0</ele><time>2026-04-11T15:23:37Z</time></trkpt><trkpt lat="36.71391775912853" lon="14.92992397195686"><ele>6.0</ele><time>2026-04-11T15:23:38Z</time></trkpt><trkpt lat="36.714020472139964" lon="14.929774989224116"><ele>6.0</ele><time>2026-04-11T15:23:39Z</time></trkpt><trkpt lat="36.71411742529062" lon="14.9296358342395"><ele>6.0</ele><time>2026-04-11T15:23:40Z</time></trkpt><trkpt lat="36.714216813141" lon="14.929488752746268"><ele>6.0</ele><time>2026-04-11T15:23:41Z</time></trkpt><trkpt lat="36.714323540940086" lon="14.929339583145723"><ele>6.0</ele><time>2026-04-11T15:23:42Z</time></trkpt><trkpt lat="36.71442536014111" lon="14.929190370084497"><ele>6.0</ele><time>2026-04-11T15:23:43Z</time></trkpt><trkpt lat="36.71453032553536" lon="14.929033403238426"><ele>5.333333333333333</ele><time>2026-04-11T15:23:44Z</time></trkpt><trkpt lat="36.71464244684937" lon="14.928875054092318"><ele>4.666666666666666</ele><time>2026-04-11T15:23:45Z</time></trkpt><trkpt lat="36.714755680571045" lon="14.928713151766855"><ele>4.0</ele><time>2026-04-11T15:23:46Z</time></trkpt><trkpt lat="36.71485769484585" lon="14.92856817470073"><ele>4.0</ele><time>2026-04-11T15:23:47Z</time></trkpt><trkpt lat="36.71495417118287" lon="14.92842687291795"><ele>4.0</ele><time>2026-04-11T15:23:48Z</time></trkpt><trkpt lat="36.71505390823324" lon="14.928276511646896"><ele>4.0</ele><time>2026-04-11T15:23:49Z</time></trkpt><trkpt lat="36.71515476048473" lon="14.928125293696326"><ele>4.333333333333333</ele><time>2026-04-11T15:23:50Z</time></trkpt><trkpt lat="36.71526346862997" lon="14.927964898343971"><ele>4.666666666666667</ele><time>2026-04-11T15:23:51Z</time></trkpt><trkpt lat="36.71537519523928" lon="14.92780829997563"><ele>5.0</ele><time>2026-04-11T15:23:52Z</time></trkpt><trkpt lat="36.7154902855418" lon="14.927647037466505"><ele>5.0</ele><time>2026-04-11T15:23:53Z</time></trkpt><trkpt lat="36.71560663702535" lon="14.927478405897286"><ele>5.0</ele><time>2026-04-11T15:23:54Z</time></trkpt><trkpt lat="36.71572717104489" lon="14.927301165074466"><ele>5.0</ele><time>2026-04-11T15:23:55Z</time></trkpt><trkpt lat="36.715849527081254" lon="14.92712124379784"><ele>5.0</ele><time>2026-04-11T15:23:56Z</time></trkpt><trkpt lat="36.7159752149886" lon="14.926939611331253"><ele>5.0</ele><time>2026-04-11T15:23:57Z</time></trkpt><trkpt lat="36.71610259443247" lon="14.926761306815894"><ele>5.0</ele><time>2026-04-11T15:23:58Z</time></trkpt><trkpt lat="36.71622486050077" lon="14.926582505294029"><ele>5.333333333333334</ele><time>2026-04-11T15:23:59Z</time></trkpt><trkpt lat="36.71634306130533" lon="14.926406126352976"><ele>5.666666666666667</ele><time>2026-04-11T15:24:00Z</time></trkpt><trkpt lat="36.716468161378586" lon="14.926214275208773"><ele>6.0</ele><time>2026-04-11T15:24:01Z</time></trkpt><trkpt lat="36.71659598684437" lon="14.926013524526272"><ele>6.0</ele><time>2026-04-11T15:24:02Z</time></trkpt><trkpt lat="36.71673020080997" lon="14.92581696252415"><ele>6.0</ele><time>2026-04-11T15:24:03Z</time></trkpt><trkpt lat="36.716878929432724" lon="14.925617718786444"><ele>6.0</ele><time>2026-04-11T15:24:04Z</time></trkpt><trkpt lat="36.71702903376234" lon="14.92542558874461"><ele>6.0</ele><time>2026-04-11T15:24:05Z</time></trkpt><trkpt lat="36.71717686301287" lon="14.92522424754337"><ele>6.0</ele><time>2026-04-11T15:24:06Z</time></trkpt><trkpt lat="36.71732253232518" lon="14.925014476773539"><ele>6.0</ele><time>2026-04-11T15:24:07Z</time></trkpt><trkpt lat="36.71746523606593" lon="14.924805267099456"><ele>6.333333333333334</ele><time>2026-04-11T15:24:08Z</time></trkpt><trkpt lat="36.71760931817541" lon="14.924592841760484"><ele>6.666666666666667</ele><time>2026-04-11T15:24:09Z</time></trkpt><trkpt lat="36.7177469604239" lon="14.924396392372612"><ele>7.0</ele><time>2026-04-11T15:24:10Z</time></trkpt><trkpt lat="36.71788092845775" lon="14.924207110455061"><ele>6.0</ele><time>2026-04-11T15:24:11Z</time></trkpt><trkpt lat="36.71801239689617" lon="14.924021062221087"><ele>5.0</ele><time>2026-04-11T15:24:12Z</time></trkpt><trkpt lat="36.71814633359679" lon="14.923823997349775"><ele>4.0</ele><time>2026-04-11T15:24:13Z</time></trkpt><trkpt lat="36.71827425813073" lon="14.923616041004644"><ele>4.666666666666666</ele><time>2026-04-11T15:24:14Z</time></trkpt><trkpt lat="36.71839000331019" lon="14.923395568485269"><ele>5.333333333333333</ele><time>2026-04-11T15:24:15Z</time></trkpt><trkpt lat="36.71850031474957" lon="14.923163982209818"><ele>6.0</ele><time>2026-04-11T15:24:16Z</time></trkpt><trkpt lat="36.718607540676054" lon="14.922937498917696"><ele>6.0</ele><time>2026-04-11T15:24:17Z</time></trkpt><trkpt lat="36.71871469163168" lon="14.92270995133705"><ele>6.0</ele><time>2026-04-11T15:24:18Z</time></trkpt><trkpt lat="36.718825095752635" lon="14.922484624325389"><ele>6.0</ele><time>2026-04-11T15:24:19Z</time></trkpt><trkpt lat="36.7189466064601" lon="14.922260513679339"><ele>5.666666666666667</ele><time>2026-04-11T15:24:20Z</time></trkpt><trkpt lat="36.71907176427358" lon="14.922034043411012"><ele>5.333333333333334</ele><time>2026-04-11T15:24:21Z</time></trkpt><trkpt lat="36.71919509897886" lon="14.921794594846647"><ele>5.0</ele><time>2026-04-11T15:24:22Z</time></trkpt><trkpt lat="36.71931781057035" lon="14.921549026994127"><ele>4.5</ele><time>2026-04-11T15:24:23Z</time></trkpt><trkpt lat="36.71944715643445" lon="14.921284977119251"><ele>4.0</ele><time>2026-04-11T15:24:24Z</time></trkpt><trkpt lat="36.7195784049604" lon="14.921018952777395"><ele>5.0</ele><time>2026-04-11T15:24:25Z</time></trkpt><trkpt lat="36.719712677215334" lon="14.920748802643699"><ele>6.0</ele><time>2026-04-11T15:24:26Z</time></trkpt><trkpt lat="36.71984751570925" lon="14.92048379872822"><ele>6.0</ele><time>2026-04-11T15:24:27Z</time></trkpt><trkpt lat="36.71998159483228" lon="14.920222302060765"><ele>6.0</ele><time>2026-04-11T15:24:28Z</time></trkpt><trkpt lat="36.72010925199935" lon="14.91998362502353"><ele>5.333333333333333</ele><time>2026-04-11T15:24:29Z</time></trkpt><trkpt lat="36.72023770977964" lon="14.919763451628052"><ele>4.666666666666666</ele><time>2026-04-11T15:24:30Z</time></trkpt><trkpt lat="36.72036917899059" lon="14.91956063691577"><ele>4.0</ele><time>2026-04-11T15:24:31Z</time></trkpt><trkpt lat="36.720493070948834" lon="14.919369436548248"><ele>4.333333333333333</ele><time>2026-04-11T15:24:32Z</time></trkpt><trkpt lat="36.72062009444804" lon="14.919169207728283"><ele>4.666666666666667</ele><time>2026-04-11T15:24:33Z</time></trkpt><trkpt lat="36.72076037624971" lon="14.91894238787789"><ele>5.0</ele><time>2026-04-11T15:24:34Z</time></trkpt><trkpt lat="36.72090126930236" lon="14.918711763259823"><ele>5.0</ele><time>2026-04-11T15:24:35Z</time></trkpt><trkpt lat="36.721045997389915" lon="14.918483347234291"><ele>5.0</ele><time>2026-04-11T15:24:36Z</time></trkpt><trkpt lat="36.72119504600076" lon="14.91824945619715"><ele>5.0</ele><time>2026-04-11T15:24:37Z</time></trkpt><trkpt lat="36.72134357666553" lon="14.918015551945949"><ele>5.0</ele><time>2026-04-11T15:24:38Z</time></trkpt><trkpt lat="36.72149319487788" lon="14.917779639069073"><ele>5.5</ele><time>2026-04-11T15:24:39Z</time></trkpt><trkpt lat="36.72164446627969" lon="14.917535074986215"><ele>6.0</ele><time>2026-04-11T15:24:40Z</time></trkpt><trkpt lat="36.72179480795471" lon="14.917290063879198"><ele>6.0</ele><time>2026-04-11T15:24:41Z</time></trkpt><trkpt lat="36.721947524723205" lon="14.917040647394607"><ele>6.0</ele><time>2026-04-11T15:24:42Z</time></trkpt><trkpt lat="36.72210238122492" lon="14.916795281079725"><ele>6.0</ele><time>2026-04-11T15:24:43Z</time></trkpt><trkpt lat="36.72225504458875" lon="14.916548333253202"><ele>6.0</ele><time>2026-04-11T15:24:44Z</time></trkpt><trkpt lat="36.72239960368056" lon="14.91631570999547"><ele>6.0</ele><time>2026-04-11T15:24:45Z</time></trkpt><trkpt lat="36.72253735773447" lon="14.916100865262669"><ele>6.0</ele><time>2026-04-11T15:24:46Z</time></trkpt><trkpt lat="36.72266959238883" lon="14.91590025991109"><ele>6.0</ele><time>2026-04-11T15:24:47Z</time></trkpt><trkpt lat="36.722795514838275" lon="14.915704653359612"><ele>5.333333333333333</ele><time>2026-04-11T15:24:48Z</time></trkpt><trkpt lat="36.72292397810689" lon="14.915499028639886"><ele>4.666666666666666</ele><time>2026-04-11T15:24:49Z</time></trkpt><trkpt lat="36.723048254003416" lon="14.91529469751162"><ele>4.0</ele><time>2026-04-11T15:24:50Z</time></trkpt><trkpt lat="36.723172987236566" lon="14.915088634738122"><ele>4.333333333333333</ele><time>2026-04-11T15:24:51Z</time></trkpt><trkpt lat="36.723301371490315" lon="14.914880441924431"><ele>4.666666666666667</ele><time>2026-04-11T15:24:52Z</time></trkpt><trkpt lat="36.723428524172576" lon="14.914677317193203"><ele>5.0</ele><time>2026-04-11T15:24:53Z</time></trkpt><trkpt lat="36.723553334358385" lon="14.914476492639727"><ele>5.333333333333334</ele><time>2026-04-11T15:24:54Z</time></trkpt><trkpt lat="36.723679219251245" lon="14.914274049328936"><ele>5.666666666666667</ele><time>2026-04-11T15:24:55Z</time></trkpt><trkpt lat="36.723801695621134" lon="14.914069927558533"><ele>6.0</ele><time>2026-04-11T15:24:56Z</time></trkpt><trkpt lat="36.72392190565815" lon="14.91384547345338"><ele>6.5</ele><time>2026-04-11T15:24:57Z</time></trkpt><trkpt lat="36.724034810867145" lon="14.913592641564646"><ele>7.0</ele><time>2026-04-11T15:24:58Z</time></trkpt><trkpt lat="36.72413885150869" lon="14.913327428674144"><ele>7.0</ele><time>2026-04-11T15:24:59Z</time></trkpt><trkpt lat="36.72424727394132" lon="14.913062753042624"><ele>7.0</ele><time>2026-04-11T15:25:00Z</time></trkpt><trkpt lat="36.72435371694466" lon="14.91280674785976"><ele>6.5</ele><time>2026-04-11T15:25:01Z</time></trkpt><trkpt lat="36.72445937841353" lon="14.912550014859521"><ele>6.0</ele><time>2026-04-11T15:25:02Z</time></trkpt><trkpt lat="36.72457867271313" lon="14.91228588973086"><ele>6.0</ele><time>2026-04-11T15:25:03Z</time></trkpt><trkpt lat="36.72471257520591" lon="14.91200745688056"><ele>6.0</ele><time>2026-04-11T15:25:04Z</time></trkpt><trkpt lat="36.72484463115883" lon="14.91172992095261"><ele>6.0</ele><time>2026-04-11T15:25:05Z</time></trkpt><trkpt lat="36.724959702323645" lon="14.911453365727821"><ele>6.0</ele><time>2026-04-11T15:25:06Z</time></trkpt><trkpt lat="36.72507476309832" lon="14.911179372996466"><ele>5.5</ele><time>2026-04-11T15:25:07Z</time></trkpt><trkpt lat="36.72521261074764" lon="14.910901504905965"><ele>5.0</ele><time>2026-04-11T15:25:08Z</time></trkpt><trkpt lat="36.725358438238096" lon="14.910600063932977"><ele>5.0</ele><time>2026-04-11T15:25:09Z</time></trkpt><trkpt lat="36.725498830653386" lon="14.910282974830668"><ele>5.0</ele><time>2026-04-11T15:25:10Z</time></trkpt><trkpt lat="36.72561913535002" lon="14.910011132974402"><ele>5.0</ele><time>2026-04-11T15:25:11Z</time></trkpt><trkpt lat="36.72571938986582" lon="14.90978758211268"><ele>5.0</ele><time>2026-04-11T15:25:12Z</time></trkpt><trkpt lat="36.725813925914075" lon="14.909577094364158"><ele>5.0</ele><time>2026-04-11T15:25:13Z</time></trkpt><trkpt lat="36.72589377509541" lon="14.909394290275511"><ele>5.333333333333334</ele><time>2026-04-11T15:25:14Z</time></trkpt><trkpt lat="36.72598699139141" lon="14.909204103731328"><ele>5.666666666666667</ele><time>2026-04-11T15:25:15Z</time></trkpt><trkpt lat="36.72608761692668" lon="14.909032579215864"><ele>6.0</ele><time>2026-04-11T15:25:16Z</time></trkpt><trkpt lat="36.726213921709935" lon="14.908868492594186"><ele>5.666666666666667</ele><time>2026-04-11T15:25:17Z</time></trkpt><trkpt lat="36.72637081893355" lon="14.908707354471906"><ele>5.333333333333334</ele><time>2026-04-11T15:25:18Z</time></trkpt><trkpt lat="36.72653938345375" lon="14.908550169622266"><ele>5.0</ele><time>2026-04-11T15:25:19Z</time></trkpt><trkpt lat="36.72669137598536" lon="14.908404509465301"><ele>5.0</ele><time>2026-04-11T15:25:20Z</time></trkpt><trkpt lat="36.726837283642624" lon="14.908255855987894"><ele>5.0</ele><time>2026-04-11T15:25:21Z</time></trkpt><trkpt lat="36.72698292600271" lon="14.908104350342631"><ele>5.0</ele><time>2026-04-11T15:25:22Z</time></trkpt><trkpt lat="36.72712615301493" lon="14.907954570389599"><ele>4.666666666666667</ele><time>2026-04-11T15:25:23Z</time></trkpt><trkpt lat="36.727267934325745" lon="14.907808233630556"><ele>4.333333333333333</ele><time>2026-04-11T15:25:24Z</time></trkpt><trkpt lat="36.727395814391016" lon="14.907664072000692"><ele>4.0</ele><time>2026-04-11T15:25:25Z</time></trkpt><trkpt lat="36.72751665122894" lon="14.907506346775873"><ele>4.0</ele><time>2026-04-11T15:25:26Z</time></trkpt><trkpt lat="36.72762711236399" lon="14.907334314297646"><ele>4.0</ele><time>2026-04-11T15:25:27Z</time></trkpt><trkpt lat="36.72771539042442" lon="14.907157375196137"><ele>4.0</ele><time>2026-04-11T15:25:28Z</time></trkpt><trkpt lat="36.727783484358966" lon="14.906983574664062"><ele>4.333333333333333</ele><time>2026-04-11T15:25:29Z</time></trkpt><trkpt lat="36.727832276468064" lon="14.906804437982132"><ele>4.666666666666667</ele><time>2026-04-11T15:25:30Z</time></trkpt><trkpt lat="36.72787148813289" lon="14.906614518704654"><ele>5.0</ele><time>2026-04-11T15:25:31Z</time></trkpt><trkpt lat="36.72790305929755" lon="14.906419217465038"><ele>5.333333333333334</ele><time>2026-04-11T15:25:32Z</time></trkpt><trkpt lat="36.72793712650545" lon="14.906223655379467"><ele>5.666666666666667</ele><time>2026-04-11T15:25:33Z</time></trkpt><trkpt lat="36.72797923102955" lon="14.90600017721604"><ele>6.0</ele><time>2026-04-11T15:25:34Z</time></trkpt><trkpt lat="36.72801937686158" lon="14.905779482178922"><ele>6.0</ele><time>2026-04-11T15:25:35Z</time></trkpt><trkpt lat="36.7280627669824" lon="14.905558595287328"><ele>6.0</ele><time>2026-04-11T15:25:36Z</time></trkpt><trkpt lat="36.72810675394854" lon="14.905338286242943"><ele>6.0</ele><time>2026-04-11T15:25:37Z</time></trkpt><trkpt lat="36.728150598660115" lon="14.905117212066658"><ele>6.0</ele><time>2026-04-11T15:25:38Z</time></trkpt><trkpt lat="36.728192261801546" lon="14.904890589455519"><ele>6.0</ele><time>2026-04-11T15:25:39Z</time></trkpt><trkpt lat="36.72823488767178" lon="14.904663099477132"><ele>6.0</ele><time>2026-04-11T15:25:40Z</time></trkpt><trkpt lat="36.72827907134512" lon="14.90443010497234"><ele>5.666666666666667</ele><time>2026-04-11T15:25:41Z</time></trkpt><trkpt lat="36.72832329736306" lon="14.90419842471946"><ele>5.333333333333334</ele><time>2026-04-11T15:25:42Z</time></trkpt><trkpt lat="36.72836997254781" lon="14.903959852433486"><ele>5.0</ele><time>2026-04-11T15:25:43Z</time></trkpt><trkpt lat="36.7284157901182" lon="14.903723162126708"><ele>5.0</ele><time>2026-04-11T15:25:44Z</time></trkpt><trkpt lat="36.72846248262096" lon="14.903488653673984"><ele>5.0</ele><time>2026-04-11T15:25:45Z</time></trkpt><trkpt lat="36.72850793263333" lon="14.9032537389711"><ele>5.0</ele><time>2026-04-11T15:25:46Z</time></trkpt><trkpt lat="36.72855543337019" lon="14.903008591424665"><ele>4.666666666666667</ele><time>2026-04-11T15:25:47Z</time></trkpt><trkpt lat="36.72859954906665" lon="14.902761963631166"><ele>4.333333333333333</ele><time>2026-04-11T15:25:48Z</time></trkpt><trkpt lat="36.72864885999954" lon="14.902505193880401"><ele>4.0</ele><time>2026-04-11T15:25:49Z</time></trkpt><trkpt lat="36.72869508873789" lon="14.902248450400993"><ele>4.333333333333333</ele><time>2026-04-11T15:25:50Z</time></trkpt><trkpt lat="36.72874112437028" lon="14.901990854752226"><ele>4.666666666666667</ele><time>2026-04-11T15:25:51Z</time></trkpt><trkpt lat="36.72878598124051" lon="14.901722085854914"><ele>5.0</ele><time>2026-04-11T15:25:52Z</time></trkpt><trkpt lat="36.72882749498558" lon="14.901455963313014"><ele>5.0</ele><time>2026-04-11T15:25:53Z</time></trkpt><trkpt lat="36.72886948769001" lon="14.901173570276107"><ele>5.0</ele><time>2026-04-11T15:25:54Z</time></trkpt><trkpt lat="36.72891900496767" lon="14.900886828829485"><ele>5.0</ele><time>2026-04-11T15:25:55Z</time></trkpt><trkpt lat="36.72898178592022" lon="14.90059555472292"><ele>5.0</ele><time>2026-04-11T15:25:56Z</time></trkpt><trkpt lat="36.729042219705384" lon="14.900302582010047"><ele>5.0</ele><time>2026-04-11T15:25:57Z</time></trkpt><trkpt lat="36.729093146603596" lon="14.900022863637844"><ele>5.0</ele><time>2026-04-11T15:25:58Z</time></trkpt><trkpt lat="36.72913680978802" lon="14.89976089629709"><ele>5.0</ele><time>2026-04-11T15:25:59Z</time></trkpt><trkpt lat="36.72918204764856" lon="14.899504042607852"><ele>5.0</ele><time>2026-04-11T15:26:00Z</time></trkpt><trkpt lat="36.729227239426564" lon="14.899252244109267"><ele>5.0</ele><time>2026-04-11T15:26:01Z</time></trkpt><trkpt lat="36.729267652868494" lon="14.899022984413211"><ele>5.0</ele><time>2026-04-11T15:26:02Z</time></trkpt><trkpt lat="36.72930906742705" lon="14.898793302604188"><ele>5.0</ele><time>2026-04-11T15:26:03Z</time></trkpt><trkpt lat="36.72934183541949" lon="14.898597134569124"><ele>5.0</ele><time>2026-04-11T15:26:04Z</time></trkpt><trkpt lat="36.72937585725018" lon="14.898395270783364"><ele>5.0</ele><time>2026-04-11T15:26:05Z</time></trkpt><trkpt lat="36.72941219912826" lon="14.898182509318943"><ele>5.0</ele><time>2026-04-11T15:26:06Z</time></trkpt><trkpt lat="36.72945006074409" lon="14.897964287198905"><ele>5.0</ele><time>2026-04-11T15:26:07Z</time></trkpt><trkpt lat="36.72948758131262" lon="14.897745457216297"><ele>5.0</ele><time>2026-04-11T15:26:08Z</time></trkpt><trkpt lat="36.729523973307444" lon="14.897537547446408"><ele>5.0</ele><time>2026-04-11T15:26:09Z</time></trkpt><trkpt lat="36.729558787967115" lon="14.897339258876311"><ele>5.0</ele><time>2026-04-11T15:26:10Z</time></trkpt><trkpt lat="36.729591815647524" lon="14.897142883970117"><ele>5.0</ele><time>2026-04-11T15:26:11Z</time></trkpt><trkpt lat="36.72962508192865" lon="14.896929967235264"><ele>5.333333333333334</ele><time>2026-04-11T15:26:12Z</time></trkpt><trkpt lat="36.729669436823045" lon="14.896696390060708"><ele>5.666666666666667</ele><time>2026-04-11T15:26:13Z</time></trkpt><trkpt lat="36.729718460978845" lon="14.896457533757074"><ele>6.0</ele><time>2026-04-11T15:26:14Z</time></trkpt><trkpt lat="36.72976386824019" lon="14.896200540997068"><ele>6.0</ele><time>2026-04-11T15:26:15Z</time></trkpt><trkpt lat="36.72980490445551" lon="14.895940006411577"><ele>6.0</ele><time>2026-04-11T15:26:16Z</time></trkpt><trkpt lat="36.72984291492138" lon="14.895675242821069"><ele>6.0</ele><time>2026-04-11T15:26:17Z</time></trkpt><trkpt lat="36.72987202577053" lon="14.895409304970244"><ele>6.0</ele><time>2026-04-11T15:26:18Z</time></trkpt><trkpt lat="36.7298869193443" lon="14.895151140519362"><ele>6.0</ele><time>2026-04-11T15:26:19Z</time></trkpt><trkpt lat="36.729890367885226" lon="14.894894651081374"><ele>6.0</ele><time>2026-04-11T15:26:20Z</time></trkpt><trkpt lat="36.72987187025212" lon="14.894649632111813"><ele>7.333333333333334</ele><time>2026-04-11T15:26:21Z</time></trkpt><trkpt lat="36.72982533621516" lon="14.894407603049348"><ele>8.666666666666668</ele><time>2026-04-11T15:26:22Z</time></trkpt><trkpt lat="36.72976697666003" lon="14.894165796680516"><ele>10.0</ele><time>2026-04-11T15:26:23Z</time></trkpt><trkpt lat="36.72968377006905" lon="14.893919108368593"><ele>11.333333333333334</ele><time>2026-04-11T15:26:24Z</time></trkpt><trkpt lat="36.72958846426663" lon="14.893680783379764"><ele>12.666666666666668</ele><time>2026-04-11T15:26:25Z</time></trkpt><trkpt lat="36.729492302663715" lon="14.893450683969958"><ele>14.0</ele><time>2026-04-11T15:26:26Z</time></trkpt><trkpt lat="36.72941010239161" lon="14.893210545808994"><ele>11.666666666666668</ele><time>2026-04-11T15:26:27Z</time></trkpt><trkpt lat="36.72935085504021" lon="14.892955737175397"><ele>9.333333333333334</ele><time>2026-04-11T15:26:28Z</time></trkpt><trkpt lat="36.729310658969986" lon="14.892681203045596"><ele>7.0</ele><time>2026-04-11T15:26:29Z</time></trkpt><trkpt lat="36.72928363812797" lon="14.892380394147489"><ele>6.5</ele><time>2026-04-11T15:26:30Z</time></trkpt><trkpt lat="36.72926640352431" lon="14.892055999018716"><ele>6.0</ele><time>2026-04-11T15:26:31Z</time></trkpt><trkpt lat="36.72926704018979" lon="14.8917278787573"><ele>7.5</ele><time>2026-04-11T15:26:32Z</time></trkpt><trkpt lat="36.7292922630339" lon="14.8914471078822"><ele>9.0</ele><time>2026-04-11T15:26:33Z</time></trkpt><trkpt lat="36.72933315696894" lon="14.891162181241546"><ele>9.333333333333334</ele><time>2026-04-11T15:26:34Z</time></trkpt><trkpt lat="36.729387596163356" lon="14.890898347886168"><ele>9.666666666666668</ele><time>2026-04-11T15:26:35Z</time></trkpt><trkpt lat="36.729448150673655" lon="14.890653318613852"><ele>10.0</ele><time>2026-04-11T15:26:36Z</time></trkpt><trkpt lat="36.729514376339246" lon="14.890440374301207"><ele>11.666666666666668</ele><time>2026-04-11T15:26:37Z</time></trkpt><trkpt lat="36.72958457539532" lon="14.890253079144307"><ele>13.333333333333334</ele><time>2026-04-11T15:26:38Z</time></trkpt><trkpt lat="36.7296604517993" lon="14.890077866695144"><ele>15.0</ele><time>2026-04-11T15:26:39Z</time></trkpt><trkpt lat="36.72973582227286" lon="14.88989981392818"><ele>15.0</ele><time>2026-04-11T15:26:40Z</time></trkpt><trkpt lat="36.72980827186389" lon="14.889712402172707"><ele>15.0</ele><time>2026-04-11T15:26:41Z</time></trkpt><trkpt lat="36.72988401366857" lon="14.88951608124615"><ele>15.0</ele><time>2026-04-11T15:26:42Z</time></trkpt><trkpt lat="36.72996255117845" lon="14.889316473997791"><ele>13.333333333333334</ele><time>2026-04-11T15:26:43Z</time></trkpt><trkpt lat="36.73004303754199" lon="14.889113551059548"><ele>11.666666666666668</ele><time>2026-04-11T15:26:44Z</time></trkpt><trkpt lat="36.73011487699643" lon="14.8889291722015"><ele>10.0</ele><time>2026-04-11T15:26:45Z</time></trkpt><trkpt lat="36.73018021659345" lon="14.888756593952154"><ele>13.333333333333334</ele><time>2026-04-11T15:26:46Z</time></trkpt><trkpt lat="36.73024257217416" lon="14.888592383809096"><ele>16.666666666666668</ele><time>2026-04-11T15:26:47Z</time></trkpt><trkpt lat="36.73031187631425" lon="14.88842048957398"><ele>20.0</ele><time>2026-04-11T15:26:48Z</time></trkpt><trkpt lat="36.73038627849445" lon="14.888245262126413"><ele>20.0</ele><time>2026-04-11T15:26:49Z</time></trkpt><trkpt lat="36.73045909279597" lon="14.88806496313186"><ele>20.0</ele><time>2026-04-11T15:26:50Z</time></trkpt><trkpt lat="36.73053357747758" lon="14.887876808382472"><ele>20.0</ele><time>2026-04-11T15:26:51Z</time></trkpt><trkpt lat="36.73060609411271" lon="14.887690977019352"><ele>19.0</ele><time>2026-04-11T15:26:52Z</time></trkpt><trkpt lat="36.7306770901818" lon="14.887502532041967"><ele>18.0</ele><time>2026-04-11T15:26:53Z</time></trkpt><trkpt lat="36.73074035116998" lon="14.887343877782302"><ele>17.0</ele><time>2026-04-11T15:26:54Z</time></trkpt><trkpt lat="36.73080072201957" lon="14.887187482237232"><ele>16.0</ele><time>2026-04-11T15:26:55Z</time></trkpt><trkpt lat="36.73085702505402" lon="14.88704210742551"><ele>16.0</ele><time>2026-04-11T15:26:56Z</time></trkpt><trkpt lat="36.73091405631838" lon="14.886887030470414"><ele>16.0</ele><time>2026-04-11T15:26:57Z</time></trkpt><trkpt lat="36.73096631401142" lon="14.886727928290428"><ele>16.0</ele><time>2026-04-11T15:26:58Z</time></trkpt><trkpt lat="36.73102064302341" lon="14.886566944271467"><ele>16.0</ele><time>2026-04-11T15:26:59Z</time></trkpt><trkpt lat="36.73107183377707" lon="14.886403333439267"><ele>18.5</ele><time>2026-04-11T15:27:00Z</time></trkpt><trkpt lat="36.73111611010433" lon="14.886235124293774"><ele>21.0</ele><time>2026-04-11T15:27:01Z</time></trkpt><trkpt lat="36.731156047615634" lon="14.886068899879048"><ele>23.5</ele><time>2026-04-11T15:27:02Z</time></trkpt><trkpt lat="36.73119293151862" lon="14.8859040282475"><ele>26.0</ele><time>2026-04-11T15:27:03Z</time></trkpt><trkpt lat="36.73122505922101" lon="14.885734090495259"><ele>26.0</ele><time>2026-04-11T15:27:04Z</time></trkpt><trkpt lat="36.731254098254155" lon="14.885556095920405"><ele>26.0</ele><time>2026-04-11T15:27:05Z</time></trkpt><trkpt lat="36.73127820916007" lon="14.885352390523922"><ele>26.0</ele><time>2026-04-11T15:27:06Z</time></trkpt><trkpt lat="36.73129960435784" lon="14.885123774535431"><ele>23.333333333333332</ele><time>2026-04-11T15:27:07Z</time></trkpt><trkpt lat="36.73131623369654" lon="14.884877744657615"><ele>20.666666666666664</ele><time>2026-04-11T15:27:08Z</time></trkpt><trkpt lat="36.73133161969862" lon="14.884640166516412"><ele>18.0</ele><time>2026-04-11T15:27:09Z</time></trkpt><trkpt lat="36.73134556416962" lon="14.884397186816543"><ele>16.666666666666668</ele><time>2026-04-11T15:27:10Z</time></trkpt><trkpt lat="36.73135961869968" lon="14.884157556441343"><ele>15.333333333333334</ele><time>2026-04-11T15:27:11Z</time></trkpt><trkpt lat="36.731381172068374" lon="14.883909554913425"><ele>14.0</ele><time>2026-04-11T15:27:12Z</time></trkpt><trkpt lat="36.73141641656601" lon="14.883662615561075"><ele>13.333333333333334</ele><time>2026-04-11T15:27:13Z</time></trkpt><trkpt lat="36.731445334524935" lon="14.883396653316534"><ele>12.666666666666668</ele><time>2026-04-11T15:27:14Z</time></trkpt><trkpt lat="36.73146742897899" lon="14.883129639043133"><ele>12.0</ele><time>2026-04-11T15:27:15Z</time></trkpt><trkpt lat="36.73148620218636" lon="14.882853666323953"><ele>11.5</ele><time>2026-04-11T15:27:16Z</time></trkpt><trkpt lat="36.73150637619111" lon="14.882569045574284"><ele>11.0</ele><time>2026-04-11T15:27:17Z</time></trkpt><trkpt lat="36.73152729591372" lon="14.882276088795424"><ele>11.0</ele><time>2026-04-11T15:27:18Z</time></trkpt><trkpt lat="36.731551920646325" lon="14.881959613067465"><ele>11.0</ele><time>2026-04-11T15:27:19Z</time></trkpt><trkpt lat="36.73157829033549" lon="14.88162435530565"><ele>9.5</ele><time>2026-04-11T15:27:20Z</time></trkpt><trkpt lat="36.73160431988026" lon="14.881268079118092"><ele>8.0</ele><time>2026-04-11T15:27:21Z</time></trkpt><trkpt lat="36.73162942657783" lon="14.880925888821281"><ele>7.5</ele><time>2026-04-11T15:27:22Z</time></trkpt><trkpt lat="36.73165513255302" lon="14.88057992156569"><ele>7.0</ele><time>2026-04-11T15:27:23Z</time></trkpt><trkpt lat="36.731681633152036" lon="14.880199321425362"><ele>6.5</ele><time>2026-04-11T15:27:24Z</time></trkpt><trkpt lat="36.7317197957089" lon="14.879815178341506"><ele>6.0</ele><time>2026-04-11T15:27:25Z</time></trkpt><trkpt lat="36.731762015474125" lon="14.879463559776683"><ele>6.0</ele><time>2026-04-11T15:27:26Z</time></trkpt><trkpt lat="36.731794242636255" lon="14.879139062888012"><ele>6.0</ele><time>2026-04-11T15:27:27Z</time></trkpt><trkpt lat="36.73182125465402" lon="14.878819030592899"><ele>6.0</ele><time>2026-04-11T15:27:28Z</time></trkpt><trkpt lat="36.73184359770278" lon="14.878502725100715"><ele>6.0</ele><time>2026-04-11T15:27:29Z</time></trkpt><trkpt lat="36.73185556324482" lon="14.878185049569192"><ele>5.0</ele><time>2026-04-11T15:27:30Z</time></trkpt><trkpt lat="36.73186019825331" lon="14.877873624434404"><ele>4.0</ele><time>2026-04-11T15:27:31Z</time></trkpt><trkpt lat="36.7318617499859" lon="14.87755833317802"><ele>4.0</ele><time>2026-04-11T15:27:32Z</time></trkpt><trkpt lat="36.73186725641694" lon="14.87726074726554"><ele>4.0</ele><time>2026-04-11T15:27:33Z</time></trkpt><trkpt lat="36.7318742068068" lon="14.876957284870114"><ele>5.0</ele><time>2026-04-11T15:27:34Z</time></trkpt><trkpt lat="36.73188342051293" lon="14.876660741397528"><ele>6.0</ele><time>2026-04-11T15:27:35Z</time></trkpt><trkpt lat="36.731893600843264" lon="14.876379434756327"><ele>6.333333333333334</ele><time>2026-04-11T15:27:36Z</time></trkpt><trkpt lat="36.731904790309436" lon="14.876117130458102"><ele>6.666666666666667</ele><time>2026-04-11T15:27:37Z</time></trkpt><trkpt lat="36.73191864701805" lon="14.875863124256794"><ele>7.0</ele><time>2026-04-11T15:27:38Z</time></trkpt><trkpt lat="36.73193745840406" lon="14.875603218241341"><ele>7.0</ele><time>2026-04-11T15:27:39Z</time></trkpt><trkpt lat="36.731957617008554" lon="14.875333787988842"><ele>7.0</ele><time>2026-04-11T15:27:40Z</time></trkpt><trkpt lat="36.7319832701553" lon="14.875054377595685"><ele>7.0</ele><time>2026-04-11T15:27:41Z</time></trkpt><trkpt lat="36.732019958717196" lon="14.874755861052936"><ele>7.5</ele><time>2026-04-11T15:27:42Z</time></trkpt><trkpt lat="36.73206569400323" lon="14.874451518204252"><ele>8.0</ele><time>2026-04-11T15:27:43Z</time></trkpt><trkpt lat="36.732122022408404" lon="14.874132501721645"><ele>9.5</ele><time>2026-04-11T15:27:44Z</time></trkpt><trkpt lat="36.73217655371963" lon="14.873809529867504"><ele>11.0</ele><time>2026-04-11T15:27:45Z</time></trkpt><trkpt lat="36.73222283279682" lon="14.873488119435583"><ele>11.0</ele><time>2026-04-11T15:27:46Z</time></trkpt><trkpt lat="36.732263568357105" lon="14.87316936537458"><ele>11.0</ele><time>2026-04-11T15:27:47Z</time></trkpt><trkpt lat="36.73229213371136" lon="14.872850756656737"><ele>10.0</ele><time>2026-04-11T15:27:48Z</time></trkpt><trkpt lat="36.732306878916795" lon="14.87252108423739"><ele>9.0</ele><time>2026-04-11T15:27:49Z</time></trkpt><trkpt lat="36.732308997062084" lon="14.872180637820575"><ele>9.0</ele><time>2026-04-11T15:27:50Z</time></trkpt><trkpt lat="36.73230599205924" lon="14.87184992026554"><ele>9.0</ele><time>2026-04-11T15:27:51Z</time></trkpt><trkpt lat="36.73230558969787" lon="14.871521553980235"><ele>7.5</ele><time>2026-04-11T15:27:52Z</time></trkpt><trkpt lat="36.73230440207881" lon="14.871217687984302"><ele>6.0</ele><time>2026-04-11T15:27:53Z</time></trkpt><trkpt lat="36.732304408001426" lon="14.870918563125105"><ele>6.0</ele><time>2026-04-11T15:27:54Z</time></trkpt><trkpt lat="36.73230610779509" lon="14.870615985328877"><ele>6.0</ele><time>2026-04-11T15:27:55Z</time></trkpt><trkpt lat="36.73230825716984" lon="14.870318514779926"><ele>6.0</ele><time>2026-04-11T15:27:56Z</time></trkpt><trkpt lat="36.73231156519711" lon="14.870006958692027"><ele>6.0</ele><time>2026-04-11T15:27:57Z</time></trkpt><trkpt lat="36.732313148457024" lon="14.869698716310076"><ele>6.0</ele><time>2026-04-11T15:27:58Z</time></trkpt><trkpt lat="36.73231406031889" lon="14.86938117514182"><ele>6.0</ele><time>2026-04-11T15:27:59Z</time></trkpt><trkpt lat="36.732311182276156" lon="14.86906795885994"><ele>6.5</ele><time>2026-04-11T15:28:00Z</time></trkpt><trkpt lat="36.732308733302226" lon="14.868761702940612"><ele>7.0</ele><time>2026-04-11T15:28:01Z</time></trkpt><trkpt lat="36.732308683736726" lon="14.868463744844796"><ele>7.0</ele><time>2026-04-11T15:28:02Z</time></trkpt><trkpt lat="36.73231063216994" lon="14.868179889433943"><ele>7.0</ele><time>2026-04-11T15:28:03Z</time></trkpt><trkpt lat="36.73231366419843" lon="14.86791146764257"><ele>7.0</ele><time>2026-04-11T15:28:04Z</time></trkpt><trkpt lat="36.73231756101314" lon="14.86764661634818"><ele>7.0</ele><time>2026-04-11T15:28:05Z</time></trkpt><trkpt lat="36.732317816606006" lon="14.867382934078764"><ele>7.0</ele><time>2026-04-11T15:28:06Z</time></trkpt><trkpt lat="36.73231513140695" lon="14.867123171434972"><ele>7.0</ele><time>2026-04-11T15:28:07Z</time></trkpt><trkpt lat="36.732306555963085" lon="14.866872647985142"><ele>7.0</ele><time>2026-04-11T15:28:08Z</time></trkpt><trkpt lat="36.73228510757634" lon="14.866613613599052"><ele>7.0</ele><time>2026-04-11T15:28:09Z</time></trkpt><trkpt lat="36.73224177504555" lon="14.866343565142476"><ele>7.0</ele><time>2026-04-11T15:28:10Z</time></trkpt><trkpt lat="36.73217998162833" lon="14.866087769014493"><ele>6.333333333333334</ele><time>2026-04-11T15:28:11Z</time></trkpt><trkpt lat="36.732111333906616" lon="14.865840311366865"><ele>5.666666666666667</ele><time>2026-04-11T15:28:12Z</time></trkpt><trkpt lat="36.73204520456672" lon="14.865587247456533"><ele>5.0</ele><time>2026-04-11T15:28:13Z</time></trkpt><trkpt lat="36.73198291566751" lon="14.865331974636854"><ele>4.333333333333334</ele><time>2026-04-11T15:28:14Z</time></trkpt><trkpt lat="36.73191994241801" lon="14.865065511268066"><ele>3.666666666666667</ele><time>2026-04-11T15:28:15Z</time></trkpt><trkpt lat="36.73185709994055" lon="14.864801070728198"><ele>3.0</ele><time>2026-04-11T15:28:16Z</time></trkpt><trkpt lat="36.73180106651392" lon="14.864556556222572"><ele>3.0</ele><time>2026-04-11T15:28:17Z</time></trkpt><trkpt lat="36.73175248138456" lon="14.864336951436565"><ele>3.0</ele><time>2026-04-11T15:28:18Z</time></trkpt><trkpt lat="36.73171007649975" lon="14.864150900272278"><ele>3.0</ele><time>2026-04-11T15:28:19Z</time></trkpt><trkpt lat="36.73166760766121" lon="14.863972935813342"><ele>3.0</ele><time>2026-04-11T15:28:20Z</time></trkpt><trkpt lat="36.731630101397975" lon="14.863811133814698"><ele>3.0</ele><time>2026-04-11T15:28:21Z</time></trkpt><trkpt lat="36.731595615785935" lon="14.863660664788602"><ele>3.0</ele><time>2026-04-11T15:28:22Z</time></trkpt><trkpt lat="36.73156405958413" lon="14.863513768230016"><ele>3.0</ele><time>2026-04-11T15:28:23Z</time></trkpt><trkpt lat="36.73153584506174" lon="14.86338829517903"><ele>3.5</ele><time>2026-04-11T15:28:24Z</time></trkpt><trkpt lat="36.73150952409939" lon="14.863280251481195"><ele>4.0</ele><time>2026-04-11T15:28:25Z</time></trkpt><trkpt lat="36.73149059222072" lon="14.863188608075122"><ele>4.5</ele><time>2026-04-11T15:28:26Z</time></trkpt><trkpt lat="36.731475673362105" lon="14.863110914014639"><ele>5.0</ele><time>2026-04-11T15:28:27Z</time></trkpt><trkpt lat="36.73145225918713" lon="14.8629765239717"><ele>5.5</ele><time>2026-04-11T15:28:29Z</time></trkpt><trkpt lat="36.73145296501916" lon="14.86285051139166"><ele>6.0</ele><time>2026-04-11T15:28:31Z</time></trkpt><trkpt lat="36.73145448196859" lon="14.862765666250759"><ele>6.0</ele><time>2026-04-11T15:28:32Z</time></trkpt><trkpt lat="36.73144461585105" lon="14.862677937498878"><ele>6.0</ele><time>2026-04-11T15:28:33Z</time></trkpt><trkpt lat="36.731411047582675" lon="14.862580699791149"><ele>6.0</ele><time>2026-04-11T15:28:34Z</time></trkpt><trkpt lat="36.73135240828158" lon="14.86245327713635"><ele>6.0</ele><time>2026-04-11T15:28:35Z</time></trkpt><trkpt lat="36.731298210104804" lon="14.862320459697179"><ele>6.0</ele><time>2026-04-11T15:28:36Z</time></trkpt><trkpt lat="36.73125936002116" lon="14.862185554647294"><ele>6.5</ele><time>2026-04-11T15:28:37Z</time></trkpt><trkpt lat="36.73122738485836" lon="14.862040787309727"><ele>7.0</ele><time>2026-04-11T15:28:38Z</time></trkpt><trkpt lat="36.73119590487805" lon="14.861898520256398"><ele>7.5</ele><time>2026-04-11T15:28:39Z</time></trkpt><trkpt lat="36.7311605303757" lon="14.86174786976034"><ele>8.0</ele><time>2026-04-11T15:28:40Z</time></trkpt><trkpt lat="36.73112454140232" lon="14.86159509724365"><ele>8.25</ele><time>2026-04-11T15:28:41Z</time></trkpt><trkpt lat="36.73108423792263" lon="14.861441113304217"><ele>8.5</ele><time>2026-04-11T15:28:42Z</time></trkpt><trkpt lat="36.731045518336565" lon="14.861277705369295"><ele>8.75</ele><time>2026-04-11T15:28:43Z</time></trkpt><trkpt lat="36.73101618801718" lon="14.861113201461762"><ele>9.0</ele><time>2026-04-11T15:28:44Z</time></trkpt><trkpt lat="36.73098882824527" lon="14.860967491366715"><ele>9.75</ele><time>2026-04-11T15:28:45Z</time></trkpt><trkpt lat="36.730957521464376" lon="14.860842091061551"><ele>10.5</ele><time>2026-04-11T15:28:46Z</time></trkpt><trkpt lat="36.73092522505385" lon="14.860721404247341"><ele>11.25</ele><time>2026-04-11T15:28:47Z</time></trkpt><trkpt lat="36.730888151911245" lon="14.860580346664715"><ele>12.0</ele><time>2026-04-11T15:28:48Z</time></trkpt><trkpt lat="36.7308439850148" lon="14.860425618842518"><ele>12.0</ele><time>2026-04-11T15:28:49Z</time></trkpt><trkpt lat="36.73079638563072" lon="14.860260644979686"><ele>12.0</ele><time>2026-04-11T15:28:50Z</time></trkpt><trkpt lat="36.730752868387896" lon="14.860092494804046"><ele>12.0</ele><time>2026-04-11T15:28:51Z</time></trkpt><trkpt lat="36.73071386678832" lon="14.859924226384312"><ele>12.0</ele><time>2026-04-11T15:28:52Z</time></trkpt><trkpt lat="36.730680089307725" lon="14.859770446411922"><ele>13.0</ele><time>2026-04-11T15:28:53Z</time></trkpt><trkpt lat="36.73065124813976" lon="14.85963725303364"><ele>14.0</ele><time>2026-04-11T15:28:54Z</time></trkpt><trkpt lat="36.73062181403656" lon="14.85950084397803"><ele>15.0</ele><time>2026-04-11T15:28:55Z</time></trkpt><trkpt lat="36.73059327856228" lon="14.859354361424584"><ele>16.0</ele><time>2026-04-11T15:28:56Z</time></trkpt><trkpt lat="36.73056752850942" lon="14.859201694861095"><ele>16.0</ele><time>2026-04-11T15:28:57Z</time></trkpt><trkpt lat="36.7305440965481" lon="14.859038643301968"><ele>16.0</ele><time>2026-04-11T15:28:58Z</time></trkpt><trkpt lat="36.730517991024115" lon="14.858854410073837"><ele>16.0</ele><time>2026-04-11T15:28:59Z</time></trkpt><trkpt lat="36.7304913391322" lon="14.858667179809542"><ele>16.0</ele><time>2026-04-11T15:29:00Z</time></trkpt><trkpt lat="36.73047072359511" lon="14.858497135712922"><ele>15.75</ele><time>2026-04-11T15:29:01Z</time></trkpt><trkpt lat="36.73046253628537" lon="14.858340096701705"><ele>15.5</ele><time>2026-04-11T15:29:02Z</time></trkpt><trkpt lat="36.73046912073782" lon="14.858170852078043"><ele>15.25</ele><time>2026-04-11T15:29:03Z</time></trkpt><trkpt lat="36.73049696505767" lon="14.857998309259488"><ele>15.0</ele><time>2026-04-11T15:29:04Z</time></trkpt><trkpt lat="36.730543212289" lon="14.857853025315642"><ele>15.0</ele><time>2026-04-11T15:29:05Z</time></trkpt><trkpt lat="36.730597768239946" lon="14.857727279820988"><ele>15.0</ele><time>2026-04-11T15:29:06Z</time></trkpt><trkpt lat="36.73064415050762" lon="14.857619042120096"><ele>15.0</ele><time>2026-04-11T15:29:07Z</time></trkpt><trkpt lat="36.73066646371472" lon="14.85752547065625"><ele>15.0</ele><time>2026-04-11T15:29:08Z</time></trkpt><trkpt lat="36.730601826709616" lon="14.857392409141648"><ele>15.0</ele><time>2026-04-11T15:29:10Z</time></trkpt><trkpt lat="36.73050464520451" lon="14.857339176678098"><ele>14.75</ele><time>2026-04-11T15:29:11Z</time></trkpt><trkpt lat="36.730426972047894" lon="14.857229334659518"><ele>14.5</ele><time>2026-04-11T15:29:12Z</time></trkpt><trkpt lat="36.730366963492386" lon="14.857123142610734"><ele>14.25</ele><time>2026-04-11T15:29:13Z</time></trkpt><trkpt lat="36.73029933315277" lon="14.857019876172968"><ele>14.0</ele><time>2026-04-11T15:29:14Z</time></trkpt><trkpt lat="36.73034171776828" lon="14.856844134094652"><ele>13.2</ele><time>2026-04-11T15:29:15Z</time></trkpt><trkpt lat="36.73034961808619" lon="14.856697475717683"><ele>12.399999999999999</ele><time>2026-04-11T15:29:16Z</time></trkpt><trkpt lat="36.730347389514705" lon="14.85660250540919"><ele>11.6</ele><time>2026-04-11T15:29:17Z</time></trkpt><trkpt lat="36.73031843681328" lon="14.856478679719102"><ele>10.8</ele><time>2026-04-11T15:29:19Z</time></trkpt><trkpt lat="36.73028613053956" lon="14.85638482757995"><ele>10.0</ele><time>2026-04-11T15:29:21Z</time></trkpt><trkpt lat="36.73028876408184" lon="14.856280577557515"><ele>10.0</ele><time>2026-04-11T15:29:23Z</time></trkpt><trkpt lat="36.73038745646393" lon="14.8562399178283"><ele>10.0</ele><time>2026-04-11T15:29:25Z</time></trkpt><trkpt lat="36.73048316830916" lon="14.856237797129488"><ele>10.0</ele><time>2026-04-11T15:29:26Z</time></trkpt><trkpt lat="36.73060429289268" lon="14.85624108130502"><ele>10.0</ele><time>2026-04-11T15:29:27Z</time></trkpt><trkpt lat="36.73071426036026" lon="14.856244746131447"><ele>10.0</ele><time>2026-04-11T15:29:28Z</time></trkpt><trkpt lat="36.73080629798179" lon="14.856247742185637"><ele>10.0</ele><time>2026-04-11T15:29:29Z</time></trkpt><trkpt lat="36.730869275581604" lon="14.856242096954595"><ele>10.0</ele><time>2026-04-11T15:29:30Z</time></trkpt><trkpt lat="36.730942765965054" lon="14.856222834664242"><ele>10.0</ele><time>2026-04-11T15:29:32Z</time></trkpt><trkpt lat="36.73092203352626" lon="14.856039307386851"><ele>10.0</ele><time>2026-04-11T15:29:59Z</time></trkpt><trkpt lat="36.73088129032363" lon="14.85593688872517"><ele>10.0</ele><time>2026-04-11T15:30:00Z</time></trkpt><trkpt lat="36.73083424912473" lon="14.855824552274749"><ele>9.666666666666668</ele><time>2026-04-11T15:30:01Z</time></trkpt><trkpt lat="36.73079422975114" lon="14.855729535766065"><ele>9.333333333333334</ele><time>2026-04-11T15:30:02Z</time></trkpt><trkpt lat="36.73075870128317" lon="14.855643507238833"><ele>9.0</ele><time>2026-04-11T15:30:03Z</time></trkpt><trkpt lat="36.73072318835386" lon="14.855556757995672"><ele>8.666666666666666</ele><time>2026-04-11T15:30:04Z</time></trkpt><trkpt lat="36.7306853981213" lon="14.855452702935924"><ele>8.333333333333332</ele><time>2026-04-11T15:30:05Z</time></trkpt><trkpt lat="36.7306459155731" lon="14.855344986121116"><ele>8.0</ele><time>2026-04-11T15:30:06Z</time></trkpt><trkpt lat="36.730608787365156" lon="14.85523301653822"><ele>8.0</ele><time>2026-04-11T15:30:07Z</time></trkpt><trkpt lat="36.73058559829316" lon="14.855154715527503"><ele>8.0</ele><time>2026-04-11T15:30:08Z</time></trkpt><trkpt lat="36.73052865545797" lon="14.855018583386263"><ele>8.0</ele><time>2026-04-11T15:30:10Z</time></trkpt><trkpt lat="36.730511331077125" lon="14.854932026553714"><ele>8.0</ele><time>2026-04-11T15:30:12Z</time></trkpt><trkpt lat="36.73054486126071" lon="14.854858517740814"><ele>8.0</ele><time>2026-04-11T15:30:14Z</time></trkpt><trkpt lat="36.73069011946832" lon="14.854828133966171"><ele>9.25</ele><time>2026-04-11T15:30:15Z</time></trkpt><trkpt lat="36.73076364590603" lon="14.854770462548718"><ele>10.5</ele><time>2026-04-11T15:30:16Z</time></trkpt><trkpt lat="36.73071721252414" lon="14.85456246910446"><ele>11.75</ele><time>2026-04-11T15:30:19Z</time></trkpt><trkpt lat="36.73066074039394" lon="14.854417911190348"><ele>13.0</ele><time>2026-04-11T15:30:20Z</time></trkpt><trkpt lat="36.73060872064033" lon="14.854290243287776"><ele>13.600000000000001</ele><time>2026-04-11T15:30:21Z</time></trkpt><trkpt lat="36.730572245817676" lon="14.85419616569737"><ele>14.200000000000001</ele><time>2026-04-11T15:30:22Z</time></trkpt><trkpt lat="36.73052592537851" lon="14.854086087595912"><ele>14.8</ele><time>2026-04-11T15:30:24Z</time></trkpt><trkpt lat="36.7304905051457" lon="14.853988969731198"><ele>15.4</ele><time>2026-04-11T15:30:25Z</time></trkpt><trkpt lat="36.730451113942195" lon="14.853861296353083"><ele>16.0</ele><time>2026-04-11T15:30:26Z</time></trkpt><trkpt lat="36.730412471897125" lon="14.853757918313482"><ele>16.0</ele><time>2026-04-11T15:30:27Z</time></trkpt><trkpt lat="36.73038473434903" lon="14.853677192976646"><ele>16.0</ele><time>2026-04-11T15:30:28Z</time></trkpt><trkpt lat="36.730345201918695" lon="14.853566084338542"><ele>16.0</ele><time>2026-04-11T15:30:30Z</time></trkpt><trkpt lat="36.73049314015245" lon="14.85347840341658"><ele>16.0</ele><time>2026-04-11T15:30:33Z</time></trkpt><trkpt lat="36.730587882357185" lon="14.853445952429132"><ele>16.0</ele><time>2026-04-11T15:30:34Z</time></trkpt><trkpt lat="36.73067501331845" lon="14.853378079631248"><ele>16.0</ele><time>2026-04-11T15:30:35Z</time></trkpt><trkpt lat="36.73080946318766" lon="14.853302424734107"><ele>16.0</ele><time>2026-04-11T15:30:36Z</time></trkpt><trkpt lat="36.730934781477124" lon="14.853234881336562"><ele>16.0</ele><time>2026-04-11T15:30:37Z</time></trkpt><trkpt lat="36.73104648551458" lon="14.853178476308518"><ele>16.0</ele><time>2026-04-11T15:30:38Z</time></trkpt><trkpt lat="36.73113795689953" lon="14.853112399736865"><ele>16.75</ele><time>2026-04-11T15:30:39Z</time></trkpt><trkpt lat="36.73123990398515" lon="14.852997917055562"><ele>17.5</ele><time>2026-04-11T15:30:40Z</time></trkpt><trkpt lat="36.73131983275711" lon="14.85288249064367"><ele>18.25</ele><time>2026-04-11T15:30:41Z</time></trkpt><trkpt lat="36.73138791879154" lon="14.852796380633134"><ele>19.0</ele><time>2026-04-11T15:30:42Z</time></trkpt><trkpt lat="36.731464319508795" lon="14.852713631119515"><ele>19.0</ele><time>2026-04-11T15:30:43Z</time></trkpt><trkpt lat="36.73153724106212" lon="14.852625241648061"><ele>19.0</ele><time>2026-04-11T15:30:44Z</time></trkpt><trkpt lat="36.73160317819858" lon="14.852553104632944"><ele>19.0</ele><time>2026-04-11T15:30:45Z</time></trkpt><trkpt lat="36.73168606440475" lon="14.852456709716249"><ele>19.0</ele><time>2026-04-11T15:30:47Z</time></trkpt><trkpt lat="36.73155356641081" lon="14.852193532307227"><ele>18.75</ele><time>2026-04-11T15:30:53Z</time></trkpt><trkpt lat="36.73149626187021" lon="14.8520783276674"><ele>18.5</ele><time>2026-04-11T15:30:54Z</time></trkpt><trkpt lat="36.73141260725407" lon="14.851964737504806"><ele>18.25</ele><time>2026-04-11T15:30:55Z</time></trkpt><trkpt lat="36.73133268791797" lon="14.851859771939749"><ele>18.0</ele><time>2026-04-11T15:30:56Z</time></trkpt><trkpt lat="36.73125714302806" lon="14.851754935310527"><ele>17.8</ele><time>2026-04-11T15:30:57Z</time></trkpt><trkpt lat="36.7311854215799" lon="14.851672105787374"><ele>17.6</ele><time>2026-04-11T15:30:58Z</time></trkpt><trkpt lat="36.73111885398761" lon="14.851587523024179"><ele>17.4</ele><time>2026-04-11T15:30:59Z</time></trkpt><trkpt lat="36.73105208925674" lon="14.851503834829245"><ele>17.2</ele><time>2026-04-11T15:31:00Z</time></trkpt><trkpt lat="36.73097200208432" lon="14.851416320990767"><ele>17.0</ele><time>2026-04-11T15:31:01Z</time></trkpt><trkpt lat="36.730901653007066" lon="14.851341456868123"><ele>17.0</ele><time>2026-04-11T15:31:02Z</time></trkpt><trkpt lat="36.73080998307933" lon="14.851253029081917"><ele>17.0</ele><time>2026-04-11T15:31:03Z</time></trkpt><trkpt lat="36.73073117305049" lon="14.851174359798149"><ele>17.0</ele><time>2026-04-11T15:31:04Z</time></trkpt><trkpt lat="36.73065864476135" lon="14.851104249603408"><ele>17.0</ele><time>2026-04-11T15:31:05Z</time></trkpt><trkpt lat="36.73058930484548" lon="14.851038681023418"><ele>17.0</ele><time>2026-04-11T15:31:06Z</time></trkpt><trkpt lat="36.73052792797393" lon="14.85097663212155"><ele>16.166666666666668</ele><time>2026-04-11T15:31:07Z</time></trkpt><trkpt lat="36.73047236666532" lon="14.850925208323897"><ele>15.333333333333334</ele><time>2026-04-11T15:31:08Z</time></trkpt><trkpt lat="36.730422065169535" lon="14.850876231160155"><ele>14.5</ele><time>2026-04-11T15:31:09Z</time></trkpt><trkpt lat="36.73036841778886" lon="14.850831552266282"><ele>13.666666666666668</ele><time>2026-04-11T15:31:10Z</time></trkpt><trkpt lat="36.73030776436208" lon="14.850775493846553"><ele>12.833333333333334</ele><time>2026-04-11T15:31:11Z</time></trkpt><trkpt lat="36.73024285403559" lon="14.85070816942692"><ele>12.0</ele><time>2026-04-11T15:31:12Z</time></trkpt><trkpt lat="36.73016898021059" lon="14.850631972200054"><ele>11.8</ele><time>2026-04-11T15:31:13Z</time></trkpt><trkpt lat="36.730093249394564" lon="14.850550991985195"><ele>11.6</ele><time>2026-04-11T15:31:14Z</time></trkpt><trkpt lat="36.73002159730711" lon="14.850480023755583"><ele>11.4</ele><time>2026-04-11T15:31:15Z</time></trkpt><trkpt lat="36.729968934619365" lon="14.850426165807816"><ele>11.200000000000001</ele><time>2026-04-11T15:31:16Z</time></trkpt><trkpt lat="36.72987757509971" lon="14.850329508969086"><ele>11.0</ele><time>2026-04-11T15:31:17.999Z</time></trkpt><trkpt lat="36.72980662426134" lon="14.850250554315462"><ele>11.0</ele><time>2026-04-11T15:31:19.999Z</time></trkpt><trkpt lat="36.72973273558436" lon="14.850172825215775"><ele>11.0</ele><time>2026-04-11T15:31:21.999Z</time></trkpt><trkpt lat="36.72967243943842" lon="14.85010355458463"><ele>11.0</ele><time>2026-04-11T15:31:23.999Z</time></trkpt><trkpt lat="36.72961666362324" lon="14.850046943036425"><ele>11.0</ele><time>2026-04-11T15:31:25.999Z</time></trkpt><trkpt lat="36.72954636522968" lon="14.849977957650985"><ele>11.0</ele><time>2026-04-11T15:31:28.999Z</time></trkpt><trkpt lat="36.72944831265053" lon="14.849929383543223"><ele>11.0</ele><time>2026-04-11T15:31:30.999Z</time></trkpt><trkpt lat="36.729396555486865" lon="14.849850055887806"><ele>10.857142857142858</ele><time>2026-04-11T15:31:32.999Z</time></trkpt><trkpt lat="36.72932102269509" lon="14.849771495277228"><ele>10.714285714285714</ele><time>2026-04-11T15:31:34.999Z</time></trkpt><trkpt lat="36.72926344865833" lon="14.849712881686788"><ele>10.571428571428571</ele><time>2026-04-11T15:31:35.999Z</time></trkpt><trkpt lat="36.729205530325665" lon="14.849658760898018"><ele>10.428571428571429</ele><time>2026-04-11T15:31:36.999Z</time></trkpt><trkpt lat="36.729150534510225" lon="14.84960440796404"><ele>10.285714285714286</ele><time>2026-04-11T15:31:37.999Z</time></trkpt><trkpt lat="36.72909981698429" lon="14.849549044210836"><ele>10.142857142857142</ele><time>2026-04-11T15:31:38.999Z</time></trkpt><trkpt lat="36.72905158843326" lon="14.849495235607444"><ele>10.0</ele><time>2026-04-11T15:31:40.999Z</time></trkpt><trkpt lat="36.72899599019288" lon="14.849438052101732"><ele>10.0</ele><time>2026-04-11T15:31:44.999Z</time></trkpt><trkpt lat="36.72893326046244" lon="14.84937360403516"><ele>10.0</ele><time>2026-04-11T15:31:47.999Z</time></trkpt><trkpt lat="36.72887613738237" lon="14.849313347690167"><ele>10.0</ele><time>2026-04-11T15:31:49.999Z</time></trkpt><trkpt lat="36.72880115916773" lon="14.849228810952924"><ele>10.0</ele><time>2026-04-11T15:31:51.999Z</time></trkpt><trkpt lat="36.72873180749742" lon="14.849161158841671"><ele>10.0</ele><time>2026-04-11T15:31:53.999Z</time></trkpt><trkpt lat="36.728672942572" lon="14.849109313332217"><ele>10.0</ele><time>2026-04-11T15:31:55.999Z</time></trkpt><trkpt lat="36.7286046513345" lon="14.849039736254468"><ele>9.833333333333334</ele><time>2026-04-11T15:31:57.999Z</time></trkpt><trkpt lat="36.72852832407241" lon="14.848974611382928"><ele>9.666666666666668</ele><time>2026-04-11T15:31:59.999Z</time></trkpt><trkpt lat="36.7284697082736" lon="14.84890501693433"><ele>9.5</ele><time>2026-04-11T15:32:01.999Z</time></trkpt><trkpt lat="36.72839002149626" lon="14.848812831168805"><ele>9.333333333333334</ele><time>2026-04-11T15:32:03.999Z</time></trkpt><trkpt lat="36.72833508318764" lon="14.848754922149569"><ele>9.166666666666666</ele><time>2026-04-11T15:32:04.999Z</time></trkpt><trkpt lat="36.72827814277173" lon="14.848694902747564"><ele>9.0</ele><time>2026-04-11T15:32:05.999Z</time></trkpt><trkpt lat="36.72820799639116" lon="14.848624575929225"><ele>9.0</ele><time>2026-04-11T15:32:07.999Z</time></trkpt><trkpt lat="36.72815523961067" lon="14.84857593119576"><ele>9.0</ele><time>2026-04-11T15:32:10.999Z</time></trkpt><trkpt lat="36.72810573431589" lon="14.848520240763524"><ele>9.0</ele><time>2026-04-11T15:32:14.999Z</time></trkpt><trkpt lat="36.72804714659211" lon="14.848457290572464"><ele>9.0</ele><time>2026-04-11T15:32:16.999Z</time></trkpt><trkpt lat="36.727985863802225" lon="14.848388737263255"><ele>9.0</ele><time>2026-04-11T15:32:17.999Z</time></trkpt><trkpt lat="36.72790811417273" lon="14.84826652203732"><ele>9.0</ele><time>2026-04-11T15:32:18.999Z</time></trkpt><trkpt lat="36.72783668135405" lon="14.848167330808852"><ele>9.6</ele><time>2026-04-11T15:32:19.999Z</time></trkpt><trkpt lat="36.72777752137371" lon="14.848079971944813"><ele>10.2</ele><time>2026-04-11T15:32:20.999Z</time></trkpt><trkpt lat="36.72772279518374" lon="14.84799122147965"><ele>10.799999999999999</ele><time>2026-04-11T15:32:21.999Z</time></trkpt><trkpt lat="36.72766929320693" lon="14.847900783697462"><ele>11.4</ele><time>2026-04-11T15:32:22.999Z</time></trkpt><trkpt lat="36.72761540225051" lon="14.847811855910875"><ele>12.0</ele><time>2026-04-11T15:32:23.999Z</time></trkpt><trkpt lat="36.72756118444177" lon="14.847722025861206"><ele>12.5</ele><time>2026-04-11T15:32:24.999Z</time></trkpt><trkpt lat="36.72750369571484" lon="14.847625099478206"><ele>13.0</ele><time>2026-04-11T15:32:25.999Z</time></trkpt><trkpt lat="36.727442193914754" lon="14.847523210634877"><ele>13.5</ele><time>2026-04-11T15:32:26.999Z</time></trkpt><trkpt lat="36.72739468926191" lon="14.847447772189998"><ele>14.0</ele><time>2026-04-11T15:32:27.999Z</time></trkpt><trkpt lat="36.72735192490334" lon="14.84737895723749"><ele>14.5</ele><time>2026-04-11T15:32:28.999Z</time></trkpt><trkpt lat="36.72729294495952" lon="14.847285033164694"><ele>15.0</ele><time>2026-04-11T15:32:30.999Z</time></trkpt><trkpt lat="36.72724802213303" lon="14.847207833825378"><ele>15.0</ele><time>2026-04-11T15:32:32.999Z</time></trkpt><trkpt lat="36.72718431763248" lon="14.847107996017291"><ele>15.0</ele><time>2026-04-11T15:32:34.999Z</time></trkpt><trkpt lat="36.72710431096557" lon="14.846986667640422"><ele>15.0</ele><time>2026-04-11T15:32:36.999Z</time></trkpt><trkpt lat="36.727058942991505" lon="14.846914854061216"><ele>15.0</ele><time>2026-04-11T15:32:37.999Z</time></trkpt><trkpt lat="36.727017924959526" lon="14.846838925047306"><ele>15.0</ele><time>2026-04-11T15:32:38.999Z</time></trkpt><trkpt lat="36.7269753803989" lon="14.846766081120153"><ele>15.0</ele><time>2026-04-11T15:32:39.999Z</time></trkpt><trkpt lat="36.72691723909692" lon="14.846665930351154"><ele>15.6</ele><time>2026-04-11T15:32:41.999Z</time></trkpt><trkpt lat="36.72685739252036" lon="14.846566541296013"><ele>16.2</ele><time>2026-04-11T15:32:43.999Z</time></trkpt><trkpt lat="36.72679992931135" lon="14.84647426847427"><ele>16.8</ele><time>2026-04-11T15:32:45.999Z</time></trkpt><trkpt lat="36.72673071483529" lon="14.846363701005492"><ele>17.4</ele><time>2026-04-11T15:32:48Z</time></trkpt><trkpt lat="36.72665646649616" lon="14.846239294818252"><ele>18.0</ele><time>2026-04-11T15:32:50Z</time></trkpt><trkpt lat="36.726589598223654" lon="14.846122619727554"><ele>18.0</ele><time>2026-04-11T15:32:52Z</time></trkpt><trkpt lat="36.72652823030034" lon="14.84602798688192"><ele>18.0</ele><time>2026-04-11T15:32:53.999Z</time></trkpt><trkpt lat="36.72646968441162" lon="14.84593020544231"><ele>18.0</ele><time>2026-04-11T15:32:55.999Z</time></trkpt><trkpt lat="36.726424682631595" lon="14.84585396766286"><ele>18.0</ele><time>2026-04-11T15:32:57.999Z</time></trkpt><trkpt lat="36.726327423664834" lon="14.845713996704925"><ele>18.0</ele><time>2026-04-11T15:32:59.999Z</time></trkpt><trkpt lat="36.7262609393669" lon="14.8456030817902"><ele>18.4</ele><time>2026-04-11T15:33:00.999Z</time></trkpt><trkpt lat="36.72622176481962" lon="14.845516583693103"><ele>18.8</ele><time>2026-04-11T15:33:01.999Z</time></trkpt><trkpt lat="36.726158322738314" lon="14.845408867442359"><ele>19.2</ele><time>2026-04-11T15:33:03.999Z</time></trkpt><trkpt lat="36.72610122395725" lon="14.845301490422699"><ele>19.6</ele><time>2026-04-11T15:33:06Z</time></trkpt><trkpt lat="36.72602136903285" lon="14.845196252280092"><ele>20.0</ele><time>2026-04-11T15:33:08Z</time></trkpt><trkpt lat="36.72597248621667" lon="14.845124192640771"><ele>20.0</ele><time>2026-04-11T15:33:09Z</time></trkpt><trkpt lat="36.72592126377963" lon="14.845048270756159"><ele>20.0</ele><time>2026-04-11T15:33:10Z</time></trkpt><trkpt lat="36.72585489992953" lon="14.844949940578795"><ele>20.0</ele><time>2026-04-11T15:33:11Z</time></trkpt><trkpt lat="36.7257795936558" lon="14.84482903886337"><ele>20.0</ele><time>2026-04-11T15:33:12Z</time></trkpt><trkpt lat="36.725715625040536" lon="14.844712069001494"><ele>20.0</ele><time>2026-04-11T15:33:13Z</time></trkpt><trkpt lat="36.72566338827885" lon="14.844612003512166"><ele>20.0</ele><time>2026-04-11T15:33:14Z</time></trkpt><trkpt lat="36.7256068482761" lon="14.844512742202756"><ele>20.0</ele><time>2026-04-11T15:33:15Z</time></trkpt><trkpt lat="36.725555958814375" lon="14.844428520301513"><ele>20.0</ele><time>2026-04-11T15:33:16Z</time></trkpt><trkpt lat="36.72549849189031" lon="14.844334501872822"><ele>20.0</ele><time>2026-04-11T15:33:17Z</time></trkpt><trkpt lat="36.72544636244031" lon="14.844246910902356"><ele>20.0</ele><time>2026-04-11T15:33:18Z</time></trkpt><trkpt lat="36.72538907386258" lon="14.844157327120055"><ele>20.4</ele><time>2026-04-11T15:33:19Z</time></trkpt><trkpt lat="36.72532669339991" lon="14.844057471598184"><ele>20.8</ele><time>2026-04-11T15:33:20Z</time></trkpt><trkpt lat="36.72526545106771" lon="14.843954659692079"><ele>21.200000000000003</ele><time>2026-04-11T15:33:21Z</time></trkpt><trkpt lat="36.72520535441654" lon="14.843851873392577"><ele>21.6</ele><time>2026-04-11T15:33:22Z</time></trkpt><trkpt lat="36.72514020827821" lon="14.843753446192762"><ele>22.0</ele><time>2026-04-11T15:33:23Z</time></trkpt><trkpt lat="36.72507984129055" lon="14.843656115217774"><ele>21.200000000000003</ele><time>2026-04-11T15:33:24Z</time></trkpt><trkpt lat="36.7250105566962" lon="14.843537167784529"><ele>20.400000000000002</ele><time>2026-04-11T15:33:25Z</time></trkpt><trkpt lat="36.724954038115065" lon="14.843435187749167"><ele>19.6</ele><time>2026-04-11T15:33:26Z</time></trkpt><trkpt lat="36.72490441052684" lon="14.843343574203445"><ele>18.8</ele><time>2026-04-11T15:33:27Z</time></trkpt><trkpt lat="36.72484783483792" lon="14.843250231021898"><ele>18.0</ele><time>2026-04-11T15:33:28Z</time></trkpt><trkpt lat="36.72479122319058" lon="14.843156586875525"><ele>18.0</ele><time>2026-04-11T15:33:29Z</time></trkpt><trkpt lat="36.72471796051311" lon="14.843035644162844"><ele>18.0</ele><time>2026-04-11T15:33:30Z</time></trkpt><trkpt lat="36.7246594389765" lon="14.842933478474418"><ele>18.0</ele><time>2026-04-11T15:33:31Z</time></trkpt><trkpt lat="36.724606175652795" lon="14.842851873746433"><ele>18.0</ele><time>2026-04-11T15:33:32Z</time></trkpt><trkpt lat="36.72456364176651" lon="14.842781396568586"><ele>18.0</ele><time>2026-04-11T15:33:33Z</time></trkpt><trkpt lat="36.72451835382215" lon="14.84270527676801"><ele>18.0</ele><time>2026-04-11T15:33:34Z</time></trkpt><trkpt lat="36.72447877409124" lon="14.842637651562756"><ele>18.0</ele><time>2026-04-11T15:33:35Z</time></trkpt><trkpt lat="36.72443599299667" lon="14.842561917941412"><ele>18.0</ele><time>2026-04-11T15:33:36Z</time></trkpt><trkpt lat="36.72438918310024" lon="14.842485583776543"><ele>18.0</ele><time>2026-04-11T15:33:37Z</time></trkpt><trkpt lat="36.7243414431279" lon="14.842400773466254"><ele>18.0</ele><time>2026-04-11T15:33:38Z</time></trkpt><trkpt lat="36.72429434786311" lon="14.842321243186195"><ele>18.0</ele><time>2026-04-11T15:33:39Z</time></trkpt><trkpt lat="36.72425168689575" lon="14.842250335260955"><ele>17.833333333333332</ele><time>2026-04-11T15:33:40Z</time></trkpt><trkpt lat="36.72418671785359" lon="14.842152054862352"><ele>17.666666666666668</ele><time>2026-04-11T15:33:42Z</time></trkpt><trkpt lat="36.724150057581475" lon="14.842080249782628"><ele>17.5</ele><time>2026-04-11T15:33:44Z</time></trkpt><trkpt lat="36.724100758628" lon="14.841995365486863"><ele>17.333333333333336</ele><time>2026-04-11T15:33:46Z</time></trkpt><trkpt lat="36.724060608029966" lon="14.84191812073566"><ele>17.166666666666668</ele><time>2026-04-11T15:33:47Z</time></trkpt><trkpt lat="36.724019949018945" lon="14.84184833353953"><ele>17.0</ele><time>2026-04-11T15:33:48Z</time></trkpt><trkpt lat="36.72394151894842" lon="14.841718696717441"><ele>17.0</ele><time>2026-04-11T15:33:50Z</time></trkpt><trkpt lat="36.723877351375975" lon="14.841616475334307"><ele>17.0</ele><time>2026-04-11T15:33:52Z</time></trkpt><trkpt lat="36.72382918936414" lon="14.841544549024515"><ele>17.0</ele><time>2026-04-11T15:33:54Z</time></trkpt><trkpt lat="36.72377327447339" lon="14.841460809968355"><ele>17.0</ele><time>2026-04-11T15:33:56Z</time></trkpt><trkpt lat="36.72368736156343" lon="14.841340893789253"><ele>17.0</ele><time>2026-04-11T15:33:58Z</time></trkpt><trkpt lat="36.723649257183865" lon="14.841274039964633"><ele>17.0</ele><time>2026-04-11T15:33:59Z</time></trkpt><trkpt lat="36.72360208913546" lon="14.84114521651176"><ele>17.0</ele><time>2026-04-11T15:34:01Z</time></trkpt><trkpt lat="36.723578945761474" lon="14.841041955329112"><ele>17.0</ele><time>2026-04-11T15:34:03Z</time></trkpt><trkpt lat="36.72358111534327" lon="14.84094694075799"><ele>17.0</ele><time>2026-04-11T15:34:05Z</time></trkpt><trkpt lat="36.72364030647228" lon="14.840861650278937"><ele>17.0</ele><time>2026-04-11T15:34:07Z</time></trkpt><trkpt lat="36.723705420547276" lon="14.840819058780772"><ele>17.0</ele><time>2026-04-11T15:34:08Z</time></trkpt><trkpt lat="36.72379192061937" lon="14.840762141831206"><ele>17.0</ele><time>2026-04-11T15:34:09Z</time></trkpt><trkpt lat="36.72384932980839" lon="14.840717354679505"><ele>17.0</ele><time>2026-04-11T15:34:10Z</time></trkpt><trkpt lat="36.7239022405814" lon="14.840673142206008"><ele>17.0</ele><time>2026-04-11T15:34:11Z</time></trkpt><trkpt lat="36.72396307761525" lon="14.840609502386945"><ele>17.0</ele><time>2026-04-11T15:34:13Z</time></trkpt><trkpt lat="36.72401137341043" lon="14.840551227642672"><ele>17.0</ele><time>2026-04-11T15:34:17Z</time></trkpt><trkpt lat="36.72404978005773" lon="14.840455937642714"><ele>17.0</ele><time>2026-04-11T15:34:21Z</time></trkpt><trkpt lat="36.72398356176677" lon="14.840333034208758"><ele>17.0</ele><time>2026-04-11T15:34:24Z</time></trkpt><trkpt lat="36.7239392161137" lon="14.840265029956933"><ele>17.0</ele><time>2026-04-11T15:34:26Z</time></trkpt><trkpt lat="36.7238823274237" lon="14.840174484957883"><ele>17.0</ele><time>2026-04-11T15:34:28Z</time></trkpt><trkpt lat="36.72382374233363" lon="14.84008282010111"><ele>17.0</ele><time>2026-04-11T15:34:30Z</time></trkpt><trkpt lat="36.72376086350284" lon="14.839984003181934"><ele>17.0</ele><time>2026-04-11T15:34:32Z</time></trkpt><trkpt lat="36.72369494634847" lon="14.839866177546327"><ele>17.0</ele><time>2026-04-11T15:34:34Z</time></trkpt><trkpt lat="36.72364589092958" lon="14.839778388956024"><ele>17.0</ele><time>2026-04-11T15:34:36Z</time></trkpt><trkpt lat="36.723584834976435" lon="14.839672885261056"><ele>17.0</ele><time>2026-04-11T15:34:38Z</time></trkpt><trkpt lat="36.7235164952335" lon="14.839558344046724"><ele>17.0</ele><time>2026-04-11T15:34:40Z</time></trkpt><trkpt lat="36.72346992747649" lon="14.839483017692045"><ele>17.0</ele><time>2026-04-11T15:34:42Z</time></trkpt><trkpt lat="36.72342940566848" lon="14.839412783158773"><ele>16.8</ele><time>2026-04-11T15:34:45Z</time></trkpt><trkpt lat="36.72337455558559" lon="14.839321443567728"><ele>16.6</ele><time>2026-04-11T15:34:47Z</time></trkpt><trkpt lat="36.72333510234671" lon="14.839251258972164"><ele>16.400000000000002</ele><time>2026-04-11T15:34:48Z</time></trkpt><trkpt lat="36.72328091223478" lon="14.839154696119941"><ele>16.2</ele><time>2026-04-11T15:34:49Z</time></trkpt><trkpt lat="36.72321020323999" lon="14.83902488009435"><ele>16.0</ele><time>2026-04-11T15:34:50Z</time></trkpt><trkpt lat="36.723139066462196" lon="14.838915437102061"><ele>15.499999999999998</ele><time>2026-04-11T15:34:51Z</time></trkpt><trkpt lat="36.72308314010916" lon="14.838817028065968"><ele>15.0</ele><time>2026-04-11T15:34:52Z</time></trkpt><trkpt lat="36.72303571850779" lon="14.838734709757128"><ele>14.5</ele><time>2026-04-11T15:34:53Z</time></trkpt><trkpt lat="36.72298227336809" lon="14.838642670897272"><ele>14.0</ele><time>2026-04-11T15:34:55Z</time></trkpt><trkpt lat="36.722949177386674" lon="14.838566592275871"><ele>13.499999999999998</ele><time>2026-04-11T15:34:59Z</time></trkpt><trkpt lat="36.723001841887424" lon="14.838649723579788"><ele>13.0</ele><time>2026-04-11T15:35:06Z</time></trkpt><trkpt lat="36.72304709195743" lon="14.838732501449442"><ele>13.0</ele><time>2026-04-11T15:35:08Z</time></trkpt><trkpt lat="36.72309393191404" lon="14.838812925285039"><ele>13.0</ele><time>2026-04-11T15:35:12Z</time></trkpt><trkpt lat="36.7231989287492" lon="14.838699831889599"><ele>13.0</ele><time>2026-04-11T15:35:15Z</time></trkpt><trkpt lat="36.72326652119784" lon="14.838649525829412"><ele>13.0</ele><time>2026-04-11T15:35:17Z</time></trkpt><trkpt lat="36.72334477386231" lon="14.838582659783238"><ele>13.0</ele><time>2026-04-11T15:35:19Z</time></trkpt><trkpt lat="36.72343419716017" lon="14.83848167067668"><ele>12.4</ele><time>2026-04-11T15:35:21Z</time></trkpt><trkpt lat="36.723490811139705" lon="14.838437089786906"><ele>11.8</ele><time>2026-04-11T15:35:22Z</time></trkpt><trkpt lat="36.72357003674612" lon="14.838371690553762"><ele>11.2</ele><time>2026-04-11T15:35:24Z</time></trkpt><trkpt lat="36.72365877906511" lon="14.83828187636683"><ele>10.6</ele><time>2026-04-11T15:35:26Z</time></trkpt><trkpt lat="36.723745956594804" lon="14.838201196923277"><ele>10.0</ele><time>2026-04-11T15:35:28Z</time></trkpt><trkpt lat="36.72382262496609" lon="14.838133388176988"><ele>9.833333333333334</ele><time>2026-04-11T15:35:30Z</time></trkpt><trkpt lat="36.723899495443554" lon="14.838172430475806"><ele>9.666666666666668</ele><time>2026-04-11T15:35:32Z</time></trkpt><trkpt lat="36.723975123895215" lon="14.838306019223285"><ele>9.5</ele><time>2026-04-11T15:35:34Z</time></trkpt><trkpt lat="36.72401964736701" lon="14.838390693598226"><ele>9.333333333333334</ele><time>2026-04-11T15:35:35Z</time></trkpt><trkpt lat="36.72405429004592" lon="14.838459119431228"><ele>9.166666666666666</ele><time>2026-04-11T15:35:36Z</time></trkpt><trkpt lat="36.724115799487585" lon="14.838502468010677"><ele>9.0</ele><time>2026-04-11T15:35:39Z</time></trkpt><trkpt lat="36.724196557934285" lon="14.838453433223908"><ele>9.0</ele><time>2026-04-11T15:35:41Z</time></trkpt><trkpt lat="36.724270106438105" lon="14.83837519538092"><ele>9.0</ele><time>2026-04-11T15:35:42Z</time></trkpt><trkpt lat="36.72434939155535" lon="14.838310122595756"><ele>9.0</ele><time>2026-04-11T15:35:43Z</time></trkpt><trkpt lat="36.724438577351854" lon="14.838254160310798"><ele>9.0</ele><time>2026-04-11T15:35:45Z</time></trkpt><trkpt lat="36.72451611172069" lon="14.838326585622989"><ele>9.0</ele><time>2026-04-11T15:35:48Z</time></trkpt><trkpt lat="36.72454597858532" lon="14.838401965185694"><ele>8.8</ele><time>2026-04-11T15:35:49Z</time></trkpt><trkpt lat="36.724583997248814" lon="14.838473112548233"><ele>8.600000000000001</ele><time>2026-04-11T15:35:50Z</time></trkpt><trkpt lat="36.72465488600355" lon="14.838569457059453"><ele>8.4</ele><time>2026-04-11T15:35:52Z</time></trkpt><trkpt lat="36.72470538323983" lon="14.83864041880807"><ele>8.200000000000001</ele><time>2026-04-11T15:35:55Z</time></trkpt><trkpt lat="36.7248640577657" lon="14.83848886441294"><ele>8.0</ele><time>2026-04-11T15:35:57Z</time></trkpt><trkpt lat="36.72490617564085" lon="14.838403086695456"><ele>7.999999999999999</ele><time>2026-04-11T15:35:59Z</time></trkpt><trkpt lat="36.72494004468029" lon="14.838321547399502"><ele>8.0</ele><time>2026-04-11T15:36:01Z</time></trkpt><trkpt lat="36.7249867981043" lon="14.83824103282032"><ele>8.0</ele><time>2026-04-11T15:36:03Z</time></trkpt><trkpt lat="36.724929400914846" lon="14.83810658074684"><ele>8.0</ele><time>2026-04-11T15:36:04Z</time></trkpt><trkpt lat="36.724885597655785" lon="14.838037143615814"><ele>7.999999999999999</ele><time>2026-04-11T15:36:05Z</time></trkpt><trkpt lat="36.72480788018302" lon="14.83797036339438"><ele>8.0</ele><time>2026-04-11T15:36:06Z</time></trkpt><trkpt lat="36.72473451282206" lon="14.837836116351554"><ele>8.0</ele><time>2026-04-11T15:36:07Z</time></trkpt><trkpt lat="36.724624319474025" lon="14.837671436257402"><ele>8.0</ele><time>2026-04-11T15:36:08Z</time></trkpt><trkpt lat="36.72451286778858" lon="14.837528844139102"><ele>8.0</ele><time>2026-04-11T15:36:09Z</time></trkpt><trkpt lat="36.7244473543288" lon="14.83740982946429"><ele>8.0</ele><time>2026-04-11T15:36:10Z</time></trkpt><trkpt lat="36.724380993458446" lon="14.837313628047198"><ele>7.800000000000001</ele><time>2026-04-11T15:36:11Z</time></trkpt><trkpt lat="36.724316533000625" lon="14.837225787165252"><ele>7.6000000000000005</ele><time>2026-04-11T15:36:12Z</time></trkpt><trkpt lat="36.724255055612936" lon="14.837143665905806"><ele>7.3999999999999995</ele><time>2026-04-11T15:36:13Z</time></trkpt><trkpt lat="36.7241884846551" lon="14.837059485722952"><ele>7.199999999999999</ele><time>2026-04-11T15:36:14Z</time></trkpt><trkpt lat="36.7241208383778" lon="14.836969763129433"><ele>7.0</ele><time>2026-04-11T15:36:15Z</time></trkpt><trkpt lat="36.72406070330352" lon="14.836884373345203"><ele>7.6</ele><time>2026-04-11T15:36:16Z</time></trkpt><trkpt lat="36.72399858319255" lon="14.836795468897858"><ele>8.2</ele><time>2026-04-11T15:36:17Z</time></trkpt><trkpt lat="36.72393960834781" lon="14.836708498716906"><ele>8.8</ele><time>2026-04-11T15:36:18Z</time></trkpt><trkpt lat="36.72386890769296" lon="14.83661061476752"><ele>9.4</ele><time>2026-04-11T15:36:19Z</time></trkpt><trkpt lat="36.72379043728984" lon="14.836507310836144"><ele>10.0</ele><time>2026-04-11T15:36:20Z</time></trkpt><trkpt lat="36.72372137352732" lon="14.836390275037463"><ele>10.0</ele><time>2026-04-11T15:36:21Z</time></trkpt><trkpt lat="36.723641659372404" lon="14.836284493813208"><ele>10.0</ele><time>2026-04-11T15:36:22Z</time></trkpt><trkpt lat="36.72354935218679" lon="14.836201658629683"><ele>10.0</ele><time>2026-04-11T15:36:23Z</time></trkpt><trkpt lat="36.72347538281818" lon="14.836114011656882"><ele>10.0</ele><time>2026-04-11T15:36:24Z</time></trkpt><trkpt lat="36.723400549245646" lon="14.836030206844013"><ele>10.0</ele><time>2026-04-11T15:36:25Z</time></trkpt><trkpt lat="36.72332195754639" lon="14.83594751345128"><ele>9.6</ele><time>2026-04-11T15:36:26Z</time></trkpt><trkpt lat="36.72324645643037" lon="14.835868549088607"><ele>9.2</ele><time>2026-04-11T15:36:27Z</time></trkpt><trkpt lat="36.723173893251136" lon="14.835789042451289"><ele>8.8</ele><time>2026-04-11T15:36:28Z</time></trkpt><trkpt lat="36.72311465239041" lon="14.83567620054892"><ele>8.4</ele><time>2026-04-11T15:36:29Z</time></trkpt><trkpt lat="36.723045828835176" lon="14.83557889555785"><ele>8.0</ele><time>2026-04-11T15:36:30Z</time></trkpt><trkpt lat="36.72298959732152" lon="14.835490695007147"><ele>8.0</ele><time>2026-04-11T15:36:31Z</time></trkpt><trkpt lat="36.722932164692914" lon="14.835400720715938"><ele>8.0</ele><time>2026-04-11T15:36:32Z</time></trkpt><trkpt lat="36.72287813214129" lon="14.835316072996193"><ele>8.0</ele><time>2026-04-11T15:36:33Z</time></trkpt><trkpt lat="36.722818671943635" lon="14.835223629832416"><ele>8.0</ele><time>2026-04-11T15:36:34Z</time></trkpt><trkpt lat="36.72275737885554" lon="14.835128166021311"><ele>8.0</ele><time>2026-04-11T15:36:35Z</time></trkpt><trkpt lat="36.722697384132196" lon="14.835034724379602"><ele>7.833333333333333</ele><time>2026-04-11T15:36:36Z</time></trkpt><trkpt lat="36.7226390094515" lon="14.834945165494371"><ele>7.666666666666666</ele><time>2026-04-11T15:36:37Z</time></trkpt><trkpt lat="36.722579459778075" lon="14.834853430329918"><ele>7.5</ele><time>2026-04-11T15:36:38Z</time></trkpt><trkpt lat="36.722523464555174" lon="14.834767170723305"><ele>7.333333333333334</ele><time>2026-04-11T15:36:39Z</time></trkpt><trkpt lat="36.722461246300924" lon="14.834704427124302"><ele>7.166666666666667</ele><time>2026-04-11T15:36:40Z</time></trkpt><trkpt lat="36.722418628423796" lon="14.834639219370322"><ele>7.0</ele><time>2026-04-11T15:36:41Z</time></trkpt><trkpt lat="36.722372560089624" lon="14.83453564128206"><ele>7.000000000000001</ele><time>2026-04-11T15:36:43Z</time></trkpt><trkpt lat="36.722331656618884" lon="14.834472864401716"><ele>7.0</ele><time>2026-04-11T15:36:45Z</time></trkpt><trkpt lat="36.72229084679377" lon="14.83441023122942"><ele>7.0</ele><time>2026-04-11T15:36:48Z</time></trkpt><trkpt lat="36.72224915623027" lon="14.83434511385789"><ele>7.0</ele><time>2026-04-11T15:36:50Z</time></trkpt><trkpt lat="36.7221621071123" lon="14.834240744840447"><ele>7.000000000000001</ele><time>2026-04-11T15:36:52Z</time></trkpt><trkpt lat="36.72211495699572" lon="14.834169775737104"><ele>7.0</ele><time>2026-04-11T15:36:53Z</time></trkpt><trkpt lat="36.722056217066196" lon="14.83408988663835"><ele>7.3999999999999995</ele><time>2026-04-11T15:36:54Z</time></trkpt><trkpt lat="36.72198953783933" lon="14.834000518342316"><ele>7.799999999999999</ele><time>2026-04-11T15:36:55Z</time></trkpt><trkpt lat="36.72191759016841" lon="14.833913026901591"><ele>8.2</ele><time>2026-04-11T15:36:56Z</time></trkpt><trkpt lat="36.72183717523962" lon="14.83381854254857"><ele>8.6</ele><time>2026-04-11T15:36:57Z</time></trkpt><trkpt lat="36.721745846174976" lon="14.833720484183612"><ele>9.0</ele><time>2026-04-11T15:36:58Z</time></trkpt><trkpt lat="36.721646703470476" lon="14.833625987742355"><ele>9.0</ele><time>2026-04-11T15:36:59Z</time></trkpt><trkpt lat="36.72154162503462" lon="14.833536222591306"><ele>9.0</ele><time>2026-04-11T15:37:00Z</time></trkpt><trkpt lat="36.72143329032304" lon="14.833454220469301"><ele>9.0</ele><time>2026-04-11T15:37:01Z</time></trkpt><trkpt lat="36.72132414013704" lon="14.833374183257606"><ele>9.0</ele><time>2026-04-11T15:37:02Z</time></trkpt><trkpt lat="36.72121544956802" lon="14.833293886502675"><ele>9.5</ele><time>2026-04-11T15:37:03Z</time></trkpt><trkpt lat="36.72110868270516" lon="14.833215532223598"><ele>10.0</ele><time>2026-04-11T15:37:04Z</time></trkpt><trkpt lat="36.72100390079845" lon="14.833137241010542"><ele>10.5</ele><time>2026-04-11T15:37:05Z</time></trkpt><trkpt lat="36.72089863159853" lon="14.833058238454106"><ele>11.0</ele><time>2026-04-11T15:37:06Z</time></trkpt><trkpt lat="36.72079990416757" lon="14.832988319336884"><ele>10.8</ele><time>2026-04-11T15:37:07Z</time></trkpt><trkpt lat="36.72070197017544" lon="14.83291782380906"><ele>10.600000000000001</ele><time>2026-04-11T15:37:08Z</time></trkpt><trkpt lat="36.72060730977777" lon="14.832850218363218"><ele>10.4</ele><time>2026-04-11T15:37:09Z</time></trkpt><trkpt lat="36.72051434783307" lon="14.832781021814117"><ele>10.2</ele><time>2026-04-11T15:37:10Z</time></trkpt><trkpt lat="36.72042956678484" lon="14.832712805681492"><ele>10.0</ele><time>2026-04-11T15:37:11Z</time></trkpt><trkpt lat="36.72034806385054" lon="14.832637264688714"><ele>10.0</ele><time>2026-04-11T15:37:12Z</time></trkpt><trkpt lat="36.72026989039481" lon="14.83255582133259"><ele>10.0</ele><time>2026-04-11T15:37:13Z</time></trkpt><trkpt lat="36.72019241714874" lon="14.83246593007817"><ele>10.0</ele><time>2026-04-11T15:37:14Z</time></trkpt><trkpt lat="36.720117580120174" lon="14.832371495687013"><ele>10.0</ele><time>2026-04-11T15:37:15Z</time></trkpt><trkpt lat="36.72004421079789" lon="14.832271240934585"><ele>10.0</ele><time>2026-04-11T15:37:16Z</time></trkpt><trkpt lat="36.7199690119812" lon="14.83216662182583"><ele>9.5</ele><time>2026-04-11T15:37:17Z</time></trkpt><trkpt lat="36.71989131750119" lon="14.832056464062793"><ele>9.0</ele><time>2026-04-11T15:37:18Z</time></trkpt><trkpt lat="36.71981076166787" lon="14.831941385229873"><ele>8.5</ele><time>2026-04-11T15:37:19Z</time></trkpt><trkpt lat="36.71972637369671" lon="14.831823850781221"><ele>8.0</ele><time>2026-04-11T15:37:20Z</time></trkpt><trkpt lat="36.71964616879012" lon="14.831715077220494"><ele>8.0</ele><time>2026-04-11T15:37:21Z</time></trkpt><trkpt lat="36.719568177157996" lon="14.83160186360672"><ele>8.0</ele><time>2026-04-11T15:37:22Z</time></trkpt><trkpt lat="36.71948213616897" lon="14.831482527690545"><ele>8.0</ele><time>2026-04-11T15:37:23Z</time></trkpt><trkpt lat="36.71939838743277" lon="14.83137109284183"><ele>8.0</ele><time>2026-04-11T15:37:24Z</time></trkpt><trkpt lat="36.71932127458551" lon="14.831264198057664"><ele>7.5</ele><time>2026-04-11T15:37:25Z</time></trkpt><trkpt lat="36.71925078313203" lon="14.831164342085984"><ele>7.0</ele><time>2026-04-11T15:37:26Z</time></trkpt><trkpt lat="36.719169570332014" lon="14.831046806903966"><ele>6.5</ele><time>2026-04-11T15:37:27Z</time></trkpt><trkpt lat="36.71907932183561" lon="14.83092771979026"><ele>6.0</ele><time>2026-04-11T15:37:28Z</time></trkpt><trkpt lat="36.7189903769135" lon="14.830804693653304"><ele>6.0</ele><time>2026-04-11T15:37:29Z</time></trkpt><trkpt lat="36.71889930942981" lon="14.83067566835553"><ele>6.0</ele><time>2026-04-11T15:37:30Z</time></trkpt><trkpt lat="36.71880472584066" lon="14.83054003325665"><ele>6.0</ele><time>2026-04-11T15:37:31Z</time></trkpt><trkpt lat="36.71870334923248" lon="14.830387785247657"><ele>6.0</ele><time>2026-04-11T15:37:32Z</time></trkpt><trkpt lat="36.718602572407804" lon="14.830228658455416"><ele>5.333333333333333</ele><time>2026-04-11T15:37:33Z</time></trkpt><trkpt lat="36.71850420063053" lon="14.830061282834574"><ele>4.666666666666666</ele><time>2026-04-11T15:37:34Z</time></trkpt><trkpt lat="36.71841050758733" lon="14.829900490686644"><ele>4.0</ele><time>2026-04-11T15:37:35Z</time></trkpt><trkpt lat="36.718329744194676" lon="14.829755972031721"><ele>4.0</ele><time>2026-04-11T15:37:36Z</time></trkpt><trkpt lat="36.71823995774991" lon="14.829592694533831"><ele>4.0</ele><time>2026-04-11T15:37:37Z</time></trkpt><trkpt lat="36.71814918582721" lon="14.829432291839614"><ele>4.0</ele><time>2026-04-11T15:37:38Z</time></trkpt><trkpt lat="36.71805968855393" lon="14.82927177107506"><ele>3.75</ele><time>2026-04-11T15:37:39Z</time></trkpt><trkpt lat="36.717971832500055" lon="14.829120155589704"><ele>3.5</ele><time>2026-04-11T15:37:40Z</time></trkpt><trkpt lat="36.71788814585487" lon="14.828975648941737"><ele>3.25</ele><time>2026-04-11T15:37:41Z</time></trkpt><trkpt lat="36.71780685780576" lon="14.828830476003937"><ele>3.0</ele><time>2026-04-11T15:37:42Z</time></trkpt><trkpt lat="36.717731146336135" lon="14.828693853825163"><ele>3.0</ele><time>2026-04-11T15:37:43Z</time></trkpt><trkpt lat="36.71766009589843" lon="14.828565459139636"><ele>3.0</ele><time>2026-04-11T15:37:44Z</time></trkpt><trkpt lat="36.71759294278872" lon="14.828444732069777"><ele>3.0</ele><time>2026-04-11T15:37:45Z</time></trkpt><trkpt lat="36.71752813384749" lon="14.828334153647612"><ele>3.0</ele><time>2026-04-11T15:37:46Z</time></trkpt><trkpt lat="36.717463353713626" lon="14.828220625706455"><ele>3.75</ele><time>2026-04-11T15:37:47Z</time></trkpt><trkpt lat="36.71739161266431" lon="14.828091990250115"><ele>4.5</ele><time>2026-04-11T15:37:48Z</time></trkpt><trkpt lat="36.717316749388445" lon="14.8279550196833"><ele>5.25</ele><time>2026-04-11T15:37:49Z</time></trkpt><trkpt lat="36.71723647335269" lon="14.827812402006183"><ele>6.0</ele><time>2026-04-11T15:37:50Z</time></trkpt><trkpt lat="36.717151300939584" lon="14.827663896054862"><ele>5.333333333333333</ele><time>2026-04-11T15:37:51Z</time></trkpt><trkpt lat="36.71706388150708" lon="14.827511570228321"><ele>4.666666666666666</ele><time>2026-04-11T15:37:52Z</time></trkpt><trkpt lat="36.71697540633785" lon="14.827354089263462"><ele>4.0</ele><time>2026-04-11T15:37:53Z</time></trkpt><trkpt lat="36.716887049787964" lon="14.827192341068614"><ele>4.0</ele><time>2026-04-11T15:37:54Z</time></trkpt><trkpt lat="36.71679666554967" lon="14.827027944092636"><ele>4.0</ele><time>2026-04-11T15:37:55Z</time></trkpt><trkpt lat="36.71670548661227" lon="14.826864480286527"><ele>4.0</ele><time>2026-04-11T15:37:56Z</time></trkpt><trkpt lat="36.71661061605314" lon="14.826697547258552"><ele>4.0</ele><time>2026-04-11T15:37:57Z</time></trkpt><trkpt lat="36.71651244053326" lon="14.82652093040324"><ele>4.0</ele><time>2026-04-11T15:37:58Z</time></trkpt><trkpt lat="36.71642049539489" lon="14.826333395169149"><ele>4.0</ele><time>2026-04-11T15:37:59Z</time></trkpt><trkpt lat="36.71634455065865" lon="14.826132016783356"><ele>5.25</ele><time>2026-04-11T15:38:00Z</time></trkpt><trkpt lat="36.71629977159683" lon="14.825951383842304"><ele>6.5</ele><time>2026-04-11T15:38:01Z</time></trkpt><trkpt lat="36.71627359046931" lon="14.825810327916686"><ele>7.75</ele><time>2026-04-11T15:38:02Z</time></trkpt><trkpt lat="36.716255572802766" lon="14.825686494683065"><ele>9.0</ele><time>2026-04-11T15:38:03Z</time></trkpt><trkpt lat="36.71622511346397" lon="14.825581104341154"><ele>9.0</ele><time>2026-04-11T15:38:04Z</time></trkpt><trkpt lat="36.71624410739937" lon="14.825439139867214"><ele>9.0</ele><time>2026-04-11T15:38:05Z</time></trkpt><trkpt lat="36.71625167232875" lon="14.82531915027255"><ele>9.0</ele><time>2026-04-11T15:38:06Z</time></trkpt><trkpt lat="36.71628333681574" lon="14.825198920999403"><ele>9.0</ele><time>2026-04-11T15:38:07Z</time></trkpt><trkpt lat="36.71633810437701" lon="14.825069930206945"><ele>9.0</ele><time>2026-04-11T15:38:08Z</time></trkpt><trkpt lat="36.71640873708392" lon="14.82495193752344"><ele>8.5</ele><time>2026-04-11T15:38:09Z</time></trkpt><trkpt lat="36.71649554550815" lon="14.824842972651705"><ele>8.0</ele><time>2026-04-11T15:38:10Z</time></trkpt><trkpt lat="36.71659721649718" lon="14.824750480431867"><ele>7.5</ele><time>2026-04-11T15:38:11Z</time></trkpt><trkpt lat="36.716679694132495" lon="14.824619021182736"><ele>7.0</ele><time>2026-04-11T15:38:12Z</time></trkpt><trkpt lat="36.716888025173176" lon="14.824617657633038"><ele>8.25</ele><time>2026-04-11T15:38:13Z</time></trkpt><trkpt lat="36.717037724726474" lon="14.824587324472036"><ele>9.5</ele><time>2026-04-11T15:38:14Z</time></trkpt><trkpt lat="36.71716741056286" lon="14.824559738755154"><ele>10.75</ele><time>2026-04-11T15:38:15Z</time></trkpt><trkpt lat="36.71727957207546" lon="14.824534618731446"><ele>12.0</ele><time>2026-04-11T15:38:16Z</time></trkpt><trkpt lat="36.717386905753344" lon="14.824511134477946"><ele>12.0</ele><time>2026-04-11T15:38:17Z</time></trkpt><trkpt lat="36.717481957271616" lon="14.824502112154825"><ele>12.0</ele><time>2026-04-11T15:38:18Z</time></trkpt><trkpt lat="36.7175558430712" lon="14.82451559299751"><ele>12.0</ele><time>2026-04-11T15:38:19Z</time></trkpt><trkpt lat="36.71763912955587" lon="14.824528577280057"><ele>12.0</ele><time>2026-04-11T15:38:21Z</time></trkpt><trkpt lat="36.717732244162725" lon="14.824511729608313"><ele>12.0</ele><time>2026-04-11T15:40:05Z</time></trkpt><trkpt lat="36.717798851449" lon="14.824504712102094"><ele>12.0</ele><time>2026-04-11T15:40:06Z</time></trkpt><trkpt lat="36.71787452283734" lon="14.824509995984464"><ele>12.6</ele><time>2026-04-11T15:40:07Z</time></trkpt><trkpt lat="36.71795981589989" lon="14.824483693668322"><ele>13.2</ele><time>2026-04-11T15:40:08Z</time></trkpt><trkpt lat="36.718055823939" lon="14.824457070226238"><ele>13.8</ele><time>2026-04-11T15:40:09Z</time></trkpt><trkpt lat="36.718154461644694" lon="14.824430362000287"><ele>14.4</ele><time>2026-04-11T15:40:10Z</time></trkpt><trkpt lat="36.71826052383468" lon="14.824412166613904"><ele>15.0</ele><time>2026-04-11T15:40:11Z</time></trkpt><trkpt lat="36.7183754233662" lon="14.824396663343638"><ele>15.0</ele><time>2026-04-11T15:40:12Z</time></trkpt><trkpt lat="36.71850054659858" lon="14.824383818713136"><ele>15.0</ele><time>2026-04-11T15:40:13Z</time></trkpt><trkpt lat="36.718637899902674" lon="14.824374422221585"><ele>15.0</ele><time>2026-04-11T15:40:14Z</time></trkpt><trkpt lat="36.718784449224174" lon="14.824366403022383"><ele>15.0</ele><time>2026-04-11T15:40:15Z</time></trkpt><trkpt lat="36.71893511735284" lon="14.824356243186173"><ele>15.666666666666668</ele><time>2026-04-11T15:40:16Z</time></trkpt><trkpt lat="36.719089727876494" lon="14.82434556659624"><ele>16.333333333333336</ele><time>2026-04-11T15:40:17Z</time></trkpt><trkpt lat="36.71925004449937" lon="14.82433159223338"><ele>17.0</ele><time>2026-04-11T15:40:18Z</time></trkpt><trkpt lat="36.71940865957767" lon="14.824316301810294"><ele>16.333333333333336</ele><time>2026-04-11T15:40:19Z</time></trkpt><trkpt lat="36.71956112471498" lon="14.824301373388106"><ele>15.666666666666668</ele><time>2026-04-11T15:40:20Z</time></trkpt><trkpt lat="36.719719366091944" lon="14.824289800364532"><ele>15.0</ele><time>2026-04-11T15:40:21Z</time></trkpt><trkpt lat="36.71987133830263" lon="14.824279894026926"><ele>15.0</ele><time>2026-04-11T15:40:22Z</time></trkpt><trkpt lat="36.72001295826859" lon="14.824271459013023"><ele>15.0</ele><time>2026-04-11T15:40:23Z</time></trkpt><trkpt lat="36.72014323158332" lon="14.824266330614552"><ele>15.0</ele><time>2026-04-11T15:40:24Z</time></trkpt><trkpt lat="36.72025237488713" lon="14.82426965197703"><ele>15.0</ele><time>2026-04-11T15:40:25Z</time></trkpt><trkpt lat="36.72035550823115" lon="14.82428886558598"><ele>16.0</ele><time>2026-04-11T15:40:26Z</time></trkpt><trkpt lat="36.72046020897236" lon="14.824320780392362"><ele>17.0</ele><time>2026-04-11T15:40:27Z</time></trkpt><trkpt lat="36.7205552882742" lon="14.824381242068819"><ele>18.0</ele><time>2026-04-11T15:40:28Z</time></trkpt><trkpt lat="36.720638654949546" lon="14.82446923500234"><ele>19.0</ele><time>2026-04-11T15:40:29Z</time></trkpt><trkpt lat="36.72069347160215" lon="14.824572438438324"><ele>20.0</ele><time>2026-04-11T15:40:30Z</time></trkpt><trkpt lat="36.72072041316266" lon="14.82469971052463"><ele>20.0</ele><time>2026-04-11T15:40:31Z</time></trkpt><trkpt lat="36.72072723071447" lon="14.824845586776616"><ele>20.0</ele><time>2026-04-11T15:40:32Z</time></trkpt><trkpt lat="36.72070904852408" lon="14.824989507777687"><ele>20.0</ele><time>2026-04-11T15:40:33Z</time></trkpt><trkpt lat="36.72065833094505" lon="14.825115515480672"><ele>20.0</ele><time>2026-04-11T15:40:34Z</time></trkpt><trkpt lat="36.72057624462665" lon="14.825221392137765"><ele>20.5</ele><time>2026-04-11T15:40:35Z</time></trkpt><trkpt lat="36.72047456603101" lon="14.825295324101969"><ele>21.0</ele><time>2026-04-11T15:40:36Z</time></trkpt><trkpt lat="36.7203681589743" lon="14.825328689180342"><ele>21.5</ele><time>2026-04-11T15:40:37Z</time></trkpt><trkpt lat="36.720259338534916" lon="14.825323295169127"><ele>22.0</ele><time>2026-04-11T15:40:38Z</time></trkpt><trkpt lat="36.72014764290808" lon="14.825282653526378"><ele>21.0</ele><time>2026-04-11T15:40:39Z</time></trkpt><trkpt lat="36.72004391789277" lon="14.825206722853174"><ele>20.0</ele><time>2026-04-11T15:40:40Z</time></trkpt><trkpt lat="36.71996061751679" lon="14.825096321520595"><ele>19.0</ele><time>2026-04-11T15:40:41Z</time></trkpt><trkpt lat="36.71990693728841" lon="14.82496585137736"><ele>18.0</ele><time>2026-04-11T15:40:42Z</time></trkpt><trkpt lat="36.71987833546083" lon="14.824815224667894"><ele>18.0</ele><time>2026-04-11T15:40:43Z</time></trkpt><trkpt lat="36.71986132930074" lon="14.824631818259252"><ele>18.0</ele><time>2026-04-11T15:40:44Z</time></trkpt><trkpt lat="36.71984390528923" lon="14.824417403400782"><ele>18.0</ele><time>2026-04-11T15:40:45Z</time></trkpt><trkpt lat="36.719826646533356" lon="14.824191730382235"><ele>17.0</ele><time>2026-04-11T15:40:46Z</time></trkpt><trkpt lat="36.719811238936686" lon="14.823955909359334"><ele>16.0</ele><time>2026-04-11T15:40:47Z</time></trkpt><trkpt lat="36.7197962288394" lon="14.823742386426991"><ele>15.0</ele><time>2026-04-11T15:40:48Z</time></trkpt><trkpt lat="36.71977590049134" lon="14.823508333302103"><ele>13.333333333333334</ele><time>2026-04-11T15:40:49Z</time></trkpt><trkpt lat="36.719751810651324" lon="14.823264641689327"><ele>11.666666666666668</ele><time>2026-04-11T15:40:50Z</time></trkpt><trkpt lat="36.71973633532785" lon="14.823021352596832"><ele>10.0</ele><time>2026-04-11T15:40:51Z</time></trkpt><trkpt lat="36.719722957439856" lon="14.822774438119584"><ele>8.333333333333334</ele><time>2026-04-11T15:40:52Z</time></trkpt><trkpt lat="36.71970790847514" lon="14.822527882126254"><ele>6.666666666666667</ele><time>2026-04-11T15:40:53Z</time></trkpt><trkpt lat="36.71969472768393" lon="14.822276755698493"><ele>5.0</ele><time>2026-04-11T15:40:54Z</time></trkpt><trkpt lat="36.71968446971094" lon="14.822021937852275"><ele>4.333333333333334</ele><time>2026-04-11T15:40:55Z</time></trkpt><trkpt lat="36.719675086801466" lon="14.821758403389266"><ele>3.666666666666667</ele><time>2026-04-11T15:40:56Z</time></trkpt><trkpt lat="36.719662229232384" lon="14.821498211369853"><ele>3.0</ele><time>2026-04-11T15:40:57Z</time></trkpt><trkpt lat="36.71964817845281" lon="14.821219450686696"><ele>2.5</ele><time>2026-04-11T15:40:58Z</time></trkpt><trkpt lat="36.71963555803836" lon="14.820932490291911"><ele>2.0</ele><time>2026-04-11T15:40:59Z</time></trkpt><trkpt lat="36.719621723736175" lon="14.820637792176711"><ele>2.0</ele><time>2026-04-11T15:41:00Z</time></trkpt><trkpt lat="36.71960883212563" lon="14.820336183282546"><ele>2.0</ele><time>2026-04-11T15:41:01Z</time></trkpt><trkpt lat="36.71959589733401" lon="14.820029444112896"><ele>2.5</ele><time>2026-04-11T15:41:02Z</time></trkpt><trkpt lat="36.71958174426976" lon="14.819739078370308"><ele>3.0</ele><time>2026-04-11T15:41:03Z</time></trkpt><trkpt lat="36.71956672336938" lon="14.819448275851162"><ele>5.0</ele><time>2026-04-11T15:41:04Z</time></trkpt><trkpt lat="36.71955375916041" lon="14.819164997626073"><ele>7.0</ele><time>2026-04-11T15:41:05Z</time></trkpt><trkpt lat="36.71953981207934" lon="14.818879573783544"><ele>7.0</ele><time>2026-04-11T15:41:06Z</time></trkpt><trkpt lat="36.719526418290336" lon="14.818590286086403"><ele>7.0</ele><time>2026-04-11T15:41:07Z</time></trkpt><trkpt lat="36.719513084894025" lon="14.818305111809506"><ele>8.333333333333334</ele><time>2026-04-11T15:41:08Z</time></trkpt><trkpt lat="36.71950065263767" lon="14.818031999370671"><ele>9.666666666666666</ele><time>2026-04-11T15:41:09Z</time></trkpt><trkpt lat="36.71949626044373" lon="14.817797164621851"><ele>11.0</ele><time>2026-04-11T15:41:10Z</time></trkpt><trkpt lat="36.71949263439543" lon="14.817611057331357"><ele>11.200000000000001</ele><time>2026-04-11T15:41:11Z</time></trkpt><trkpt lat="36.719490629558955" lon="14.817449978460445"><ele>11.4</ele><time>2026-04-11T15:41:12Z</time></trkpt><trkpt lat="36.719490679861906" lon="14.817317227320256"><ele>11.6</ele><time>2026-04-11T15:41:13Z</time></trkpt><trkpt lat="36.7194906634038" lon="14.81719790055525"><ele>11.8</ele><time>2026-04-11T15:41:14Z</time></trkpt><trkpt lat="36.71949045879725" lon="14.81709340254157"><ele>12.0</ele><time>2026-04-11T15:41:15Z</time></trkpt><trkpt lat="36.719493182277056" lon="14.816987220261183"><ele>12.0</ele><time>2026-04-11T15:41:16Z</time></trkpt><trkpt lat="36.71949599375384" lon="14.81688647405776"><ele>12.0</ele><time>2026-04-11T15:41:17Z</time></trkpt><trkpt lat="36.71949754818574" lon="14.816785026000806"><ele>12.0</ele><time>2026-04-11T15:41:18Z</time></trkpt><trkpt lat="36.71949877502659" lon="14.81669120759306"><ele>12.0</ele><time>2026-04-11T15:41:19Z</time></trkpt><trkpt lat="36.719500816771536" lon="14.816607910858856"><ele>12.0</ele><time>2026-04-11T15:41:20Z</time></trkpt><trkpt lat="36.7195203582692" lon="14.816458643831345"><ele>12.0</ele><time>2026-04-11T15:41:22Z</time></trkpt><trkpt lat="36.71953678137818" lon="14.81637290293466"><ele>11.666666666666666</ele><time>2026-04-11T15:41:23Z</time></trkpt><trkpt lat="36.719557177787095" lon="14.81628995344076"><ele>11.333333333333334</ele><time>2026-04-11T15:41:24Z</time></trkpt><trkpt lat="36.719581544004534" lon="14.816216377080348"><ele>11.0</ele><time>2026-04-11T15:41:25Z</time></trkpt><trkpt lat="36.71961256803198" lon="14.816144086950798"><ele>10.666666666666668</ele><time>2026-04-11T15:41:26Z</time></trkpt><trkpt lat="36.719646993570784" lon="14.816076750435306"><ele>10.333333333333334</ele><time>2026-04-11T15:41:27Z</time></trkpt><trkpt lat="36.71970956887912" lon="14.81597077413466"><ele>10.0</ele><time>2026-04-11T15:41:29Z</time></trkpt><trkpt lat="36.719760745612945" lon="14.815875667612124"><ele>9.6</ele><time>2026-04-11T15:41:31Z</time></trkpt><trkpt lat="36.71981314840365" lon="14.81578271044765"><ele>9.2</ele><time>2026-04-11T15:41:33Z</time></trkpt><trkpt lat="36.719865177054025" lon="14.81567280619054"><ele>8.8</ele><time>2026-04-11T15:41:35Z</time></trkpt><trkpt lat="36.71991297757869" lon="14.815600521792847"><ele>8.4</ele><time>2026-04-11T15:41:37Z</time></trkpt><trkpt lat="36.719870544428915" lon="14.815521597512065"><ele>8.0</ele><time>2026-04-11T15:41:38Z</time></trkpt><trkpt lat="36.719795153586006" lon="14.815421816479555"><ele>7.999999999999999</ele><time>2026-04-11T15:41:42Z</time></trkpt><trkpt lat="36.71971780338232" lon="14.815411529647337"><ele>8.0</ele><time>2026-04-11T15:41:43Z</time></trkpt><trkpt lat="36.71963814104509" lon="14.815424369967538"><ele>8.0</ele><time>2026-04-11T15:41:44Z</time></trkpt><trkpt lat="36.71955975678589" lon="14.815414480889295"><ele>8.0</ele><time>2026-04-11T15:41:45Z</time></trkpt><trkpt lat="36.71947282238319" lon="14.815440579040212"><ele>7.999999999999999</ele><time>2026-04-11T15:41:46Z</time></trkpt><trkpt lat="36.71937815894477" lon="14.815443837764557"><ele>8.0</ele><time>2026-04-11T15:41:47Z</time></trkpt><trkpt lat="36.71929566025095" lon="14.815451456924249"><ele>7.499999999999999</ele><time>2026-04-11T15:41:48Z</time></trkpt><trkpt lat="36.71920439486374" lon="14.815441042100797"><ele>7.0</ele><time>2026-04-11T15:41:49Z</time></trkpt><trkpt lat="36.719120131881624" lon="14.81544780567402"><ele>6.5</ele><time>2026-04-11T15:41:50Z</time></trkpt><trkpt lat="36.71903532980256" lon="14.815454379497103"><ele>6.0</ele><time>2026-04-11T15:41:51Z</time></trkpt><trkpt lat="36.718947047889834" lon="14.81547623856785"><ele>5.5</ele><time>2026-04-11T15:41:53Z</time></trkpt><trkpt lat="36.71886006710297" lon="14.815475073587338"><ele>5.0</ele><time>2026-04-11T15:41:55Z</time></trkpt><trkpt lat="36.718782777402375" lon="14.815480155291892"><ele>5.0</ele><time>2026-04-11T15:41:57Z</time></trkpt><trkpt lat="36.71871649143595" lon="14.815476374833278"><ele>5.0</ele><time>2026-04-11T15:41:59Z</time></trkpt><trkpt lat="36.71865316331598" lon="14.81548085908489"><ele>5.0</ele><time>2026-04-11T15:42:01Z</time></trkpt><trkpt lat="36.71858353262568" lon="14.815485701001025"><ele>5.0</ele><time>2026-04-11T15:42:03Z</time></trkpt><trkpt lat="36.71848751231258" lon="14.815492441635572"><ele>5.0</ele><time>2026-04-11T15:42:06Z</time></trkpt><trkpt lat="36.718417246263705" lon="14.815497186461883"><ele>5.0</ele><time>2026-04-11T15:42:10Z</time></trkpt><trkpt lat="36.718350292181675" lon="14.815501501146132"><ele>5.0</ele><time>2026-04-11T15:42:41Z</time></trkpt><trkpt lat="36.71822071970086" lon="14.815509851107906"><ele>4.2</ele><time>2026-04-11T15:42:43Z</time></trkpt><trkpt lat="36.71814477412924" lon="14.81551474522222"><ele>3.4</ele><time>2026-04-11T15:42:44Z</time></trkpt><trkpt lat="36.718037445887624" lon="14.815521661713667"><ele>2.6</ele><time>2026-04-11T15:42:45Z</time></trkpt><trkpt lat="36.71793839672754" lon="14.815527108100728"><ele>1.8</ele><time>2026-04-11T15:42:46Z</time></trkpt><trkpt lat="36.717849966551924" lon="14.815531875256426"><ele>1.0</ele><time>2026-04-11T15:42:47Z</time></trkpt><trkpt lat="36.71776977321411" lon="14.815536198375456"><ele>1.0</ele><time>2026-04-11T15:42:48Z</time></trkpt><trkpt lat="36.7176738315328" lon="14.815676087890951"><ele>1.0</ele><time>2026-04-11T15:42:49Z</time></trkpt><trkpt lat="36.717554804208156" lon="14.815677264207087"><ele>1.0</ele><time>2026-04-11T15:42:50Z</time></trkpt><trkpt lat="36.71745808510329" lon="14.815671916013642"><ele>1.0</ele><time>2026-04-11T15:42:51Z</time></trkpt><trkpt lat="36.7173888704744" lon="14.815663388569178"><ele>1.0</ele><time>2026-04-11T15:42:52Z</time></trkpt><trkpt lat="36.71727800217401" lon="14.815660222765944"><ele>1.0</ele><time>2026-04-11T15:42:54Z</time></trkpt><trkpt lat="36.71717915666417" lon="14.815681230896933"><ele>1.0</ele><time>2026-04-11T15:42:56Z</time></trkpt><trkpt lat="36.71707629275271" lon="14.815711103391754"><ele>1.0</ele><time>2026-04-11T15:42:58Z</time></trkpt><trkpt lat="36.71697054400996" lon="14.815735386503924"><ele>1.0</ele><time>2026-04-11T15:43:00Z</time></trkpt><trkpt lat="36.71689648230193" lon="14.815756514657817"><ele>1.0</ele><time>2026-04-11T15:43:01Z</time></trkpt><trkpt lat="36.71683805019162" lon="14.815792720064179"><ele>0.8</ele><time>2026-04-11T15:43:02Z</time></trkpt><trkpt lat="36.71678887182266" lon="14.815859338144755"><ele>0.6000000000000001</ele><time>2026-04-11T15:43:03Z</time></trkpt><trkpt lat="36.71675119489104" lon="14.815942859843052"><ele>0.4</ele><time>2026-04-11T15:43:04Z</time></trkpt><trkpt lat="36.716726723088314" lon="14.816054178630992"><ele>0.2</ele><time>2026-04-11T15:43:05Z</time></trkpt><trkpt lat="36.71671791739497" lon="14.816199401508863"><ele>0.0</ele><time>2026-04-11T15:43:06Z</time></trkpt><trkpt lat="36.71672850746327" lon="14.816378965195485"><ele>0.0</ele><time>2026-04-11T15:43:07Z</time></trkpt><trkpt lat="36.71674977995157" lon="14.816586471241331"><ele>0.0</ele><time>2026-04-11T15:43:08Z</time></trkpt><trkpt lat="36.71677427953185" lon="14.81681577733165"><ele>0.0</ele><time>2026-04-11T15:43:09Z</time></trkpt><trkpt lat="36.71679985168313" lon="14.817055235795374"><ele>0.0</ele><time>2026-04-11T15:43:10Z</time></trkpt><trkpt lat="36.71682347326226" lon="14.81727881580903"><ele>0.0</ele><time>2026-04-11T15:43:11Z</time></trkpt><trkpt lat="36.716841419150306" lon="14.817476160207804"><ele>0.0</ele><time>2026-04-11T15:43:12Z</time></trkpt><trkpt lat="36.7168584475214" lon="14.817652797629936"><ele>0.0</ele><time>2026-04-11T15:43:13Z</time></trkpt><trkpt lat="36.71687243332495" lon="14.817810181859981"><ele>0.0</ele><time>2026-04-11T15:43:14Z</time></trkpt><trkpt lat="36.71688456697509" lon="14.817952489144947"><ele>0.0</ele><time>2026-04-11T15:43:15Z</time></trkpt><trkpt lat="36.716894105391304" lon="14.818069772146877"><ele>0.0</ele><time>2026-04-11T15:43:16Z</time></trkpt><trkpt lat="36.716901170262894" lon="14.81817497424005"><ele>0.0</ele><time>2026-04-11T15:43:17Z</time></trkpt><trkpt lat="36.716904852459635" lon="14.818270712664122"><ele>0.0</ele><time>2026-04-11T15:43:18Z</time></trkpt><trkpt lat="36.71688312698493" lon="14.818391733995343"><ele>0.0</ele><time>2026-04-11T15:43:20Z</time></trkpt><trkpt lat="36.716821493762936" lon="14.818482431486768"><ele>0.0</ele><time>2026-04-11T15:43:22Z</time></trkpt><trkpt lat="36.71679125995057" lon="14.818577419606031"><ele>0.0</ele><time>2026-04-11T15:43:24Z</time></trkpt><trkpt lat="36.71685854828252" lon="14.81863777306193"><ele>0.0</ele><time>2026-04-11T15:43:26Z</time></trkpt><trkpt lat="36.716944870967794" lon="14.818584563895843"><ele>0.0</ele><time>2026-04-11T15:43:28Z</time></trkpt><trkpt lat="36.71701412405285" lon="14.818468294544845"><ele>0.0</ele><time>2026-04-11T15:43:30Z</time></trkpt><trkpt lat="36.717049729224954" lon="14.81839308527691"><ele>0.0</ele><time>2026-04-11T15:43:31Z</time></trkpt><trkpt lat="36.71707828673862" lon="14.818300047482223"><ele>0.0</ele><time>2026-04-11T15:43:32Z</time></trkpt><trkpt lat="36.71710178207924" lon="14.818193790368449"><ele>0.0</ele><time>2026-04-11T15:43:33Z</time></trkpt><trkpt lat="36.71711512334637" lon="14.818093637964454"><ele>0.0</ele><time>2026-04-11T15:43:34Z</time></trkpt><trkpt lat="36.71711622389255" lon="14.817984815638216"><ele>0.0</ele><time>2026-04-11T15:43:35Z</time></trkpt><trkpt lat="36.717104919776716" lon="14.817885270580943"><ele>0.0</ele><time>2026-04-11T15:43:36Z</time></trkpt><trkpt lat="36.71707299039324" lon="14.81779120051087"><ele>0.0</ele><time>2026-04-11T15:43:37Z</time></trkpt><trkpt lat="36.717026088324026" lon="14.817678672073658"><ele>0.0</ele><time>2026-04-11T15:43:38Z</time></trkpt><trkpt lat="36.71698654364808" lon="14.81757642229511"><ele>0.0</ele><time>2026-04-11T15:43:39Z</time></trkpt><trkpt lat="36.71694108996708" lon="14.817452902577665"><ele>0.0</ele><time>2026-04-11T15:43:40Z</time></trkpt><trkpt lat="36.71689937094004" lon="14.817328709657858"><ele>0.0</ele><time>2026-04-11T15:43:41Z</time></trkpt><trkpt lat="36.71687043626819" lon="14.81720068771558"><ele>0.0</ele><time>2026-04-11T15:43:42Z</time></trkpt><trkpt lat="36.71684452602191" lon="14.817054890291187"><ele>0.0</ele><time>2026-04-11T15:43:43Z</time></trkpt><trkpt lat="36.716821183615046" lon="14.816902518835093"><ele>0.0</ele><time>2026-04-11T15:43:44Z</time></trkpt><trkpt lat="36.71679785670701" lon="14.816774823649308"><ele>0.0</ele><time>2026-04-11T15:43:45Z</time></trkpt><trkpt lat="36.71677821722326" lon="14.81663502676422"><ele>0.0</ele><time>2026-04-11T15:43:46Z</time></trkpt><trkpt lat="36.716757325539405" lon="14.816476591621173"><ele>0.0</ele><time>2026-04-11T15:43:47Z</time></trkpt><trkpt lat="36.716733942388586" lon="14.816294992351963"><ele>0.0</ele><time>2026-04-11T15:43:48Z</time></trkpt><trkpt lat="36.71670954916851" lon="14.816107272049512"><ele>0.0</ele><time>2026-04-11T15:43:49Z</time></trkpt><trkpt lat="36.71668856673744" lon="14.815927996281337"><ele>0.0</ele><time>2026-04-11T15:43:50Z</time></trkpt><trkpt lat="36.71666743986811" lon="14.815751979114166"><ele>0.0</ele><time>2026-04-11T15:43:51Z</time></trkpt><trkpt lat="36.71664138441715" lon="14.815576543917137"><ele>0.0</ele><time>2026-04-11T15:43:52Z</time></trkpt><trkpt lat="36.71662089589272" lon="14.815434194098199"><ele>0.0</ele><time>2026-04-11T15:43:53Z</time></trkpt><trkpt lat="36.716606799519035" lon="14.815311231786824"><ele>0.0</ele><time>2026-04-11T15:43:54Z</time></trkpt><trkpt lat="36.71659758944448" lon="14.815178351145967"><ele>0.0</ele><time>2026-04-11T15:43:55Z</time></trkpt><trkpt lat="36.716597448816195" lon="14.815028888495586"><ele>0.0</ele><time>2026-04-11T15:43:56Z</time></trkpt><trkpt lat="36.71658715989634" lon="14.814876294292578"><ele>0.0</ele><time>2026-04-11T15:43:57Z</time></trkpt><trkpt lat="36.71656845702893" lon="14.814703575709162"><ele>0.0</ele><time>2026-04-11T15:43:58Z</time></trkpt><trkpt lat="36.7165388801671" lon="14.814496687646404"><ele>0.0</ele><time>2026-04-11T15:43:59Z</time></trkpt><trkpt lat="36.71650570140629" lon="14.814275043387555"><ele>0.0</ele><time>2026-04-11T15:44:00Z</time></trkpt><trkpt lat="36.716472960457466" lon="14.814065886451237"><ele>0.0</ele><time>2026-04-11T15:44:01Z</time></trkpt><trkpt lat="36.71643573900942" lon="14.813856091409619"><ele>0.0</ele><time>2026-04-11T15:44:02Z</time></trkpt><trkpt lat="36.71639510091352" lon="14.8136378069327"><ele>0.0</ele><time>2026-04-11T15:44:03Z</time></trkpt><trkpt lat="36.71636284758019" lon="14.813457052533842"><ele>0.0</ele><time>2026-04-11T15:44:04Z</time></trkpt><trkpt lat="36.71633784342283" lon="14.813312937826785"><ele>0.0</ele><time>2026-04-11T15:44:05Z</time></trkpt><trkpt lat="36.71632335855322" lon="14.813192994004421"><ele>0.0</ele><time>2026-04-11T15:44:06Z</time></trkpt><trkpt lat="36.71631220762724" lon="14.813077886123368"><ele>0.0</ele><time>2026-04-11T15:44:07Z</time></trkpt><trkpt lat="36.71629041398692" lon="14.812937550432215"><ele>0.0</ele><time>2026-04-11T15:44:08Z</time></trkpt><trkpt lat="36.716259600926" lon="14.812780644452776"><ele>0.0</ele><time>2026-04-11T15:44:09Z</time></trkpt><trkpt lat="36.71623013820039" lon="14.812634604177804"><ele>0.0</ele><time>2026-04-11T15:44:10Z</time></trkpt><trkpt lat="36.71620201984607" lon="14.812492645867591"><ele>0.0</ele><time>2026-04-11T15:44:11Z</time></trkpt><trkpt lat="36.7161715860535" lon="14.812346224652217"><ele>0.0</ele><time>2026-04-11T15:44:12Z</time></trkpt><trkpt lat="36.71613880975945" lon="14.8121979496958"><ele>0.0</ele><time>2026-04-11T15:44:13Z</time></trkpt><trkpt lat="36.716104085556196" lon="14.812057252496214"><ele>0.0</ele><time>2026-04-11T15:44:14Z</time></trkpt><trkpt lat="36.71607087748436" lon="14.8119161494369"><ele>0.3333333333333333</ele><time>2026-04-11T15:44:15Z</time></trkpt><trkpt lat="36.71604183905128" lon="14.811801093875339"><ele>0.6666666666666666</ele><time>2026-04-11T15:44:16Z</time></trkpt><trkpt lat="36.71601626987277" lon="14.81171188819696"><ele>1.0</ele><time>2026-04-11T15:44:17Z</time></trkpt><trkpt lat="36.71599085280968" lon="14.811630841403463"><ele>1.3333333333333333</ele><time>2026-04-11T15:44:18Z</time></trkpt><trkpt lat="36.71596657769767" lon="14.811548403495328"><ele>1.6666666666666665</ele><time>2026-04-11T15:44:19Z</time></trkpt><trkpt lat="36.715929936498085" lon="14.811432060163682"><ele>2.0</ele><time>2026-04-11T15:44:21Z</time></trkpt><trkpt lat="36.71589742986577" lon="14.811325490281343"><ele>2.0</ele><time>2026-04-11T15:44:34Z</time></trkpt><trkpt lat="36.715941549443194" lon="14.811230514912584"><ele>1.9999999999999998</ele><time>2026-04-11T15:44:38Z</time></trkpt><trkpt lat="36.7159563435795" lon="14.811151845304526"><ele>2.0</ele><time>2026-04-11T15:44:42Z</time></trkpt><trkpt lat="36.71590074998283" lon="14.811100285041352"><ele>2.0</ele><time>2026-04-11T15:45:20Z</time></trkpt><trkpt lat="36.71585323957311" lon="14.81103475329992"><ele>1.9999999999999998</ele><time>2026-04-11T15:45:22Z</time></trkpt><trkpt lat="36.71578480046862" lon="14.811021808749764"><ele>2.0</ele><time>2026-04-11T15:45:25Z</time></trkpt><trkpt lat="36.71573142833671" lon="14.810963475606997"><ele>2.0</ele><time>2026-04-11T15:45:29Z</time></trkpt><trkpt lat="36.71567481809653" lon="14.810920247637021"><ele>2.5</ele><time>2026-04-11T15:45:41Z</time></trkpt><trkpt lat="36.71560488383143" lon="14.810858356390497"><ele>3.0</ele><time>2026-04-11T15:45:43Z</time></trkpt><trkpt lat="36.715528889054625" lon="14.810797971118891"><ele>3.5</ele><time>2026-04-11T15:45:45Z</time></trkpt><trkpt lat="36.71544219350018" lon="14.810733608194539"><ele>4.0</ele><time>2026-04-11T15:45:47Z</time></trkpt><trkpt lat="36.71539479250445" lon="14.81066786135289"><ele>4.5</ele><time>2026-04-11T15:45:48Z</time></trkpt><trkpt lat="36.71532171190837" lon="14.810586415120545"><ele>5.0</ele><time>2026-04-11T15:45:49Z</time></trkpt><trkpt lat="36.71524009234676" lon="14.810495452611448"><ele>5.0</ele><time>2026-04-11T15:45:50Z</time></trkpt><trkpt lat="36.71513693956404" lon="14.810377216122074"><ele>5.0</ele><time>2026-04-11T15:45:51Z</time></trkpt><trkpt lat="36.71503999948488" lon="14.810284750986847"><ele>5.0</ele><time>2026-04-11T15:45:52Z</time></trkpt><trkpt lat="36.714942299485145" lon="14.810138378095521"><ele>5.0</ele><time>2026-04-11T15:45:53Z</time></trkpt><trkpt lat="36.7148463045337" lon="14.810001570181468"><ele>5.0</ele><time>2026-04-11T15:45:54Z</time></trkpt><trkpt lat="36.71476540599816" lon="14.80989067683719"><ele>5.0</ele><time>2026-04-11T15:45:55Z</time></trkpt><trkpt lat="36.71468717759117" lon="14.809786386780978"><ele>5.0</ele><time>2026-04-11T15:45:56Z</time></trkpt><trkpt lat="36.71458252582436" lon="14.809650348271063"><ele>5.0</ele><time>2026-04-11T15:45:57Z</time></trkpt><trkpt lat="36.71447533321967" lon="14.80950428870275"><ele>5.0</ele><time>2026-04-11T15:45:58Z</time></trkpt><trkpt lat="36.714367787906276" lon="14.809357757520136"><ele>5.0</ele><time>2026-04-11T15:45:59Z</time></trkpt><trkpt lat="36.71427888963824" lon="14.809220490901694"><ele>5.0</ele><time>2026-04-11T15:46:00Z</time></trkpt><trkpt lat="36.71418893379347" lon="14.809082016585021"><ele>5.0</ele><time>2026-04-11T15:46:01Z</time></trkpt><trkpt lat="36.71409807247927" lon="14.808949715816377"><ele>5.0</ele><time>2026-04-11T15:46:02Z</time></trkpt><trkpt lat="36.7140057146823" lon="14.808805030440201"><ele>5.0</ele><time>2026-04-11T15:46:03Z</time></trkpt><trkpt lat="36.71391839327002" lon="14.808680685869726"><ele>5.0</ele><time>2026-04-11T15:46:04Z</time></trkpt><trkpt lat="36.713826037702894" lon="14.808554923916278"><ele>5.0</ele><time>2026-04-11T15:46:05Z</time></trkpt><trkpt lat="36.71375080309864" lon="14.80845313205812"><ele>5.4</ele><time>2026-04-11T15:46:06Z</time></trkpt><trkpt lat="36.71368714030186" lon="14.808375800523464"><ele>5.8</ele><time>2026-04-11T15:46:07Z</time></trkpt><trkpt lat="36.713611675169325" lon="14.808279912664023"><ele>6.199999999999999</ele><time>2026-04-11T15:46:08Z</time></trkpt><trkpt lat="36.71353799530565" lon="14.808194136342365"><ele>6.6</ele><time>2026-04-11T15:46:09Z</time></trkpt><trkpt lat="36.713460965751445" lon="14.808087562709689"><ele>7.0</ele><time>2026-04-11T15:46:10Z</time></trkpt><trkpt lat="36.71337620221019" lon="14.807963623444918"><ele>7.0</ele><time>2026-04-11T15:46:11Z</time></trkpt><trkpt lat="36.71330191756815" lon="14.807845800240854"><ele>7.0</ele><time>2026-04-11T15:46:12Z</time></trkpt><trkpt lat="36.71322892297371" lon="14.807738775372414"><ele>7.0</ele><time>2026-04-11T15:46:13Z</time></trkpt><trkpt lat="36.7131608143702" lon="14.807639674883415"><ele>7.0</ele><time>2026-04-11T15:46:14Z</time></trkpt><trkpt lat="36.71308825756904" lon="14.807523028168887"><ele>7.199999999999999</ele><time>2026-04-11T15:46:15Z</time></trkpt><trkpt lat="36.71302241828846" lon="14.807412971863297"><ele>7.3999999999999995</ele><time>2026-04-11T15:46:16Z</time></trkpt><trkpt lat="36.71295097274768" lon="14.80730688087277"><ele>7.6000000000000005</ele><time>2026-04-11T15:46:17Z</time></trkpt><trkpt lat="36.71288162397838" lon="14.80721604715827"><ele>7.800000000000001</ele><time>2026-04-11T15:46:18Z</time></trkpt><trkpt lat="36.71281641976726" lon="14.807127550926282"><ele>8.0</ele><time>2026-04-11T15:46:19Z</time></trkpt><trkpt lat="36.712750555299905" lon="14.807028107630412"><ele>7.5</ele><time>2026-04-11T15:46:20Z</time></trkpt><trkpt lat="36.71267453015699" lon="14.806910647161013"><ele>7.0</ele><time>2026-04-11T15:46:21Z</time></trkpt><trkpt lat="36.712599828661" lon="14.806797445169915"><ele>6.5</ele><time>2026-04-11T15:46:22Z</time></trkpt><trkpt lat="36.712499568708" lon="14.806709743647039"><ele>6.0</ele><time>2026-04-11T15:46:23Z</time></trkpt><trkpt lat="36.71239357485834" lon="14.806570980308878"><ele>6.0</ele><time>2026-04-11T15:46:24Z</time></trkpt><trkpt lat="36.71231542959934" lon="14.806449218005216"><ele>6.0</ele><time>2026-04-11T15:46:25Z</time></trkpt><trkpt lat="36.71221514289801" lon="14.806321820006264"><ele>6.0</ele><time>2026-04-11T15:46:26Z</time></trkpt><trkpt lat="36.712110688299354" lon="14.806216990119554"><ele>6.0</ele><time>2026-04-11T15:46:27Z</time></trkpt><trkpt lat="36.712027003642696" lon="14.806098545690542"><ele>6.5</ele><time>2026-04-11T15:46:28Z</time></trkpt><trkpt lat="36.7119191548996" lon="14.805963863027472"><ele>7.0</ele><time>2026-04-11T15:46:29Z</time></trkpt><trkpt lat="36.71184139703406" lon="14.805833344685254"><ele>7.5</ele><time>2026-04-11T15:46:30Z</time></trkpt><trkpt lat="36.71176191898822" lon="14.805711691165099"><ele>8.0</ele><time>2026-04-11T15:46:31Z</time></trkpt><trkpt lat="36.71166203088124" lon="14.805552693799656"><ele>7.0</ele><time>2026-04-11T15:46:32Z</time></trkpt><trkpt lat="36.71158170808914" lon="14.805422710039316"><ele>6.0</ele><time>2026-04-11T15:46:33Z</time></trkpt><trkpt lat="36.71151767372872" lon="14.805316286738753"><ele>5.0</ele><time>2026-04-11T15:46:34Z</time></trkpt><trkpt lat="36.711451768451425" lon="14.805205023846426"><ele>4.0</ele><time>2026-04-11T15:46:35Z</time></trkpt><trkpt lat="36.711376113648846" lon="14.805074399051387"><ele>4.0</ele><time>2026-04-11T15:46:36Z</time></trkpt><trkpt lat="36.71130278364552" lon="14.804975417333162"><ele>4.0</ele><time>2026-04-11T15:46:37Z</time></trkpt><trkpt lat="36.711231025083414" lon="14.804851788282235"><ele>4.0</ele><time>2026-04-11T15:46:38Z</time></trkpt><trkpt lat="36.71116501093252" lon="14.804729017162746"><ele>4.0</ele><time>2026-04-11T15:46:39Z</time></trkpt><trkpt lat="36.71108135685115" lon="14.804593566995207"><ele>3.5</ele><time>2026-04-11T15:46:40Z</time></trkpt><trkpt lat="36.711000057640135" lon="14.804462224713165"><ele>3.0</ele><time>2026-04-11T15:46:41Z</time></trkpt><trkpt lat="36.710925113810084" lon="14.804333559815982"><ele>2.5</ele><time>2026-04-11T15:46:42Z</time></trkpt><trkpt lat="36.710837424802605" lon="14.804182194539399"><ele>2.0</ele><time>2026-04-11T15:46:43Z</time></trkpt><trkpt lat="36.710765032213494" lon="14.80405973751906"><ele>2.0</ele><time>2026-04-11T15:46:44Z</time></trkpt><trkpt lat="36.710704882071944" lon="14.803947774194459"><ele>2.0</ele><time>2026-04-11T15:46:45Z</time></trkpt><trkpt lat="36.71065694908841" lon="14.80383062312415"><ele>2.0</ele><time>2026-04-11T15:46:46Z</time></trkpt><trkpt lat="36.710605859301175" lon="14.803725472406171"><ele>2.0</ele><time>2026-04-11T15:46:47Z</time></trkpt><trkpt lat="36.71056820560923" lon="14.803641985727783"><ele>2.0</ele><time>2026-04-11T15:46:48Z</time></trkpt><trkpt lat="36.710537655188055" lon="14.803571649708767"><ele>2.1666666666666665</ele><time>2026-04-11T15:46:49Z</time></trkpt><trkpt lat="36.71049214483161" lon="14.803466839152886"><ele>2.333333333333333</ele><time>2026-04-11T15:46:51Z</time></trkpt><trkpt lat="36.71046169814359" lon="14.803397231057984"><ele>2.5</ele><time>2026-04-11T15:46:53Z</time></trkpt><trkpt lat="36.71042697598" lon="14.803319124411233"><ele>2.6666666666666665</ele><time>2026-04-11T15:46:55Z</time></trkpt><trkpt lat="36.7103861657929" lon="14.803249111226371"><ele>2.8333333333333335</ele><time>2026-04-11T15:46:58Z</time></trkpt><trkpt lat="36.710328461559094" lon="14.803137996409715"><ele>3.0</ele><time>2026-04-11T15:48:43Z</time></trkpt><trkpt lat="36.71025938804393" lon="14.802963305886536"><ele>2.8333333333333335</ele><time>2026-04-11T15:48:45Z</time></trkpt><trkpt lat="36.71021507781246" lon="14.802877018703672"><ele>2.6666666666666665</ele><time>2026-04-11T15:48:46Z</time></trkpt><trkpt lat="36.71016611394847" lon="14.802771595467497"><ele>2.5</ele><time>2026-04-11T15:48:47Z</time></trkpt><trkpt lat="36.710119540127515" lon="14.802705050094207"><ele>2.333333333333333</ele><time>2026-04-11T15:48:48Z</time></trkpt><trkpt lat="36.71006676802777" lon="14.802649679262835"><ele>2.1666666666666665</ele><time>2026-04-11T15:48:49Z</time></trkpt><trkpt lat="36.70997490145568" lon="14.80259154524704"><ele>2.0</ele><time>2026-04-11T15:48:50Z</time></trkpt><trkpt lat="36.70988610239533" lon="14.802536956990913"><ele>2.8</ele><time>2026-04-11T15:48:51Z</time></trkpt><trkpt lat="36.70980981973629" lon="14.802482964662149"><ele>3.6</ele><time>2026-04-11T15:48:52Z</time></trkpt><trkpt lat="36.70973214176262" lon="14.80238912847497"><ele>4.3999999999999995</ele><time>2026-04-11T15:48:53Z</time></trkpt><trkpt lat="36.70964894044831" lon="14.80228926995413"><ele>5.2</ele><time>2026-04-11T15:48:54Z</time></trkpt><trkpt lat="36.709580207540924" lon="14.80218669025871"><ele>6.0</ele><time>2026-04-11T15:48:55Z</time></trkpt><trkpt lat="36.70951413688942" lon="14.80209001215254"><ele>6.0</ele><time>2026-04-11T15:48:56Z</time></trkpt><trkpt lat="36.709430614696046" lon="14.80193069842429"><ele>6.0</ele><time>2026-04-11T15:48:57Z</time></trkpt><trkpt lat="36.709379310835246" lon="14.801854821352828"><ele>6.0</ele><time>2026-04-11T15:48:58Z</time></trkpt><trkpt lat="36.70932939643912" lon="14.801789527442539"><ele>6.0</ele><time>2026-04-11T15:48:59Z</time></trkpt><trkpt lat="36.7092816165277" lon="14.801716955515163"><ele>6.0</ele><time>2026-04-11T15:49:00Z</time></trkpt><trkpt lat="36.70923786469282" lon="14.801641427646729"><ele>5.666666666666667</ele><time>2026-04-11T15:49:01Z</time></trkpt><trkpt lat="36.709196911534136" lon="14.801564458073528"><ele>5.333333333333333</ele><time>2026-04-11T15:49:02Z</time></trkpt><trkpt lat="36.70914886249732" lon="14.801487911787612"><ele>5.0</ele><time>2026-04-11T15:49:03Z</time></trkpt><trkpt lat="36.709097947224734" lon="14.801400973465098"><ele>4.666666666666666</ele><time>2026-04-11T15:49:04Z</time></trkpt><trkpt lat="36.709043634368626" lon="14.801309714518675"><ele>4.333333333333333</ele><time>2026-04-11T15:49:05Z</time></trkpt><trkpt lat="36.708983481646136" lon="14.801205125316626"><ele>4.0</ele><time>2026-04-11T15:49:06Z</time></trkpt><trkpt lat="36.70893847481828" lon="14.801123837840866"><ele>4.0</ele><time>2026-04-11T15:49:07Z</time></trkpt><trkpt lat="36.708890008170435" lon="14.801048081165245"><ele>4.0</ele><time>2026-04-11T15:49:08Z</time></trkpt><trkpt lat="36.708830837231964" lon="14.80094966238827"><ele>4.0</ele><time>2026-04-11T15:49:09Z</time></trkpt><trkpt lat="36.70877700911222" lon="14.800841701983716"><ele>4.0</ele><time>2026-04-11T15:49:10Z</time></trkpt><trkpt lat="36.70872265206481" lon="14.80073756363639"><ele>4.0</ele><time>2026-04-11T15:49:11Z</time></trkpt><trkpt lat="36.70867830866089" lon="14.800666158830264"><ele>3.6666666666666665</ele><time>2026-04-11T15:49:12Z</time></trkpt><trkpt lat="36.70863865612547" lon="14.800586431750963"><ele>3.333333333333333</ele><time>2026-04-11T15:49:14Z</time></trkpt><trkpt lat="36.70859916676985" lon="14.80051870169409"><ele>3.0</ele><time>2026-04-11T15:49:22Z</time></trkpt><trkpt lat="36.70854776918282" lon="14.800454917389384"><ele>2.6666666666666665</ele><time>2026-04-11T15:49:24Z</time></trkpt><trkpt lat="36.708483306718364" lon="14.800367624437612"><ele>2.333333333333333</ele><time>2026-04-11T15:49:27Z</time></trkpt><trkpt lat="36.7084412414641" lon="14.800305359918156"><ele>2.0</ele><time>2026-04-11T15:50:01Z</time></trkpt><trkpt lat="36.708412099896115" lon="14.800218556510332"><ele>1.9999999999999998</ele><time>2026-04-11T15:52:02Z</time></trkpt><trkpt lat="36.70837346042138" lon="14.800150262620786"><ele>2.0</ele><time>2026-04-11T15:52:06Z</time></trkpt><trkpt lat="36.70846527955945" lon="14.800034091600464"><ele>2.0</ele><time>2026-04-11T15:52:32Z</time></trkpt><trkpt lat="36.70840477577014" lon="14.800113262931312"><ele>2.0</ele><time>2026-04-11T15:57:32Z</time></trkpt><trkpt lat="36.708390089076374" lon="14.800191329895693"><ele>1.9999999999999998</ele><time>2026-04-11T15:57:36Z</time></trkpt><trkpt lat="36.708374035528" lon="14.800271693590778"><ele>2.0</ele><time>2026-04-11T15:59:48Z</time></trkpt><trkpt lat="36.708398661122416" lon="14.800198146402552"><ele>2.0</ele><time>2026-04-11T16:01:34.999Z</time></trkpt><trkpt lat="36.70841208570007" lon="14.800116049294344"><ele>1.9999999999999998</ele><time>2026-04-11T16:01:40.999Z</time></trkpt><trkpt lat="36.70844162381476" lon="14.800037833364788"><ele>2.0</ele><time>2026-04-11T16:01:48.999Z</time></trkpt><trkpt lat="36.708419923011604" lon="14.799956764901923"><ele>2.0</ele><time>2026-04-11T16:03:18.999Z</time></trkpt><trkpt lat="36.708383055952154" lon="14.80002507077659"><ele>1.9999999999999998</ele><time>2026-04-11T16:03:36Z</time></trkpt><trkpt lat="36.708418183562756" lon="14.800103604325422"><ele>2.0</ele><time>2026-04-11T16:03:40Z</time></trkpt><trkpt lat="36.708455605779996" lon="14.800184203790712"><ele>2.0</ele><time>2026-04-11T16:03:45Z</time></trkpt><trkpt lat="36.70849740131577" lon="14.80027297460183"><ele>2.0</ele><time>2026-04-11T16:03:57Z</time></trkpt><trkpt lat="36.70846491292327" lon="14.800340558296723"><ele>1.9999999999999998</ele><time>2026-04-11T16:04:05Z</time></trkpt><trkpt lat="36.70839766854969" lon="14.800316705748932"><ele>2.0</ele><time>2026-04-11T16:04:28Z</time></trkpt><trkpt lat="36.7083272082459" lon="14.800294854324147"><ele>2.0</ele><time>2026-04-11T16:05:15Z</time></trkpt><trkpt lat="36.70826170179234" lon="14.800269724211871"><ele>1.9999999999999998</ele><time>2026-04-11T16:05:33Z</time></trkpt><trkpt lat="36.708252710171934" lon="14.80017849653729"><ele>2.0</ele><time>2026-04-11T16:08:58Z</time></trkpt><trkpt lat="36.708216205359584" lon="14.800073004775575"><ele>2.0</ele><time>2026-04-11T16:09:00Z</time></trkpt><trkpt lat="36.708166323496854" lon="14.799936635225393"><ele>2.5</ele><time>2026-04-11T16:09:02Z</time></trkpt><trkpt lat="36.70809794663993" lon="14.799833318660982"><ele>3.0</ele><time>2026-04-11T16:09:04Z</time></trkpt><trkpt lat="36.708052408833474" lon="14.799743917291064"><ele>3.5</ele><time>2026-04-11T16:09:06Z</time></trkpt><trkpt lat="36.708031255344814" lon="14.799665142495995"><ele>4.0</ele><time>2026-04-11T16:09:08Z</time></trkpt><trkpt lat="36.70800128385753" lon="14.799575413791088"><ele>4.5</ele><time>2026-04-11T16:09:10Z</time></trkpt><trkpt lat="36.70796580229939" lon="14.799469187151134"><ele>5.0</ele><time>2026-04-11T16:09:12Z</time></trkpt><trkpt lat="36.707931109303544" lon="14.799365321289338"><ele>5.333333333333334</ele><time>2026-04-11T16:09:14Z</time></trkpt><trkpt lat="36.707883725991366" lon="14.799223462396599"><ele>5.666666666666667</ele><time>2026-04-11T16:09:16Z</time></trkpt><trkpt lat="36.70779647973942" lon="14.799220285128174"><ele>6.0</ele><time>2026-04-11T16:09:17Z</time></trkpt><trkpt lat="36.70775590951578" lon="14.799135274425606"><ele>6.333333333333334</ele><time>2026-04-11T16:09:18Z</time></trkpt><trkpt lat="36.70770900091469" lon="14.799041517201635"><ele>6.666666666666667</ele><time>2026-04-11T16:09:20Z</time></trkpt><trkpt lat="36.70767901289905" lon="14.798961840365621"><ele>7.0</ele><time>2026-04-11T16:09:21Z</time></trkpt><trkpt lat="36.70765904828116" lon="14.798858261063772"><ele>6.333333333333334</ele><time>2026-04-11T16:09:23Z</time></trkpt><trkpt lat="36.70763632017852" lon="14.798776857420167"><ele>5.666666666666667</ele><time>2026-04-11T16:09:25Z</time></trkpt><trkpt lat="36.707578926654165" lon="14.798686546463507"><ele>5.0</ele><time>2026-04-11T16:09:27Z</time></trkpt><trkpt lat="36.70755181518028" lon="14.798564801236788"><ele>4.333333333333334</ele><time>2026-04-11T16:09:29Z</time></trkpt><trkpt lat="36.70754510029672" lon="14.79847338767665"><ele>3.666666666666667</ele><time>2026-04-11T16:09:31Z</time></trkpt><trkpt lat="36.70751432123504" lon="14.798394641895811"><ele>3.0</ele><time>2026-04-11T16:09:50.001Z</time></trkpt><trkpt lat="36.70746540919929" lon="14.798308104517286"><ele>3.0</ele><time>2026-04-11T16:10:11.001Z</time></trkpt><trkpt lat="36.70745067204416" lon="14.798230568068622"><ele>3.0</ele><time>2026-04-11T16:10:15.001Z</time></trkpt><trkpt lat="36.707482481727375" lon="14.798146615567331"><ele>3.0</ele><time>2026-04-11T16:10:17.001Z</time></trkpt><trkpt lat="36.70746636162096" lon="14.79805909544881"><ele>3.0</ele><time>2026-04-11T16:10:32.001Z</time></trkpt><trkpt lat="36.707447710807294" lon="14.79795783548805"><ele>3.0</ele><time>2026-04-11T16:10:36.001Z</time></trkpt><trkpt lat="36.70735388305183" lon="14.797956884646881"><ele>3.0</ele><time>2026-04-11T16:10:49.001Z</time></trkpt><trkpt lat="36.70732241813133" lon="14.798030466785582"><ele>3.0</ele><time>2026-04-11T16:21:47Z</time></trkpt><trkpt lat="36.70737778262902" lon="14.798072197511114"><ele>3.0</ele><time>2026-04-11T16:21:52Z</time></trkpt><trkpt lat="36.70745070077508" lon="14.79804641688134"><ele>3.0</ele><time>2026-04-11T16:22:08Z</time></trkpt><trkpt lat="36.70744746430633" lon="14.797967611522969"><ele>3.0</ele><time>2026-04-11T16:22:18Z</time></trkpt><trkpt lat="36.707421532625524" lon="14.797892770124808"><ele>3.0</ele><time>2026-04-11T16:22:22Z</time></trkpt><trkpt lat="36.70740595780165" lon="14.797769370547657"><ele>3.0</ele><time>2026-04-11T16:26:24.999Z</time></trkpt><trkpt lat="36.70737853714946" lon="14.797656137920129"><ele>3.3333333333333335</ele><time>2026-04-11T16:26:27.999Z</time></trkpt><trkpt lat="36.707358741845276" lon="14.797554072753746"><ele>3.666666666666667</ele><time>2026-04-11T16:26:30.999Z</time></trkpt><trkpt lat="36.70732003416244" lon="14.797471083700554"><ele>4.0</ele><time>2026-04-11T16:26:34.999Z</time></trkpt><trkpt lat="36.70728638424333" lon="14.79736414831119"><ele>4.333333333333334</ele><time>2026-04-11T16:26:36.999Z</time></trkpt><trkpt lat="36.70725157478083" lon="14.797249832184946"><ele>4.666666666666667</ele><time>2026-04-11T16:26:37.999Z</time></trkpt><trkpt lat="36.70722518896206" lon="14.797149883137319"><ele>5.0</ele><time>2026-04-11T16:26:38.999Z</time></trkpt><trkpt lat="36.70718934332769" lon="14.797034632661095"><ele>5.0</ele><time>2026-04-11T16:26:39.999Z</time></trkpt><trkpt lat="36.70715408060155" lon="14.79692832940865"><ele>5.0</ele><time>2026-04-11T16:26:40.999Z</time></trkpt><trkpt lat="36.707175290172266" lon="14.796792183525234"><ele>5.0</ele><time>2026-04-11T16:26:41.999Z</time></trkpt><trkpt lat="36.70713360755692" lon="14.796655177347336"><ele>5.0</ele><time>2026-04-11T16:26:42.999Z</time></trkpt><trkpt lat="36.707105206030114" lon="14.79656182479874"><ele>5.0</ele><time>2026-04-11T16:26:43.999Z</time></trkpt><trkpt lat="36.70706328577086" lon="14.796424037558586"><ele>4.833333333333334</ele><time>2026-04-11T16:26:45.999Z</time></trkpt><trkpt lat="36.707039810239365" lon="14.796346876117555"><ele>4.666666666666667</ele><time>2026-04-11T16:26:46.999Z</time></trkpt><trkpt lat="36.70701559447907" lon="14.796267281610437"><ele>4.5</ele><time>2026-04-11T16:26:47.999Z</time></trkpt><trkpt lat="36.706974187989836" lon="14.796131183166432"><ele>4.333333333333333</ele><time>2026-04-11T16:26:50Z</time></trkpt><trkpt lat="36.70695015357588" lon="14.796052837612464"><ele>4.166666666666666</ele><time>2026-04-11T16:26:51Z</time></trkpt><trkpt lat="36.70692534177235" lon="14.795975679280437"><ele>4.0</ele><time>2026-04-11T16:26:52Z</time></trkpt><trkpt lat="36.70688695630974" lon="14.795856310434482"><ele>3.9999999999999996</ele><time>2026-04-11T16:26:54Z</time></trkpt><trkpt lat="36.706842057914564" lon="14.79576574733909"><ele>4.0</ele><time>2026-04-11T16:26:56.001Z</time></trkpt><trkpt lat="36.7068327861657" lon="14.79567405050753"><ele>4.0</ele><time>2026-04-11T16:26:58.001Z</time></trkpt><trkpt lat="36.706805823159605" lon="14.795599529211941"><ele>4.0</ele><time>2026-04-11T16:27:00.001Z</time></trkpt><trkpt lat="36.706774008813845" lon="14.795469910835061"><ele>3.9999999999999996</ele><time>2026-04-11T16:27:03.001Z</time></trkpt><trkpt lat="36.70674359515974" lon="14.795333755865501"><ele>4.0</ele><time>2026-04-11T16:27:05.001Z</time></trkpt><trkpt lat="36.70671121036761" lon="14.795184851411431"><ele>3.8000000000000003</ele><time>2026-04-11T16:27:07.001Z</time></trkpt><trkpt lat="36.70669190193142" lon="14.795103004714933"><ele>3.6000000000000005</ele><time>2026-04-11T16:27:08.001Z</time></trkpt><trkpt lat="36.70665245025613" lon="14.79494505448235"><ele>3.4</ele><time>2026-04-11T16:27:10.001Z</time></trkpt><trkpt lat="36.70661867135616" lon="14.794792731139728"><ele>3.2</ele><time>2026-04-11T16:27:12.001Z</time></trkpt><trkpt lat="36.706601958645905" lon="14.794711634203823"><ele>3.0</ele><time>2026-04-11T16:27:13.001Z</time></trkpt><trkpt lat="36.70657091644014" lon="14.79456079467171"><ele>3.0</ele><time>2026-04-11T16:27:15.001Z</time></trkpt><trkpt lat="36.70654914050471" lon="14.79447814529352"><ele>3.0</ele><time>2026-04-11T16:27:16.001Z</time></trkpt><trkpt lat="36.70652729967199" lon="14.794386486204951"><ele>3.0</ele><time>2026-04-11T16:27:17.001Z</time></trkpt><trkpt lat="36.70650506407838" lon="14.794303054415948"><ele>3.0</ele><time>2026-04-11T16:27:18.001Z</time></trkpt><trkpt lat="36.70648827337505" lon="14.794216175399344"><ele>3.0</ele><time>2026-04-11T16:27:19.001Z</time></trkpt><trkpt lat="36.70645194256785" lon="14.794094640200555"><ele>3.0</ele><time>2026-04-11T16:27:21.001Z</time></trkpt><trkpt lat="36.706430144529065" lon="14.794020390015373"><ele>3.3333333333333335</ele><time>2026-04-11T16:27:22.001Z</time></trkpt><trkpt lat="36.70640553675223" lon="14.793933073224524"><ele>3.666666666666667</ele><time>2026-04-11T16:27:23.001Z</time></trkpt><trkpt lat="36.706381828672185" lon="14.793847672584485"><ele>4.0</ele><time>2026-04-11T16:27:24.001Z</time></trkpt><trkpt lat="36.706351024593374" lon="14.79374228546696"><ele>4.333333333333334</ele><time>2026-04-11T16:27:25.001Z</time></trkpt><trkpt lat="36.706339873548735" lon="14.79362165543748"><ele>4.666666666666667</ele><time>2026-04-11T16:27:26.001Z</time></trkpt><trkpt lat="36.706315995831815" lon="14.793500251274898"><ele>5.0</ele><time>2026-04-11T16:27:27.001Z</time></trkpt><trkpt lat="36.7062900441358" lon="14.793368302365279"><ele>5.166666666666667</ele><time>2026-04-11T16:27:28.001Z</time></trkpt><trkpt lat="36.70626680068362" lon="14.793254318524173"><ele>5.333333333333334</ele><time>2026-04-11T16:27:29Z</time></trkpt><trkpt lat="36.706244924771376" lon="14.79314828581428"><ele>5.5</ele><time>2026-04-11T16:27:30Z</time></trkpt><trkpt lat="36.70622160658218" lon="14.793045301814123"><ele>5.666666666666667</ele><time>2026-04-11T16:27:31Z</time></trkpt><trkpt lat="36.70619555540091" lon="14.792937150083977"><ele>5.833333333333333</ele><time>2026-04-11T16:27:32Z</time></trkpt><trkpt lat="36.706155062448616" lon="14.792844184865178"><ele>6.0</ele><time>2026-04-11T16:27:33Z</time></trkpt><trkpt lat="36.70612588469886" lon="14.792714487809796"><ele>6.0</ele><time>2026-04-11T16:27:34Z</time></trkpt><trkpt lat="36.706111855558305" lon="14.792631624548244"><ele>6.0</ele><time>2026-04-11T16:27:35Z</time></trkpt><trkpt lat="36.70609751417152" lon="14.792545530109228"><ele>6.0</ele><time>2026-04-11T16:27:36Z</time></trkpt><trkpt lat="36.70608220454356" lon="14.792451035601553"><ele>6.0</ele><time>2026-04-11T16:27:37Z</time></trkpt><trkpt lat="36.70606269537937" lon="14.792360364848577"><ele>6.0</ele><time>2026-04-11T16:27:38Z</time></trkpt><trkpt lat="36.70604231717771" lon="14.792259144260385"><ele>6.0</ele><time>2026-04-11T16:27:39Z</time></trkpt><trkpt lat="36.70604257345387" lon="14.792156862639086"><ele>5.166666666666667</ele><time>2026-04-11T16:27:40Z</time></trkpt><trkpt lat="36.706017515260065" lon="14.792007694215535"><ele>4.333333333333333</ele><time>2026-04-11T16:27:42Z</time></trkpt><trkpt lat="36.705999753760494" lon="14.791912823778409"><ele>3.5</ele><time>2026-04-11T16:27:43Z</time></trkpt><trkpt lat="36.70598431988593" lon="14.791830385932247"><ele>2.6666666666666665</ele><time>2026-04-11T16:27:44Z</time></trkpt><trkpt lat="36.7059645303092" lon="14.7917246827982"><ele>1.8333333333333333</ele><time>2026-04-11T16:27:45Z</time></trkpt><trkpt lat="36.70594341431312" lon="14.791611894776507"><ele>1.0</ele><time>2026-04-11T16:27:46Z</time></trkpt><trkpt lat="36.70592213197087" lon="14.791493838143797"><ele>1.0</ele><time>2026-04-11T16:27:47Z</time></trkpt><trkpt lat="36.70589229114321" lon="14.791398500439364"><ele>1.0</ele><time>2026-04-11T16:27:48Z</time></trkpt><trkpt lat="36.70588994968847" lon="14.79130636663479"><ele>1.0</ele><time>2026-04-11T16:27:49Z</time></trkpt><trkpt lat="36.70587019229598" lon="14.791225831720627"><ele>1.0</ele><time>2026-04-11T16:27:50Z</time></trkpt><trkpt lat="36.70584603059624" lon="14.791127344191208"><ele>1.0</ele><time>2026-04-11T16:27:51Z</time></trkpt><trkpt lat="36.70579387784265" lon="14.790954023641428"><ele>1.1666666666666665</ele><time>2026-04-11T16:27:53Z</time></trkpt><trkpt lat="36.705776172894005" lon="14.790853716844616"><ele>1.3333333333333333</ele><time>2026-04-11T16:27:54Z</time></trkpt><trkpt lat="36.705758525409664" lon="14.790742346469575"><ele>1.5</ele><time>2026-04-11T16:27:55Z</time></trkpt><trkpt lat="36.70573859153146" lon="14.790667108379004"><ele>1.6666666666666665</ele><time>2026-04-11T16:27:56Z</time></trkpt><trkpt lat="36.70569759802216" lon="14.790519563456552"><ele>1.8333333333333333</ele><time>2026-04-11T16:27:58Z</time></trkpt><trkpt lat="36.70567496723823" lon="14.790440290740547"><ele>2.0</ele><time>2026-04-11T16:28:00Z</time></trkpt><trkpt lat="36.70566810007477" lon="14.790360045741759"><ele>2.0</ele><time>2026-04-11T16:28:02Z</time></trkpt><trkpt lat="36.705658597864705" lon="14.790274507055829"><ele>2.0</ele><time>2026-04-11T16:28:05Z</time></trkpt><trkpt lat="36.70563432800394" lon="14.790178559754269"><ele>2.0</ele><time>2026-04-11T16:28:07Z</time></trkpt><trkpt lat="36.705603952092865" lon="14.790072077208233"><ele>2.0</ele><time>2026-04-11T16:28:09Z</time></trkpt><trkpt lat="36.7055416323439" lon="14.789949883584512"><ele>2.0</ele><time>2026-04-11T16:28:11Z</time></trkpt><trkpt lat="36.70550199058548" lon="14.789816295302165"><ele>2.1666666666666665</ele><time>2026-04-11T16:28:13Z</time></trkpt><trkpt lat="36.705487811791386" lon="14.789734614573511"><ele>2.333333333333333</ele><time>2026-04-11T16:28:14Z</time></trkpt><trkpt lat="36.70547474954998" lon="14.789638528490515"><ele>2.5</ele><time>2026-04-11T16:28:16Z</time></trkpt><trkpt lat="36.70544537038186" lon="14.789546536567846"><ele>2.6666666666666665</ele><time>2026-04-11T16:28:18Z</time></trkpt><trkpt lat="36.7054796685828" lon="14.789431621948161"><ele>2.8333333333333335</ele><time>2026-04-11T16:28:20Z</time></trkpt><trkpt lat="36.70546219402976" lon="14.789326526490234"><ele>3.0</ele><time>2026-04-11T16:28:23Z</time></trkpt><trkpt lat="36.705460720521" lon="14.78924582738323"><ele>3.1666666666666665</ele><time>2026-04-11T16:28:25Z</time></trkpt><trkpt lat="36.7054035849328" lon="14.789174082403127"><ele>3.333333333333333</ele><time>2026-04-11T16:28:28Z</time></trkpt><trkpt lat="36.705387975832146" lon="14.789091812968024"><ele>3.5</ele><time>2026-04-11T16:28:31Z</time></trkpt><trkpt lat="36.7053640907942" lon="14.789002123842044"><ele>3.6666666666666665</ele><time>2026-04-11T16:28:33Z</time></trkpt><trkpt lat="36.70534354519511" lon="14.788878319271488"><ele>3.833333333333333</ele><time>2026-04-11T16:28:35Z</time></trkpt><trkpt lat="36.705314323560295" lon="14.788750784735083"><ele>4.0</ele><time>2026-04-11T16:28:37Z</time></trkpt><trkpt lat="36.70529916594178" lon="14.788672547949322"><ele>4.0</ele><time>2026-04-11T16:28:38Z</time></trkpt><trkpt lat="36.70528563369424" lon="14.788593135190599"><ele>4.0</ele><time>2026-04-11T16:28:39Z</time></trkpt><trkpt lat="36.705264839506185" lon="14.788441288185759"><ele>4.0</ele><time>2026-04-11T16:28:41Z</time></trkpt><trkpt lat="36.70525328280946" lon="14.788362751894228"><ele>4.0</ele><time>2026-04-11T16:28:42Z</time></trkpt><trkpt lat="36.705242704847315" lon="14.788214925277186"><ele>4.0</ele><time>2026-04-11T16:28:44Z</time></trkpt><trkpt lat="36.70523281358968" lon="14.788107003155341"><ele>3.4000000000000004</ele><time>2026-04-11T16:28:45Z</time></trkpt><trkpt lat="36.705243266680505" lon="14.788001606810742"><ele>2.8000000000000003</ele><time>2026-04-11T16:28:46Z</time></trkpt><trkpt lat="36.705225446131536" lon="14.787901416024518"><ele>2.2</ele><time>2026-04-11T16:28:47Z</time></trkpt><trkpt lat="36.70523636257998" lon="14.787774611746647"><ele>1.6</ele><time>2026-04-11T16:28:48Z</time></trkpt><trkpt lat="36.70523225882106" lon="14.787634476168584"><ele>1.0</ele><time>2026-04-11T16:28:49Z</time></trkpt><trkpt lat="36.70522806939445" lon="14.787510153945146"><ele>0.8</ele><time>2026-04-11T16:28:50Z</time></trkpt><trkpt lat="36.70522333233576" lon="14.787377137099737"><ele>0.6000000000000001</ele><time>2026-04-11T16:28:51Z</time></trkpt><trkpt lat="36.70521830537361" lon="14.787235980019458"><ele>0.4</ele><time>2026-04-11T16:28:52Z</time></trkpt><trkpt lat="36.70521383595551" lon="14.787118690386823"><ele>0.2</ele><time>2026-04-11T16:28:53Z</time></trkpt><trkpt lat="36.70520936835821" lon="14.787009078483244"><ele>0.0</ele><time>2026-04-11T16:28:54Z</time></trkpt><trkpt lat="36.705206107379055" lon="14.78692907056058"><ele>0.0</ele><time>2026-04-11T16:28:55Z</time></trkpt><trkpt lat="36.70520068624579" lon="14.786813236615481"><ele>0.0</ele><time>2026-04-11T16:28:57Z</time></trkpt><trkpt lat="36.705195466936" lon="14.786720258741585"><ele>0.0</ele><time>2026-04-11T16:29:16Z</time></trkpt><trkpt lat="36.705190618876465" lon="14.786633894391471"><ele>0.0</ele><time>2026-04-11T16:29:19Z</time></trkpt><trkpt lat="36.70518023298009" lon="14.786474237854524"><ele>0.0</ele><time>2026-04-11T16:29:22Z</time></trkpt><trkpt lat="36.705172070856335" lon="14.786373065448979"><ele>0.0</ele><time>2026-04-11T16:29:23Z</time></trkpt><trkpt lat="36.705164477713424" lon="14.786278947801652"><ele>0.0</ele><time>2026-04-11T16:29:24Z</time></trkpt><trkpt lat="36.7051455614092" lon="14.786189828553766"><ele>0.0</ele><time>2026-04-11T16:29:25Z</time></trkpt><trkpt lat="36.70513074305922" lon="14.786089524606824"><ele>0.0</ele><time>2026-04-11T16:29:26Z</time></trkpt><trkpt lat="36.70510735250714" lon="14.78596682171409"><ele>0.0</ele><time>2026-04-11T16:29:27Z</time></trkpt><trkpt lat="36.705104352782044" lon="14.785815757593896"><ele>0.0</ele><time>2026-04-11T16:29:28Z</time></trkpt><trkpt lat="36.7050803353382" lon="14.785651341586668"><ele>0.5</ele><time>2026-04-11T16:29:29Z</time></trkpt><trkpt lat="36.705031349082134" lon="14.785487894961735"><ele>1.0</ele><time>2026-04-11T16:29:30Z</time></trkpt><trkpt lat="36.70500721920383" lon="14.785335224781038"><ele>1.5</ele><time>2026-04-11T16:29:31Z</time></trkpt><trkpt lat="36.704989081897914" lon="14.785196933266397"><ele>2.0</ele><time>2026-04-11T16:29:32Z</time></trkpt><trkpt lat="36.704978547463604" lon="14.785045739224719"><ele>2.0</ele><time>2026-04-11T16:29:33Z</time></trkpt><trkpt lat="36.70496592420154" lon="14.78490504083945"><ele>2.0</ele><time>2026-04-11T16:29:34Z</time></trkpt><trkpt lat="36.704947166363006" lon="14.784783325977683"><ele>2.0</ele><time>2026-04-11T16:29:35Z</time></trkpt><trkpt lat="36.704918616921944" lon="14.784660286918776"><ele>2.0</ele><time>2026-04-11T16:29:36Z</time></trkpt><trkpt lat="36.70487525060386" lon="14.784570790665027"><ele>2.0</ele><time>2026-04-11T16:29:37Z</time></trkpt><trkpt lat="36.70483908919896" lon="14.784442773584145"><ele>2.0</ele><time>2026-04-11T16:29:38Z</time></trkpt><trkpt lat="36.70479893260737" lon="14.784318991603648"><ele>2.0</ele><time>2026-04-11T16:29:39Z</time></trkpt><trkpt lat="36.704758124161884" lon="14.784186337051061"><ele>2.0</ele><time>2026-04-11T16:29:40Z</time></trkpt><trkpt lat="36.70471415611201" lon="14.784072135532773"><ele>2.0</ele><time>2026-04-11T16:29:41Z</time></trkpt><trkpt lat="36.704654102603534" lon="14.783962164467003"><ele>2.0</ele><time>2026-04-11T16:29:42Z</time></trkpt><trkpt lat="36.70460448213794" lon="14.783813339144814"><ele>2.0</ele><time>2026-04-11T16:29:43Z</time></trkpt><trkpt lat="36.704575777088586" lon="14.783665709374405"><ele>2.0</ele><time>2026-04-11T16:29:44Z</time></trkpt><trkpt lat="36.70452009725811" lon="14.783511123504264"><ele>2.0</ele><time>2026-04-11T16:29:45Z</time></trkpt><trkpt lat="36.70446988757129" lon="14.783327277601723"><ele>2.0</ele><time>2026-04-11T16:29:46Z</time></trkpt><trkpt lat="36.70441906290156" lon="14.783171623842305"><ele>2.0</ele><time>2026-04-11T16:29:47Z</time></trkpt><trkpt lat="36.70437092798917" lon="14.783037820584397"><ele>2.0</ele><time>2026-04-11T16:29:48Z</time></trkpt><trkpt lat="36.70434487926701" lon="14.782949668492797"><ele>2.0</ele><time>2026-04-11T16:29:49Z</time></trkpt><trkpt lat="36.70432259812186" lon="14.78281742376586"><ele>2.0</ele><time>2026-04-11T16:29:50Z</time></trkpt><trkpt lat="36.70434021614743" lon="14.782647151186877"><ele>2.0</ele><time>2026-04-11T16:29:51Z</time></trkpt><trkpt lat="36.704315360369925" lon="14.782441618569266"><ele>2.0</ele><time>2026-04-11T16:29:52Z</time></trkpt><trkpt lat="36.70430834837039" lon="14.782280468656015"><ele>2.0</ele><time>2026-04-11T16:29:53Z</time></trkpt><trkpt lat="36.70431860851537" lon="14.782120973801598"><ele>2.0</ele><time>2026-04-11T16:29:54Z</time></trkpt><trkpt lat="36.70432319552736" lon="14.782021185712017"><ele>2.0</ele><time>2026-04-11T16:29:55Z</time></trkpt><trkpt lat="36.70432890385038" lon="14.78186729800252"><ele>2.0</ele><time>2026-04-11T16:29:56Z</time></trkpt><trkpt lat="36.70432831117097" lon="14.781744850060075"><ele>2.0</ele><time>2026-04-11T16:29:57Z</time></trkpt><trkpt lat="36.70432757479153" lon="14.781631995017312"><ele>2.0</ele><time>2026-04-11T16:29:58Z</time></trkpt><trkpt lat="36.70432937587609" lon="14.78151416325871"><ele>2.0</ele><time>2026-04-11T16:30:00Z</time></trkpt><trkpt lat="36.70438262176027" lon="14.78144316577875"><ele>2.0</ele><time>2026-04-11T16:30:03Z</time></trkpt><trkpt lat="36.704475781753885" lon="14.781450235394004"><ele>2.1666666666666665</ele><time>2026-04-11T16:30:05Z</time></trkpt><trkpt lat="36.70453944633326" lon="14.78143115159707"><ele>2.333333333333333</ele><time>2026-04-11T16:30:08Z</time></trkpt><trkpt lat="36.704599062166906" lon="14.78146423900512"><ele>2.5</ele><time>2026-04-11T16:30:14Z</time></trkpt><trkpt lat="36.704660203548265" lon="14.781508700576602"><ele>2.6666666666666665</ele><time>2026-04-11T16:30:29Z</time></trkpt><trkpt lat="36.70472030692433" lon="14.781548010813776"><ele>2.8333333333333335</ele><time>2026-04-11T16:30:30Z</time></trkpt><trkpt lat="36.704774721828684" lon="14.781619929993122"><ele>3.0</ele><time>2026-04-11T16:30:31Z</time></trkpt><trkpt lat="36.70485101429825" lon="14.781705160984218"><ele>3.0</ele><time>2026-04-11T16:30:32Z</time></trkpt><trkpt lat="36.70491944630354" lon="14.78178210159736"><ele>3.0</ele><time>2026-04-11T16:30:33Z</time></trkpt><trkpt lat="36.70500030690456" lon="14.781857266777019"><ele>3.0</ele><time>2026-04-11T16:30:34Z</time></trkpt><trkpt lat="36.705085329803275" lon="14.781932064993951"><ele>3.0</ele><time>2026-04-11T16:30:35Z</time></trkpt><trkpt lat="36.705179536539234" lon="14.782018183941284"><ele>3.0</ele><time>2026-04-11T16:30:36Z</time></trkpt><trkpt lat="36.70527810768069" lon="14.782106260282617"><ele>2.8</ele><time>2026-04-11T16:30:37Z</time></trkpt><trkpt lat="36.70535534213224" lon="14.782185739634226"><ele>2.5999999999999996</ele><time>2026-04-11T16:30:38Z</time></trkpt><trkpt lat="36.70543580957383" lon="14.782260773256544"><ele>2.4000000000000004</ele><time>2026-04-11T16:30:39Z</time></trkpt><trkpt lat="36.70551501025155" lon="14.782332495835613"><ele>2.2</ele><time>2026-04-11T16:30:40Z</time></trkpt><trkpt lat="36.70558318748403" lon="14.782457011187494"><ele>2.0</ele><time>2026-04-11T16:30:41Z</time></trkpt><trkpt lat="36.70568033599226" lon="14.782626916166105"><ele>3.0</ele><time>2026-04-11T16:30:42Z</time></trkpt><trkpt lat="36.705796648406995" lon="14.782754332946093"><ele>4.0</ele><time>2026-04-11T16:30:43Z</time></trkpt><trkpt lat="36.705911716395654" lon="14.782869185398832"><ele>5.0</ele><time>2026-04-11T16:30:44Z</time></trkpt><trkpt lat="36.70604065200226" lon="14.782965723024848"><ele>4.8</ele><time>2026-04-11T16:30:45Z</time></trkpt><trkpt lat="36.70612572484678" lon="14.783071779977728"><ele>4.6</ele><time>2026-04-11T16:30:46Z</time></trkpt><trkpt lat="36.70621933538543" lon="14.783164316857226"><ele>4.4</ele><time>2026-04-11T16:30:47Z</time></trkpt><trkpt lat="36.70627411753442" lon="14.78324957559713"><ele>4.2</ele><time>2026-04-11T16:30:48Z</time></trkpt><trkpt lat="36.70633677394913" lon="14.783309848797717"><ele>4.0</ele><time>2026-04-11T16:30:49Z</time></trkpt><trkpt lat="36.706388752260054" lon="14.783358528137878"><ele>4.0</ele><time>2026-04-11T16:30:50Z</time></trkpt><trkpt lat="36.706430814778415" lon="14.783467244328673"><ele>4.0</ele><time>2026-04-11T16:30:52Z</time></trkpt><trkpt lat="36.70639517490747" lon="14.783586640973862"><ele>4.0</ele><time>2026-04-11T16:30:54Z</time></trkpt><trkpt lat="36.70638256243907" lon="14.783681748977436"><ele>4.0</ele><time>2026-04-11T16:30:55Z</time></trkpt><trkpt lat="36.70636833139595" lon="14.783826562189232"><ele>4.0</ele><time>2026-04-11T16:30:56Z</time></trkpt><trkpt lat="36.706355909580964" lon="14.783953966917739"><ele>4.333333333333333</ele><time>2026-04-11T16:30:57Z</time></trkpt><trkpt lat="36.70634355484139" lon="14.784064977960064"><ele>4.666666666666666</ele><time>2026-04-11T16:30:58Z</time></trkpt><trkpt lat="36.706344374753186" lon="14.784168216298466"><ele>5.0</ele><time>2026-04-11T16:30:59Z</time></trkpt><trkpt lat="36.70633116276545" lon="14.784265577542431"><ele>5.333333333333333</ele><time>2026-04-11T16:31:00Z</time></trkpt><trkpt lat="36.706323531316535" lon="14.78435928927308"><ele>5.666666666666667</ele><time>2026-04-11T16:31:01Z</time></trkpt><trkpt lat="36.70631395452159" lon="14.784452982077424"><ele>6.0</ele><time>2026-04-11T16:31:02Z</time></trkpt><trkpt lat="36.70628929454404" lon="14.78459278966342"><ele>6.25</ele><time>2026-04-11T16:31:04.001Z</time></trkpt><trkpt lat="36.70629241853965" lon="14.784697870632195"><ele>6.5</ele><time>2026-04-11T16:31:06.001Z</time></trkpt><trkpt lat="36.706483441958156" lon="14.784733256837978"><ele>6.75</ele><time>2026-04-11T16:31:07.001Z</time></trkpt><trkpt lat="36.706592120093305" lon="14.784743156377992"><ele>7.0</ele><time>2026-04-11T16:31:08.001Z</time></trkpt><trkpt lat="36.706707104673356" lon="14.784753833934637"><ele>7.0</ele><time>2026-04-11T16:31:09.001Z</time></trkpt><trkpt lat="36.7068315030575" lon="14.784748950245955"><ele>7.0</ele><time>2026-04-11T16:31:10.001Z</time></trkpt><trkpt lat="36.70696310787028" lon="14.784741509150537"><ele>7.0</ele><time>2026-04-11T16:31:11.001Z</time></trkpt><trkpt lat="36.70709603622455" lon="14.784737812038456"><ele>7.0</ele><time>2026-04-11T16:31:12.001Z</time></trkpt><trkpt lat="36.707192767380306" lon="14.784739787588897"><ele>7.166666666666667</ele><time>2026-04-11T16:31:13.001Z</time></trkpt><trkpt lat="36.70727895747759" lon="14.784747949817438"><ele>7.333333333333334</ele><time>2026-04-11T16:31:14.001Z</time></trkpt><trkpt lat="36.70735159499175" lon="14.784761153311994"><ele>7.5</ele><time>2026-04-11T16:31:15.001Z</time></trkpt><trkpt lat="36.707417097203525" lon="14.784753331645188"><ele>7.666666666666666</ele><time>2026-04-11T16:31:17.001Z</time></trkpt><trkpt lat="36.707460181552804" lon="14.784635958262406"><ele>7.833333333333333</ele><time>2026-04-11T16:31:19.001Z</time></trkpt><trkpt lat="36.70746897358417" lon="14.78449575139786"><ele>8.0</ele><time>2026-04-11T16:31:20.001Z</time></trkpt><trkpt lat="36.707469897352524" lon="14.784330079265418"><ele>8.0</ele><time>2026-04-11T16:31:21.001Z</time></trkpt><trkpt lat="36.707489035193" lon="14.784154425965493"><ele>8.0</ele><time>2026-04-11T16:31:22.001Z</time></trkpt><trkpt lat="36.70751293973819" lon="14.783973549598771"><ele>8.0</ele><time>2026-04-11T16:31:23.001Z</time></trkpt><trkpt lat="36.70752558477637" lon="14.783827596804842"><ele>8.0</ele><time>2026-04-11T16:31:24.001Z</time></trkpt><trkpt lat="36.70753086600346" lon="14.783716309668288"><ele>8.0</ele><time>2026-04-11T16:31:25.001Z</time></trkpt><trkpt lat="36.70757786256257" lon="14.78360268316033"><ele>8.0</ele><time>2026-04-11T16:31:27.001Z</time></trkpt><trkpt lat="36.70773507434567" lon="14.783596143686387"><ele>8.0</ele><time>2026-04-11T16:31:29.001Z</time></trkpt><trkpt lat="36.70786564912307" lon="14.783597642501245"><ele>8.0</ele><time>2026-04-11T16:31:30.001Z</time></trkpt><trkpt lat="36.70801463900685" lon="14.783595149839055"><ele>8.5</ele><time>2026-04-11T16:31:31.001Z</time></trkpt><trkpt lat="36.70816179649718" lon="14.783583343769376"><ele>9.0</ele><time>2026-04-11T16:31:32.001Z</time></trkpt><trkpt lat="36.70830098784199" lon="14.783564941078357"><ele>9.5</ele><time>2026-04-11T16:31:33.001Z</time></trkpt><trkpt lat="36.70842588097532" lon="14.783549200983435"><ele>10.0</ele><time>2026-04-11T16:31:34.001Z</time></trkpt><trkpt lat="36.70854484157774" lon="14.783536436683692"><ele>10.0</ele><time>2026-04-11T16:31:35.001Z</time></trkpt><trkpt lat="36.70865869081553" lon="14.783528221615846"><ele>10.0</ele><time>2026-04-11T16:31:36.001Z</time></trkpt><trkpt lat="36.70877790290045" lon="14.783518168493954"><ele>10.0</ele><time>2026-04-11T16:31:37.001Z</time></trkpt><trkpt lat="36.70889276337581" lon="14.783510749469812"><ele>10.0</ele><time>2026-04-11T16:31:38.001Z</time></trkpt><trkpt lat="36.70899001586954" lon="14.783504865757074"><ele>10.0</ele><time>2026-04-11T16:31:39.001Z</time></trkpt><trkpt lat="36.70908388826282" lon="14.783490739014612"><ele>10.0</ele><time>2026-04-11T16:31:40Z</time></trkpt><trkpt lat="36.70916743636228" lon="14.78348335939559"><ele>10.0</ele><time>2026-04-11T16:31:41Z</time></trkpt><trkpt lat="36.70925022387914" lon="14.78347053345369"><ele>10.0</ele><time>2026-04-11T16:31:42Z</time></trkpt><trkpt lat="36.7093465453111" lon="14.783440661847859"><ele>10.0</ele><time>2026-04-11T16:31:43Z</time></trkpt><trkpt lat="36.70943953606987" lon="14.783382112344082"><ele>10.0</ele><time>2026-04-11T16:31:44Z</time></trkpt><trkpt lat="36.7095349101313" lon="14.783298451904175"><ele>8.75</ele><time>2026-04-11T16:31:45Z</time></trkpt><trkpt lat="36.70963167152044" lon="14.78319573852249"><ele>7.5</ele><time>2026-04-11T16:31:46Z</time></trkpt><trkpt lat="36.70973534324763" lon="14.783091520679811"><ele>6.25</ele><time>2026-04-11T16:31:47Z</time></trkpt><trkpt lat="36.70983557087702" lon="14.78299024352094"><ele>5.0</ele><time>2026-04-11T16:31:48Z</time></trkpt><trkpt lat="36.70992411973224" lon="14.782899731483647"><ele>5.0</ele><time>2026-04-11T16:31:49Z</time></trkpt><trkpt lat="36.71000206929816" lon="14.782820897868044"><ele>5.0</ele><time>2026-04-11T16:31:50Z</time></trkpt><trkpt lat="36.71007582417485" lon="14.782746636085777"><ele>5.0</ele><time>2026-04-11T16:31:51Z</time></trkpt><trkpt lat="36.710146068865676" lon="14.782676815273426"><ele>5.0</ele><time>2026-04-11T16:31:52Z</time></trkpt><trkpt lat="36.710207102862846" lon="14.782610165984144"><ele>5.0</ele><time>2026-04-11T16:31:53Z</time></trkpt><trkpt lat="36.7102763366115" lon="14.782523752409338"><ele>4.833333333333334</ele><time>2026-04-11T16:31:55Z</time></trkpt><trkpt lat="36.71033773040727" lon="14.782435265066212"><ele>4.666666666666667</ele><time>2026-04-11T16:31:58Z</time></trkpt><trkpt lat="36.71038337126549" lon="14.782366946449816"><ele>4.5</ele><time>2026-04-11T16:32:00Z</time></trkpt><trkpt lat="36.71040739418186" lon="14.782275993156453"><ele>4.333333333333333</ele><time>2026-04-11T16:33:23.001Z</time></trkpt><trkpt lat="36.71043010522796" lon="14.782154649663998"><ele>4.166666666666666</ele><time>2026-04-11T16:33:25.001Z</time></trkpt><trkpt lat="36.71044618537062" lon="14.782075052183616"><ele>4.0</ele><time>2026-04-11T16:33:26.001Z</time></trkpt><trkpt lat="36.710472158929925" lon="14.781928142189795"><ele>3.9999999999999996</ele><time>2026-04-11T16:33:28.001Z</time></trkpt><trkpt lat="36.71048542261895" lon="14.78183972501746"><ele>4.0</ele><time>2026-04-11T16:33:29.001Z</time></trkpt><trkpt lat="36.71050245699946" lon="14.78174808967004"><ele>4.0</ele><time>2026-04-11T16:33:30.001Z</time></trkpt><trkpt lat="36.71052359394895" lon="14.781639946051529"><ele>4.0</ele><time>2026-04-11T16:33:31.001Z</time></trkpt><trkpt lat="36.71055054282249" lon="14.78152620331476"><ele>3.9999999999999996</ele><time>2026-04-11T16:33:32.001Z</time></trkpt><trkpt lat="36.710581006019446" lon="14.781396046165298"><ele>4.0</ele><time>2026-04-11T16:33:33.001Z</time></trkpt><trkpt lat="36.71061033985604" lon="14.781287054345489"><ele>3.9999999999999996</ele><time>2026-04-11T16:33:34.001Z</time></trkpt><trkpt lat="36.71063023808475" lon="14.781193281564844"><ele>4.0</ele><time>2026-04-11T16:33:35.001Z</time></trkpt><trkpt lat="36.71065131423341" lon="14.7811112933959"><ele>4.0</ele><time>2026-04-11T16:33:36.001Z</time></trkpt><trkpt lat="36.71067659426906" lon="14.781012761300206"><ele>4.0</ele><time>2026-04-11T16:33:37.001Z</time></trkpt><trkpt lat="36.71071178058423" lon="14.780935086859365"><ele>3.9999999999999996</ele><time>2026-04-11T16:33:38.001Z</time></trkpt><trkpt lat="36.71076586168733" lon="14.780876375898451"><ele>4.0</ele><time>2026-04-11T16:33:39.001Z</time></trkpt><trkpt lat="36.71083744689177" lon="14.78083171467989"><ele>4.0</ele><time>2026-04-11T16:33:40.001Z</time></trkpt><trkpt lat="36.71093390838912" lon="14.78085186347789"><ele>4.0</ele><time>2026-04-11T16:33:41.001Z</time></trkpt><trkpt lat="36.71103247085645" lon="14.78083627405494"><ele>4.0</ele><time>2026-04-11T16:33:42.001Z</time></trkpt><trkpt lat="36.71113473306368" lon="14.7808027304577"><ele>4.0</ele><time>2026-04-11T16:33:43.001Z</time></trkpt><trkpt lat="36.711227050412944" lon="14.780792448674923"><ele>4.0</ele><time>2026-04-11T16:33:44.001Z</time></trkpt><trkpt lat="36.711322203591585" lon="14.78078493586683"><ele>3.8000000000000003</ele><time>2026-04-11T16:33:45.001Z</time></trkpt><trkpt lat="36.711419152529736" lon="14.78076774340326"><ele>3.6000000000000005</ele><time>2026-04-11T16:33:46Z</time></trkpt><trkpt lat="36.71152024284658" lon="14.780765542995395"><ele>3.4</ele><time>2026-04-11T16:33:47Z</time></trkpt><trkpt lat="36.711626744915804" lon="14.780754677206907"><ele>3.2</ele><time>2026-04-11T16:33:48Z</time></trkpt><trkpt lat="36.7117496649302" lon="14.780730473333202"><ele>3.0</ele><time>2026-04-11T16:33:49Z</time></trkpt><trkpt lat="36.711884009526344" lon="14.780710537786304"><ele>3.25</ele><time>2026-04-11T16:33:50Z</time></trkpt><trkpt lat="36.71202230353518" lon="14.780694823165097"><ele>3.5</ele><time>2026-04-11T16:33:51Z</time></trkpt><trkpt lat="36.71215916914162" lon="14.780674371908344"><ele>3.75</ele><time>2026-04-11T16:33:52Z</time></trkpt><trkpt lat="36.712303366204125" lon="14.780653467641105"><ele>4.0</ele><time>2026-04-11T16:33:53Z</time></trkpt><trkpt lat="36.71244758676365" lon="14.780633021399364"><ele>4.0</ele><time>2026-04-11T16:33:54Z</time></trkpt><trkpt lat="36.71258075935434" lon="14.780615798281266"><ele>4.0</ele><time>2026-04-11T16:33:55Z</time></trkpt><trkpt lat="36.71270703202323" lon="14.78060120737879"><ele>4.0</ele><time>2026-04-11T16:33:56Z</time></trkpt><trkpt lat="36.71283133699988" lon="14.780584131911295"><ele>4.0</ele><time>2026-04-11T16:33:57Z</time></trkpt><trkpt lat="36.712950952963006" lon="14.780562487847492"><ele>4.800000000000001</ele><time>2026-04-11T16:33:58Z</time></trkpt><trkpt lat="36.71305831709915" lon="14.780530932364252"><ele>5.6000000000000005</ele><time>2026-04-11T16:33:59Z</time></trkpt><trkpt lat="36.71314600194118" lon="14.780485791687564"><ele>6.4</ele><time>2026-04-11T16:34:00Z</time></trkpt><trkpt lat="36.71323953177176" lon="14.7804387358788"><ele>7.2</ele><time>2026-04-11T16:34:01Z</time></trkpt><trkpt lat="36.71332036598819" lon="14.780386044276298"><ele>8.0</ele><time>2026-04-11T16:34:02Z</time></trkpt><trkpt lat="36.713393582069976" lon="14.780344026391717"><ele>7.999999999999999</ele><time>2026-04-11T16:34:03Z</time></trkpt><trkpt lat="36.71345286981249" lon="14.780314799529974"><ele>8.0</ele><time>2026-04-11T16:34:04Z</time></trkpt><trkpt lat="36.7135105086121" lon="14.780273814150968"><ele>8.0</ele><time>2026-04-11T16:34:08Z</time></trkpt><trkpt lat="36.713626397407175" lon="14.780356769411233"><ele>8.0</ele><time>2026-04-11T16:34:11.999Z</time></trkpt><trkpt lat="36.713654435149095" lon="14.780461029165785"><ele>7.999999999999999</ele><time>2026-04-11T16:34:12.999Z</time></trkpt><trkpt lat="36.71369072512731" lon="14.780534499819728"><ele>8.0</ele><time>2026-04-11T16:34:13.999Z</time></trkpt><trkpt lat="36.713732511313346" lon="14.780620594340316"><ele>9.0</ele><time>2026-04-11T16:34:14.999Z</time></trkpt><trkpt lat="36.7137735077452" lon="14.780707334154654"><ele>10.0</ele><time>2026-04-11T16:34:15.999Z</time></trkpt><trkpt lat="36.71380390521317" lon="14.780787466287928"><ele>11.0</ele><time>2026-04-11T16:34:16.999Z</time></trkpt><trkpt lat="36.713864644232906" lon="14.780883684324674"><ele>12.0</ele><time>2026-04-11T16:34:18.999Z</time></trkpt><trkpt lat="36.714055958848206" lon="14.780795294466863"><ele>12.0</ele><time>2026-04-11T16:34:21.999Z</time></trkpt><trkpt lat="36.714130013290486" lon="14.78073764322389"><ele>12.0</ele><time>2026-04-11T16:34:22.999Z</time></trkpt><trkpt lat="36.71420056348257" lon="14.780688110765842"><ele>12.0</ele><time>2026-04-11T16:34:23.999Z</time></trkpt><trkpt lat="36.71427665573335" lon="14.78063474968927"><ele>12.0</ele><time>2026-04-11T16:34:25.999Z</time></trkpt><trkpt lat="36.71441154518789" lon="14.780855141791504"><ele>12.25</ele><time>2026-04-11T16:34:29.999Z</time></trkpt><trkpt lat="36.71448396773543" lon="14.781037081253334"><ele>12.5</ele><time>2026-04-11T16:34:30.999Z</time></trkpt><trkpt lat="36.71457356474564" lon="14.781204735392048"><ele>12.75</ele><time>2026-04-11T16:34:31.999Z</time></trkpt><trkpt lat="36.71463081451804" lon="14.781341722259972"><ele>13.0</ele><time>2026-04-11T16:34:32.999Z</time></trkpt><trkpt lat="36.714685221661526" lon="14.781481041193256"><ele>13.0</ele><time>2026-04-11T16:34:33.999Z</time></trkpt><trkpt lat="36.714749317135" lon="14.78163216470434"><ele>13.0</ele><time>2026-04-11T16:34:34.999Z</time></trkpt><trkpt lat="36.714805491574445" lon="14.781775969019126"><ele>13.0</ele><time>2026-04-11T16:34:35.999Z</time></trkpt><trkpt lat="36.71485384719014" lon="14.781897656019304"><ele>13.0</ele><time>2026-04-11T16:34:36.999Z</time></trkpt><trkpt lat="36.71490029736813" lon="14.782003367537962"><ele>12.75</ele><time>2026-04-11T16:34:37.999Z</time></trkpt><trkpt lat="36.71494593590286" lon="14.782118847275477"><ele>12.5</ele><time>2026-04-11T16:34:38.999Z</time></trkpt><trkpt lat="36.714996945016146" lon="14.782250016025957"><ele>12.25</ele><time>2026-04-11T16:34:39.999Z</time></trkpt><trkpt lat="36.71505372360788" lon="14.782391964685136"><ele>12.0</ele><time>2026-04-11T16:34:40.999Z</time></trkpt><trkpt lat="36.71510735671846" lon="14.782533736670585"><ele>12.0</ele><time>2026-04-11T16:34:41.999Z</time></trkpt><trkpt lat="36.715158182343465" lon="14.782662928250486"><ele>12.0</ele><time>2026-04-11T16:34:42.999Z</time></trkpt><trkpt lat="36.71520102144852" lon="14.78277266264563"><ele>12.0</ele><time>2026-04-11T16:34:43.999Z</time></trkpt><trkpt lat="36.71523626917502" lon="14.782860728504648"><ele>12.0</ele><time>2026-04-11T16:34:44.999Z</time></trkpt><trkpt lat="36.71529581636363" lon="14.782926740398738"><ele>12.0</ele><time>2026-04-11T16:34:46.999Z</time></trkpt><trkpt lat="36.71536020875125" lon="14.782899541121823"><ele>12.0</ele><time>2026-04-11T16:34:48.999Z</time></trkpt><trkpt lat="36.71540995206586" lon="14.78282683296693"><ele>13.5</ele><time>2026-04-11T16:34:52.999Z</time></trkpt><trkpt lat="36.71540080489042" lon="14.78265807403881"><ele>15.0</ele><time>2026-04-11T16:34:54.999Z</time></trkpt><trkpt lat="36.715355191231225" lon="14.782531558270541"><ele>16.5</ele><time>2026-04-11T16:34:55.999Z</time></trkpt><trkpt lat="36.71533119161053" lon="14.782390447089494"><ele>18.0</ele><time>2026-04-11T16:34:56.999Z</time></trkpt><trkpt lat="36.7153441576386" lon="14.782253498548597"><ele>18.0</ele><time>2026-04-11T16:34:57.999Z</time></trkpt><trkpt lat="36.715343370818225" lon="14.782130600043464"><ele>18.0</ele><time>2026-04-11T16:34:58.999Z</time></trkpt><trkpt lat="36.71534680384739" lon="14.78200164886856"><ele>18.0</ele><time>2026-04-11T16:34:59.999Z</time></trkpt><trkpt lat="36.71535886074842" lon="14.781879158708303"><ele>18.0</ele><time>2026-04-11T16:35:00.999Z</time></trkpt><trkpt lat="36.71537131650903" lon="14.781756629067182"><ele>18.0</ele><time>2026-04-11T16:35:01.999Z</time></trkpt><trkpt lat="36.7153825259901" lon="14.781643893586288"><ele>18.2</ele><time>2026-04-11T16:35:02.999Z</time></trkpt><trkpt lat="36.71539047973691" lon="14.781539493378292"><ele>18.4</ele><time>2026-04-11T16:35:03.999Z</time></trkpt><trkpt lat="36.715390459934675" lon="14.7814312222692"><ele>18.599999999999998</ele><time>2026-04-11T16:35:04.999Z</time></trkpt><trkpt lat="36.715378367335056" lon="14.78130910864591"><ele>18.8</ele><time>2026-04-11T16:35:05.999Z</time></trkpt><trkpt lat="36.71535143985851" lon="14.781189917696418"><ele>19.0</ele><time>2026-04-11T16:35:06.999Z</time></trkpt><trkpt lat="36.715317185102116" lon="14.781068607237223"><ele>19.6</ele><time>2026-04-11T16:35:07.999Z</time></trkpt><trkpt lat="36.715276900372764" lon="14.780950709770865"><ele>20.2</ele><time>2026-04-11T16:35:08.999Z</time></trkpt><trkpt lat="36.71523673363093" lon="14.78083080538933"><ele>20.8</ele><time>2026-04-11T16:35:09.999Z</time></trkpt><trkpt lat="36.71519485724114" lon="14.78070455827896"><ele>21.400000000000002</ele><time>2026-04-11T16:35:10.999Z</time></trkpt><trkpt lat="36.71514901507879" lon="14.780575723171937"><ele>22.0</ele><time>2026-04-11T16:35:11.999Z</time></trkpt><trkpt lat="36.715100036662655" lon="14.780451064602255"><ele>21.200000000000003</ele><time>2026-04-11T16:35:12.999Z</time></trkpt><trkpt lat="36.71505854266862" lon="14.780341696969524"><ele>20.400000000000002</ele><time>2026-04-11T16:35:13.999Z</time></trkpt><trkpt lat="36.71502024000649" lon="14.780237293104664"><ele>19.6</ele><time>2026-04-11T16:35:14.999Z</time></trkpt><trkpt lat="36.71497840877273" lon="14.780122208211433"><ele>18.8</ele><time>2026-04-11T16:35:15.999Z</time></trkpt><trkpt lat="36.71493994937245" lon="14.780022369417035"><ele>18.0</ele><time>2026-04-11T16:35:16.999Z</time></trkpt><trkpt lat="36.714902176696754" lon="14.779913407440807"><ele>18.0</ele><time>2026-04-11T16:35:17.999Z</time></trkpt><trkpt lat="36.714865190341754" lon="14.779798547188689"><ele>18.0</ele><time>2026-04-11T16:35:18.999Z</time></trkpt><trkpt lat="36.71482774944824" lon="14.779703571818567"><ele>18.0</ele><time>2026-04-11T16:35:19.999Z</time></trkpt><trkpt lat="36.714797276199924" lon="14.779616130176743"><ele>18.0</ele><time>2026-04-11T16:35:20.999Z</time></trkpt><trkpt lat="36.71476538455245" lon="14.779530168532371"><ele>18.0</ele><time>2026-04-11T16:35:21.999Z</time></trkpt><trkpt lat="36.714730346713644" lon="14.779432747804504"><ele>18.0</ele><time>2026-04-11T16:35:22.999Z</time></trkpt><trkpt lat="36.71470238283783" lon="14.779347660659514"><ele>18.28571428571429</ele><time>2026-04-11T16:35:23.999Z</time></trkpt><trkpt lat="36.714668314224625" lon="14.779256080942394"><ele>18.571428571428573</ele><time>2026-04-11T16:35:24.999Z</time></trkpt><trkpt lat="36.714634755742736" lon="14.779169153791742"><ele>18.857142857142858</ele><time>2026-04-11T16:35:25.999Z</time></trkpt><trkpt lat="36.714605923225804" lon="14.779089751261571"><ele>19.142857142857146</ele><time>2026-04-11T16:35:26.999Z</time></trkpt><trkpt lat="36.71457689082926" lon="14.779002687058982"><ele>19.42857142857143</ele><time>2026-04-11T16:35:27.999Z</time></trkpt><trkpt lat="36.71455905040011" lon="14.778914843289476"><ele>19.714285714285715</ele><time>2026-04-11T16:35:28.999Z</time></trkpt><trkpt lat="36.71455528800245" lon="14.778825067681101"><ele>20.0</ele><time>2026-04-11T16:35:29.999Z</time></trkpt><trkpt lat="36.71456014055713" lon="14.778726476150577"><ele>20.0</ele><time>2026-04-11T16:35:30.999Z</time></trkpt><trkpt lat="36.71456444513857" lon="14.778623731256632"><ele>20.0</ele><time>2026-04-11T16:35:31.999Z</time></trkpt><trkpt lat="36.714567671166414" lon="14.778519084674189"><ele>20.0</ele><time>2026-04-11T16:35:32.999Z</time></trkpt><trkpt lat="36.714568669692284" lon="14.778415716910935"><ele>20.0</ele><time>2026-04-11T16:35:33.999Z</time></trkpt><trkpt lat="36.714569078546006" lon="14.778305617592805"><ele>20.0</ele><time>2026-04-11T16:35:34.999Z</time></trkpt><trkpt lat="36.71456737725846" lon="14.778190630747044"><ele>20.0</ele><time>2026-04-11T16:35:35.999Z</time></trkpt><trkpt lat="36.7145679480839" lon="14.778064475442616"><ele>20.166666666666668</ele><time>2026-04-11T16:35:36.999Z</time></trkpt><trkpt lat="36.71457051262736" lon="14.777972898830777"><ele>20.333333333333336</ele><time>2026-04-11T16:35:37.999Z</time></trkpt><trkpt lat="36.71457428158807" lon="14.777889217940162"><ele>20.5</ele><time>2026-04-11T16:35:38.999Z</time></trkpt><trkpt lat="36.71457818756296" lon="14.777799284986349"><ele>20.666666666666668</ele><time>2026-04-11T16:35:39.999Z</time></trkpt><trkpt lat="36.71457961094589" lon="14.77771279665206"><ele>20.833333333333332</ele><time>2026-04-11T16:35:40.999Z</time></trkpt><trkpt lat="36.71457716933885" lon="14.777626678996393"><ele>21.0</ele><time>2026-04-11T16:35:41.999Z</time></trkpt><trkpt lat="36.7145762865218" lon="14.777464243940905"><ele>21.166666666666668</ele><time>2026-04-11T16:35:43.999Z</time></trkpt><trkpt lat="36.71457571116223" lon="14.777376278304965"><ele>21.333333333333332</ele><time>2026-04-11T16:35:44.999Z</time></trkpt><trkpt lat="36.71457708875532" lon="14.777290997584334"><ele>21.5</ele><time>2026-04-11T16:35:45.999Z</time></trkpt><trkpt lat="36.714575389770374" lon="14.777206774589398"><ele>21.666666666666664</ele><time>2026-04-11T16:35:46.999Z</time></trkpt><trkpt lat="36.71456750668809" lon="14.777115645202413"><ele>21.833333333333332</ele><time>2026-04-11T16:35:47.999Z</time></trkpt><trkpt lat="36.71457072551855" lon="14.776961972137105"><ele>22.0</ele><time>2026-04-11T16:35:49.999Z</time></trkpt><trkpt lat="36.71456827260044" lon="14.776815095434914"><ele>22.166666666666664</ele><time>2026-04-11T16:35:51.998Z</time></trkpt><trkpt lat="36.71456907359931" lon="14.776668942871156"><ele>22.333333333333332</ele><time>2026-04-11T16:35:53.998Z</time></trkpt><trkpt lat="36.714571357410364" lon="14.776530562009066"><ele>22.5</ele><time>2026-04-11T16:35:55.999Z</time></trkpt><trkpt lat="36.71457427257945" lon="14.776445495749039"><ele>22.666666666666668</ele><time>2026-04-11T16:35:56.999Z</time></trkpt><trkpt lat="36.71457642341485" lon="14.776353222869686"><ele>22.833333333333336</ele><time>2026-04-11T16:35:57.999Z</time></trkpt><trkpt lat="36.71457651135306" lon="14.77625569490168"><ele>23.0</ele><time>2026-04-11T16:35:58.999Z</time></trkpt><trkpt lat="36.7145777402" lon="14.77614429398305"><ele>23.0</ele><time>2026-04-11T16:35:59.999Z</time></trkpt><trkpt lat="36.71457690277535" lon="14.77603473068906"><ele>23.0</ele><time>2026-04-11T16:36:00.999Z</time></trkpt><trkpt lat="36.71457843582959" lon="14.775947985043876"><ele>23.0</ele><time>2026-04-11T16:36:01.999Z</time></trkpt><trkpt lat="36.714580980485984" lon="14.775815542929587"><ele>23.0</ele><time>2026-04-11T16:36:03.999Z</time></trkpt><trkpt lat="36.714573611732284" lon="14.775709037372748"><ele>23.0</ele><time>2026-04-11T16:36:05.999Z</time></trkpt><trkpt lat="36.71455089690627" lon="14.775628340891968"><ele>23.0</ele><time>2026-04-11T16:36:07.999Z</time></trkpt><trkpt lat="36.71445725037527" lon="14.775582279598986"><ele>22.666666666666668</ele><time>2026-04-11T16:36:10Z</time></trkpt><trkpt lat="36.714392585707444" lon="14.775560789877293"><ele>22.333333333333336</ele><time>2026-04-11T16:36:11Z</time></trkpt><trkpt lat="36.71429256601239" lon="14.775520341419067"><ele>22.0</ele><time>2026-04-11T16:36:13Z</time></trkpt><trkpt lat="36.71420932691656" lon="14.775473825417434"><ele>21.666666666666668</ele><time>2026-04-11T16:36:15Z</time></trkpt><trkpt lat="36.71412507714608" lon="14.775439102132989"><ele>21.333333333333332</ele><time>2026-04-11T16:36:17Z</time></trkpt><trkpt lat="36.714040715070865" lon="14.775402820374026"><ele>21.0</ele><time>2026-04-11T16:36:19Z</time></trkpt><trkpt lat="36.713972707006874" lon="14.775369323783535"><ele>21.0</ele><time>2026-04-11T16:36:21Z</time></trkpt><trkpt lat="36.71389277000982" lon="14.77534613650538"><ele>21.0</ele><time>2026-04-11T16:36:23Z</time></trkpt><trkpt lat="36.71383322459758" lon="14.775316140295045"><ele>21.0</ele><time>2026-04-11T16:36:25Z</time></trkpt><trkpt lat="36.71383030813096" lon="14.775153629280215"><ele>21.0</ele><time>2026-04-11T16:36:29Z</time></trkpt><trkpt lat="36.713853792923466" lon="14.775073433658227"><ele>21.0</ele><time>2026-04-11T16:36:30Z</time></trkpt><trkpt lat="36.713901624462856" lon="14.77494304304527"><ele>21.6</ele><time>2026-04-11T16:36:32Z</time></trkpt><trkpt lat="36.71393663752662" lon="14.77483645826185"><ele>22.200000000000003</ele><time>2026-04-11T16:36:34Z</time></trkpt><trkpt lat="36.71397401624962" lon="14.774730428538591"><ele>22.799999999999997</ele><time>2026-04-11T16:36:36Z</time></trkpt><trkpt lat="36.71401407388265" lon="14.774576505245799"><ele>23.4</ele><time>2026-04-11T16:36:38Z</time></trkpt><trkpt lat="36.71403855766235" lon="14.774486542246464"><ele>24.0</ele><time>2026-04-11T16:36:39Z</time></trkpt><trkpt lat="36.7140469644106" lon="14.774371168004736"><ele>23.799999999999997</ele><time>2026-04-11T16:36:40Z</time></trkpt><trkpt lat="36.714039655880406" lon="14.774240850798073"><ele>23.599999999999998</ele><time>2026-04-11T16:36:41Z</time></trkpt><trkpt lat="36.71403222423359" lon="14.7741221625615"><ele>23.4</ele><time>2026-04-11T16:36:42Z</time></trkpt><trkpt lat="36.71402870344973" lon="14.773988613386203"><ele>23.2</ele><time>2026-04-11T16:36:43Z</time></trkpt><trkpt lat="36.714019726312706" lon="14.773843119270463"><ele>23.0</ele><time>2026-04-11T16:36:44Z</time></trkpt><trkpt lat="36.714012652037425" lon="14.773698377542507"><ele>23.0</ele><time>2026-04-11T16:36:45Z</time></trkpt><trkpt lat="36.7140049679008" lon="14.773566264589432"><ele>23.0</ele><time>2026-04-11T16:36:46Z</time></trkpt><trkpt lat="36.71400023915782" lon="14.773421729616334"><ele>23.0</ele><time>2026-04-11T16:36:47Z</time></trkpt><trkpt lat="36.71399278701076" lon="14.773280189147997"><ele>23.0</ele><time>2026-04-11T16:36:48Z</time></trkpt><trkpt lat="36.71398334198462" lon="14.773183008846242"><ele>23.0</ele><time>2026-04-11T16:36:49Z</time></trkpt><trkpt lat="36.71397946805978" lon="14.773082024912062"><ele>23.4</ele><time>2026-04-11T16:36:51Z</time></trkpt><trkpt lat="36.71396323663682" lon="14.772973141572777"><ele>23.799999999999997</ele><time>2026-04-11T16:36:58.001Z</time></trkpt><trkpt lat="36.71394977764388" lon="14.772861438288519"><ele>24.2</ele><time>2026-04-11T16:36:59.001Z</time></trkpt><trkpt lat="36.7139493171081" lon="14.77272955713274"><ele>24.6</ele><time>2026-04-11T16:37:00.001Z</time></trkpt><trkpt lat="36.71394410069699" lon="14.772602002748368"><ele>25.0</ele><time>2026-04-11T16:37:01.001Z</time></trkpt><trkpt lat="36.71393519110842" lon="14.77245861217274"><ele>25.25</ele><time>2026-04-11T16:37:02.001Z</time></trkpt><trkpt lat="36.71392638011892" lon="14.772313446733401"><ele>25.5</ele><time>2026-04-11T16:37:03.001Z</time></trkpt><trkpt lat="36.713920455930726" lon="14.772159709512655"><ele>25.75</ele><time>2026-04-11T16:37:04.001Z</time></trkpt><trkpt lat="36.71391438223318" lon="14.772014410104582"><ele>26.0</ele><time>2026-04-11T16:37:05.001Z</time></trkpt><trkpt lat="36.71390534035672" lon="14.771874867622936"><ele>25.4</ele><time>2026-04-11T16:37:06.001Z</time></trkpt><trkpt lat="36.71389773013536" lon="14.771731327448562"><ele>24.8</ele><time>2026-04-11T16:37:07.001Z</time></trkpt><trkpt lat="36.713893269254875" lon="14.771595410413557"><ele>24.2</ele><time>2026-04-11T16:37:08.001Z</time></trkpt><trkpt lat="36.71388762831946" lon="14.771468223153168"><ele>23.599999999999998</ele><time>2026-04-11T16:37:09.001Z</time></trkpt><trkpt lat="36.713881980697266" lon="14.771332449284541"><ele>23.0</ele><time>2026-04-11T16:37:10.001Z</time></trkpt><trkpt lat="36.71387448988472" lon="14.771183669811803"><ele>23.0</ele><time>2026-04-11T16:37:11.001Z</time></trkpt><trkpt lat="36.71386522240879" lon="14.771029757106499"><ele>23.0</ele><time>2026-04-11T16:37:12.001Z</time></trkpt><trkpt lat="36.713853444625975" lon="14.770878027299585"><ele>23.0</ele><time>2026-04-11T16:37:13.001Z</time></trkpt><trkpt lat="36.7138434727923" lon="14.770735615501994"><ele>23.0</ele><time>2026-04-11T16:37:14.001Z</time></trkpt><trkpt lat="36.71383839034111" lon="14.770608332184237"><ele>22.833333333333336</ele><time>2026-04-11T16:37:15.001Z</time></trkpt><trkpt lat="36.71383264824548" lon="14.770494403834308"><ele>22.666666666666668</ele><time>2026-04-11T16:37:16.001Z</time></trkpt><trkpt lat="36.71383374090488" lon="14.770399534241571"><ele>22.5</ele><time>2026-04-11T16:37:17.001Z</time></trkpt><trkpt lat="36.71383718793251" lon="14.770288274737046"><ele>22.333333333333332</ele><time>2026-04-11T16:37:19.001Z</time></trkpt><trkpt lat="36.71384586200166" lon="14.77020822676627"><ele>22.166666666666664</ele><time>2026-04-11T16:37:21.001Z</time></trkpt><trkpt lat="36.713828591589305" lon="14.77013197369513"><ele>22.0</ele><time>2026-04-11T16:37:24.001Z</time></trkpt><trkpt lat="36.71379345637541" lon="14.770051602169438"><ele>20.333333333333332</ele><time>2026-04-11T16:37:31.001Z</time></trkpt><trkpt lat="36.71353050036716" lon="14.770014829825849"><ele>18.666666666666668</ele><time>2026-04-11T16:37:40.001Z</time></trkpt><trkpt lat="36.713400009229076" lon="14.770034624972956"><ele>17.0</ele><time>2026-04-11T16:37:41.001Z</time></trkpt><trkpt lat="36.71325046757254" lon="14.770047557366203"><ele>17.0</ele><time>2026-04-11T16:37:42.001Z</time></trkpt><trkpt lat="36.71309432779633" lon="14.770061470713518"><ele>17.0</ele><time>2026-04-11T16:37:43.001Z</time></trkpt><trkpt lat="36.71293906317031" lon="14.770075903798773"><ele>17.0</ele><time>2026-04-11T16:37:44.001Z</time></trkpt><trkpt lat="36.71279307591649" lon="14.770082319308203"><ele>16.0</ele><time>2026-04-11T16:37:45.001Z</time></trkpt><trkpt lat="36.71264751191692" lon="14.770089736195231"><ele>15.0</ele><time>2026-04-11T16:37:46.001Z</time></trkpt><trkpt lat="36.712501020235464" lon="14.770101056284815"><ele>14.0</ele><time>2026-04-11T16:37:47.001Z</time></trkpt><trkpt lat="36.71236135408643" lon="14.77011484287144"><ele>13.0</ele><time>2026-04-11T16:37:48.001Z</time></trkpt><trkpt lat="36.71222487930455" lon="14.770123962500692"><ele>13.0</ele><time>2026-04-11T16:37:49.001Z</time></trkpt><trkpt lat="36.712097193944" lon="14.770135431088107"><ele>13.0</ele><time>2026-04-11T16:37:50.001Z</time></trkpt><trkpt lat="36.71197960060322" lon="14.770146700700364"><ele>13.0</ele><time>2026-04-11T16:37:51.001Z</time></trkpt><trkpt lat="36.71185267779042" lon="14.77015664337103"><ele>13.0</ele><time>2026-04-11T16:37:52.001Z</time></trkpt><trkpt lat="36.7117333966199" lon="14.770169274561406"><ele>12.0</ele><time>2026-04-11T16:37:53.001Z</time></trkpt><trkpt lat="36.711620878389" lon="14.770177876776486"><ele>11.0</ele><time>2026-04-11T16:37:54.001Z</time></trkpt><trkpt lat="36.711526302804515" lon="14.770180003320423"><ele>10.0</ele><time>2026-04-11T16:37:55.001Z</time></trkpt><trkpt lat="36.71144905985124" lon="14.770181971944647"><ele>9.0</ele><time>2026-04-11T16:37:56.001Z</time></trkpt><trkpt lat="36.711378355469115" lon="14.770186246897039"><ele>8.0</ele><time>2026-04-11T16:37:58Z</time></trkpt><trkpt lat="36.71140377932511" lon="14.769924728863751"><ele>7.999999999999999</ele><time>2026-04-11T16:38:01Z</time></trkpt><trkpt lat="36.71138467708756" lon="14.769806062615562"><ele>8.0</ele><time>2026-04-11T16:38:02Z</time></trkpt><trkpt lat="36.711380730302274" lon="14.769701909575176"><ele>8.0</ele><time>2026-04-11T16:38:03Z</time></trkpt><trkpt lat="36.71137816120426" lon="14.769601512626764"><ele>8.0</ele><time>2026-04-11T16:38:04Z</time></trkpt><trkpt lat="36.71137326044852" lon="14.769494384137003"><ele>7.999999999999999</ele><time>2026-04-11T16:38:05Z</time></trkpt><trkpt lat="36.71136777102897" lon="14.769404957473903"><ele>8.0</ele><time>2026-04-11T16:38:06Z</time></trkpt><trkpt lat="36.711357948399424" lon="14.769267613120663"><ele>8.0</ele><time>2026-04-11T16:38:08Z</time></trkpt><trkpt lat="36.71134632282345" lon="14.769114901446198"><ele>8.0</ele><time>2026-04-11T16:38:10Z</time></trkpt><trkpt lat="36.711339706313" lon="14.768991806665944"><ele>8.0</ele><time>2026-04-11T16:38:12Z</time></trkpt><trkpt lat="36.711351295493515" lon="14.768903632768206"><ele>8.0</ele><time>2026-04-11T16:38:14Z</time></trkpt><trkpt lat="36.711200302323626" lon="14.76888224675269"><ele>8.0</ele><time>2026-04-11T16:38:17Z</time></trkpt><trkpt lat="36.71110071573549" lon="14.768880078868678"><ele>7.166666666666666</ele><time>2026-04-11T16:38:19Z</time></trkpt><trkpt lat="36.711019422247205" lon="14.768899563364162"><ele>6.333333333333333</ele><time>2026-04-11T16:38:21Z</time></trkpt><trkpt lat="36.710970018454404" lon="14.768833859655084"><ele>5.5</ele><time>2026-04-11T16:38:23Z</time></trkpt><trkpt lat="36.71095855512264" lon="14.768726563210894"><ele>4.666666666666666</ele><time>2026-04-11T16:38:25Z</time></trkpt><trkpt lat="36.710960900999254" lon="14.768618877326599"><ele>3.833333333333333</ele><time>2026-04-11T16:38:26Z</time></trkpt><trkpt lat="36.71096431894084" lon="14.768479420620192"><ele>3.0</ele><time>2026-04-11T16:38:27Z</time></trkpt><trkpt lat="36.71096479618355" lon="14.768356548170738"><ele>2.8</ele><time>2026-04-11T16:38:28Z</time></trkpt><trkpt lat="36.71096313196106" lon="14.768259345862335"><ele>2.5999999999999996</ele><time>2026-04-11T16:38:29Z</time></trkpt><trkpt lat="36.710950763365496" lon="14.768139473532019"><ele>2.4000000000000004</ele><time>2026-04-11T16:38:30Z</time></trkpt><trkpt lat="36.71093232824527" lon="14.76802115788489"><ele>2.2</ele><time>2026-04-11T16:38:31Z</time></trkpt><trkpt lat="36.71091743279365" lon="14.767894333175997"><ele>2.0</ele><time>2026-04-11T16:38:32Z</time></trkpt><trkpt lat="36.71090955143906" lon="14.767785586617173"><ele>2.0</ele><time>2026-04-11T16:38:33Z</time></trkpt><trkpt lat="36.710909187741926" lon="14.767678935667632"><ele>2.0</ele><time>2026-04-11T16:38:34Z</time></trkpt><trkpt lat="36.71091438579349" lon="14.767560843730875"><ele>2.0</ele><time>2026-04-11T16:38:35Z</time></trkpt><trkpt lat="36.71092582826505" lon="14.767432723422125"><ele>2.0</ele><time>2026-04-11T16:38:36Z</time></trkpt><trkpt lat="36.710924897469184" lon="14.767290677231752"><ele>2.0</ele><time>2026-04-11T16:38:37Z</time></trkpt><trkpt lat="36.71091964841096" lon="14.767161406308121"><ele>2.0</ele><time>2026-04-11T16:38:38Z</time></trkpt><trkpt lat="36.71092055837628" lon="14.767024464060102"><ele>2.0</ele><time>2026-04-11T16:38:39Z</time></trkpt><trkpt lat="36.71091082395761" lon="14.766892961449367"><ele>2.0</ele><time>2026-04-11T16:38:40Z</time></trkpt><trkpt lat="36.71090486978831" lon="14.766757289394928"><ele>2.0</ele><time>2026-04-11T16:38:41Z</time></trkpt><trkpt lat="36.71089955601386" lon="14.766611179884343"><ele>2.0</ele><time>2026-04-11T16:38:42Z</time></trkpt><trkpt lat="36.710899089866764" lon="14.766481536082509"><ele>2.0</ele><time>2026-04-11T16:38:43Z</time></trkpt><trkpt lat="36.71089697809695" lon="14.766336116410475"><ele>2.0</ele><time>2026-04-11T16:38:44Z</time></trkpt><trkpt lat="36.710893251431195" lon="14.76620540741797"><ele>2.0</ele><time>2026-04-11T16:38:45Z</time></trkpt><trkpt lat="36.710885463620045" lon="14.766089524432413"><ele>2.0</ele><time>2026-04-11T16:38:46Z</time></trkpt><trkpt lat="36.710881885270965" lon="14.765970938844333"><ele>2.0</ele><time>2026-04-11T16:38:47.001Z</time></trkpt><trkpt lat="36.71087416693876" lon="14.765853349843663"><ele>2.0</ele><time>2026-04-11T16:38:48.001Z</time></trkpt><trkpt lat="36.71086526515241" lon="14.765719653625519"><ele>2.0</ele><time>2026-04-11T16:38:49.001Z</time></trkpt><trkpt lat="36.71086808138725" lon="14.76559553292952"><ele>2.0</ele><time>2026-04-11T16:38:50.001Z</time></trkpt><trkpt lat="36.71086463399731" lon="14.765468374466453"><ele>2.0</ele><time>2026-04-11T16:38:51.001Z</time></trkpt><trkpt lat="36.71085559928004" lon="14.765342893159712"><ele>2.0</ele><time>2026-04-11T16:38:52.001Z</time></trkpt><trkpt lat="36.710857113424254" lon="14.765218221778854"><ele>1.8333333333333333</ele><time>2026-04-11T16:38:53.001Z</time></trkpt><trkpt lat="36.71085313316326" lon="14.765122014716068"><ele>1.6666666666666665</ele><time>2026-04-11T16:38:54.001Z</time></trkpt><trkpt lat="36.71084890912751" lon="14.765019914138527"><ele>1.5</ele><time>2026-04-11T16:38:55.001Z</time></trkpt><trkpt lat="36.71081090077582" lon="14.764934360847812"><ele>1.3333333333333333</ele><time>2026-04-11T16:38:56.001Z</time></trkpt><trkpt lat="36.71080570806566" lon="14.764853056021908"><ele>1.1666666666666665</ele><time>2026-04-11T16:38:57.001Z</time></trkpt><trkpt lat="36.710803328651366" lon="14.764765816308557"><ele>1.0</ele><time>2026-04-11T16:38:58.001Z</time></trkpt><trkpt lat="36.7108023601548" lon="14.764615160361581"><ele>1.0</ele><time>2026-04-11T16:39:00.001Z</time></trkpt><trkpt lat="36.71078297481462" lon="14.764478560755492"><ele>1.0</ele><time>2026-04-11T16:39:02.001Z</time></trkpt><trkpt lat="36.71075125076693" lon="14.764348242966179"><ele>1.0</ele><time>2026-04-11T16:39:04.001Z</time></trkpt><trkpt lat="36.71073014521913" lon="14.764274254044444"><ele>1.0</ele><time>2026-04-11T16:39:05.001Z</time></trkpt><trkpt lat="36.710713070493696" lon="14.764185073773987"><ele>1.0</ele><time>2026-04-11T16:39:06.001Z</time></trkpt><trkpt lat="36.71069326695325" lon="14.764021771324439"><ele>1.2000000000000002</ele><time>2026-04-11T16:39:08.001Z</time></trkpt><trkpt lat="36.71065434755482" lon="14.763893437736188"><ele>1.4000000000000001</ele><time>2026-04-11T16:39:10.001Z</time></trkpt><trkpt lat="36.710618110412646" lon="14.763805612170936"><ele>1.6</ele><time>2026-04-11T16:39:12.001Z</time></trkpt><trkpt lat="36.71059885761021" lon="14.763711768930897"><ele>1.8</ele><time>2026-04-11T16:39:14.001Z</time></trkpt><trkpt lat="36.71058958834018" lon="14.763607345015243"><ele>2.0</ele><time>2026-04-11T16:39:16.001Z</time></trkpt><trkpt lat="36.71059091570976" lon="14.763478477863723"><ele>2.333333333333333</ele><time>2026-04-11T16:39:18.001Z</time></trkpt><trkpt lat="36.710585829735734" lon="14.763380553151983"><ele>2.6666666666666665</ele><time>2026-04-11T16:39:19.001Z</time></trkpt><trkpt lat="36.710575864446355" lon="14.763299476823741"><ele>3.0</ele><time>2026-04-11T16:39:20.001Z</time></trkpt><trkpt lat="36.71055233430837" lon="14.76320751614541"><ele>3.333333333333333</ele><time>2026-04-11T16:39:21.001Z</time></trkpt><trkpt lat="36.71052315757212" lon="14.763132147215332"><ele>3.6666666666666665</ele><time>2026-04-11T16:39:22.001Z</time></trkpt><trkpt lat="36.710521545689524" lon="14.762987872006722"><ele>4.0</ele><time>2026-04-11T16:39:24.001Z</time></trkpt><trkpt lat="36.71048209545269" lon="14.762829878588338"><ele>3.9999999999999996</ele><time>2026-04-11T16:39:26.001Z</time></trkpt><trkpt lat="36.71046227473387" lon="14.762750498977924"><ele>4.0</ele><time>2026-04-11T16:39:27.001Z</time></trkpt><trkpt lat="36.71042042862749" lon="14.762616232964115"><ele>4.0</ele><time>2026-04-11T16:39:29.001Z</time></trkpt><trkpt lat="36.710410490794736" lon="14.762533418353907"><ele>4.0</ele><time>2026-04-11T16:39:30.001Z</time></trkpt><trkpt lat="36.71043270727669" lon="14.762389249743784"><ele>3.9999999999999996</ele><time>2026-04-11T16:39:32.001Z</time></trkpt><trkpt lat="36.710440125756925" lon="14.762306761408961"><ele>4.0</ele><time>2026-04-11T16:39:33.001Z</time></trkpt><trkpt lat="36.710431290231625" lon="14.762219500687198"><ele>3.9999999999999996</ele><time>2026-04-11T16:39:34.001Z</time></trkpt><trkpt lat="36.71040852733882" lon="14.762143272170317"><ele>4.0</ele><time>2026-04-11T16:39:35.001Z</time></trkpt><trkpt lat="36.710385105900144" lon="14.762060617084115"><ele>4.0</ele><time>2026-04-11T16:39:36.001Z</time></trkpt><trkpt lat="36.710389487424436" lon="14.76189757210993"><ele>4.0</ele><time>2026-04-11T16:39:38.001Z</time></trkpt><trkpt lat="36.7103915929184" lon="14.76179476485057"><ele>3.9999999999999996</ele><time>2026-04-11T16:39:39.001Z</time></trkpt><trkpt lat="36.71038721017789" lon="14.761681584597772"><ele>4.0</ele><time>2026-04-11T16:39:40.001Z</time></trkpt><trkpt lat="36.71038226647982" lon="14.761559008468579"><ele>3.9999999999999996</ele><time>2026-04-11T16:39:42.001Z</time></trkpt><trkpt lat="36.7103963122084" lon="14.761465833988739"><ele>4.0</ele><time>2026-04-11T16:39:44.001Z</time></trkpt><trkpt lat="36.710401332758934" lon="14.761341772632951"><ele>4.0</ele><time>2026-04-11T16:39:47.001Z</time></trkpt><trkpt lat="36.71039658445507" lon="14.76122981412837"><ele>4.0</ele><time>2026-04-11T16:39:49.001Z</time></trkpt><trkpt lat="36.710423170469554" lon="14.761104981726088"><ele>3.9999999999999996</ele><time>2026-04-11T16:39:51.001Z</time></trkpt><trkpt lat="36.71042186269831" lon="14.7610077936962"><ele>4.0</ele><time>2026-04-11T16:39:52.001Z</time></trkpt><trkpt lat="36.71042985034005" lon="14.76090457301249"><ele>4.166666666666666</ele><time>2026-04-11T16:39:53.001Z</time></trkpt><trkpt lat="36.71045250094433" lon="14.760795736660068"><ele>4.333333333333333</ele><time>2026-04-11T16:39:54.001Z</time></trkpt><trkpt lat="36.71045065687528" lon="14.760711005364703"><ele>4.5</ele><time>2026-04-11T16:39:55.001Z</time></trkpt><trkpt lat="36.71048266307876" lon="14.76059174077058"><ele>4.666666666666667</ele><time>2026-04-11T16:39:57.001Z</time></trkpt><trkpt lat="36.71049748564694" lon="14.760511954817053"><ele>4.833333333333334</ele><time>2026-04-11T16:39:59.001Z</time></trkpt><trkpt lat="36.71050921592705" lon="14.760420252371743"><ele>5.0</ele><time>2026-04-11T16:40:01.001Z</time></trkpt><trkpt lat="36.71053159389877" lon="14.76030015662516"><ele>5.0</ele><time>2026-04-11T16:40:03.001Z</time></trkpt><trkpt lat="36.71055856376345" lon="14.760195218627546"><ele>5.0</ele><time>2026-04-11T16:40:05Z</time></trkpt><trkpt lat="36.71059245008866" lon="14.760104907316242"><ele>5.0</ele><time>2026-04-11T16:40:07Z</time></trkpt><trkpt lat="36.71060728594738" lon="14.760018682776133"><ele>5.0</ele><time>2026-04-11T16:40:09Z</time></trkpt><trkpt lat="36.710617122191735" lon="14.759934521942142"><ele>5.0</ele><time>2026-04-11T16:41:10.001Z</time></trkpt><trkpt lat="36.710626900775345" lon="14.759851846199238"><ele>5.0</ele><time>2026-04-11T16:41:12.001Z</time></trkpt><trkpt lat="36.71063425348013" lon="14.759750808193793"><ele>5.0</ele><time>2026-04-11T16:41:13.001Z</time></trkpt><trkpt lat="36.71065694340564" lon="14.759657292987008"><ele>5.0</ele><time>2026-04-11T16:41:14.001Z</time></trkpt><trkpt lat="36.71067154223504" lon="14.759576174775106"><ele>5.0</ele><time>2026-04-11T16:41:15.001Z</time></trkpt><trkpt lat="36.71063918747831" lon="14.759446746560185"><ele>5.0</ele><time>2026-04-11T16:41:17.001Z</time></trkpt><trkpt lat="36.710617273071485" lon="14.759372861524778"><ele>5.0</ele><time>2026-04-11T16:41:18.001Z</time></trkpt><trkpt lat="36.7106052749082" lon="14.759292477517876"><ele>5.0</ele><time>2026-04-11T16:41:19.001Z</time></trkpt><trkpt lat="36.71063458107893" lon="14.759163408384598"><ele>4.833333333333334</ele><time>2026-04-11T16:41:21.001Z</time></trkpt><trkpt lat="36.71064741153682" lon="14.759082723810534"><ele>4.666666666666667</ele><time>2026-04-11T16:41:22.001Z</time></trkpt><trkpt lat="36.710644802396764" lon="14.758985652391631"><ele>4.5</ele><time>2026-04-11T16:41:23.001Z</time></trkpt><trkpt lat="36.71066515102419" lon="14.758895459946105"><ele>4.333333333333333</ele><time>2026-04-11T16:41:24.001Z</time></trkpt><trkpt lat="36.71067868000001" lon="14.75880106290859"><ele>4.166666666666666</ele><time>2026-04-11T16:41:25.001Z</time></trkpt><trkpt lat="36.7106901403003" lon="14.758651146726752"><ele>4.0</ele><time>2026-04-11T16:41:27.001Z</time></trkpt><trkpt lat="36.710693079867106" lon="14.758571446956648"><ele>4.0</ele><time>2026-04-11T16:41:28.001Z</time></trkpt><trkpt lat="36.71069579188594" lon="14.758470369449014"><ele>4.0</ele><time>2026-04-11T16:41:29.001Z</time></trkpt><trkpt lat="36.71068762671055" lon="14.758375074908466"><ele>4.0</ele><time>2026-04-11T16:41:30.001Z</time></trkpt><trkpt lat="36.71071270045073" lon="14.758235004019589"><ele>4.0</ele><time>2026-04-11T16:41:32.001Z</time></trkpt><trkpt lat="36.71072738011728" lon="14.758081359320549"><ele>4.0</ele><time>2026-04-11T16:41:34.001Z</time></trkpt><trkpt lat="36.7107234387608" lon="14.757988354634684"><ele>4.0</ele><time>2026-04-11T16:41:35.001Z</time></trkpt><trkpt lat="36.71074116420879" lon="14.757910334056426"><ele>3.9999999999999996</ele><time>2026-04-11T16:41:36.001Z</time></trkpt><trkpt lat="36.710770891065856" lon="14.75783781841703"><ele>4.0</ele><time>2026-04-11T16:41:37.001Z</time></trkpt><trkpt lat="36.71077496164456" lon="14.757746360138324"><ele>4.0</ele><time>2026-04-11T16:41:38.001Z</time></trkpt><trkpt lat="36.71080077402236" lon="14.757671874925903"><ele>3.9999999999999996</ele><time>2026-04-11T16:41:39.001Z</time></trkpt><trkpt lat="36.71083618881533" lon="14.75756883830074"><ele>4.0</ele><time>2026-04-11T16:41:41.001Z</time></trkpt><trkpt lat="36.710882697193995" lon="14.757506189786822"><ele>4.0</ele><time>2026-04-11T16:41:43.001Z</time></trkpt><trkpt lat="36.71090926129466" lon="14.757434384021188"><ele>3.9999999999999996</ele><time>2026-04-11T16:41:45.001Z</time></trkpt><trkpt lat="36.710961740468704" lon="14.757364804520048"><ele>4.0</ele><time>2026-04-11T16:41:47.001Z</time></trkpt><trkpt lat="36.71101013172947" lon="14.757293479867755"><ele>4.0</ele><time>2026-04-11T16:41:49.001Z</time></trkpt><trkpt lat="36.7110794691933" lon="14.757226899521923"><ele>4.0</ele><time>2026-04-11T16:41:52.001Z</time></trkpt><trkpt lat="36.711119122870336" lon="14.757129469483969"><ele>3.9999999999999996</ele><time>2026-04-11T16:41:54.001Z</time></trkpt><trkpt lat="36.71121572706477" lon="14.757140207921129"><ele>4.0</ele><time>2026-04-11T16:41:55.001Z</time></trkpt><trkpt lat="36.71129887919676" lon="14.757090837563767"><ele>3.8000000000000003</ele><time>2026-04-11T16:41:57.001Z</time></trkpt><trkpt lat="36.711364674125164" lon="14.757025818775274"><ele>3.6000000000000005</ele><time>2026-04-11T16:41:59.001Z</time></trkpt><trkpt lat="36.71146384560219" lon="14.756953351164315"><ele>3.4</ele><time>2026-04-11T16:42:03.001Z</time></trkpt><trkpt lat="36.711554785799784" lon="14.756865698676918"><ele>3.2</ele><time>2026-04-11T16:42:05.001Z</time></trkpt><trkpt lat="36.711616393505636" lon="14.756782168958548"><ele>3.0</ele><time>2026-04-11T16:42:07.001Z</time></trkpt><trkpt lat="36.71167201958109" lon="14.756736840146823"><ele>3.0</ele><time>2026-04-11T16:42:08.001Z</time></trkpt><trkpt lat="36.71175941781912" lon="14.756695925600875"><ele>3.0</ele><time>2026-04-11T16:42:10Z</time></trkpt><trkpt lat="36.711843410024656" lon="14.756678854993568"><ele>3.0</ele><time>2026-04-11T16:42:12Z</time></trkpt><trkpt lat="36.71192046800055" lon="14.756661248754414"><ele>3.0</ele><time>2026-04-11T16:42:14Z</time></trkpt><trkpt lat="36.712007904136335" lon="14.75666646370402"><ele>3.0</ele><time>2026-04-11T16:42:16Z</time></trkpt><trkpt lat="36.712120660495735" lon="14.756656726075967"><ele>3.8</ele><time>2026-04-11T16:42:18Z</time></trkpt><trkpt lat="36.71223625950137" lon="14.756636945990373"><ele>4.6</ele><time>2026-04-11T16:42:20Z</time></trkpt><trkpt lat="36.71230243846333" lon="14.756628282905728"><ele>5.3999999999999995</ele><time>2026-04-11T16:42:21Z</time></trkpt><trkpt lat="36.71242690200682" lon="14.75662308094584"><ele>6.199999999999999</ele><time>2026-04-11T16:42:23Z</time></trkpt><trkpt lat="36.71251922696681" lon="14.756610844639967"><ele>7.0</ele><time>2026-04-11T16:42:24Z</time></trkpt><trkpt lat="36.71262797064707" lon="14.756594429869757"><ele>7.0</ele><time>2026-04-11T16:42:25Z</time></trkpt><trkpt lat="36.7127521134659" lon="14.756604707781104"><ele>7.0</ele><time>2026-04-11T16:42:26Z</time></trkpt><trkpt lat="36.71289988156784" lon="14.756584051037692"><ele>7.0</ele><time>2026-04-11T16:42:27Z</time></trkpt><trkpt lat="36.71299691425399" lon="14.756571338595533"><ele>7.0</ele><time>2026-04-11T16:42:28Z</time></trkpt><trkpt lat="36.7130769799334" lon="14.756561908706722"><ele>7.0</ele><time>2026-04-11T16:42:29Z</time></trkpt><trkpt lat="36.71314231839808" lon="14.756554213384991"><ele>6.999999999999999</ele><time>2026-04-11T16:42:30Z</time></trkpt><trkpt lat="36.71325588709071" lon="14.75654608717552"><ele>6.999999999999999</ele><time>2026-04-11T16:42:32Z</time></trkpt><trkpt lat="36.71333782575823" lon="14.756547822161991"><ele>7.0</ele><time>2026-04-11T16:42:34Z</time></trkpt><trkpt lat="36.71343859385973" lon="14.75655184807536"><ele>7.0</ele><time>2026-04-11T16:42:36Z</time></trkpt><trkpt lat="36.71355274129405" lon="14.756558661732958"><ele>6.75</ele><time>2026-04-11T16:42:38Z</time></trkpt><trkpt lat="36.71366783362118" lon="14.756567123510377"><ele>6.5</ele><time>2026-04-11T16:42:40Z</time></trkpt><trkpt lat="36.713795065838305" lon="14.756560656379754"><ele>6.25</ele><time>2026-04-11T16:42:42Z</time></trkpt><trkpt lat="36.71392516747485" lon="14.75659727258341"><ele>6.0</ele><time>2026-04-11T16:42:44.001Z</time></trkpt><trkpt lat="36.7139992784436" lon="14.75660653188926"><ele>6.0</ele><time>2026-04-11T16:42:45.001Z</time></trkpt><trkpt lat="36.71413238657979" lon="14.756622309599367"><ele>6.0</ele><time>2026-04-11T16:42:47.001Z</time></trkpt><trkpt lat="36.71422109489883" lon="14.756632824487673"><ele>6.0</ele><time>2026-04-11T16:42:48.001Z</time></trkpt><trkpt lat="36.71429153904931" lon="14.756645631159294"><ele>6.0</ele><time>2026-04-11T16:42:49.001Z</time></trkpt><trkpt lat="36.71438363849541" lon="14.756709452147211"><ele>6.0</ele><time>2026-04-11T16:42:51.001Z</time></trkpt><trkpt lat="36.714503865125046" lon="14.756708149466753"><ele>6.25</ele><time>2026-04-11T16:42:53.001Z</time></trkpt><trkpt lat="36.71459769098619" lon="14.756654803511442"><ele>6.5</ele><time>2026-04-11T16:42:55.001Z</time></trkpt><trkpt lat="36.714667117392345" lon="14.756559159591458"><ele>6.75</ele><time>2026-04-11T16:42:57.001Z</time></trkpt><trkpt lat="36.71472751240451" lon="14.756532530969725"><ele>7.0</ele><time>2026-04-11T16:43:00.001Z</time></trkpt><trkpt lat="36.71488643100674" lon="14.75676603451293"><ele>7.0</ele><time>2026-04-11T16:43:10.001Z</time></trkpt><trkpt lat="36.714923935622195" lon="14.756839823251958"><ele>6.999999999999999</ele><time>2026-04-11T16:43:12.001Z</time></trkpt><trkpt lat="36.71491652479248" lon="14.756919971964791"><ele>6.999999999999999</ele><time>2026-04-11T16:43:15.001Z</time></trkpt><trkpt lat="36.7148994935316" lon="14.757022034164539"><ele>7.0</ele><time>2026-04-11T16:43:18.001Z</time></trkpt><trkpt lat="36.71490666767291" lon="14.75718201109219"><ele>7.0</ele><time>2026-04-11T16:43:20.001Z</time></trkpt><trkpt lat="36.71489751325829" lon="14.757310426101016"><ele>8.0</ele><time>2026-04-11T16:43:21.001Z</time></trkpt><trkpt lat="36.71488359418525" lon="14.757394153507619"><ele>9.0</ele><time>2026-04-11T16:43:22.001Z</time></trkpt><trkpt lat="36.714845212153634" lon="14.757469263534581"><ele>10.0</ele><time>2026-04-11T16:43:23.001Z</time></trkpt><trkpt lat="36.71479344330712" lon="14.757555424171375"><ele>11.0</ele><time>2026-04-11T16:43:24.001Z</time></trkpt><trkpt lat="36.714737319249465" lon="14.757640886410853"><ele>11.999999999999998</ele><time>2026-04-11T16:43:25.001Z</time></trkpt><trkpt lat="36.71468818178048" lon="14.757704009989006"><ele>13.0</ele><time>2026-04-11T16:43:26.001Z</time></trkpt><trkpt lat="36.71466009776599" lon="14.75777904603423"><ele>13.600000000000001</ele><time>2026-04-11T16:43:27.001Z</time></trkpt><trkpt lat="36.71462835157321" lon="14.757927937907931"><ele>14.200000000000001</ele><time>2026-04-11T16:43:29.001Z</time></trkpt><trkpt lat="36.71463275629229" lon="14.7580243379633"><ele>14.8</ele><time>2026-04-11T16:43:30.001Z</time></trkpt><trkpt lat="36.71463982846461" lon="14.758136441393635"><ele>15.4</ele><time>2026-04-11T16:43:31.001Z</time></trkpt><trkpt lat="36.714639969592916" lon="14.75825318173626"><ele>16.0</ele><time>2026-04-11T16:43:32.001Z</time></trkpt><trkpt lat="36.71464417688975" lon="14.758374379189155"><ele>15.999999999999998</ele><time>2026-04-11T16:43:33.001Z</time></trkpt><trkpt lat="36.714651655443525" lon="14.75849797146312"><ele>16.0</ele><time>2026-04-11T16:43:34.001Z</time></trkpt><trkpt lat="36.71466458034666" lon="14.758600767505804"><ele>16.0</ele><time>2026-04-11T16:43:35.001Z</time></trkpt><trkpt lat="36.71468386260208" lon="14.75868519037125"><ele>16.0</ele><time>2026-04-11T16:43:36.001Z</time></trkpt><trkpt lat="36.71470710413289" lon="14.758776862103769"><ele>15.999999999999998</ele><time>2026-04-11T16:43:37.001Z</time></trkpt><trkpt lat="36.71474059562729" lon="14.758865659274532"><ele>16.0</ele><time>2026-04-11T16:43:38.001Z</time></trkpt><trkpt lat="36.71478962319689" lon="14.758969593874909"><ele>17.0</ele><time>2026-04-11T16:43:40.001Z</time></trkpt><trkpt lat="36.714838171122715" lon="14.759027122040589"><ele>18.0</ele><time>2026-04-11T16:43:44.001Z</time></trkpt><trkpt lat="36.714900315694514" lon="14.759093378096257"><ele>19.0</ele><time>2026-04-11T16:44:13.001Z</time></trkpt><trkpt lat="36.71503471924722" lon="14.758925852137619"><ele>20.0</ele><time>2026-04-11T16:44:14.001Z</time></trkpt><trkpt lat="36.715146453475725" lon="14.75880954867924"><ele>20.666666666666668</ele><time>2026-04-11T16:44:15.001Z</time></trkpt><trkpt lat="36.71529803970692" lon="14.758639652070082"><ele>21.333333333333332</ele><time>2026-04-11T16:44:16Z</time></trkpt><trkpt lat="36.71549612335099" lon="14.758465169325891"><ele>22.0</ele><time>2026-04-11T16:44:17Z</time></trkpt><trkpt lat="36.715735803897054" lon="14.758261106142347"><ele>19.5</ele><time>2026-04-11T16:44:18Z</time></trkpt><trkpt lat="36.71597560450833" lon="14.758057959724256"><ele>17.0</ele><time>2026-04-11T16:44:19Z</time></trkpt><trkpt lat="36.71624392034153" lon="14.757814383875214"><ele>15.0</ele><time>2026-04-11T16:44:20Z</time></trkpt><trkpt lat="36.71652293672604" lon="14.75759013370461"><ele>13.0</ele><time>2026-04-11T16:44:21Z</time></trkpt><trkpt lat="36.716773761124905" lon="14.757389252970293"><ele>11.5</ele><time>2026-04-11T16:44:22Z</time></trkpt><trkpt lat="36.717030087042986" lon="14.757171247517286"><ele>10.0</ele><time>2026-04-11T16:44:23Z</time></trkpt><trkpt lat="36.71726406039696" lon="14.7569638630281"><ele>9.0</ele><time>2026-04-11T16:44:24Z</time></trkpt><trkpt lat="36.71748782748228" lon="14.756777334652533"><ele>8.0</ele><time>2026-04-11T16:44:25Z</time></trkpt><trkpt lat="36.717706544348495" lon="14.756587073497958"><ele>6.0</ele><time>2026-04-11T16:44:26Z</time></trkpt><trkpt lat="36.71791587991144" lon="14.756382821123397"><ele>4.0</ele><time>2026-04-11T16:44:27Z</time></trkpt><trkpt lat="36.71811552493588" lon="14.75616437014052"><ele>5.0</ele><time>2026-04-11T16:44:28Z</time></trkpt><trkpt lat="36.718286015467385" lon="14.755954610186567"><ele>6.0</ele><time>2026-04-11T16:44:29Z</time></trkpt><trkpt lat="36.718442964169796" lon="14.755747498772148"><ele>4.666666666666667</ele><time>2026-04-11T16:44:30Z</time></trkpt><trkpt lat="36.718594743332886" lon="14.755540680050645"><ele>3.333333333333333</ele><time>2026-04-11T16:44:31Z</time></trkpt><trkpt lat="36.71873356337716" lon="14.755363793661445"><ele>2.0</ele><time>2026-04-11T16:44:32Z</time></trkpt><trkpt lat="36.71886741466898" lon="14.7551985393846"><ele>2.0</ele><time>2026-04-11T16:44:33Z</time></trkpt><trkpt lat="36.71898049971269" lon="14.75505717093313"><ele>2.0</ele><time>2026-04-11T16:44:34Z</time></trkpt><trkpt lat="36.71907104932075" lon="14.754952260684536"><ele>2.0</ele><time>2026-04-11T16:44:35Z</time></trkpt><trkpt lat="36.719140681378015" lon="14.754871146956102"><ele>2.0</ele><time>2026-04-11T16:44:36Z</time></trkpt><trkpt lat="36.71919345472155" lon="14.75481115893865"><ele>1.9999999999999998</ele><time>2026-04-11T16:44:37Z</time></trkpt><trkpt lat="36.71925912761399" lon="14.754741531722669"><ele>2.0</ele><time>2026-04-11T16:44:39Z</time></trkpt><trkpt lat="36.71931694579399" lon="14.754691922519848"><ele>2.0</ele><time>2026-04-11T16:44:44Z</time></trkpt><trkpt lat="36.719412648191074" lon="14.754687386750508"><ele>2.0</ele><time>2026-04-11T16:44:56Z</time></trkpt><trkpt lat="36.71948131949899" lon="14.754683408711742"><ele>1.9999999999999998</ele><time>2026-04-11T16:44:57Z</time></trkpt><trkpt lat="36.71956212730531" lon="14.754668362624145"><ele>2.0</ele><time>2026-04-11T16:44:58.001Z</time></trkpt><trkpt lat="36.71967152278116" lon="14.754635226111503"><ele>2.4000000000000004</ele><time>2026-04-11T16:44:59.001Z</time></trkpt><trkpt lat="36.719774171244104" lon="14.754601829214861"><ele>2.8000000000000003</ele><time>2026-04-11T16:45:00.001Z</time></trkpt><trkpt lat="36.71987178197505" lon="14.754570266823821"><ele>3.2</ele><time>2026-04-11T16:45:01.001Z</time></trkpt><trkpt lat="36.71996539641337" lon="14.754572576988835"><ele>3.6</ele><time>2026-04-11T16:45:02.001Z</time></trkpt><trkpt lat="36.720054288074394" lon="14.754546933092973"><ele>4.0</ele><time>2026-04-11T16:45:03.001Z</time></trkpt><trkpt lat="36.72016835719714" lon="14.75451402588198"><ele>3.8000000000000003</ele><time>2026-04-11T16:45:04.001Z</time></trkpt><trkpt lat="36.72029391910963" lon="14.75448282838347"><ele>3.6000000000000005</ele><time>2026-04-11T16:45:05.001Z</time></trkpt><trkpt lat="36.72039955309239" lon="14.754460795159083"><ele>3.4</ele><time>2026-04-11T16:45:06.001Z</time></trkpt><trkpt lat="36.720482763085215" lon="14.7544497592728"><ele>3.2</ele><time>2026-04-11T16:45:07.001Z</time></trkpt><trkpt lat="36.72056126769607" lon="14.754440996317074"><ele>3.0</ele><time>2026-04-11T16:45:08.001Z</time></trkpt><trkpt lat="36.72062881014113" lon="14.754434001018371"><ele>3.0</ele><time>2026-04-11T16:45:09.001Z</time></trkpt><trkpt lat="36.72073769104456" lon="14.754423928587618"><ele>3.0</ele><time>2026-04-11T16:45:11.001Z</time></trkpt><trkpt lat="36.72084902098458" lon="14.75440502328104"><ele>3.0</ele><time>2026-04-11T16:45:13.001Z</time></trkpt><trkpt lat="36.72091602058215" lon="14.754419071297198"><ele>3.0</ele><time>2026-04-11T16:45:14.001Z</time></trkpt><trkpt lat="36.7209820623925" lon="14.754437774155962"><ele>3.0</ele><time>2026-04-11T16:45:15.001Z</time></trkpt><trkpt lat="36.72104653850727" lon="14.754447142102562"><ele>3.0</ele><time>2026-04-11T16:45:16.001Z</time></trkpt><trkpt lat="36.721110530942816" lon="14.754452715775207"><ele>3.0</ele><time>2026-04-11T16:45:17.001Z</time></trkpt><trkpt lat="36.72122453550261" lon="14.754467743697587"><ele>3.0</ele><time>2026-04-11T16:45:19.001Z</time></trkpt><trkpt lat="36.72132699258425" lon="14.754482998013323"><ele>3.0</ele><time>2026-04-11T16:45:21.001Z</time></trkpt><trkpt lat="36.72145052963754" lon="14.754499250300135"><ele>3.0</ele><time>2026-04-11T16:45:23.001Z</time></trkpt><trkpt lat="36.72157471092696" lon="14.754542738665862"><ele>3.0</ele><time>2026-04-11T16:45:24.001Z</time></trkpt><trkpt lat="36.7217233229765" lon="14.754599781257088"><ele>3.0</ele><time>2026-04-11T16:45:25.001Z</time></trkpt><trkpt lat="36.721870396459956" lon="14.754660145701767"><ele>3.0</ele><time>2026-04-11T16:45:26.001Z</time></trkpt><trkpt lat="36.72197616877087" lon="14.75470306932427"><ele>3.0</ele><time>2026-04-11T16:45:27.001Z</time></trkpt><trkpt lat="36.72205132737682" lon="14.75473113534685"><ele>3.8</ele><time>2026-04-11T16:45:28.001Z</time></trkpt><trkpt lat="36.72214596672985" lon="14.754765458073743"><ele>4.6</ele><time>2026-04-11T16:45:30.001Z</time></trkpt><trkpt lat="36.722220543397505" lon="14.754783011640349"><ele>5.3999999999999995</ele><time>2026-04-11T16:45:34.001Z</time></trkpt><trkpt lat="36.722283142449406" lon="14.754681679720466"><ele>6.199999999999999</ele><time>2026-04-11T16:45:41.001Z</time></trkpt><trkpt lat="36.722216999997734" lon="14.754719161818837"><ele>7.0</ele><time>2026-04-11T16:46:22Z</time></trkpt><trkpt lat="36.72207074887923" lon="14.754668121079455"><ele>7.0</ele><time>2026-04-11T16:46:23Z</time></trkpt><trkpt lat="36.72198219772703" lon="14.754625436726913"><ele>6.999999999999999</ele><time>2026-04-11T16:46:24Z</time></trkpt><trkpt lat="36.721886431464306" lon="14.754578717870723"><ele>6.999999999999999</ele><time>2026-04-11T16:46:25Z</time></trkpt><trkpt lat="36.72178000778116" lon="14.754535797174077"><ele>7.0</ele><time>2026-04-11T16:46:26Z</time></trkpt><trkpt lat="36.72166570667492" lon="14.754493836794415"><ele>7.0</ele><time>2026-04-11T16:46:27Z</time></trkpt><trkpt lat="36.7215562497645" lon="14.754451843989694"><ele>6.199999999999999</ele><time>2026-04-11T16:46:28Z</time></trkpt><trkpt lat="36.72145874209773" lon="14.75442120399717"><ele>5.3999999999999995</ele><time>2026-04-11T16:46:29Z</time></trkpt><trkpt lat="36.72136250217396" lon="14.754400497153773"><ele>4.6</ele><time>2026-04-11T16:46:30Z</time></trkpt><trkpt lat="36.72127773842805" lon="14.754389923623188"><ele>3.8</ele><time>2026-04-11T16:46:31Z</time></trkpt><trkpt lat="36.72118937390365" lon="14.754376658931243"><ele>3.0</ele><time>2026-04-11T16:46:32Z</time></trkpt><trkpt lat="36.72109474984337" lon="14.754364275799142"><ele>3.0</ele><time>2026-04-11T16:46:33Z</time></trkpt><trkpt lat="36.721018409261184" lon="14.75435816958363"><ele>3.0</ele><time>2026-04-11T16:46:34Z</time></trkpt><trkpt lat="36.72094094664237" lon="14.754349058198668"><ele>3.0</ele><time>2026-04-11T16:46:37Z</time></trkpt><trkpt lat="36.7208763813135" lon="14.75435336412669"><ele>3.0</ele><time>2026-04-11T16:46:57Z</time></trkpt><trkpt lat="36.72080899246646" lon="14.754380696967841"><ele>3.0</ele><time>2026-04-11T16:46:58Z</time></trkpt><trkpt lat="36.72073052790225" lon="14.754403148395102"><ele>3.0</ele><time>2026-04-11T16:46:59Z</time></trkpt><trkpt lat="36.72064414209609" lon="14.75439091409316"><ele>3.0</ele><time>2026-04-11T16:47:00Z</time></trkpt><trkpt lat="36.72054377902128" lon="14.754401247695075"><ele>3.0</ele><time>2026-04-11T16:47:01Z</time></trkpt><trkpt lat="36.72043226797794" lon="14.754415230484703"><ele>3.0</ele><time>2026-04-11T16:47:02Z</time></trkpt><trkpt lat="36.72029961728281" lon="14.754439406972581"><ele>3.0</ele><time>2026-04-11T16:47:03Z</time></trkpt><trkpt lat="36.72017239284738" lon="14.754470343209885"><ele>3.1666666666666665</ele><time>2026-04-11T16:47:04Z</time></trkpt><trkpt lat="36.72006669735072" lon="14.754521184330873"><ele>3.333333333333333</ele><time>2026-04-11T16:47:05Z</time></trkpt><trkpt lat="36.71997973460527" lon="14.754542971921817"><ele>3.5</ele><time>2026-04-11T16:47:06Z</time></trkpt><trkpt lat="36.71989533520353" lon="14.754566317405677"><ele>3.6666666666666665</ele><time>2026-04-11T16:47:07Z</time></trkpt><trkpt lat="36.71982056297418" lon="14.754566909480202"><ele>3.833333333333333</ele><time>2026-04-11T16:47:08Z</time></trkpt><trkpt lat="36.71976133684353" lon="14.754539665772851"><ele>4.0</ele><time>2026-04-11T16:47:09Z</time></trkpt><trkpt lat="36.71971221925962" lon="14.754484920729189"><ele>4.0</ele><time>2026-04-11T16:47:10Z</time></trkpt><trkpt lat="36.71967254215813" lon="14.754338001323996"><ele>4.0</ele><time>2026-04-11T16:47:12.001Z</time></trkpt><trkpt lat="36.719625979837204" lon="14.754271004839289"><ele>4.0</ele><time>2026-04-11T16:47:14.001Z</time></trkpt><trkpt lat="36.71977059548862" lon="14.75407583100998"><ele>4.0</ele><time>2026-04-11T16:47:18.001Z</time></trkpt><trkpt lat="36.7198518541691" lon="14.753966279441544"><ele>4.0</ele><time>2026-04-11T16:47:19.001Z</time></trkpt><trkpt lat="36.71996024416848" lon="14.753847939279844"><ele>4.0</ele><time>2026-04-11T16:47:20.001Z</time></trkpt><trkpt lat="36.72007864957311" lon="14.75370648700698"><ele>4.0</ele><time>2026-04-11T16:47:21.001Z</time></trkpt><trkpt lat="36.72020819872133" lon="14.75354247391717"><ele>3.6666666666666665</ele><time>2026-04-11T16:47:22.001Z</time></trkpt><trkpt lat="36.720343307274966" lon="14.753369777524599"><ele>3.333333333333333</ele><time>2026-04-11T16:47:23.001Z</time></trkpt><trkpt lat="36.7204664464824" lon="14.75321243056249"><ele>3.0</ele><time>2026-04-11T16:47:24.001Z</time></trkpt><trkpt lat="36.72058025616235" lon="14.753066663331456"><ele>3.0</ele><time>2026-04-11T16:47:25.001Z</time></trkpt><trkpt lat="36.72069803858385" lon="14.752916897082482"><ele>3.0</ele><time>2026-04-11T16:47:26.001Z</time></trkpt><trkpt lat="36.720815092014796" lon="14.752767404569022"><ele>3.0</ele><time>2026-04-11T16:47:27.001Z</time></trkpt><trkpt lat="36.72093808667711" lon="14.752622485558936"><ele>3.0</ele><time>2026-04-11T16:47:28.001Z</time></trkpt><trkpt lat="36.72106305950406" lon="14.752468520367964"><ele>3.0</ele><time>2026-04-11T16:47:29.001Z</time></trkpt><trkpt lat="36.72119082747696" lon="14.752326668446386"><ele>3.0</ele><time>2026-04-11T16:47:30.001Z</time></trkpt><trkpt lat="36.721306221579056" lon="14.752171979880103"><ele>3.0</ele><time>2026-04-11T16:47:31.001Z</time></trkpt><trkpt lat="36.721426685665556" lon="14.752016658230596"><ele>3.0</ele><time>2026-04-11T16:47:32.001Z</time></trkpt><trkpt lat="36.721551229837225" lon="14.751862793618736"><ele>3.0</ele><time>2026-04-11T16:47:33.001Z</time></trkpt><trkpt lat="36.72167611529718" lon="14.751710538921978"><ele>2.6666666666666665</ele><time>2026-04-11T16:47:34.001Z</time></trkpt><trkpt lat="36.72179826050864" lon="14.751559932464763"><ele>2.333333333333333</ele><time>2026-04-11T16:47:35.001Z</time></trkpt><trkpt lat="36.72191929929571" lon="14.75141126774984"><ele>2.0</ele><time>2026-04-11T16:47:36.001Z</time></trkpt><trkpt lat="36.7220388591319" lon="14.751263723989595"><ele>2.6666666666666665</ele><time>2026-04-11T16:47:37.001Z</time></trkpt><trkpt lat="36.72215846731346" lon="14.751111227944845"><ele>3.333333333333333</ele><time>2026-04-11T16:47:38.001Z</time></trkpt><trkpt lat="36.722278164584026" lon="14.750959613488964"><ele>4.0</ele><time>2026-04-11T16:47:39.001Z</time></trkpt><trkpt lat="36.722398739354034" lon="14.750810996619366"><ele>4.333333333333333</ele><time>2026-04-11T16:47:40.001Z</time></trkpt><trkpt lat="36.722518290552046" lon="14.750665111324064"><ele>4.666666666666667</ele><time>2026-04-11T16:47:41.001Z</time></trkpt><trkpt lat="36.72263927820906" lon="14.750515068227799"><ele>5.0</ele><time>2026-04-11T16:47:42.001Z</time></trkpt><trkpt lat="36.722762593112705" lon="14.750362436569697"><ele>5.0</ele><time>2026-04-11T16:47:43.001Z</time></trkpt><trkpt lat="36.72288748016839" lon="14.750204595730631"><ele>5.0</ele><time>2026-04-11T16:47:44.001Z</time></trkpt><trkpt lat="36.72300760783542" lon="14.750042749357771"><ele>5.0</ele><time>2026-04-11T16:47:45.001Z</time></trkpt><trkpt lat="36.723117162118676" lon="14.749871920092254"><ele>5.0</ele><time>2026-04-11T16:47:46.001Z</time></trkpt><trkpt lat="36.72321687159065" lon="14.749695322667728"><ele>5.0</ele><time>2026-04-11T16:47:47.001Z</time></trkpt><trkpt lat="36.72330656022965" lon="14.749515963228022"><ele>5.0</ele><time>2026-04-11T16:47:48.001Z</time></trkpt><trkpt lat="36.72338399540939" lon="14.749334310594232"><ele>5.0</ele><time>2026-04-11T16:47:49.001Z</time></trkpt><trkpt lat="36.72344697340098" lon="14.749160777342807"><ele>5.0</ele><time>2026-04-11T16:47:50.001Z</time></trkpt><trkpt lat="36.72349868111903" lon="14.748996191976971"><ele>5.0</ele><time>2026-04-11T16:47:51.001Z</time></trkpt><trkpt lat="36.72354871648177" lon="14.748832124464057"><ele>5.0</ele><time>2026-04-11T16:47:52.001Z</time></trkpt><trkpt lat="36.723591532129824" lon="14.748664542961397"><ele>5.0</ele><time>2026-04-11T16:47:53.001Z</time></trkpt><trkpt lat="36.72362551583763" lon="14.748492515488495"><ele>5.0</ele><time>2026-04-11T16:47:54.001Z</time></trkpt><trkpt lat="36.723651376572924" lon="14.748316387365795"><ele>5.0</ele><time>2026-04-11T16:47:55.001Z</time></trkpt><trkpt lat="36.72366941256129" lon="14.748129848585"><ele>5.0</ele><time>2026-04-11T16:47:56.001Z</time></trkpt><trkpt lat="36.723688312835" lon="14.747948254253439"><ele>5.0</ele><time>2026-04-11T16:47:57.001Z</time></trkpt><trkpt lat="36.7237019056359" lon="14.747771296497291"><ele>5.0</ele><time>2026-04-11T16:47:58.001Z</time></trkpt><trkpt lat="36.72370929456317" lon="14.747601934935728"><ele>5.0</ele><time>2026-04-11T16:47:59.001Z</time></trkpt><trkpt lat="36.72370292653452" lon="14.747427121459056"><ele>5.0</ele><time>2026-04-11T16:48:00.001Z</time></trkpt><trkpt lat="36.72369636039505" lon="14.747265448196547"><ele>6.0</ele><time>2026-04-11T16:48:01.001Z</time></trkpt><trkpt lat="36.72368834895069" lon="14.747112712219822"><ele>7.0</ele><time>2026-04-11T16:48:02.001Z</time></trkpt><trkpt lat="36.72367087865141" lon="14.74695648967022"><ele>8.0</ele><time>2026-04-11T16:48:03.001Z</time></trkpt><trkpt lat="36.723648786616224" lon="14.746807968202578"><ele>9.0</ele><time>2026-04-11T16:48:04.001Z</time></trkpt><trkpt lat="36.72362742479335" lon="14.746685531796965"><ele>9.4</ele><time>2026-04-11T16:48:05.001Z</time></trkpt><trkpt lat="36.7236049312812" lon="14.746568572817274"><ele>9.8</ele><time>2026-04-11T16:48:06.001Z</time></trkpt><trkpt lat="36.7235827598304" lon="14.746454886994826"><ele>10.200000000000001</ele><time>2026-04-11T16:48:07.001Z</time></trkpt><trkpt lat="36.723559871935215" lon="14.746330275935263"><ele>10.600000000000001</ele><time>2026-04-11T16:48:08.001Z</time></trkpt><trkpt lat="36.72353512954773" lon="14.746199639514696"><ele>11.0</ele><time>2026-04-11T16:48:09.001Z</time></trkpt><trkpt lat="36.72350812609123" lon="14.746062946703134"><ele>9.25</ele><time>2026-04-11T16:48:10.001Z</time></trkpt><trkpt lat="36.72347848362771" lon="14.745912149537554"><ele>7.5</ele><time>2026-04-11T16:48:11.001Z</time></trkpt><trkpt lat="36.72344884380903" lon="14.745759369235893"><ele>5.75</ele><time>2026-04-11T16:48:12.001Z</time></trkpt><trkpt lat="36.7234198701988" lon="14.745608578140956"><ele>4.0</ele><time>2026-04-11T16:48:13.001Z</time></trkpt><trkpt lat="36.72339689750607" lon="14.745468370399989"><ele>4.0</ele><time>2026-04-11T16:48:14.001Z</time></trkpt><trkpt lat="36.723372005391695" lon="14.745338130724772"><ele>4.0</ele><time>2026-04-11T16:48:15.001Z</time></trkpt><trkpt lat="36.72334658328341" lon="14.745210997996843"><ele>4.0</ele><time>2026-04-11T16:48:16.001Z</time></trkpt><trkpt lat="36.72332194625442" lon="14.745079522668922"><ele>4.0</ele><time>2026-04-11T16:48:17.001Z</time></trkpt><trkpt lat="36.72329501801154" lon="14.7449410217238"><ele>4.0</ele><time>2026-04-11T16:48:18.001Z</time></trkpt><trkpt lat="36.723263285685825" lon="14.744795933396217"><ele>4.333333333333333</ele><time>2026-04-11T16:48:19.001Z</time></trkpt><trkpt lat="36.7232348490045" lon="14.744646803795776"><ele>4.666666666666666</ele><time>2026-04-11T16:48:20.001Z</time></trkpt><trkpt lat="36.72321333395613" lon="14.744516232583742"><ele>5.0</ele><time>2026-04-11T16:48:21.001Z</time></trkpt><trkpt lat="36.72319510581676" lon="14.744421078262658"><ele>5.333333333333333</ele><time>2026-04-11T16:48:22.001Z</time></trkpt><trkpt lat="36.72317582574133" lon="14.744339322193646"><ele>5.666666666666667</ele><time>2026-04-11T16:48:23.001Z</time></trkpt><trkpt lat="36.7231546087872" lon="14.744253147386022"><ele>6.0</ele><time>2026-04-11T16:48:24.001Z</time></trkpt><trkpt lat="36.72311707739385" lon="14.74411817163433"><ele>6.5</ele><time>2026-04-11T16:48:26.001Z</time></trkpt><trkpt lat="36.723103582872554" lon="14.743988050572723"><ele>7.0</ele><time>2026-04-11T16:48:28Z</time></trkpt><trkpt lat="36.723086542514984" lon="14.743900647032994"><ele>7.5</ele><time>2026-04-11T16:48:29Z</time></trkpt><trkpt lat="36.72307084400446" lon="14.743816368923177"><ele>8.0</ele><time>2026-04-11T16:48:30Z</time></trkpt><trkpt lat="36.723053442835564" lon="14.743723457221387"><ele>8.5</ele><time>2026-04-11T16:48:31Z</time></trkpt><trkpt lat="36.72303590680066" lon="14.743630509525198"><ele>9.0</ele><time>2026-04-11T16:48:32Z</time></trkpt><trkpt lat="36.72301504584146" lon="14.743523431173582"><ele>9.0</ele><time>2026-04-11T16:48:33Z</time></trkpt><trkpt lat="36.72299373515217" lon="14.743414044412983"><ele>9.0</ele><time>2026-04-11T16:48:34Z</time></trkpt><trkpt lat="36.72297274261702" lon="14.743306290717289"><ele>9.0</ele><time>2026-04-11T16:48:35Z</time></trkpt><trkpt lat="36.72294921122708" lon="14.743185505172757"><ele>9.0</ele><time>2026-04-11T16:48:36Z</time></trkpt><trkpt lat="36.72292844147051" lon="14.743077897561502"><ele>9.0</ele><time>2026-04-11T16:48:37Z</time></trkpt><trkpt lat="36.72290967041357" lon="14.742978128287591"><ele>9.0</ele><time>2026-04-11T16:48:38Z</time></trkpt><trkpt lat="36.72289115523085" lon="14.7428797189834"><ele>9.0</ele><time>2026-04-11T16:48:39Z</time></trkpt><trkpt lat="36.722870725103974" lon="14.742771131700756"><ele>9.0</ele><time>2026-04-11T16:48:40Z</time></trkpt><trkpt lat="36.72284778379975" lon="14.742649197289564"><ele>9.0</ele><time>2026-04-11T16:48:41Z</time></trkpt><trkpt lat="36.7228227175657" lon="14.742515968812597"><ele>9.0</ele><time>2026-04-11T16:48:42Z</time></trkpt><trkpt lat="36.722798855739484" lon="14.742389141800093"><ele>9.2</ele><time>2026-04-11T16:48:43Z</time></trkpt><trkpt lat="36.72277676561963" lon="14.742274461347124"><ele>9.4</ele><time>2026-04-11T16:48:44Z</time></trkpt><trkpt lat="36.722755856965385" lon="14.742167704220352"><ele>9.6</ele><time>2026-04-11T16:48:45Z</time></trkpt><trkpt lat="36.72272658403724" lon="14.742018240084645"><ele>9.8</ele><time>2026-04-11T16:48:46Z</time></trkpt><trkpt lat="36.72269673366251" lon="14.741865827596687"><ele>10.0</ele><time>2026-04-11T16:48:47Z</time></trkpt><trkpt lat="36.722675648463635" lon="14.741750608936892"><ele>9.333333333333334</ele><time>2026-04-11T16:48:48Z</time></trkpt><trkpt lat="36.72265491371084" lon="14.741637159669342"><ele>8.666666666666668</ele><time>2026-04-11T16:48:49Z</time></trkpt><trkpt lat="36.72263918684577" lon="14.741551110844796"><ele>8.0</ele><time>2026-04-11T16:48:50Z</time></trkpt><trkpt lat="36.722619642047405" lon="14.741444172350715"><ele>7.333333333333334</ele><time>2026-04-11T16:48:51Z</time></trkpt><trkpt lat="36.722601173857896" lon="14.74134312450178"><ele>6.666666666666667</ele><time>2026-04-11T16:48:52Z</time></trkpt><trkpt lat="36.72257813252993" lon="14.741221838090292"><ele>6.0</ele><time>2026-04-11T16:48:53Z</time></trkpt><trkpt lat="36.72255964791873" lon="14.741129925014523"><ele>6.333333333333333</ele><time>2026-04-11T16:48:54Z</time></trkpt><trkpt lat="36.72254021670013" lon="14.741033304940471"><ele>6.666666666666666</ele><time>2026-04-11T16:48:55Z</time></trkpt><trkpt lat="36.722486966491964" lon="14.740950527531755"><ele>7.0</ele><time>2026-04-11T16:48:56Z</time></trkpt><trkpt lat="36.722438862235386" lon="14.740894308090855"><ele>7.333333333333333</ele><time>2026-04-11T16:48:57Z</time></trkpt><trkpt lat="36.72238454937071" lon="14.740818136309196"><ele>7.666666666666666</ele><time>2026-04-11T16:48:58Z</time></trkpt><trkpt lat="36.722330561040245" lon="14.740746020200715"><ele>8.0</ele><time>2026-04-11T16:48:59Z</time></trkpt><trkpt lat="36.72226948203897" lon="14.740662414833542"><ele>7.999999999999999</ele><time>2026-04-11T16:49:00Z</time></trkpt><trkpt lat="36.722207318262925" lon="14.74057725909893"><ele>8.0</ele><time>2026-04-11T16:49:01Z</time></trkpt><trkpt lat="36.72214652708113" lon="14.740503344152955"><ele>8.0</ele><time>2026-04-11T16:49:02Z</time></trkpt><trkpt lat="36.72208509770896" lon="14.740439302072499"><ele>8.0</ele><time>2026-04-11T16:49:03Z</time></trkpt><trkpt lat="36.72201904644098" lon="14.740370917214705"><ele>7.999999999999999</ele><time>2026-04-11T16:49:04Z</time></trkpt><trkpt lat="36.72195039800155" lon="14.740292770967512"><ele>8.0</ele><time>2026-04-11T16:49:05Z</time></trkpt><trkpt lat="36.72188501231821" lon="14.74023485632041"><ele>6.5</ele><time>2026-04-11T16:49:06Z</time></trkpt><trkpt lat="36.72182468219092" lon="14.74018914632883"><ele>5.0</ele><time>2026-04-11T16:49:07Z</time></trkpt><trkpt lat="36.72144532464487" lon="14.740214481261674"><ele>5.0</ele><time>2026-04-11T16:49:08Z</time></trkpt><trkpt lat="36.72141004114943" lon="14.740128354045781"><ele>5.0</ele><time>2026-04-11T16:49:09Z</time></trkpt><trkpt lat="36.721374897244665" lon="14.740035429501667"><ele>5.0</ele><time>2026-04-11T16:49:10Z</time></trkpt><trkpt lat="36.72134019886798" lon="14.73994505973166"><ele>5.0</ele><time>2026-04-11T16:49:11Z</time></trkpt><trkpt lat="36.72130899746072" lon="14.73985897514334"><ele>5.0</ele><time>2026-04-11T16:49:12Z</time></trkpt><trkpt lat="36.72127827485399" lon="14.7397808416407"><ele>5.0</ele><time>2026-04-11T16:49:13Z</time></trkpt><trkpt lat="36.721244090832705" lon="14.739708612355624"><ele>5.0</ele><time>2026-04-11T16:49:14.001Z</time></trkpt><trkpt lat="36.72121238398703" lon="14.739625682807517"><ele>5.0</ele><time>2026-04-11T16:49:15.001Z</time></trkpt><trkpt lat="36.72117940009147" lon="14.739536841856228"><ele>5.0</ele><time>2026-04-11T16:49:16.001Z</time></trkpt><trkpt lat="36.72115528048545" lon="14.739463239263506"><ele>5.0</ele><time>2026-04-11T16:49:17.001Z</time></trkpt><trkpt lat="36.721118169588266" lon="14.739337255930955"><ele>5.0</ele><time>2026-04-11T16:49:19.001Z</time></trkpt><trkpt lat="36.721063446436126" lon="14.739215568199821"><ele>5.0</ele><time>2026-04-11T16:49:21.001Z</time></trkpt><trkpt lat="36.72103653692117" lon="14.739133362639853"><ele>5.142857142857142</ele><time>2026-04-11T16:49:22.001Z</time></trkpt><trkpt lat="36.72101111073244" lon="14.739044037324456"><ele>5.285714285714286</ele><time>2026-04-11T16:49:23.001Z</time></trkpt><trkpt lat="36.720983908533086" lon="14.73895582350321"><ele>5.428571428571429</ele><time>2026-04-11T16:49:24.001Z</time></trkpt><trkpt lat="36.72096217363803" lon="14.738880058001277"><ele>5.571428571428571</ele><time>2026-04-11T16:49:25.001Z</time></trkpt><trkpt lat="36.72093691053996" lon="14.738801004531094"><ele>5.714285714285714</ele><time>2026-04-11T16:49:26.001Z</time></trkpt><trkpt lat="36.7209139254009" lon="14.738721763646518"><ele>5.857142857142857</ele><time>2026-04-11T16:49:27.001Z</time></trkpt><trkpt lat="36.72089253948941" lon="14.738647209985562"><ele>6.0</ele><time>2026-04-11T16:49:28.001Z</time></trkpt><trkpt lat="36.72087131956839" lon="14.738512799435341"><ele>6.0</ele><time>2026-04-11T16:49:30.001Z</time></trkpt><trkpt lat="36.72083006347123" lon="14.73841495772167"><ele>6.0</ele><time>2026-04-11T16:49:32.001Z</time></trkpt><trkpt lat="36.72078276070847" lon="14.738343188442062"><ele>6.0</ele><time>2026-04-11T16:49:36.001Z</time></trkpt><trkpt lat="36.72071655146214" lon="14.73833359898146"><ele>6.0</ele><time>2026-04-11T16:49:41.001Z</time></trkpt></trkseg></trk></gpx>